<?xml version="1.0" encoding="UTF-8" standalone="no" ?>
<gpx xmlns="http://www.topografix.com/GPX/1/1" xmlns:xsi="http://www.w3.org/2001/XMLSchema-instance" xsi:schemaLocation="http://www.topografix.com/GPX/1/1 http://www.topografix.com/GPX/1/1/gpx.xsd" version="1.1" creator="VisuGPX - https://www.visugpx.com">
  <metadata>
    <name>Champagnat Cyclisme sur route</name>
  </metadata>
  <trk>
    <name><![CDATA[Champagnat Cyclisme sur route_1]]></name>
    <trkseg>
      <trkpt lat="46.48263" lon="5.3683">
        <ele>266.6</ele>
        <time>2022-08-25T12:16:42Z</time>
      </trkpt>
      <trkpt lat="46.48253" lon="5.36818">
        <ele>266.4</ele>
        <time>2022-08-25T12:16:43Z</time>
      </trkpt>
      <trkpt lat="46.48241" lon="5.36808">
        <ele>265</ele>
        <time>2022-08-25T12:16:44Z</time>
      </trkpt>
      <trkpt lat="46.4823" lon="5.36799">
        <ele>263.6</ele>
        <time>2022-08-25T12:16:45Z</time>
      </trkpt>
      <trkpt lat="46.48206" lon="5.3678">
        <ele>261.8</ele>
        <time>2022-08-25T12:16:47Z</time>
      </trkpt>
      <trkpt lat="46.48195" lon="5.36771">
        <ele>261.4</ele>
        <time>2022-08-25T12:16:48Z</time>
      </trkpt>
      <trkpt lat="46.48183" lon="5.36761">
        <ele>260.6</ele>
        <time>2022-08-25T12:16:49Z</time>
      </trkpt>
      <trkpt lat="46.4816" lon="5.36742">
        <ele>259.4</ele>
        <time>2022-08-25T12:16:51Z</time>
      </trkpt>
      <trkpt lat="46.48139" lon="5.36725">
        <ele>258.2</ele>
        <time>2022-08-25T12:16:53Z</time>
      </trkpt>
      <trkpt lat="46.48128" lon="5.36717">
        <ele>257</ele>
        <time>2022-08-25T12:16:54Z</time>
      </trkpt>
      <trkpt lat="46.48116" lon="5.36708">
        <ele>255.8</ele>
        <time>2022-08-25T12:16:56Z</time>
      </trkpt>
      <trkpt lat="46.48108" lon="5.36698">
        <ele>255.4</ele>
        <time>2022-08-25T12:16:57Z</time>
      </trkpt>
      <trkpt lat="46.48104" lon="5.36678">
        <ele>254.4</ele>
        <time>2022-08-25T12:16:59Z</time>
      </trkpt>
      <trkpt lat="46.48106" lon="5.36668">
        <ele>254.2</ele>
        <time>2022-08-25T12:17:00Z</time>
      </trkpt>
      <trkpt lat="46.48112" lon="5.3666">
        <ele>253</ele>
        <time>2022-08-25T12:17:01Z</time>
      </trkpt>
      <trkpt lat="46.4812" lon="5.36654">
        <ele>252.6</ele>
        <time>2022-08-25T12:17:02Z</time>
      </trkpt>
      <trkpt lat="46.48132" lon="5.3664">
        <ele>251</ele>
        <time>2022-08-25T12:17:04Z</time>
      </trkpt>
      <trkpt lat="46.48175" lon="5.36606">
        <ele>249.6</ele>
        <time>2022-08-25T12:17:09Z</time>
      </trkpt>
      <trkpt lat="46.48189" lon="5.36605">
        <ele>249.4</ele>
        <time>2022-08-25T12:17:10Z</time>
      </trkpt>
      <trkpt lat="46.48208" lon="5.366">
        <ele>249.2</ele>
        <time>2022-08-25T12:17:12Z</time>
      </trkpt>
      <trkpt lat="46.48216" lon="5.36595">
        <ele>249</ele>
        <time>2022-08-25T12:17:13Z</time>
      </trkpt>
      <trkpt lat="46.48221" lon="5.36585">
        <ele>249</ele>
        <time>2022-08-25T12:17:14Z</time>
      </trkpt>
      <trkpt lat="46.48224" lon="5.36573">
        <ele>248.8</ele>
        <time>2022-08-25T12:17:15Z</time>
      </trkpt>
      <trkpt lat="46.48227" lon="5.36561">
        <ele>248.6</ele>
        <time>2022-08-25T12:17:16Z</time>
      </trkpt>
      <trkpt lat="46.48239" lon="5.36544">
        <ele>248.2</ele>
        <time>2022-08-25T12:17:18Z</time>
      </trkpt>
      <trkpt lat="46.48254" lon="5.36528">
        <ele>247.8</ele>
        <time>2022-08-25T12:17:20Z</time>
      </trkpt>
      <trkpt lat="46.48284" lon="5.36497">
        <ele>247.2</ele>
        <time>2022-08-25T12:17:24Z</time>
      </trkpt>
      <trkpt lat="46.48314" lon="5.36465">
        <ele>246.8</ele>
        <time>2022-08-25T12:17:28Z</time>
      </trkpt>
      <trkpt lat="46.48344" lon="5.36432">
        <ele>245.4</ele>
        <time>2022-08-25T12:17:32Z</time>
      </trkpt>
      <trkpt lat="46.48352" lon="5.36423">
        <ele>245.2</ele>
        <time>2022-08-25T12:17:33Z</time>
      </trkpt>
      <trkpt lat="46.48384" lon="5.36388">
        <ele>244</ele>
        <time>2022-08-25T12:17:37Z</time>
      </trkpt>
      <trkpt lat="46.48409" lon="5.36365">
        <ele>243.2</ele>
        <time>2022-08-25T12:17:40Z</time>
      </trkpt>
      <trkpt lat="46.48418" lon="5.36359">
        <ele>242.8</ele>
        <time>2022-08-25T12:17:41Z</time>
      </trkpt>
      <trkpt lat="46.48437" lon="5.36352">
        <ele>242.4</ele>
        <time>2022-08-25T12:17:43Z</time>
      </trkpt>
      <trkpt lat="46.48448" lon="5.3635">
        <ele>242.2</ele>
        <time>2022-08-25T12:17:44Z</time>
      </trkpt>
      <trkpt lat="46.48511" lon="5.36339">
        <ele>241.8</ele>
        <time>2022-08-25T12:17:51Z</time>
      </trkpt>
      <trkpt lat="46.4852" lon="5.36337">
        <ele>242</ele>
        <time>2022-08-25T12:17:52Z</time>
      </trkpt>
      <trkpt lat="46.48543" lon="5.36333">
        <ele>241.6</ele>
        <time>2022-08-25T12:17:55Z</time>
      </trkpt>
      <trkpt lat="46.48583" lon="5.36327">
        <ele>241.6</ele>
        <time>2022-08-25T12:17:59Z</time>
      </trkpt>
      <trkpt lat="46.48612" lon="5.36322">
        <ele>241.2</ele>
        <time>2022-08-25T12:18:02Z</time>
      </trkpt>
      <trkpt lat="46.48621" lon="5.36317">
        <ele>241</ele>
        <time>2022-08-25T12:18:03Z</time>
      </trkpt>
      <trkpt lat="46.48629" lon="5.36309">
        <ele>240.8</ele>
        <time>2022-08-25T12:18:04Z</time>
      </trkpt>
      <trkpt lat="46.48635" lon="5.36297">
        <ele>240.4</ele>
        <time>2022-08-25T12:18:05Z</time>
      </trkpt>
      <trkpt lat="46.48637" lon="5.36282">
        <ele>240.4</ele>
        <time>2022-08-25T12:18:06Z</time>
      </trkpt>
      <trkpt lat="46.48641" lon="5.36253">
        <ele>239.6</ele>
        <time>2022-08-25T12:18:08Z</time>
      </trkpt>
      <trkpt lat="46.48644" lon="5.36223">
        <ele>238.6</ele>
        <time>2022-08-25T12:18:10Z</time>
      </trkpt>
      <trkpt lat="46.48646" lon="5.3618">
        <ele>237.4</ele>
        <time>2022-08-25T12:18:13Z</time>
      </trkpt>
      <trkpt lat="46.4865" lon="5.36138">
        <ele>236</ele>
        <time>2022-08-25T12:18:16Z</time>
      </trkpt>
      <trkpt lat="46.48666" lon="5.36062">
        <ele>235.2</ele>
        <time>2022-08-25T12:18:22Z</time>
      </trkpt>
      <trkpt lat="46.48674" lon="5.3602">
        <ele>235.2</ele>
        <time>2022-08-25T12:18:26Z</time>
      </trkpt>
      <trkpt lat="46.48676" lon="5.3601">
        <ele>235.2</ele>
        <time>2022-08-25T12:18:27Z</time>
      </trkpt>
      <trkpt lat="46.48681" lon="5.35965">
        <ele>236</ele>
        <time>2022-08-25T12:18:32Z</time>
      </trkpt>
      <trkpt lat="46.48683" lon="5.35955">
        <ele>236.2</ele>
        <time>2022-08-25T12:18:33Z</time>
      </trkpt>
      <trkpt lat="46.4869" lon="5.35914">
        <ele>236.4</ele>
        <time>2022-08-25T12:18:37Z</time>
      </trkpt>
      <trkpt lat="46.48712" lon="5.35855">
        <ele>236.2</ele>
        <time>2022-08-25T12:18:43Z</time>
      </trkpt>
      <trkpt lat="46.48742" lon="5.35787">
        <ele>235.2</ele>
        <time>2022-08-25T12:18:50Z</time>
      </trkpt>
      <trkpt lat="46.48746" lon="5.35777">
        <ele>234.8</ele>
        <time>2022-08-25T12:18:51Z</time>
      </trkpt>
      <trkpt lat="46.48762" lon="5.35738">
        <ele>233.8</ele>
        <time>2022-08-25T12:18:55Z</time>
      </trkpt>
      <trkpt lat="46.48775" lon="5.3571">
        <ele>233.4</ele>
        <time>2022-08-25T12:18:58Z</time>
      </trkpt>
      <trkpt lat="46.48803" lon="5.35649">
        <ele>233.8</ele>
        <time>2022-08-25T12:19:05Z</time>
      </trkpt>
      <trkpt lat="46.48833" lon="5.35581">
        <ele>234.2</ele>
        <time>2022-08-25T12:19:13Z</time>
      </trkpt>
      <trkpt lat="46.48862" lon="5.35516">
        <ele>234.4</ele>
        <time>2022-08-25T12:19:21Z</time>
      </trkpt>
      <trkpt lat="46.48879" lon="5.35477">
        <ele>234.4</ele>
        <time>2022-08-25T12:19:26Z</time>
      </trkpt>
      <trkpt lat="46.48903" lon="5.35422">
        <ele>234.2</ele>
        <time>2022-08-25T12:19:32Z</time>
      </trkpt>
      <trkpt lat="46.48935" lon="5.3535">
        <ele>233.8</ele>
        <time>2022-08-25T12:19:40Z</time>
      </trkpt>
      <trkpt lat="46.48947" lon="5.35323">
        <ele>233.6</ele>
        <time>2022-08-25T12:19:43Z</time>
      </trkpt>
      <trkpt lat="46.48976" lon="5.35257">
        <ele>233.4</ele>
        <time>2022-08-25T12:19:51Z</time>
      </trkpt>
      <trkpt lat="46.49" lon="5.35203">
        <ele>233.6</ele>
        <time>2022-08-25T12:19:58Z</time>
      </trkpt>
      <trkpt lat="46.4902" lon="5.35156">
        <ele>234.6</ele>
        <time>2022-08-25T12:20:05Z</time>
      </trkpt>
      <trkpt lat="46.49023" lon="5.35149">
        <ele>234.8</ele>
        <time>2022-08-25T12:20:06Z</time>
      </trkpt>
      <trkpt lat="46.49041" lon="5.35094">
        <ele>235</ele>
        <time>2022-08-25T12:20:13Z</time>
      </trkpt>
      <trkpt lat="46.49053" lon="5.35036">
        <ele>234.8</ele>
        <time>2022-08-25T12:20:19Z</time>
      </trkpt>
      <trkpt lat="46.49059" lon="5.35005">
        <ele>234.6</ele>
        <time>2022-08-25T12:20:22Z</time>
      </trkpt>
      <trkpt lat="46.49062" lon="5.34983">
        <ele>234.4</ele>
        <time>2022-08-25T12:20:24Z</time>
      </trkpt>
      <trkpt lat="46.49076" lon="5.34914">
        <ele>233.4</ele>
        <time>2022-08-25T12:20:30Z</time>
      </trkpt>
      <trkpt lat="46.4908" lon="5.34891">
        <ele>232.8</ele>
        <time>2022-08-25T12:20:32Z</time>
      </trkpt>
      <trkpt lat="46.49092" lon="5.34833">
        <ele>232</ele>
        <time>2022-08-25T12:20:37Z</time>
      </trkpt>
      <trkpt lat="46.49097" lon="5.3481">
        <ele>231.6</ele>
        <time>2022-08-25T12:20:39Z</time>
      </trkpt>
      <trkpt lat="46.49108" lon="5.34751">
        <ele>230.8</ele>
        <time>2022-08-25T12:20:44Z</time>
      </trkpt>
      <trkpt lat="46.49112" lon="5.34727">
        <ele>230.2</ele>
        <time>2022-08-25T12:20:46Z</time>
      </trkpt>
      <trkpt lat="46.49114" lon="5.34715">
        <ele>230</ele>
        <time>2022-08-25T12:20:47Z</time>
      </trkpt>
      <trkpt lat="46.49131" lon="5.3463">
        <ele>229.4</ele>
        <time>2022-08-25T12:20:55Z</time>
      </trkpt>
      <trkpt lat="46.49143" lon="5.34564">
        <ele>229.4</ele>
        <time>2022-08-25T12:21:01Z</time>
      </trkpt>
      <trkpt lat="46.49156" lon="5.34499">
        <ele>230</ele>
        <time>2022-08-25T12:21:07Z</time>
      </trkpt>
      <trkpt lat="46.49168" lon="5.34443">
        <ele>229.2</ele>
        <time>2022-08-25T12:21:12Z</time>
      </trkpt>
      <trkpt lat="46.49173" lon="5.34411">
        <ele>229</ele>
        <time>2022-08-25T12:21:15Z</time>
      </trkpt>
      <trkpt lat="46.49182" lon="5.34362">
        <ele>229</ele>
        <time>2022-08-25T12:21:20Z</time>
      </trkpt>
      <trkpt lat="46.49194" lon="5.34294">
        <ele>229.6</ele>
        <time>2022-08-25T12:21:27Z</time>
      </trkpt>
      <trkpt lat="46.49205" lon="5.34238">
        <ele>229.8</ele>
        <time>2022-08-25T12:21:32Z</time>
      </trkpt>
      <trkpt lat="46.49209" lon="5.34215">
        <ele>229.4</ele>
        <time>2022-08-25T12:21:34Z</time>
      </trkpt>
      <trkpt lat="46.49224" lon="5.34139">
        <ele>228.6</ele>
        <time>2022-08-25T12:21:41Z</time>
      </trkpt>
      <trkpt lat="46.49228" lon="5.3412">
        <ele>228.6</ele>
        <time>2022-08-25T12:21:43Z</time>
      </trkpt>
      <trkpt lat="46.49238" lon="5.3407">
        <ele>229.6</ele>
        <time>2022-08-25T12:21:49Z</time>
      </trkpt>
      <trkpt lat="46.49242" lon="5.34046">
        <ele>230.6</ele>
        <time>2022-08-25T12:21:52Z</time>
      </trkpt>
      <trkpt lat="46.49247" lon="5.34017">
        <ele>231.2</ele>
        <time>2022-08-25T12:21:56Z</time>
      </trkpt>
      <trkpt lat="46.49259" lon="5.33962">
        <ele>231.4</ele>
        <time>2022-08-25T12:22:02Z</time>
      </trkpt>
      <trkpt lat="46.49275" lon="5.3388">
        <ele>231.4</ele>
        <time>2022-08-25T12:22:11Z</time>
      </trkpt>
      <trkpt lat="46.49291" lon="5.338">
        <ele>231.4</ele>
        <time>2022-08-25T12:22:20Z</time>
      </trkpt>
      <trkpt lat="46.49306" lon="5.33717">
        <ele>231.2</ele>
        <time>2022-08-25T12:22:29Z</time>
      </trkpt>
      <trkpt lat="46.49308" lon="5.33635">
        <ele>230.6</ele>
        <time>2022-08-25T12:22:37Z</time>
      </trkpt>
      <trkpt lat="46.49311" lon="5.33614">
        <ele>230.2</ele>
        <time>2022-08-25T12:22:39Z</time>
      </trkpt>
      <trkpt lat="46.49316" lon="5.33585">
        <ele>230</ele>
        <time>2022-08-25T12:22:42Z</time>
      </trkpt>
      <trkpt lat="46.49322" lon="5.33557">
        <ele>229.8</ele>
        <time>2022-08-25T12:22:45Z</time>
      </trkpt>
      <trkpt lat="46.49322" lon="5.33537">
        <ele>229.6</ele>
        <time>2022-08-25T12:22:47Z</time>
      </trkpt>
      <trkpt lat="46.49317" lon="5.33488">
        <ele>229.6</ele>
        <time>2022-08-25T12:22:52Z</time>
      </trkpt>
      <trkpt lat="46.49313" lon="5.33462">
        <ele>229.4</ele>
        <time>2022-08-25T12:22:54Z</time>
      </trkpt>
      <trkpt lat="46.49297" lon="5.33379">
        <ele>229.2</ele>
        <time>2022-08-25T12:23:03Z</time>
      </trkpt>
      <trkpt lat="46.49281" lon="5.33301">
        <ele>228.6</ele>
        <time>2022-08-25T12:23:10Z</time>
      </trkpt>
      <trkpt lat="46.49279" lon="5.3329">
        <ele>228.4</ele>
        <time>2022-08-25T12:23:11Z</time>
      </trkpt>
      <trkpt lat="46.49271" lon="5.33247">
        <ele>227.2</ele>
        <time>2022-08-25T12:23:15Z</time>
      </trkpt>
      <trkpt lat="46.49261" lon="5.33215">
        <ele>226.6</ele>
        <time>2022-08-25T12:23:18Z</time>
      </trkpt>
      <trkpt lat="46.49255" lon="5.33203">
        <ele>226.6</ele>
        <time>2022-08-25T12:23:19Z</time>
      </trkpt>
      <trkpt lat="46.49244" lon="5.33189">
        <ele>226.2</ele>
        <time>2022-08-25T12:23:21Z</time>
      </trkpt>
      <trkpt lat="46.49237" lon="5.33183">
        <ele>226.2</ele>
        <time>2022-08-25T12:23:22Z</time>
      </trkpt>
      <trkpt lat="46.49214" lon="5.33168">
        <ele>226</ele>
        <time>2022-08-25T12:23:25Z</time>
      </trkpt>
      <trkpt lat="46.49177" lon="5.33135">
        <ele>225.2</ele>
        <time>2022-08-25T12:23:30Z</time>
      </trkpt>
      <trkpt lat="46.49164" lon="5.33119">
        <ele>225</ele>
        <time>2022-08-25T12:23:32Z</time>
      </trkpt>
      <trkpt lat="46.49154" lon="5.331">
        <ele>224.8</ele>
        <time>2022-08-25T12:23:34Z</time>
      </trkpt>
      <trkpt lat="46.49141" lon="5.3306">
        <ele>224.6</ele>
        <time>2022-08-25T12:23:38Z</time>
      </trkpt>
      <trkpt lat="46.49139" lon="5.3305">
        <ele>224.6</ele>
        <time>2022-08-25T12:23:39Z</time>
      </trkpt>
      <trkpt lat="46.49132" lon="5.33008">
        <ele>224.6</ele>
        <time>2022-08-25T12:23:43Z</time>
      </trkpt>
      <trkpt lat="46.49125" lon="5.32926">
        <ele>224</ele>
        <time>2022-08-25T12:23:50Z</time>
      </trkpt>
      <trkpt lat="46.49127" lon="5.32891">
        <ele>223.4</ele>
        <time>2022-08-25T12:23:53Z</time>
      </trkpt>
      <trkpt lat="46.49132" lon="5.3287">
        <ele>223.2</ele>
        <time>2022-08-25T12:23:55Z</time>
      </trkpt>
      <trkpt lat="46.49136" lon="5.3286">
        <ele>223.2</ele>
        <time>2022-08-25T12:23:56Z</time>
      </trkpt>
      <trkpt lat="46.49143" lon="5.32828">
        <ele>222.8</ele>
        <time>2022-08-25T12:23:59Z</time>
      </trkpt>
      <trkpt lat="46.49144" lon="5.32817">
        <ele>222.6</ele>
        <time>2022-08-25T12:24:00Z</time>
      </trkpt>
      <trkpt lat="46.49145" lon="5.32806">
        <ele>222.8</ele>
        <time>2022-08-25T12:24:01Z</time>
      </trkpt>
      <trkpt lat="46.49141" lon="5.32776">
        <ele>222.6</ele>
        <time>2022-08-25T12:24:04Z</time>
      </trkpt>
      <trkpt lat="46.49134" lon="5.32737">
        <ele>222.8</ele>
        <time>2022-08-25T12:24:08Z</time>
      </trkpt>
      <trkpt lat="46.49127" lon="5.32718">
        <ele>222.8</ele>
        <time>2022-08-25T12:24:10Z</time>
      </trkpt>
      <trkpt lat="46.49117" lon="5.32703">
        <ele>222.8</ele>
        <time>2022-08-25T12:24:12Z</time>
      </trkpt>
      <trkpt lat="46.4911" lon="5.32697">
        <ele>222.8</ele>
        <time>2022-08-25T12:24:13Z</time>
      </trkpt>
      <trkpt lat="46.49102" lon="5.32695">
        <ele>222.8</ele>
        <time>2022-08-25T12:24:14Z</time>
      </trkpt>
      <trkpt lat="46.49087" lon="5.32697">
        <ele>222.6</ele>
        <time>2022-08-25T12:24:16Z</time>
      </trkpt>
      <trkpt lat="46.49061" lon="5.32702">
        <ele>222</ele>
        <time>2022-08-25T12:24:19Z</time>
      </trkpt>
      <trkpt lat="46.49034" lon="5.32708">
        <ele>221.2</ele>
        <time>2022-08-25T12:24:22Z</time>
      </trkpt>
      <trkpt lat="46.49025" lon="5.32709">
        <ele>220.8</ele>
        <time>2022-08-25T12:24:23Z</time>
      </trkpt>
      <trkpt lat="46.49006" lon="5.32711">
        <ele>219.8</ele>
        <time>2022-08-25T12:24:25Z</time>
      </trkpt>
      <trkpt lat="46.48986" lon="5.32712">
        <ele>218.8</ele>
        <time>2022-08-25T12:24:27Z</time>
      </trkpt>
      <trkpt lat="46.48976" lon="5.3271">
        <ele>218.6</ele>
        <time>2022-08-25T12:24:28Z</time>
      </trkpt>
      <trkpt lat="46.48956" lon="5.32702">
        <ele>217.6</ele>
        <time>2022-08-25T12:24:30Z</time>
      </trkpt>
      <trkpt lat="46.48945" lon="5.32692">
        <ele>217.2</ele>
        <time>2022-08-25T12:24:31Z</time>
      </trkpt>
      <trkpt lat="46.48939" lon="5.32684">
        <ele>216.8</ele>
        <time>2022-08-25T12:24:32Z</time>
      </trkpt>
      <trkpt lat="46.4893" lon="5.32671">
        <ele>216.4</ele>
        <time>2022-08-25T12:24:33Z</time>
      </trkpt>
      <trkpt lat="46.48924" lon="5.32661">
        <ele>215.6</ele>
        <time>2022-08-25T12:24:34Z</time>
      </trkpt>
      <trkpt lat="46.48916" lon="5.32632">
        <ele>214.6</ele>
        <time>2022-08-25T12:24:36Z</time>
      </trkpt>
      <trkpt lat="46.48917" lon="5.32617">
        <ele>214</ele>
        <time>2022-08-25T12:24:37Z</time>
      </trkpt>
      <trkpt lat="46.48921" lon="5.32602">
        <ele>213.8</ele>
        <time>2022-08-25T12:24:38Z</time>
      </trkpt>
      <trkpt lat="46.48928" lon="5.32589">
        <ele>212.8</ele>
        <time>2022-08-25T12:24:39Z</time>
      </trkpt>
      <trkpt lat="46.48944" lon="5.32564">
        <ele>211.2</ele>
        <time>2022-08-25T12:24:41Z</time>
      </trkpt>
      <trkpt lat="46.48952" lon="5.32532">
        <ele>210</ele>
        <time>2022-08-25T12:24:43Z</time>
      </trkpt>
      <trkpt lat="46.48948" lon="5.325">
        <ele>209.2</ele>
        <time>2022-08-25T12:24:45Z</time>
      </trkpt>
      <trkpt lat="46.48944" lon="5.32484">
        <ele>209</ele>
        <time>2022-08-25T12:24:46Z</time>
      </trkpt>
      <trkpt lat="46.48928" lon="5.3243">
        <ele>207.8</ele>
        <time>2022-08-25T12:24:50Z</time>
      </trkpt>
      <trkpt lat="46.48925" lon="5.32418">
        <ele>207.6</ele>
        <time>2022-08-25T12:24:51Z</time>
      </trkpt>
      <trkpt lat="46.48908" lon="5.32357">
        <ele>207.2</ele>
        <time>2022-08-25T12:24:57Z</time>
      </trkpt>
      <trkpt lat="46.48904" lon="5.32347">
        <ele>207.2</ele>
        <time>2022-08-25T12:24:58Z</time>
      </trkpt>
      <trkpt lat="46.48886" lon="5.32315">
        <ele>207.4</ele>
        <time>2022-08-25T12:25:02Z</time>
      </trkpt>
      <trkpt lat="46.48881" lon="5.32307">
        <ele>207.4</ele>
        <time>2022-08-25T12:25:03Z</time>
      </trkpt>
      <trkpt lat="46.48868" lon="5.32288">
        <ele>208.6</ele>
        <time>2022-08-25T12:25:07Z</time>
      </trkpt>
      <trkpt lat="46.48862" lon="5.32279">
        <ele>209.4</ele>
        <time>2022-08-25T12:25:09Z</time>
      </trkpt>
      <trkpt lat="46.48852" lon="5.32263">
        <ele>210.2</ele>
        <time>2022-08-25T12:25:13Z</time>
      </trkpt>
      <trkpt lat="46.4885" lon="5.32259">
        <ele>210.6</ele>
        <time>2022-08-25T12:25:14Z</time>
      </trkpt>
      <trkpt lat="46.48842" lon="5.32245">
        <ele>212</ele>
        <time>2022-08-25T12:25:17Z</time>
      </trkpt>
      <trkpt lat="46.48835" lon="5.32226">
        <ele>213</ele>
        <time>2022-08-25T12:25:20Z</time>
      </trkpt>
      <trkpt lat="46.48827" lon="5.32182">
        <ele>213.4</ele>
        <time>2022-08-25T12:25:25Z</time>
      </trkpt>
      <trkpt lat="46.48825" lon="5.32151">
        <ele>213.2</ele>
        <time>2022-08-25T12:25:28Z</time>
      </trkpt>
      <trkpt lat="46.48826" lon="5.32132">
        <ele>213</ele>
        <time>2022-08-25T12:25:30Z</time>
      </trkpt>
      <trkpt lat="46.48836" lon="5.32079">
        <ele>212.4</ele>
        <time>2022-08-25T12:25:35Z</time>
      </trkpt>
      <trkpt lat="46.4884" lon="5.32058">
        <ele>211.8</ele>
        <time>2022-08-25T12:25:37Z</time>
      </trkpt>
      <trkpt lat="46.48849" lon="5.31992">
        <ele>211</ele>
        <time>2022-08-25T12:25:43Z</time>
      </trkpt>
      <trkpt lat="46.48849" lon="5.3197">
        <ele>210.8</ele>
        <time>2022-08-25T12:25:45Z</time>
      </trkpt>
      <trkpt lat="46.48846" lon="5.31924">
        <ele>210.4</ele>
        <time>2022-08-25T12:25:49Z</time>
      </trkpt>
      <trkpt lat="46.48842" lon="5.31892">
        <ele>210.2</ele>
        <time>2022-08-25T12:25:51Z</time>
      </trkpt>
      <trkpt lat="46.48839" lon="5.31881">
        <ele>210</ele>
        <time>2022-08-25T12:25:53Z</time>
      </trkpt>
      <trkpt lat="46.48834" lon="5.31867">
        <ele>209.6</ele>
        <time>2022-08-25T12:25:54Z</time>
      </trkpt>
      <trkpt lat="46.48828" lon="5.31859">
        <ele>209.6</ele>
        <time>2022-08-25T12:25:55Z</time>
      </trkpt>
      <trkpt lat="46.48815" lon="5.31852">
        <ele>209.2</ele>
        <time>2022-08-25T12:25:57Z</time>
      </trkpt>
      <trkpt lat="46.48798" lon="5.31844">
        <ele>208.8</ele>
        <time>2022-08-25T12:25:59Z</time>
      </trkpt>
      <trkpt lat="46.48787" lon="5.31831">
        <ele>208.6</ele>
        <time>2022-08-25T12:26:01Z</time>
      </trkpt>
      <trkpt lat="46.48782" lon="5.31811">
        <ele>208.6</ele>
        <time>2022-08-25T12:26:03Z</time>
      </trkpt>
      <trkpt lat="46.48779" lon="5.31747">
        <ele>208.6</ele>
        <time>2022-08-25T12:26:09Z</time>
      </trkpt>
      <trkpt lat="46.48778" lon="5.31736">
        <ele>208.6</ele>
        <time>2022-08-25T12:26:10Z</time>
      </trkpt>
      <trkpt lat="46.48774" lon="5.31718">
        <ele>208.6</ele>
        <time>2022-08-25T12:26:12Z</time>
      </trkpt>
      <trkpt lat="46.48771" lon="5.31711">
        <ele>208.6</ele>
        <time>2022-08-25T12:26:13Z</time>
      </trkpt>
      <trkpt lat="46.48767" lon="5.31704">
        <ele>208.8</ele>
        <time>2022-08-25T12:26:14Z</time>
      </trkpt>
      <trkpt lat="46.48752" lon="5.31686">
        <ele>209.4</ele>
        <time>2022-08-25T12:26:17Z</time>
      </trkpt>
      <trkpt lat="46.48736" lon="5.31668">
        <ele>209.8</ele>
        <time>2022-08-25T12:26:20Z</time>
      </trkpt>
      <trkpt lat="46.48717" lon="5.31646">
        <ele>210</ele>
        <time>2022-08-25T12:26:24Z</time>
      </trkpt>
      <trkpt lat="46.48707" lon="5.31634">
        <ele>210.2</ele>
        <time>2022-08-25T12:26:26Z</time>
      </trkpt>
      <trkpt lat="46.48689" lon="5.3161">
        <ele>210.6</ele>
        <time>2022-08-25T12:26:30Z</time>
      </trkpt>
      <trkpt lat="46.48683" lon="5.31603">
        <ele>210.8</ele>
        <time>2022-08-25T12:26:31Z</time>
      </trkpt>
      <trkpt lat="46.48645" lon="5.31558">
        <ele>210.8</ele>
        <time>2022-08-25T12:26:38Z</time>
      </trkpt>
      <trkpt lat="46.48637" lon="5.31547">
        <ele>211</ele>
        <time>2022-08-25T12:26:40Z</time>
      </trkpt>
      <trkpt lat="46.48621" lon="5.31523">
        <ele>210.8</ele>
        <time>2022-08-25T12:26:43Z</time>
      </trkpt>
      <trkpt lat="46.48608" lon="5.3149">
        <ele>210.8</ele>
        <time>2022-08-25T12:26:47Z</time>
      </trkpt>
      <trkpt lat="46.48607" lon="5.31476">
        <ele>210.8</ele>
        <time>2022-08-25T12:26:48Z</time>
      </trkpt>
      <trkpt lat="46.48607" lon="5.31453">
        <ele>210.6</ele>
        <time>2022-08-25T12:26:50Z</time>
      </trkpt>
      <trkpt lat="46.48606" lon="5.31434">
        <ele>210.4</ele>
        <time>2022-08-25T12:26:52Z</time>
      </trkpt>
      <trkpt lat="46.48601" lon="5.31414">
        <ele>210.2</ele>
        <time>2022-08-25T12:26:54Z</time>
      </trkpt>
      <trkpt lat="46.48594" lon="5.31403">
        <ele>210.2</ele>
        <time>2022-08-25T12:26:57Z</time>
      </trkpt>
      <trkpt lat="46.48585" lon="5.31393">
        <ele>210.2</ele>
        <time>2022-08-25T12:26:59Z</time>
      </trkpt>
      <trkpt lat="46.48564" lon="5.31366">
        <ele>212</ele>
        <time>2022-08-25T12:27:05Z</time>
      </trkpt>
      <trkpt lat="46.4856" lon="5.31356">
        <ele>212.6</ele>
        <time>2022-08-25T12:27:07Z</time>
      </trkpt>
      <trkpt lat="46.48558" lon="5.31344">
        <ele>213</ele>
        <time>2022-08-25T12:27:09Z</time>
      </trkpt>
      <trkpt lat="46.48558" lon="5.31339">
        <ele>213</ele>
        <time>2022-08-25T12:27:10Z</time>
      </trkpt>
      <trkpt lat="46.48557" lon="5.31315">
        <ele>214.2</ele>
        <time>2022-08-25T12:27:14Z</time>
      </trkpt>
      <trkpt lat="46.48556" lon="5.31302">
        <ele>214.4</ele>
        <time>2022-08-25T12:27:16Z</time>
      </trkpt>
      <trkpt lat="46.48553" lon="5.31259">
        <ele>215.2</ele>
        <time>2022-08-25T12:27:22Z</time>
      </trkpt>
      <trkpt lat="46.48554" lon="5.31251">
        <ele>215.2</ele>
        <time>2022-08-25T12:27:23Z</time>
      </trkpt>
      <trkpt lat="46.48555" lon="5.31244">
        <ele>215.4</ele>
        <time>2022-08-25T12:27:24Z</time>
      </trkpt>
      <trkpt lat="46.48564" lon="5.31218">
        <ele>215.8</ele>
        <time>2022-08-25T12:27:28Z</time>
      </trkpt>
      <trkpt lat="46.48573" lon="5.312">
        <ele>216.4</ele>
        <time>2022-08-25T12:27:31Z</time>
      </trkpt>
      <trkpt lat="46.48597" lon="5.31151">
        <ele>217.4</ele>
        <time>2022-08-25T12:27:39Z</time>
      </trkpt>
      <trkpt lat="46.48614" lon="5.31116">
        <ele>218</ele>
        <time>2022-08-25T12:27:45Z</time>
      </trkpt>
      <trkpt lat="46.48625" lon="5.31092">
        <ele>218.6</ele>
        <time>2022-08-25T12:27:49Z</time>
      </trkpt>
      <trkpt lat="46.4863" lon="5.3108">
        <ele>219.2</ele>
        <time>2022-08-25T12:27:51Z</time>
      </trkpt>
      <trkpt lat="46.48636" lon="5.31069">
        <ele>219.6</ele>
        <time>2022-08-25T12:27:53Z</time>
      </trkpt>
      <trkpt lat="46.48655" lon="5.3103">
        <ele>220.6</ele>
        <time>2022-08-25T12:28:00Z</time>
      </trkpt>
      <trkpt lat="46.48678" lon="5.30982">
        <ele>221.4</ele>
        <time>2022-08-25T12:28:08Z</time>
      </trkpt>
      <trkpt lat="46.48699" lon="5.30939">
        <ele>221.6</ele>
        <time>2022-08-25T12:28:14Z</time>
      </trkpt>
      <trkpt lat="46.48703" lon="5.30932">
        <ele>221.6</ele>
        <time>2022-08-25T12:28:15Z</time>
      </trkpt>
      <trkpt lat="46.48719" lon="5.30909">
        <ele>221.4</ele>
        <time>2022-08-25T12:28:18Z</time>
      </trkpt>
      <trkpt lat="46.48723" lon="5.30887">
        <ele>220.6</ele>
        <time>2022-08-25T12:28:20Z</time>
      </trkpt>
      <trkpt lat="46.48718" lon="5.30865">
        <ele>220</ele>
        <time>2022-08-25T12:28:22Z</time>
      </trkpt>
      <trkpt lat="46.48704" lon="5.30846">
        <ele>219.6</ele>
        <time>2022-08-25T12:28:24Z</time>
      </trkpt>
      <trkpt lat="46.48696" lon="5.30841">
        <ele>219.4</ele>
        <time>2022-08-25T12:28:25Z</time>
      </trkpt>
      <trkpt lat="46.4867" lon="5.30825">
        <ele>218.6</ele>
        <time>2022-08-25T12:28:29Z</time>
      </trkpt>
      <trkpt lat="46.48662" lon="5.30819">
        <ele>218.6</ele>
        <time>2022-08-25T12:28:30Z</time>
      </trkpt>
      <trkpt lat="46.48647" lon="5.30809">
        <ele>218.4</ele>
        <time>2022-08-25T12:28:32Z</time>
      </trkpt>
      <trkpt lat="46.48596" lon="5.30773">
        <ele>217.8</ele>
        <time>2022-08-25T12:28:39Z</time>
      </trkpt>
      <trkpt lat="46.48563" lon="5.30739">
        <ele>217.8</ele>
        <time>2022-08-25T12:28:45Z</time>
      </trkpt>
      <trkpt lat="46.4855" lon="5.30711">
        <ele>218.4</ele>
        <time>2022-08-25T12:28:49Z</time>
      </trkpt>
      <trkpt lat="46.48549" lon="5.30703">
        <ele>218.6</ele>
        <time>2022-08-25T12:28:50Z</time>
      </trkpt>
      <trkpt lat="46.48545" lon="5.30682">
        <ele>219</ele>
        <time>2022-08-25T12:28:53Z</time>
      </trkpt>
      <trkpt lat="46.48545" lon="5.30675">
        <ele>219.2</ele>
        <time>2022-08-25T12:28:54Z</time>
      </trkpt>
      <trkpt lat="46.48546" lon="5.30654">
        <ele>219.6</ele>
        <time>2022-08-25T12:28:57Z</time>
      </trkpt>
      <trkpt lat="46.48548" lon="5.3064">
        <ele>220</ele>
        <time>2022-08-25T12:28:59Z</time>
      </trkpt>
      <trkpt lat="46.48548" lon="5.30633">
        <ele>220</ele>
        <time>2022-08-25T12:29:00Z</time>
      </trkpt>
      <trkpt lat="46.48549" lon="5.3062">
        <ele>220.8</ele>
        <time>2022-08-25T12:29:02Z</time>
      </trkpt>
      <trkpt lat="46.48551" lon="5.30607">
        <ele>221.4</ele>
        <time>2022-08-25T12:29:04Z</time>
      </trkpt>
      <trkpt lat="46.48552" lon="5.30592">
        <ele>221.8</ele>
        <time>2022-08-25T12:29:06Z</time>
      </trkpt>
      <trkpt lat="46.48555" lon="5.30569">
        <ele>222.4</ele>
        <time>2022-08-25T12:29:10Z</time>
      </trkpt>
      <trkpt lat="46.48556" lon="5.30562">
        <ele>222.8</ele>
        <time>2022-08-25T12:29:11Z</time>
      </trkpt>
      <trkpt lat="46.48557" lon="5.30555">
        <ele>223</ele>
        <time>2022-08-25T12:29:12Z</time>
      </trkpt>
      <trkpt lat="46.48561" lon="5.30527">
        <ele>224</ele>
        <time>2022-08-25T12:29:16Z</time>
      </trkpt>
      <trkpt lat="46.48561" lon="5.3052">
        <ele>224</ele>
        <time>2022-08-25T12:29:17Z</time>
      </trkpt>
      <trkpt lat="46.48561" lon="5.30507">
        <ele>224.2</ele>
        <time>2022-08-25T12:29:19Z</time>
      </trkpt>
      <trkpt lat="46.48559" lon="5.30502">
        <ele>224.2</ele>
        <time>2022-08-25T12:29:20Z</time>
      </trkpt>
      <trkpt lat="46.48552" lon="5.30498">
        <ele>224.4</ele>
        <time>2022-08-25T12:29:22Z</time>
      </trkpt>
      <trkpt lat="46.48547" lon="5.305">
        <ele>224.4</ele>
        <time>2022-08-25T12:29:23Z</time>
      </trkpt>
      <trkpt lat="46.48543" lon="5.30503">
        <ele>224.4</ele>
        <time>2022-08-25T12:29:24Z</time>
      </trkpt>
      <trkpt lat="46.48522" lon="5.30514">
        <ele>224.8</ele>
        <time>2022-08-25T12:29:28Z</time>
      </trkpt>
      <trkpt lat="46.48497" lon="5.30535">
        <ele>225</ele>
        <time>2022-08-25T12:29:33Z</time>
      </trkpt>
      <trkpt lat="46.48486" lon="5.30545">
        <ele>225</ele>
        <time>2022-08-25T12:29:35Z</time>
      </trkpt>
      <trkpt lat="46.48437" lon="5.3059">
        <ele>225.2</ele>
        <time>2022-08-25T12:29:44Z</time>
      </trkpt>
      <trkpt lat="46.48387" lon="5.30637">
        <ele>224.4</ele>
        <time>2022-08-25T12:29:53Z</time>
      </trkpt>
      <trkpt lat="46.48372" lon="5.30651">
        <ele>223.8</ele>
        <time>2022-08-25T12:29:56Z</time>
      </trkpt>
      <trkpt lat="46.48328" lon="5.30689">
        <ele>223.2</ele>
        <time>2022-08-25T12:30:03Z</time>
      </trkpt>
      <trkpt lat="46.48321" lon="5.30692">
        <ele>223</ele>
        <time>2022-08-25T12:30:04Z</time>
      </trkpt>
      <trkpt lat="46.48308" lon="5.30697">
        <ele>222.8</ele>
        <time>2022-08-25T12:30:06Z</time>
      </trkpt>
      <trkpt lat="46.48294" lon="5.30698">
        <ele>222.8</ele>
        <time>2022-08-25T12:30:08Z</time>
      </trkpt>
      <trkpt lat="46.48256" lon="5.30689">
        <ele>222.8</ele>
        <time>2022-08-25T12:30:14Z</time>
      </trkpt>
      <trkpt lat="46.48222" lon="5.30683">
        <ele>223</ele>
        <time>2022-08-25T12:30:20Z</time>
      </trkpt>
      <trkpt lat="46.48188" lon="5.3069">
        <ele>223.6</ele>
        <time>2022-08-25T12:30:26Z</time>
      </trkpt>
      <trkpt lat="46.48163" lon="5.30705">
        <ele>224.4</ele>
        <time>2022-08-25T12:30:31Z</time>
      </trkpt>
      <trkpt lat="46.48153" lon="5.30711">
        <ele>224.8</ele>
        <time>2022-08-25T12:30:33Z</time>
      </trkpt>
      <trkpt lat="46.48138" lon="5.3072">
        <ele>225.4</ele>
        <time>2022-08-25T12:30:36Z</time>
      </trkpt>
      <trkpt lat="46.48106" lon="5.30738">
        <ele>226.2</ele>
        <time>2022-08-25T12:30:42Z</time>
      </trkpt>
      <trkpt lat="46.48101" lon="5.30741">
        <ele>226.4</ele>
        <time>2022-08-25T12:30:43Z</time>
      </trkpt>
      <trkpt lat="46.48047" lon="5.30771">
        <ele>227</ele>
        <time>2022-08-25T12:30:53Z</time>
      </trkpt>
      <trkpt lat="46.48002" lon="5.30796">
        <ele>226.6</ele>
        <time>2022-08-25T12:31:00Z</time>
      </trkpt>
      <trkpt lat="46.47967" lon="5.30813">
        <ele>226</ele>
        <time>2022-08-25T12:31:05Z</time>
      </trkpt>
      <trkpt lat="46.47952" lon="5.30816">
        <ele>225.8</ele>
        <time>2022-08-25T12:31:07Z</time>
      </trkpt>
      <trkpt lat="46.47938" lon="5.30817">
        <ele>225.4</ele>
        <time>2022-08-25T12:31:09Z</time>
      </trkpt>
      <trkpt lat="46.4792" lon="5.30814">
        <ele>225.2</ele>
        <time>2022-08-25T12:31:12Z</time>
      </trkpt>
      <trkpt lat="46.47915" lon="5.30813">
        <ele>225.4</ele>
        <time>2022-08-25T12:31:13Z</time>
      </trkpt>
      <trkpt lat="46.47896" lon="5.30807">
        <ele>225.8</ele>
        <time>2022-08-25T12:31:17Z</time>
      </trkpt>
      <trkpt lat="46.47874" lon="5.308">
        <ele>227</ele>
        <time>2022-08-25T12:31:22Z</time>
      </trkpt>
      <trkpt lat="46.47865" lon="5.30798">
        <ele>227.6</ele>
        <time>2022-08-25T12:31:24Z</time>
      </trkpt>
      <trkpt lat="46.4786" lon="5.30798">
        <ele>228</ele>
        <time>2022-08-25T12:31:25Z</time>
      </trkpt>
      <trkpt lat="46.47856" lon="5.30797">
        <ele>228.2</ele>
        <time>2022-08-25T12:31:26Z</time>
      </trkpt>
      <trkpt lat="46.47847" lon="5.30792">
        <ele>228.6</ele>
        <time>2022-08-25T12:31:28Z</time>
      </trkpt>
      <trkpt lat="46.47843" lon="5.30788">
        <ele>228.8</ele>
        <time>2022-08-25T12:31:29Z</time>
      </trkpt>
      <trkpt lat="46.47839" lon="5.30783">
        <ele>229.2</ele>
        <time>2022-08-25T12:31:30Z</time>
      </trkpt>
      <trkpt lat="46.47834" lon="5.30778">
        <ele>229.4</ele>
        <time>2022-08-25T12:31:31Z</time>
      </trkpt>
      <trkpt lat="46.47822" lon="5.30772">
        <ele>229.4</ele>
        <time>2022-08-25T12:31:33Z</time>
      </trkpt>
      <trkpt lat="46.4779" lon="5.30772">
        <ele>229.4</ele>
        <time>2022-08-25T12:31:37Z</time>
      </trkpt>
      <trkpt lat="46.47759" lon="5.30776">
        <ele>228.2</ele>
        <time>2022-08-25T12:31:41Z</time>
      </trkpt>
      <trkpt lat="46.4773" lon="5.30781">
        <ele>228</ele>
        <time>2022-08-25T12:31:45Z</time>
      </trkpt>
      <trkpt lat="46.47685" lon="5.30788">
        <ele>228.4</ele>
        <time>2022-08-25T12:31:52Z</time>
      </trkpt>
      <trkpt lat="46.47634" lon="5.30795">
        <ele>228.8</ele>
        <time>2022-08-25T12:32:00Z</time>
      </trkpt>
      <trkpt lat="46.47574" lon="5.30804">
        <ele>228.8</ele>
        <time>2022-08-25T12:32:09Z</time>
      </trkpt>
      <trkpt lat="46.47561" lon="5.30806">
        <ele>228.8</ele>
        <time>2022-08-25T12:32:11Z</time>
      </trkpt>
      <trkpt lat="46.47515" lon="5.30818">
        <ele>229</ele>
        <time>2022-08-25T12:32:18Z</time>
      </trkpt>
      <trkpt lat="46.47467" lon="5.30841">
        <ele>229</ele>
        <time>2022-08-25T12:32:25Z</time>
      </trkpt>
      <trkpt lat="46.4741" lon="5.30871">
        <ele>228.8</ele>
        <time>2022-08-25T12:32:33Z</time>
      </trkpt>
      <trkpt lat="46.4736" lon="5.30891">
        <ele>228.4</ele>
        <time>2022-08-25T12:32:40Z</time>
      </trkpt>
      <trkpt lat="46.47347" lon="5.30894">
        <ele>228.4</ele>
        <time>2022-08-25T12:32:42Z</time>
      </trkpt>
      <trkpt lat="46.47336" lon="5.30889">
        <ele>228.4</ele>
        <time>2022-08-25T12:32:44Z</time>
      </trkpt>
      <trkpt lat="46.47329" lon="5.30875">
        <ele>228.2</ele>
        <time>2022-08-25T12:32:46Z</time>
      </trkpt>
      <trkpt lat="46.47327" lon="5.30866">
        <ele>228.2</ele>
        <time>2022-08-25T12:32:47Z</time>
      </trkpt>
      <trkpt lat="46.47319" lon="5.30778">
        <ele>227.8</ele>
        <time>2022-08-25T12:32:55Z</time>
      </trkpt>
      <trkpt lat="46.47316" lon="5.3069">
        <ele>227.6</ele>
        <time>2022-08-25T12:33:04Z</time>
      </trkpt>
      <trkpt lat="46.47316" lon="5.3068">
        <ele>227.6</ele>
        <time>2022-08-25T12:33:05Z</time>
      </trkpt>
      <trkpt lat="46.47315" lon="5.3067">
        <ele>227.8</ele>
        <time>2022-08-25T12:33:06Z</time>
      </trkpt>
      <trkpt lat="46.4731" lon="5.3065">
        <ele>227.8</ele>
        <time>2022-08-25T12:33:08Z</time>
      </trkpt>
      <trkpt lat="46.47306" lon="5.30642">
        <ele>227.8</ele>
        <time>2022-08-25T12:33:09Z</time>
      </trkpt>
      <trkpt lat="46.47301" lon="5.30634">
        <ele>228</ele>
        <time>2022-08-25T12:33:10Z</time>
      </trkpt>
      <trkpt lat="46.4728" lon="5.30608">
        <ele>228.2</ele>
        <time>2022-08-25T12:33:14Z</time>
      </trkpt>
      <trkpt lat="46.47259" lon="5.3058">
        <ele>228.2</ele>
        <time>2022-08-25T12:33:18Z</time>
      </trkpt>
      <trkpt lat="46.47248" lon="5.30571">
        <ele>228.2</ele>
        <time>2022-08-25T12:33:20Z</time>
      </trkpt>
      <trkpt lat="46.47226" lon="5.30559">
        <ele>228.2</ele>
        <time>2022-08-25T12:33:23Z</time>
      </trkpt>
      <trkpt lat="46.47214" lon="5.30557">
        <ele>228.2</ele>
        <time>2022-08-25T12:33:25Z</time>
      </trkpt>
      <trkpt lat="46.47166" lon="5.30559">
        <ele>228</ele>
        <time>2022-08-25T12:33:32Z</time>
      </trkpt>
      <trkpt lat="46.47131" lon="5.30546">
        <ele>228.6</ele>
        <time>2022-08-25T12:33:38Z</time>
      </trkpt>
      <trkpt lat="46.47084" lon="5.30516">
        <ele>229</ele>
        <time>2022-08-25T12:33:46Z</time>
      </trkpt>
      <trkpt lat="46.47037" lon="5.30476">
        <ele>228.8</ele>
        <time>2022-08-25T12:33:54Z</time>
      </trkpt>
      <trkpt lat="46.47027" lon="5.30468">
        <ele>228.8</ele>
        <time>2022-08-25T12:33:55Z</time>
      </trkpt>
      <trkpt lat="46.4698" lon="5.30427">
        <ele>228</ele>
        <time>2022-08-25T12:34:04Z</time>
      </trkpt>
      <trkpt lat="46.46973" lon="5.30422">
        <ele>228</ele>
        <time>2022-08-25T12:34:05Z</time>
      </trkpt>
      <trkpt lat="46.46936" lon="5.30398">
        <ele>227.8</ele>
        <time>2022-08-25T12:34:11Z</time>
      </trkpt>
      <trkpt lat="46.46879" lon="5.30374">
        <ele>227.6</ele>
        <time>2022-08-25T12:34:20Z</time>
      </trkpt>
      <trkpt lat="46.46852" lon="5.3035">
        <ele>228</ele>
        <time>2022-08-25T12:34:25Z</time>
      </trkpt>
      <trkpt lat="46.46807" lon="5.30295">
        <ele>228</ele>
        <time>2022-08-25T12:34:34Z</time>
      </trkpt>
      <trkpt lat="46.46797" lon="5.30283">
        <ele>228</ele>
        <time>2022-08-25T12:34:36Z</time>
      </trkpt>
      <trkpt lat="46.46752" lon="5.30229">
        <ele>228.6</ele>
        <time>2022-08-25T12:34:45Z</time>
      </trkpt>
      <trkpt lat="46.46739" lon="5.30209">
        <ele>228.6</ele>
        <time>2022-08-25T12:34:48Z</time>
      </trkpt>
      <trkpt lat="46.46731" lon="5.30189">
        <ele>228.6</ele>
        <time>2022-08-25T12:34:50Z</time>
      </trkpt>
      <trkpt lat="46.46711" lon="5.30108">
        <ele>228.2</ele>
        <time>2022-08-25T12:34:58Z</time>
      </trkpt>
      <trkpt lat="46.46692" lon="5.30033">
        <ele>227.6</ele>
        <time>2022-08-25T12:35:05Z</time>
      </trkpt>
      <trkpt lat="46.4669" lon="5.30025">
        <ele>227.6</ele>
        <time>2022-08-25T12:35:06Z</time>
      </trkpt>
      <trkpt lat="46.46675" lon="5.29976">
        <ele>227.8</ele>
        <time>2022-08-25T12:35:11Z</time>
      </trkpt>
      <trkpt lat="46.46659" lon="5.29913">
        <ele>228.8</ele>
        <time>2022-08-25T12:35:17Z</time>
      </trkpt>
      <trkpt lat="46.46646" lon="5.29863">
        <ele>229.6</ele>
        <time>2022-08-25T12:35:22Z</time>
      </trkpt>
      <trkpt lat="46.46631" lon="5.29812">
        <ele>230.6</ele>
        <time>2022-08-25T12:35:27Z</time>
      </trkpt>
      <trkpt lat="46.46628" lon="5.298">
        <ele>230.8</ele>
        <time>2022-08-25T12:35:28Z</time>
      </trkpt>
      <trkpt lat="46.46623" lon="5.29777">
        <ele>230.8</ele>
        <time>2022-08-25T12:35:30Z</time>
      </trkpt>
      <trkpt lat="46.46614" lon="5.29742">
        <ele>231</ele>
        <time>2022-08-25T12:35:33Z</time>
      </trkpt>
      <trkpt lat="46.46594" lon="5.29662">
        <ele>230.2</ele>
        <time>2022-08-25T12:35:41Z</time>
      </trkpt>
      <trkpt lat="46.46585" lon="5.29628">
        <ele>229.6</ele>
        <time>2022-08-25T12:35:44Z</time>
      </trkpt>
      <trkpt lat="46.46567" lon="5.29562">
        <ele>228.6</ele>
        <time>2022-08-25T12:35:50Z</time>
      </trkpt>
      <trkpt lat="46.46556" lon="5.29531">
        <ele>228.2</ele>
        <time>2022-08-25T12:35:53Z</time>
      </trkpt>
      <trkpt lat="46.46552" lon="5.29519">
        <ele>228</ele>
        <time>2022-08-25T12:35:54Z</time>
      </trkpt>
      <trkpt lat="46.46547" lon="5.29493">
        <ele>227.6</ele>
        <time>2022-08-25T12:35:56Z</time>
      </trkpt>
      <trkpt lat="46.46536" lon="5.2944">
        <ele>227.2</ele>
        <time>2022-08-25T12:36:01Z</time>
      </trkpt>
      <trkpt lat="46.46519" lon="5.29362">
        <ele>227.2</ele>
        <time>2022-08-25T12:36:09Z</time>
      </trkpt>
      <trkpt lat="46.46505" lon="5.29294">
        <ele>227.2</ele>
        <time>2022-08-25T12:36:16Z</time>
      </trkpt>
      <trkpt lat="46.46492" lon="5.29233">
        <ele>227.2</ele>
        <time>2022-08-25T12:36:23Z</time>
      </trkpt>
      <trkpt lat="46.46482" lon="5.29182">
        <ele>228</ele>
        <time>2022-08-25T12:36:29Z</time>
      </trkpt>
      <trkpt lat="46.46482" lon="5.29169">
        <ele>228.2</ele>
        <time>2022-08-25T12:36:31Z</time>
      </trkpt>
      <trkpt lat="46.46488" lon="5.29157">
        <ele>228.4</ele>
        <time>2022-08-25T12:36:33Z</time>
      </trkpt>
      <trkpt lat="46.46492" lon="5.29155">
        <ele>228.6</ele>
        <time>2022-08-25T12:36:34Z</time>
      </trkpt>
      <trkpt lat="46.46495" lon="5.29155">
        <ele>228.6</ele>
        <time>2022-08-25T12:36:35Z</time>
      </trkpt>
      <trkpt lat="46.46497" lon="5.29152">
        <ele>228.8</ele>
        <time>2022-08-25T12:36:37Z</time>
      </trkpt>
      <trkpt lat="46.46495" lon="5.29152">
        <ele>228.8</ele>
        <time>2022-08-25T12:36:38Z</time>
      </trkpt>
      <trkpt lat="46.46492" lon="5.29153">
        <ele>228.8</ele>
        <time>2022-08-25T12:36:39Z</time>
      </trkpt>
      <trkpt lat="46.46488" lon="5.29154">
        <ele>228.8</ele>
        <time>2022-08-25T12:36:40Z</time>
      </trkpt>
      <trkpt lat="46.46477" lon="5.29148">
        <ele>229</ele>
        <time>2022-08-25T12:36:43Z</time>
      </trkpt>
      <trkpt lat="46.46472" lon="5.29135">
        <ele>229</ele>
        <time>2022-08-25T12:36:45Z</time>
      </trkpt>
      <trkpt lat="46.46469" lon="5.2912">
        <ele>229.2</ele>
        <time>2022-08-25T12:36:47Z</time>
      </trkpt>
      <trkpt lat="46.46462" lon="5.2908">
        <ele>229.2</ele>
        <time>2022-08-25T12:36:52Z</time>
      </trkpt>
      <trkpt lat="46.46462" lon="5.29069">
        <ele>229.2</ele>
        <time>2022-08-25T12:36:53Z</time>
      </trkpt>
      <trkpt lat="46.46465" lon="5.29062">
        <ele>229.2</ele>
        <time>2022-08-25T12:36:54Z</time>
      </trkpt>
      <trkpt lat="46.46473" lon="5.29048">
        <ele>229</ele>
        <time>2022-08-25T12:36:56Z</time>
      </trkpt>
      <trkpt lat="46.46507" lon="5.28994">
        <ele>228.8</ele>
        <time>2022-08-25T12:37:04Z</time>
      </trkpt>
      <trkpt lat="46.46544" lon="5.28937">
        <ele>228.8</ele>
        <time>2022-08-25T12:37:12Z</time>
      </trkpt>
      <trkpt lat="46.46553" lon="5.28922">
        <ele>228.8</ele>
        <time>2022-08-25T12:37:14Z</time>
      </trkpt>
      <trkpt lat="46.46566" lon="5.28901">
        <ele>228.8</ele>
        <time>2022-08-25T12:37:17Z</time>
      </trkpt>
      <trkpt lat="46.466" lon="5.28849">
        <ele>228.8</ele>
        <time>2022-08-25T12:37:24Z</time>
      </trkpt>
      <trkpt lat="46.46609" lon="5.28833">
        <ele>228.8</ele>
        <time>2022-08-25T12:37:26Z</time>
      </trkpt>
      <trkpt lat="46.46616" lon="5.28818">
        <ele>228.6</ele>
        <time>2022-08-25T12:37:28Z</time>
      </trkpt>
      <trkpt lat="46.46623" lon="5.28803">
        <ele>228.6</ele>
        <time>2022-08-25T12:37:30Z</time>
      </trkpt>
      <trkpt lat="46.46633" lon="5.28774">
        <ele>228.6</ele>
        <time>2022-08-25T12:37:33Z</time>
      </trkpt>
      <trkpt lat="46.46648" lon="5.28713">
        <ele>228.2</ele>
        <time>2022-08-25T12:37:39Z</time>
      </trkpt>
      <trkpt lat="46.46663" lon="5.28644">
        <ele>228.2</ele>
        <time>2022-08-25T12:37:46Z</time>
      </trkpt>
      <trkpt lat="46.46682" lon="5.28565">
        <ele>228.2</ele>
        <time>2022-08-25T12:37:54Z</time>
      </trkpt>
      <trkpt lat="46.46685" lon="5.28553">
        <ele>228</ele>
        <time>2022-08-25T12:37:55Z</time>
      </trkpt>
      <trkpt lat="46.46695" lon="5.28509">
        <ele>227.8</ele>
        <time>2022-08-25T12:38:00Z</time>
      </trkpt>
      <trkpt lat="46.46703" lon="5.28471">
        <ele>227</ele>
        <time>2022-08-25T12:38:04Z</time>
      </trkpt>
      <trkpt lat="46.46723" lon="5.28392">
        <ele>227</ele>
        <time>2022-08-25T12:38:13Z</time>
      </trkpt>
      <trkpt lat="46.46727" lon="5.28374">
        <ele>227</ele>
        <time>2022-08-25T12:38:15Z</time>
      </trkpt>
      <trkpt lat="46.46733" lon="5.28357">
        <ele>227.2</ele>
        <time>2022-08-25T12:38:17Z</time>
      </trkpt>
      <trkpt lat="46.46737" lon="5.28349">
        <ele>227.2</ele>
        <time>2022-08-25T12:38:18Z</time>
      </trkpt>
      <trkpt lat="46.46741" lon="5.28346">
        <ele>227.2</ele>
        <time>2022-08-25T12:38:19Z</time>
      </trkpt>
      <trkpt lat="46.46753" lon="5.2834">
        <ele>227</ele>
        <time>2022-08-25T12:38:21Z</time>
      </trkpt>
      <trkpt lat="46.46764" lon="5.28335">
        <ele>227</ele>
        <time>2022-08-25T12:38:23Z</time>
      </trkpt>
      <trkpt lat="46.46767" lon="5.28329">
        <ele>226.8</ele>
        <time>2022-08-25T12:38:24Z</time>
      </trkpt>
      <trkpt lat="46.46768" lon="5.28325">
        <ele>226.8</ele>
        <time>2022-08-25T12:38:25Z</time>
      </trkpt>
      <trkpt lat="46.46767" lon="5.2832">
        <ele>226.8</ele>
        <time>2022-08-25T12:38:26Z</time>
      </trkpt>
      <trkpt lat="46.46762" lon="5.28311">
        <ele>226.8</ele>
        <time>2022-08-25T12:38:28Z</time>
      </trkpt>
      <trkpt lat="46.46756" lon="5.28307">
        <ele>226.8</ele>
        <time>2022-08-25T12:38:29Z</time>
      </trkpt>
      <trkpt lat="46.46746" lon="5.28302">
        <ele>226.8</ele>
        <time>2022-08-25T12:38:31Z</time>
      </trkpt>
      <trkpt lat="46.46729" lon="5.2829">
        <ele>226.8</ele>
        <time>2022-08-25T12:38:34Z</time>
      </trkpt>
      <trkpt lat="46.46688" lon="5.28266">
        <ele>226.8</ele>
        <time>2022-08-25T12:38:41Z</time>
      </trkpt>
      <trkpt lat="46.46642" lon="5.28249">
        <ele>227.4</ele>
        <time>2022-08-25T12:38:49Z</time>
      </trkpt>
      <trkpt lat="46.46588" lon="5.28242">
        <ele>227.8</ele>
        <time>2022-08-25T12:38:58Z</time>
      </trkpt>
      <trkpt lat="46.46554" lon="5.28239">
        <ele>227.8</ele>
        <time>2022-08-25T12:39:04Z</time>
      </trkpt>
      <trkpt lat="46.46502" lon="5.28234">
        <ele>228</ele>
        <time>2022-08-25T12:39:12Z</time>
      </trkpt>
      <trkpt lat="46.46452" lon="5.28219">
        <ele>227.8</ele>
        <time>2022-08-25T12:39:20Z</time>
      </trkpt>
      <trkpt lat="46.46422" lon="5.28206">
        <ele>227.8</ele>
        <time>2022-08-25T12:39:25Z</time>
      </trkpt>
      <trkpt lat="46.46408" lon="5.28201">
        <ele>227.8</ele>
        <time>2022-08-25T12:39:27Z</time>
      </trkpt>
      <trkpt lat="46.46356" lon="5.28179">
        <ele>227.2</ele>
        <time>2022-08-25T12:39:35Z</time>
      </trkpt>
      <trkpt lat="46.46337" lon="5.28165">
        <ele>226.8</ele>
        <time>2022-08-25T12:39:38Z</time>
      </trkpt>
      <trkpt lat="46.4633" lon="5.28159">
        <ele>226.6</ele>
        <time>2022-08-25T12:39:39Z</time>
      </trkpt>
      <trkpt lat="46.46322" lon="5.28152">
        <ele>226.4</ele>
        <time>2022-08-25T12:39:40Z</time>
      </trkpt>
      <trkpt lat="46.463" lon="5.28132">
        <ele>225.8</ele>
        <time>2022-08-25T12:39:43Z</time>
      </trkpt>
      <trkpt lat="46.46284" lon="5.28121">
        <ele>225</ele>
        <time>2022-08-25T12:39:45Z</time>
      </trkpt>
      <trkpt lat="46.46277" lon="5.28117">
        <ele>224.4</ele>
        <time>2022-08-25T12:39:46Z</time>
      </trkpt>
      <trkpt lat="46.4625" lon="5.28102">
        <ele>223</ele>
        <time>2022-08-25T12:39:49Z</time>
      </trkpt>
      <trkpt lat="46.46243" lon="5.281">
        <ele>222.6</ele>
        <time>2022-08-25T12:39:50Z</time>
      </trkpt>
      <trkpt lat="46.46234" lon="5.28099">
        <ele>222</ele>
        <time>2022-08-25T12:39:51Z</time>
      </trkpt>
      <trkpt lat="46.46223" lon="5.281">
        <ele>221.6</ele>
        <time>2022-08-25T12:39:52Z</time>
      </trkpt>
      <trkpt lat="46.46209" lon="5.28107">
        <ele>220.2</ele>
        <time>2022-08-25T12:39:54Z</time>
      </trkpt>
      <trkpt lat="46.46197" lon="5.28108">
        <ele>218.6</ele>
        <time>2022-08-25T12:39:56Z</time>
      </trkpt>
      <trkpt lat="46.46193" lon="5.28103">
        <ele>218.2</ele>
        <time>2022-08-25T12:39:57Z</time>
      </trkpt>
      <trkpt lat="46.4619" lon="5.28097">
        <ele>217.4</ele>
        <time>2022-08-25T12:39:58Z</time>
      </trkpt>
      <trkpt lat="46.4619" lon="5.28084">
        <ele>216.2</ele>
        <time>2022-08-25T12:40:00Z</time>
      </trkpt>
      <trkpt lat="46.46192" lon="5.28048">
        <ele>215.2</ele>
        <time>2022-08-25T12:40:04Z</time>
      </trkpt>
      <trkpt lat="46.46193" lon="5.28037">
        <ele>215.2</ele>
        <time>2022-08-25T12:40:05Z</time>
      </trkpt>
      <trkpt lat="46.46194" lon="5.28008">
        <ele>215.2</ele>
        <time>2022-08-25T12:40:08Z</time>
      </trkpt>
      <trkpt lat="46.4619" lon="5.28">
        <ele>215.2</ele>
        <time>2022-08-25T12:40:09Z</time>
      </trkpt>
      <trkpt lat="46.46185" lon="5.27995">
        <ele>215.2</ele>
        <time>2022-08-25T12:40:10Z</time>
      </trkpt>
      <trkpt lat="46.46172" lon="5.27987">
        <ele>215.2</ele>
        <time>2022-08-25T12:40:12Z</time>
      </trkpt>
      <trkpt lat="46.4614" lon="5.27964">
        <ele>215.2</ele>
        <time>2022-08-25T12:40:16Z</time>
      </trkpt>
      <trkpt lat="46.46127" lon="5.27946">
        <ele>214.8</ele>
        <time>2022-08-25T12:40:18Z</time>
      </trkpt>
      <trkpt lat="46.46123" lon="5.27933">
        <ele>214.4</ele>
        <time>2022-08-25T12:40:19Z</time>
      </trkpt>
      <trkpt lat="46.46122" lon="5.27919">
        <ele>214.2</ele>
        <time>2022-08-25T12:40:20Z</time>
      </trkpt>
      <trkpt lat="46.46122" lon="5.27903">
        <ele>213.4</ele>
        <time>2022-08-25T12:40:21Z</time>
      </trkpt>
      <trkpt lat="46.46122" lon="5.27887">
        <ele>212</ele>
        <time>2022-08-25T12:40:22Z</time>
      </trkpt>
      <trkpt lat="46.46121" lon="5.27853">
        <ele>210.6</ele>
        <time>2022-08-25T12:40:24Z</time>
      </trkpt>
      <trkpt lat="46.46121" lon="5.27826">
        <ele>209.2</ele>
        <time>2022-08-25T12:40:26Z</time>
      </trkpt>
      <trkpt lat="46.46122" lon="5.27787">
        <ele>207.8</ele>
        <time>2022-08-25T12:40:28Z</time>
      </trkpt>
      <trkpt lat="46.46122" lon="5.27772">
        <ele>206.8</ele>
        <time>2022-08-25T12:40:29Z</time>
      </trkpt>
      <trkpt lat="46.46124" lon="5.27741">
        <ele>205.8</ele>
        <time>2022-08-25T12:40:31Z</time>
      </trkpt>
      <trkpt lat="46.46126" lon="5.2768">
        <ele>204.2</ele>
        <time>2022-08-25T12:40:35Z</time>
      </trkpt>
      <trkpt lat="46.46126" lon="5.27664">
        <ele>203.8</ele>
        <time>2022-08-25T12:40:36Z</time>
      </trkpt>
      <trkpt lat="46.46127" lon="5.27637">
        <ele>203.2</ele>
        <time>2022-08-25T12:40:38Z</time>
      </trkpt>
      <trkpt lat="46.46128" lon="5.27562">
        <ele>202.2</ele>
        <time>2022-08-25T12:40:43Z</time>
      </trkpt>
      <trkpt lat="46.46131" lon="5.27483">
        <ele>201.4</ele>
        <time>2022-08-25T12:40:49Z</time>
      </trkpt>
      <trkpt lat="46.46131" lon="5.27457">
        <ele>201.2</ele>
        <time>2022-08-25T12:40:51Z</time>
      </trkpt>
      <trkpt lat="46.46132" lon="5.27419">
        <ele>201.2</ele>
        <time>2022-08-25T12:40:54Z</time>
      </trkpt>
      <trkpt lat="46.46134" lon="5.27349">
        <ele>201.2</ele>
        <time>2022-08-25T12:41:00Z</time>
      </trkpt>
      <trkpt lat="46.46136" lon="5.2727">
        <ele>201</ele>
        <time>2022-08-25T12:41:07Z</time>
      </trkpt>
      <trkpt lat="46.46137" lon="5.27247">
        <ele>201.2</ele>
        <time>2022-08-25T12:41:09Z</time>
      </trkpt>
      <trkpt lat="46.46139" lon="5.27171">
        <ele>201</ele>
        <time>2022-08-25T12:41:16Z</time>
      </trkpt>
      <trkpt lat="46.46141" lon="5.27107">
        <ele>201</ele>
        <time>2022-08-25T12:41:23Z</time>
      </trkpt>
      <trkpt lat="46.46143" lon="5.27036">
        <ele>201.8</ele>
        <time>2022-08-25T12:41:31Z</time>
      </trkpt>
      <trkpt lat="46.46144" lon="5.26985">
        <ele>202.4</ele>
        <time>2022-08-25T12:41:37Z</time>
      </trkpt>
      <trkpt lat="46.46145" lon="5.26955">
        <ele>202.4</ele>
        <time>2022-08-25T12:41:40Z</time>
      </trkpt>
      <trkpt lat="46.46147" lon="5.26875">
        <ele>202</ele>
        <time>2022-08-25T12:41:48Z</time>
      </trkpt>
      <trkpt lat="46.4615" lon="5.26792">
        <ele>202</ele>
        <time>2022-08-25T12:41:57Z</time>
      </trkpt>
      <trkpt lat="46.46152" lon="5.26725">
        <ele>203.4</ele>
        <time>2022-08-25T12:42:05Z</time>
      </trkpt>
      <trkpt lat="46.46154" lon="5.26669">
        <ele>204.6</ele>
        <time>2022-08-25T12:42:12Z</time>
      </trkpt>
      <trkpt lat="46.46154" lon="5.26662">
        <ele>204.8</ele>
        <time>2022-08-25T12:42:13Z</time>
      </trkpt>
      <trkpt lat="46.46155" lon="5.26628">
        <ele>205.8</ele>
        <time>2022-08-25T12:42:18Z</time>
      </trkpt>
      <trkpt lat="46.46156" lon="5.2661">
        <ele>206.4</ele>
        <time>2022-08-25T12:42:21Z</time>
      </trkpt>
      <trkpt lat="46.46157" lon="5.26597">
        <ele>206.8</ele>
        <time>2022-08-25T12:42:23Z</time>
      </trkpt>
      <trkpt lat="46.46159" lon="5.26579">
        <ele>208</ele>
        <time>2022-08-25T12:42:26Z</time>
      </trkpt>
      <trkpt lat="46.46161" lon="5.26558">
        <ele>209</ele>
        <time>2022-08-25T12:42:30Z</time>
      </trkpt>
      <trkpt lat="46.46162" lon="5.26551">
        <ele>209.2</ele>
        <time>2022-08-25T12:42:31Z</time>
      </trkpt>
      <trkpt lat="46.46165" lon="5.26519">
        <ele>210.2</ele>
        <time>2022-08-25T12:42:37Z</time>
      </trkpt>
      <trkpt lat="46.46166" lon="5.26513">
        <ele>210.4</ele>
        <time>2022-08-25T12:42:38Z</time>
      </trkpt>
      <trkpt lat="46.46168" lon="5.26478">
        <ele>211.6</ele>
        <time>2022-08-25T12:42:44Z</time>
      </trkpt>
      <trkpt lat="46.46171" lon="5.26456">
        <ele>212.6</ele>
        <time>2022-08-25T12:42:48Z</time>
      </trkpt>
      <trkpt lat="46.46172" lon="5.26451">
        <ele>212.6</ele>
        <time>2022-08-25T12:42:49Z</time>
      </trkpt>
      <trkpt lat="46.46175" lon="5.26424">
        <ele>213.6</ele>
        <time>2022-08-25T12:42:54Z</time>
      </trkpt>
      <trkpt lat="46.46176" lon="5.26419">
        <ele>213.8</ele>
        <time>2022-08-25T12:42:55Z</time>
      </trkpt>
      <trkpt lat="46.46177" lon="5.26403">
        <ele>214.8</ele>
        <time>2022-08-25T12:42:58Z</time>
      </trkpt>
      <trkpt lat="46.46179" lon="5.26373">
        <ele>216</ele>
        <time>2022-08-25T12:43:04Z</time>
      </trkpt>
      <trkpt lat="46.4618" lon="5.26358">
        <ele>216.4</ele>
        <time>2022-08-25T12:43:07Z</time>
      </trkpt>
      <trkpt lat="46.46182" lon="5.26339">
        <ele>217.2</ele>
        <time>2022-08-25T12:43:11Z</time>
      </trkpt>
      <trkpt lat="46.46185" lon="5.26316">
        <ele>218.2</ele>
        <time>2022-08-25T12:43:16Z</time>
      </trkpt>
      <trkpt lat="46.46185" lon="5.26311">
        <ele>218.4</ele>
        <time>2022-08-25T12:43:17Z</time>
      </trkpt>
      <trkpt lat="46.46188" lon="5.26282">
        <ele>219.6</ele>
        <time>2022-08-25T12:43:23Z</time>
      </trkpt>
      <trkpt lat="46.46189" lon="5.26267">
        <ele>220</ele>
        <time>2022-08-25T12:43:26Z</time>
      </trkpt>
      <trkpt lat="46.46188" lon="5.26257">
        <ele>220.6</ele>
        <time>2022-08-25T12:43:28Z</time>
      </trkpt>
      <trkpt lat="46.46184" lon="5.26249">
        <ele>220.8</ele>
        <time>2022-08-25T12:43:30Z</time>
      </trkpt>
      <trkpt lat="46.46176" lon="5.26243">
        <ele>221.2</ele>
        <time>2022-08-25T12:43:32Z</time>
      </trkpt>
      <trkpt lat="46.46165" lon="5.26236">
        <ele>221.6</ele>
        <time>2022-08-25T12:43:35Z</time>
      </trkpt>
      <trkpt lat="46.46147" lon="5.26226">
        <ele>222.4</ele>
        <time>2022-08-25T12:43:39Z</time>
      </trkpt>
      <trkpt lat="46.46133" lon="5.26219">
        <ele>222.8</ele>
        <time>2022-08-25T12:43:42Z</time>
      </trkpt>
      <trkpt lat="46.46124" lon="5.26214">
        <ele>222.8</ele>
        <time>2022-08-25T12:43:44Z</time>
      </trkpt>
      <trkpt lat="46.46073" lon="5.26186">
        <ele>223.8</ele>
        <time>2022-08-25T12:43:55Z</time>
      </trkpt>
      <trkpt lat="46.46068" lon="5.26183">
        <ele>223.8</ele>
        <time>2022-08-25T12:43:56Z</time>
      </trkpt>
      <trkpt lat="46.46036" lon="5.2617">
        <ele>225</ele>
        <time>2022-08-25T12:44:03Z</time>
      </trkpt>
      <trkpt lat="46.46032" lon="5.26168">
        <ele>225</ele>
        <time>2022-08-25T12:44:04Z</time>
      </trkpt>
      <trkpt lat="46.46012" lon="5.26164">
        <ele>225.4</ele>
        <time>2022-08-25T12:44:08Z</time>
      </trkpt>
      <trkpt lat="46.46003" lon="5.26164">
        <ele>225.6</ele>
        <time>2022-08-25T12:44:10Z</time>
      </trkpt>
      <trkpt lat="46.45989" lon="5.26164">
        <ele>226</ele>
        <time>2022-08-25T12:44:13Z</time>
      </trkpt>
      <trkpt lat="46.45964" lon="5.26164">
        <ele>226.4</ele>
        <time>2022-08-25T12:44:18Z</time>
      </trkpt>
      <trkpt lat="46.45916" lon="5.26163">
        <ele>226.8</ele>
        <time>2022-08-25T12:44:28Z</time>
      </trkpt>
      <trkpt lat="46.45911" lon="5.26163">
        <ele>227</ele>
        <time>2022-08-25T12:44:29Z</time>
      </trkpt>
      <trkpt lat="46.4589" lon="5.26162">
        <ele>227.2</ele>
        <time>2022-08-25T12:44:33Z</time>
      </trkpt>
      <trkpt lat="46.45873" lon="5.26162">
        <ele>227.4</ele>
        <time>2022-08-25T12:44:36Z</time>
      </trkpt>
      <trkpt lat="46.4583" lon="5.26162">
        <ele>227.6</ele>
        <time>2022-08-25T12:44:43Z</time>
      </trkpt>
      <trkpt lat="46.45778" lon="5.26164">
        <ele>227.6</ele>
        <time>2022-08-25T12:44:51Z</time>
      </trkpt>
      <trkpt lat="46.45772" lon="5.26167">
        <ele>227.6</ele>
        <time>2022-08-25T12:44:52Z</time>
      </trkpt>
      <trkpt lat="46.45762" lon="5.26176">
        <ele>227.4</ele>
        <time>2022-08-25T12:44:54Z</time>
      </trkpt>
      <trkpt lat="46.45754" lon="5.26191">
        <ele>227.4</ele>
        <time>2022-08-25T12:44:56Z</time>
      </trkpt>
      <trkpt lat="46.45749" lon="5.26209">
        <ele>227.4</ele>
        <time>2022-08-25T12:44:58Z</time>
      </trkpt>
      <trkpt lat="46.45733" lon="5.26277">
        <ele>227.2</ele>
        <time>2022-08-25T12:45:05Z</time>
      </trkpt>
      <trkpt lat="46.45712" lon="5.26362">
        <ele>226.6</ele>
        <time>2022-08-25T12:45:13Z</time>
      </trkpt>
      <trkpt lat="46.457" lon="5.2644">
        <ele>226.2</ele>
        <time>2022-08-25T12:45:20Z</time>
      </trkpt>
      <trkpt lat="46.45688" lon="5.26524">
        <ele>225.6</ele>
        <time>2022-08-25T12:45:28Z</time>
      </trkpt>
      <trkpt lat="46.45686" lon="5.26534">
        <ele>225.4</ele>
        <time>2022-08-25T12:45:29Z</time>
      </trkpt>
      <trkpt lat="46.45678" lon="5.26566">
        <ele>225.2</ele>
        <time>2022-08-25T12:45:32Z</time>
      </trkpt>
      <trkpt lat="46.4567" lon="5.26585">
        <ele>224.8</ele>
        <time>2022-08-25T12:45:34Z</time>
      </trkpt>
      <trkpt lat="46.45653" lon="5.26614">
        <ele>224</ele>
        <time>2022-08-25T12:45:37Z</time>
      </trkpt>
      <trkpt lat="46.45646" lon="5.26623">
        <ele>224</ele>
        <time>2022-08-25T12:45:38Z</time>
      </trkpt>
      <trkpt lat="46.4563" lon="5.26633">
        <ele>223.6</ele>
        <time>2022-08-25T12:45:40Z</time>
      </trkpt>
      <trkpt lat="46.45622" lon="5.26636">
        <ele>223.4</ele>
        <time>2022-08-25T12:45:41Z</time>
      </trkpt>
      <trkpt lat="46.45605" lon="5.2664">
        <ele>223</ele>
        <time>2022-08-25T12:45:43Z</time>
      </trkpt>
      <trkpt lat="46.45565" lon="5.26646">
        <ele>222.2</ele>
        <time>2022-08-25T12:45:48Z</time>
      </trkpt>
      <trkpt lat="46.45535" lon="5.26639">
        <ele>218.4</ele>
        <time>2022-08-25T12:45:52Z</time>
      </trkpt>
      <trkpt lat="46.45491" lon="5.2662">
        <ele>222.4</ele>
        <time>2022-08-25T12:45:59Z</time>
      </trkpt>
      <trkpt lat="46.45451" lon="5.266">
        <ele>223</ele>
        <time>2022-08-25T12:46:06Z</time>
      </trkpt>
      <trkpt lat="46.45421" lon="5.26582">
        <ele>224.2</ele>
        <time>2022-08-25T12:46:12Z</time>
      </trkpt>
      <trkpt lat="46.45406" lon="5.26575">
        <ele>224.6</ele>
        <time>2022-08-25T12:46:15Z</time>
      </trkpt>
      <trkpt lat="46.45381" lon="5.26564">
        <ele>225.2</ele>
        <time>2022-08-25T12:46:20Z</time>
      </trkpt>
      <trkpt lat="46.45359" lon="5.26556">
        <ele>225.8</ele>
        <time>2022-08-25T12:46:24Z</time>
      </trkpt>
      <trkpt lat="46.45312" lon="5.26547">
        <ele>226</ele>
        <time>2022-08-25T12:46:32Z</time>
      </trkpt>
      <trkpt lat="46.45263" lon="5.26553">
        <ele>226</ele>
        <time>2022-08-25T12:46:40Z</time>
      </trkpt>
      <trkpt lat="46.45206" lon="5.26558">
        <ele>225.6</ele>
        <time>2022-08-25T12:46:49Z</time>
      </trkpt>
      <trkpt lat="46.45164" lon="5.26545">
        <ele>225.4</ele>
        <time>2022-08-25T12:46:56Z</time>
      </trkpt>
      <trkpt lat="46.45111" lon="5.26524">
        <ele>225.8</ele>
        <time>2022-08-25T12:47:05Z</time>
      </trkpt>
      <trkpt lat="46.45094" lon="5.26519">
        <ele>225.8</ele>
        <time>2022-08-25T12:47:08Z</time>
      </trkpt>
      <trkpt lat="46.4505" lon="5.26514">
        <ele>226</ele>
        <time>2022-08-25T12:47:15Z</time>
      </trkpt>
      <trkpt lat="46.45009" lon="5.26514">
        <ele>225.8</ele>
        <time>2022-08-25T12:47:21Z</time>
      </trkpt>
      <trkpt lat="46.44959" lon="5.26518">
        <ele>224.6</ele>
        <time>2022-08-25T12:47:28Z</time>
      </trkpt>
      <trkpt lat="46.44915" lon="5.26535">
        <ele>223.8</ele>
        <time>2022-08-25T12:47:34Z</time>
      </trkpt>
      <trkpt lat="46.44876" lon="5.26556">
        <ele>223.6</ele>
        <time>2022-08-25T12:47:40Z</time>
      </trkpt>
      <trkpt lat="46.44871" lon="5.26561">
        <ele>223.6</ele>
        <time>2022-08-25T12:47:41Z</time>
      </trkpt>
      <trkpt lat="46.44852" lon="5.26584">
        <ele>224</ele>
        <time>2022-08-25T12:47:45Z</time>
      </trkpt>
      <trkpt lat="46.44846" lon="5.26598">
        <ele>224.4</ele>
        <time>2022-08-25T12:47:47Z</time>
      </trkpt>
      <trkpt lat="46.44841" lon="5.26613">
        <ele>224.6</ele>
        <time>2022-08-25T12:47:49Z</time>
      </trkpt>
      <trkpt lat="46.44837" lon="5.26634">
        <ele>225</ele>
        <time>2022-08-25T12:47:52Z</time>
      </trkpt>
      <trkpt lat="46.44831" lon="5.26647">
        <ele>225.6</ele>
        <time>2022-08-25T12:47:54Z</time>
      </trkpt>
      <trkpt lat="46.44822" lon="5.26656">
        <ele>226</ele>
        <time>2022-08-25T12:47:56Z</time>
      </trkpt>
      <trkpt lat="46.44817" lon="5.26658">
        <ele>226.2</ele>
        <time>2022-08-25T12:47:57Z</time>
      </trkpt>
      <trkpt lat="46.44811" lon="5.26659">
        <ele>226.4</ele>
        <time>2022-08-25T12:47:58Z</time>
      </trkpt>
      <trkpt lat="46.44799" lon="5.26661">
        <ele>226.6</ele>
        <time>2022-08-25T12:48:00Z</time>
      </trkpt>
      <trkpt lat="46.44787" lon="5.26665">
        <ele>226.8</ele>
        <time>2022-08-25T12:48:02Z</time>
      </trkpt>
      <trkpt lat="46.44763" lon="5.26683">
        <ele>227</ele>
        <time>2022-08-25T12:48:06Z</time>
      </trkpt>
      <trkpt lat="46.44724" lon="5.26699">
        <ele>226.4</ele>
        <time>2022-08-25T12:48:11Z</time>
      </trkpt>
      <trkpt lat="46.44705" lon="5.26703">
        <ele>225.4</ele>
        <time>2022-08-25T12:48:13Z</time>
      </trkpt>
      <trkpt lat="46.44687" lon="5.26702">
        <ele>224.6</ele>
        <time>2022-08-25T12:48:15Z</time>
      </trkpt>
      <trkpt lat="46.4467" lon="5.26697">
        <ele>223.8</ele>
        <time>2022-08-25T12:48:17Z</time>
      </trkpt>
      <trkpt lat="46.44654" lon="5.26689">
        <ele>223.2</ele>
        <time>2022-08-25T12:48:19Z</time>
      </trkpt>
      <trkpt lat="46.44632" lon="5.26674">
        <ele>222.6</ele>
        <time>2022-08-25T12:48:22Z</time>
      </trkpt>
      <trkpt lat="46.44618" lon="5.26664">
        <ele>222.4</ele>
        <time>2022-08-25T12:48:24Z</time>
      </trkpt>
      <trkpt lat="46.44589" lon="5.26645">
        <ele>222.6</ele>
        <time>2022-08-25T12:48:29Z</time>
      </trkpt>
      <trkpt lat="46.44574" lon="5.26638">
        <ele>223.6</ele>
        <time>2022-08-25T12:48:32Z</time>
      </trkpt>
      <trkpt lat="46.44559" lon="5.26635">
        <ele>224.2</ele>
        <time>2022-08-25T12:48:35Z</time>
      </trkpt>
      <trkpt lat="46.44548" lon="5.26637">
        <ele>224.4</ele>
        <time>2022-08-25T12:48:37Z</time>
      </trkpt>
      <trkpt lat="46.44542" lon="5.2664">
        <ele>224.6</ele>
        <time>2022-08-25T12:48:38Z</time>
      </trkpt>
      <trkpt lat="46.44536" lon="5.26643">
        <ele>224.8</ele>
        <time>2022-08-25T12:48:39Z</time>
      </trkpt>
      <trkpt lat="46.44524" lon="5.2665">
        <ele>224.8</ele>
        <time>2022-08-25T12:48:41Z</time>
      </trkpt>
      <trkpt lat="46.44512" lon="5.26662">
        <ele>225</ele>
        <time>2022-08-25T12:48:43Z</time>
      </trkpt>
      <trkpt lat="46.44481" lon="5.26702">
        <ele>224.6</ele>
        <time>2022-08-25T12:48:48Z</time>
      </trkpt>
      <trkpt lat="46.44474" lon="5.26709">
        <ele>224.4</ele>
        <time>2022-08-25T12:48:49Z</time>
      </trkpt>
      <trkpt lat="46.44456" lon="5.26718">
        <ele>223.8</ele>
        <time>2022-08-25T12:48:51Z</time>
      </trkpt>
      <trkpt lat="46.44447" lon="5.26721">
        <ele>223.4</ele>
        <time>2022-08-25T12:48:52Z</time>
      </trkpt>
      <trkpt lat="46.44429" lon="5.26726">
        <ele>222.4</ele>
        <time>2022-08-25T12:48:54Z</time>
      </trkpt>
      <trkpt lat="46.444" lon="5.26734">
        <ele>221.2</ele>
        <time>2022-08-25T12:48:57Z</time>
      </trkpt>
      <trkpt lat="46.44382" lon="5.2674">
        <ele>220.6</ele>
        <time>2022-08-25T12:48:59Z</time>
      </trkpt>
      <trkpt lat="46.44374" lon="5.26746">
        <ele>220</ele>
        <time>2022-08-25T12:49:00Z</time>
      </trkpt>
      <trkpt lat="46.44368" lon="5.26755">
        <ele>219.6</ele>
        <time>2022-08-25T12:49:01Z</time>
      </trkpt>
      <trkpt lat="46.44357" lon="5.26779">
        <ele>218.8</ele>
        <time>2022-08-25T12:49:03Z</time>
      </trkpt>
      <trkpt lat="46.44351" lon="5.26792">
        <ele>218.2</ele>
        <time>2022-08-25T12:49:04Z</time>
      </trkpt>
      <trkpt lat="46.44346" lon="5.26803">
        <ele>217.8</ele>
        <time>2022-08-25T12:49:05Z</time>
      </trkpt>
      <trkpt lat="46.44339" lon="5.26813">
        <ele>217.4</ele>
        <time>2022-08-25T12:49:06Z</time>
      </trkpt>
      <trkpt lat="46.44331" lon="5.2682">
        <ele>217.2</ele>
        <time>2022-08-25T12:49:07Z</time>
      </trkpt>
      <trkpt lat="46.44314" lon="5.26827">
        <ele>216.4</ele>
        <time>2022-08-25T12:49:09Z</time>
      </trkpt>
      <trkpt lat="46.44304" lon="5.2683">
        <ele>216.2</ele>
        <time>2022-08-25T12:49:10Z</time>
      </trkpt>
      <trkpt lat="46.44268" lon="5.26844">
        <ele>215.2</ele>
        <time>2022-08-25T12:49:14Z</time>
      </trkpt>
      <trkpt lat="46.44242" lon="5.2686">
        <ele>214.8</ele>
        <time>2022-08-25T12:49:17Z</time>
      </trkpt>
      <trkpt lat="46.44223" lon="5.26874">
        <ele>214.2</ele>
        <time>2022-08-25T12:49:19Z</time>
      </trkpt>
      <trkpt lat="46.44204" lon="5.2689">
        <ele>213.4</ele>
        <time>2022-08-25T12:49:21Z</time>
      </trkpt>
      <trkpt lat="46.44196" lon="5.26899">
        <ele>213</ele>
        <time>2022-08-25T12:49:22Z</time>
      </trkpt>
      <trkpt lat="46.4418" lon="5.2692">
        <ele>211.8</ele>
        <time>2022-08-25T12:49:24Z</time>
      </trkpt>
      <trkpt lat="46.44172" lon="5.26929">
        <ele>211</ele>
        <time>2022-08-25T12:49:25Z</time>
      </trkpt>
      <trkpt lat="46.44164" lon="5.26936">
        <ele>210.6</ele>
        <time>2022-08-25T12:49:26Z</time>
      </trkpt>
      <trkpt lat="46.44148" lon="5.26945">
        <ele>209.2</ele>
        <time>2022-08-25T12:49:28Z</time>
      </trkpt>
      <trkpt lat="46.44142" lon="5.26945">
        <ele>208.8</ele>
        <time>2022-08-25T12:49:29Z</time>
      </trkpt>
      <trkpt lat="46.44136" lon="5.26941">
        <ele>208</ele>
        <time>2022-08-25T12:49:30Z</time>
      </trkpt>
      <trkpt lat="46.44125" lon="5.26929">
        <ele>207.8</ele>
        <time>2022-08-25T12:49:31Z</time>
      </trkpt>
      <trkpt lat="46.44098" lon="5.26901">
        <ele>207.2</ele>
        <time>2022-08-25T12:49:34Z</time>
      </trkpt>
      <trkpt lat="46.4409" lon="5.26893">
        <ele>207</ele>
        <time>2022-08-25T12:49:35Z</time>
      </trkpt>
      <trkpt lat="46.44046" lon="5.26848">
        <ele>206.8</ele>
        <time>2022-08-25T12:49:41Z</time>
      </trkpt>
      <trkpt lat="46.4401" lon="5.26813">
        <ele>207.4</ele>
        <time>2022-08-25T12:49:47Z</time>
      </trkpt>
      <trkpt lat="46.43989" lon="5.26793">
        <ele>207.8</ele>
        <time>2022-08-25T12:49:51Z</time>
      </trkpt>
      <trkpt lat="46.43984" lon="5.2679">
        <ele>208</ele>
        <time>2022-08-25T12:49:52Z</time>
      </trkpt>
      <trkpt lat="46.43978" lon="5.26787">
        <ele>208.2</ele>
        <time>2022-08-25T12:49:53Z</time>
      </trkpt>
      <trkpt lat="46.43961" lon="5.26785">
        <ele>208.4</ele>
        <time>2022-08-25T12:49:56Z</time>
      </trkpt>
      <trkpt lat="46.43951" lon="5.26777">
        <ele>208.6</ele>
        <time>2022-08-25T12:49:58Z</time>
      </trkpt>
      <trkpt lat="46.43946" lon="5.26772">
        <ele>208.8</ele>
        <time>2022-08-25T12:49:59Z</time>
      </trkpt>
      <trkpt lat="46.43941" lon="5.26768">
        <ele>208.8</ele>
        <time>2022-08-25T12:50:00Z</time>
      </trkpt>
      <trkpt lat="46.43929" lon="5.26764">
        <ele>208.8</ele>
        <time>2022-08-25T12:50:02Z</time>
      </trkpt>
      <trkpt lat="46.43923" lon="5.26764">
        <ele>208.8</ele>
        <time>2022-08-25T12:50:03Z</time>
      </trkpt>
      <trkpt lat="46.43918" lon="5.26767">
        <ele>208.8</ele>
        <time>2022-08-25T12:50:04Z</time>
      </trkpt>
      <trkpt lat="46.43908" lon="5.26777">
        <ele>208.8</ele>
        <time>2022-08-25T12:50:06Z</time>
      </trkpt>
      <trkpt lat="46.43897" lon="5.26797">
        <ele>208.8</ele>
        <time>2022-08-25T12:50:09Z</time>
      </trkpt>
      <trkpt lat="46.43887" lon="5.26808">
        <ele>208.8</ele>
        <time>2022-08-25T12:50:11Z</time>
      </trkpt>
      <trkpt lat="46.43877" lon="5.26817">
        <ele>209</ele>
        <time>2022-08-25T12:50:13Z</time>
      </trkpt>
      <trkpt lat="46.43869" lon="5.26828">
        <ele>209.2</ele>
        <time>2022-08-25T12:50:15Z</time>
      </trkpt>
      <trkpt lat="46.43864" lon="5.26842">
        <ele>209.4</ele>
        <time>2022-08-25T12:50:17Z</time>
      </trkpt>
      <trkpt lat="46.43864" lon="5.2685">
        <ele>209.6</ele>
        <time>2022-08-25T12:50:18Z</time>
      </trkpt>
      <trkpt lat="46.4386" lon="5.26907">
        <ele>210.4</ele>
        <time>2022-08-25T12:50:25Z</time>
      </trkpt>
      <trkpt lat="46.43858" lon="5.26915">
        <ele>210.6</ele>
        <time>2022-08-25T12:50:26Z</time>
      </trkpt>
      <trkpt lat="46.43855" lon="5.2693">
        <ele>210.8</ele>
        <time>2022-08-25T12:50:28Z</time>
      </trkpt>
      <trkpt lat="46.43844" lon="5.26954">
        <ele>210.8</ele>
        <time>2022-08-25T12:50:31Z</time>
      </trkpt>
      <trkpt lat="46.43834" lon="5.26967">
        <ele>210.8</ele>
        <time>2022-08-25T12:50:33Z</time>
      </trkpt>
      <trkpt lat="46.43822" lon="5.26978">
        <ele>210.6</ele>
        <time>2022-08-25T12:50:35Z</time>
      </trkpt>
      <trkpt lat="46.43815" lon="5.26983">
        <ele>210.4</ele>
        <time>2022-08-25T12:50:36Z</time>
      </trkpt>
      <trkpt lat="46.438" lon="5.26989">
        <ele>210.2</ele>
        <time>2022-08-25T12:50:38Z</time>
      </trkpt>
      <trkpt lat="46.43793" lon="5.26991">
        <ele>210.2</ele>
        <time>2022-08-25T12:50:39Z</time>
      </trkpt>
      <trkpt lat="46.43777" lon="5.26991">
        <ele>210</ele>
        <time>2022-08-25T12:50:41Z</time>
      </trkpt>
      <trkpt lat="46.43763" lon="5.26987">
        <ele>209.8</ele>
        <time>2022-08-25T12:50:43Z</time>
      </trkpt>
      <trkpt lat="46.43718" lon="5.2697">
        <ele>209.6</ele>
        <time>2022-08-25T12:50:50Z</time>
      </trkpt>
      <trkpt lat="46.43669" lon="5.26952">
        <ele>209.8</ele>
        <time>2022-08-25T12:50:58Z</time>
      </trkpt>
      <trkpt lat="46.43617" lon="5.26931">
        <ele>210.6</ele>
        <time>2022-08-25T12:51:07Z</time>
      </trkpt>
      <trkpt lat="46.43611" lon="5.26929">
        <ele>210.6</ele>
        <time>2022-08-25T12:51:08Z</time>
      </trkpt>
      <trkpt lat="46.43562" lon="5.26914">
        <ele>211</ele>
        <time>2022-08-25T12:51:17Z</time>
      </trkpt>
      <trkpt lat="46.43507" lon="5.26903">
        <ele>210.4</ele>
        <time>2022-08-25T12:51:27Z</time>
      </trkpt>
      <trkpt lat="46.43496" lon="5.26902">
        <ele>210.6</ele>
        <time>2022-08-25T12:51:29Z</time>
      </trkpt>
      <trkpt lat="46.43447" lon="5.26892">
        <ele>211.2</ele>
        <time>2022-08-25T12:51:38Z</time>
      </trkpt>
      <trkpt lat="46.43431" lon="5.26889">
        <ele>211.8</ele>
        <time>2022-08-25T12:51:41Z</time>
      </trkpt>
      <trkpt lat="46.43396" lon="5.2688">
        <ele>212.4</ele>
        <time>2022-08-25T12:51:48Z</time>
      </trkpt>
      <trkpt lat="46.4338" lon="5.26877">
        <ele>212.8</ele>
        <time>2022-08-25T12:51:51Z</time>
      </trkpt>
      <trkpt lat="46.43347" lon="5.26873">
        <ele>213</ele>
        <time>2022-08-25T12:51:57Z</time>
      </trkpt>
      <trkpt lat="46.433" lon="5.26871">
        <ele>213.8</ele>
        <time>2022-08-25T12:52:05Z</time>
      </trkpt>
      <trkpt lat="46.43277" lon="5.26872">
        <ele>214</ele>
        <time>2022-08-25T12:52:09Z</time>
      </trkpt>
      <trkpt lat="46.43242" lon="5.26873">
        <ele>214.6</ele>
        <time>2022-08-25T12:52:15Z</time>
      </trkpt>
      <trkpt lat="46.43185" lon="5.26866">
        <ele>214.8</ele>
        <time>2022-08-25T12:52:25Z</time>
      </trkpt>
      <trkpt lat="46.4317" lon="5.26862">
        <ele>215.2</ele>
        <time>2022-08-25T12:52:28Z</time>
      </trkpt>
      <trkpt lat="46.43156" lon="5.26858">
        <ele>215.2</ele>
        <time>2022-08-25T12:52:31Z</time>
      </trkpt>
      <trkpt lat="46.4314" lon="5.26852">
        <ele>216.2</ele>
        <time>2022-08-25T12:52:35Z</time>
      </trkpt>
      <trkpt lat="46.43129" lon="5.2685">
        <ele>216.8</ele>
        <time>2022-08-25T12:52:38Z</time>
      </trkpt>
      <trkpt lat="46.43118" lon="5.26847">
        <ele>217.4</ele>
        <time>2022-08-25T12:52:41Z</time>
      </trkpt>
      <trkpt lat="46.43101" lon="5.26843">
        <ele>218.4</ele>
        <time>2022-08-25T12:52:46Z</time>
      </trkpt>
      <trkpt lat="46.43085" lon="5.2684">
        <ele>219.8</ele>
        <time>2022-08-25T12:52:51Z</time>
      </trkpt>
      <trkpt lat="46.43071" lon="5.26839">
        <ele>220.8</ele>
        <time>2022-08-25T12:52:55Z</time>
      </trkpt>
      <trkpt lat="46.43055" lon="5.26838">
        <ele>221.8</ele>
        <time>2022-08-25T12:53:00Z</time>
      </trkpt>
      <trkpt lat="46.43048" lon="5.26837">
        <ele>222.4</ele>
        <time>2022-08-25T12:53:02Z</time>
      </trkpt>
      <trkpt lat="46.43041" lon="5.26837">
        <ele>223.2</ele>
        <time>2022-08-25T12:53:04Z</time>
      </trkpt>
      <trkpt lat="46.43016" lon="5.26838">
        <ele>224.2</ele>
        <time>2022-08-25T12:53:11Z</time>
      </trkpt>
      <trkpt lat="46.43004" lon="5.26839">
        <ele>224.6</ele>
        <time>2022-08-25T12:53:14Z</time>
      </trkpt>
      <trkpt lat="46.42971" lon="5.26843">
        <ele>225.2</ele>
        <time>2022-08-25T12:53:22Z</time>
      </trkpt>
      <trkpt lat="46.42934" lon="5.26847">
        <ele>226.4</ele>
        <time>2022-08-25T12:53:30Z</time>
      </trkpt>
      <trkpt lat="46.4288" lon="5.26855">
        <ele>227.2</ele>
        <time>2022-08-25T12:53:40Z</time>
      </trkpt>
      <trkpt lat="46.42834" lon="5.26854">
        <ele>227.2</ele>
        <time>2022-08-25T12:53:47Z</time>
      </trkpt>
      <trkpt lat="46.42791" lon="5.26847">
        <ele>225.4</ele>
        <time>2022-08-25T12:53:53Z</time>
      </trkpt>
      <trkpt lat="46.42768" lon="5.26841">
        <ele>225.2</ele>
        <time>2022-08-25T12:53:56Z</time>
      </trkpt>
      <trkpt lat="46.42742" lon="5.26834">
        <ele>224.6</ele>
        <time>2022-08-25T12:53:59Z</time>
      </trkpt>
      <trkpt lat="46.42733" lon="5.26833">
        <ele>224</ele>
        <time>2022-08-25T12:54:00Z</time>
      </trkpt>
      <trkpt lat="46.42706" lon="5.26826">
        <ele>222.8</ele>
        <time>2022-08-25T12:54:03Z</time>
      </trkpt>
      <trkpt lat="46.42677" lon="5.26819">
        <ele>221.4</ele>
        <time>2022-08-25T12:54:06Z</time>
      </trkpt>
      <trkpt lat="46.42667" lon="5.26817">
        <ele>220.4</ele>
        <time>2022-08-25T12:54:07Z</time>
      </trkpt>
      <trkpt lat="46.42635" lon="5.2681">
        <ele>218.8</ele>
        <time>2022-08-25T12:54:10Z</time>
      </trkpt>
      <trkpt lat="46.42603" lon="5.26802">
        <ele>217.6</ele>
        <time>2022-08-25T12:54:13Z</time>
      </trkpt>
      <trkpt lat="46.42592" lon="5.26799">
        <ele>216.4</ele>
        <time>2022-08-25T12:54:14Z</time>
      </trkpt>
      <trkpt lat="46.42571" lon="5.26793">
        <ele>215.4</ele>
        <time>2022-08-25T12:54:16Z</time>
      </trkpt>
      <trkpt lat="46.4254" lon="5.26786">
        <ele>214</ele>
        <time>2022-08-25T12:54:19Z</time>
      </trkpt>
      <trkpt lat="46.4253" lon="5.26784">
        <ele>213.4</ele>
        <time>2022-08-25T12:54:20Z</time>
      </trkpt>
      <trkpt lat="46.42521" lon="5.26782">
        <ele>213</ele>
        <time>2022-08-25T12:54:21Z</time>
      </trkpt>
      <trkpt lat="46.42485" lon="5.26773">
        <ele>211.8</ele>
        <time>2022-08-25T12:54:25Z</time>
      </trkpt>
      <trkpt lat="46.42476" lon="5.26771">
        <ele>211.6</ele>
        <time>2022-08-25T12:54:26Z</time>
      </trkpt>
      <trkpt lat="46.4244" lon="5.26761">
        <ele>211.2</ele>
        <time>2022-08-25T12:54:31Z</time>
      </trkpt>
      <trkpt lat="46.42402" lon="5.26753">
        <ele>211.6</ele>
        <time>2022-08-25T12:54:37Z</time>
      </trkpt>
      <trkpt lat="46.42361" lon="5.26742">
        <ele>212.2</ele>
        <time>2022-08-25T12:54:44Z</time>
      </trkpt>
      <trkpt lat="46.42345" lon="5.26739">
        <ele>213.2</ele>
        <time>2022-08-25T12:54:47Z</time>
      </trkpt>
      <trkpt lat="46.42317" lon="5.26732">
        <ele>213.8</ele>
        <time>2022-08-25T12:54:52Z</time>
      </trkpt>
      <trkpt lat="46.42306" lon="5.26729">
        <ele>214.4</ele>
        <time>2022-08-25T12:54:54Z</time>
      </trkpt>
      <trkpt lat="46.4227" lon="5.26719">
        <ele>215.4</ele>
        <time>2022-08-25T12:55:01Z</time>
      </trkpt>
      <trkpt lat="46.42265" lon="5.26717">
        <ele>215.4</ele>
        <time>2022-08-25T12:55:02Z</time>
      </trkpt>
      <trkpt lat="46.42237" lon="5.26706">
        <ele>216.2</ele>
        <time>2022-08-25T12:55:08Z</time>
      </trkpt>
      <trkpt lat="46.42223" lon="5.26701">
        <ele>216.4</ele>
        <time>2022-08-25T12:55:11Z</time>
      </trkpt>
      <trkpt lat="46.42193" lon="5.2669">
        <ele>217.4</ele>
        <time>2022-08-25T12:55:17Z</time>
      </trkpt>
      <trkpt lat="46.42186" lon="5.26688">
        <ele>217.8</ele>
        <time>2022-08-25T12:55:18Z</time>
      </trkpt>
      <trkpt lat="46.42151" lon="5.26676">
        <ele>218.2</ele>
        <time>2022-08-25T12:55:24Z</time>
      </trkpt>
      <trkpt lat="46.42097" lon="5.26658">
        <ele>217.4</ele>
        <time>2022-08-25T12:55:32Z</time>
      </trkpt>
      <trkpt lat="46.42043" lon="5.26638">
        <ele>216.8</ele>
        <time>2022-08-25T12:55:40Z</time>
      </trkpt>
      <trkpt lat="46.42036" lon="5.26635">
        <ele>216.8</ele>
        <time>2022-08-25T12:55:41Z</time>
      </trkpt>
      <trkpt lat="46.41991" lon="5.26618">
        <ele>216.6</ele>
        <time>2022-08-25T12:55:48Z</time>
      </trkpt>
      <trkpt lat="46.41935" lon="5.26597">
        <ele>216.6</ele>
        <time>2022-08-25T12:55:57Z</time>
      </trkpt>
      <trkpt lat="46.41883" lon="5.26576">
        <ele>216.6</ele>
        <time>2022-08-25T12:56:05Z</time>
      </trkpt>
      <trkpt lat="46.4187" lon="5.2657">
        <ele>216.6</ele>
        <time>2022-08-25T12:56:07Z</time>
      </trkpt>
      <trkpt lat="46.41817" lon="5.26548">
        <ele>215.8</ele>
        <time>2022-08-25T12:56:15Z</time>
      </trkpt>
      <trkpt lat="46.41798" lon="5.2654">
        <ele>215.2</ele>
        <time>2022-08-25T12:56:18Z</time>
      </trkpt>
      <trkpt lat="46.41748" lon="5.26519">
        <ele>214.8</ele>
        <time>2022-08-25T12:56:26Z</time>
      </trkpt>
      <trkpt lat="46.41736" lon="5.26514">
        <ele>214.6</ele>
        <time>2022-08-25T12:56:28Z</time>
      </trkpt>
      <trkpt lat="46.41684" lon="5.26502">
        <ele>214.6</ele>
        <time>2022-08-25T12:56:36Z</time>
      </trkpt>
      <trkpt lat="46.41658" lon="5.26501">
        <ele>214.8</ele>
        <time>2022-08-25T12:56:40Z</time>
      </trkpt>
      <trkpt lat="46.41632" lon="5.26505">
        <ele>215</ele>
        <time>2022-08-25T12:56:44Z</time>
      </trkpt>
      <trkpt lat="46.41594" lon="5.2652">
        <ele>214.8</ele>
        <time>2022-08-25T12:56:50Z</time>
      </trkpt>
      <trkpt lat="46.41551" lon="5.26548">
        <ele>214.4</ele>
        <time>2022-08-25T12:56:57Z</time>
      </trkpt>
      <trkpt lat="46.41501" lon="5.26597">
        <ele>215</ele>
        <time>2022-08-25T12:57:06Z</time>
      </trkpt>
      <trkpt lat="46.41496" lon="5.26603">
        <ele>215</ele>
        <time>2022-08-25T12:57:07Z</time>
      </trkpt>
      <trkpt lat="46.41457" lon="5.26644">
        <ele>215.2</ele>
        <time>2022-08-25T12:57:15Z</time>
      </trkpt>
      <trkpt lat="46.41453" lon="5.26649">
        <ele>215</ele>
        <time>2022-08-25T12:57:16Z</time>
      </trkpt>
      <trkpt lat="46.41435" lon="5.26667">
        <ele>215.4</ele>
        <time>2022-08-25T12:57:20Z</time>
      </trkpt>
      <trkpt lat="46.41427" lon="5.26675">
        <ele>216</ele>
        <time>2022-08-25T12:57:22Z</time>
      </trkpt>
      <trkpt lat="46.41415" lon="5.26687">
        <ele>216.2</ele>
        <time>2022-08-25T12:57:25Z</time>
      </trkpt>
      <trkpt lat="46.41398" lon="5.26708">
        <ele>217</ele>
        <time>2022-08-25T12:57:30Z</time>
      </trkpt>
      <trkpt lat="46.41394" lon="5.26711">
        <ele>217</ele>
        <time>2022-08-25T12:57:31Z</time>
      </trkpt>
      <trkpt lat="46.41383" lon="5.26723">
        <ele>218</ele>
        <time>2022-08-25T12:57:34Z</time>
      </trkpt>
      <trkpt lat="46.41376" lon="5.2673">
        <ele>218.6</ele>
        <time>2022-08-25T12:57:36Z</time>
      </trkpt>
      <trkpt lat="46.41372" lon="5.26733">
        <ele>218.8</ele>
        <time>2022-08-25T12:57:37Z</time>
      </trkpt>
      <trkpt lat="46.41365" lon="5.2674">
        <ele>219.2</ele>
        <time>2022-08-25T12:57:39Z</time>
      </trkpt>
      <trkpt lat="46.41359" lon="5.26747">
        <ele>219.6</ele>
        <time>2022-08-25T12:57:41Z</time>
      </trkpt>
      <trkpt lat="46.41352" lon="5.26754">
        <ele>219.8</ele>
        <time>2022-08-25T12:57:43Z</time>
      </trkpt>
      <trkpt lat="46.41348" lon="5.26762">
        <ele>220.2</ele>
        <time>2022-08-25T12:57:45Z</time>
      </trkpt>
      <trkpt lat="46.41337" lon="5.26773">
        <ele>220.6</ele>
        <time>2022-08-25T12:57:48Z</time>
      </trkpt>
      <trkpt lat="46.41328" lon="5.26782">
        <ele>221.4</ele>
        <time>2022-08-25T12:57:51Z</time>
      </trkpt>
      <trkpt lat="46.41319" lon="5.26791">
        <ele>222.4</ele>
        <time>2022-08-25T12:57:54Z</time>
      </trkpt>
      <trkpt lat="46.41316" lon="5.26794">
        <ele>222.8</ele>
        <time>2022-08-25T12:57:55Z</time>
      </trkpt>
      <trkpt lat="46.41306" lon="5.268">
        <ele>223.4</ele>
        <time>2022-08-25T12:57:58Z</time>
      </trkpt>
      <trkpt lat="46.41292" lon="5.26807">
        <ele>224.2</ele>
        <time>2022-08-25T12:58:03Z</time>
      </trkpt>
      <trkpt lat="46.41286" lon="5.2681">
        <ele>224.6</ele>
        <time>2022-08-25T12:58:05Z</time>
      </trkpt>
      <trkpt lat="46.41264" lon="5.26816">
        <ele>225.6</ele>
        <time>2022-08-25T12:58:12Z</time>
      </trkpt>
      <trkpt lat="46.41261" lon="5.26817">
        <ele>225.8</ele>
        <time>2022-08-25T12:58:13Z</time>
      </trkpt>
      <trkpt lat="46.41252" lon="5.2682">
        <ele>227</ele>
        <time>2022-08-25T12:58:16Z</time>
      </trkpt>
      <trkpt lat="46.41229" lon="5.26834">
        <ele>228</ele>
        <time>2022-08-25T12:58:23Z</time>
      </trkpt>
      <trkpt lat="46.41202" lon="5.2685">
        <ele>228.8</ele>
        <time>2022-08-25T12:58:30Z</time>
      </trkpt>
      <trkpt lat="46.41188" lon="5.26852">
        <ele>229.2</ele>
        <time>2022-08-25T12:58:33Z</time>
      </trkpt>
      <trkpt lat="46.41184" lon="5.26855">
        <ele>229.2</ele>
        <time>2022-08-25T12:58:34Z</time>
      </trkpt>
      <trkpt lat="46.4118" lon="5.2686">
        <ele>229.2</ele>
        <time>2022-08-25T12:58:35Z</time>
      </trkpt>
      <trkpt lat="46.41173" lon="5.2687">
        <ele>229.4</ele>
        <time>2022-08-25T12:58:37Z</time>
      </trkpt>
      <trkpt lat="46.41171" lon="5.26874">
        <ele>229.6</ele>
        <time>2022-08-25T12:58:38Z</time>
      </trkpt>
      <trkpt lat="46.41167" lon="5.2688">
        <ele>229.6</ele>
        <time>2022-08-25T12:58:39Z</time>
      </trkpt>
      <trkpt lat="46.41159" lon="5.26886">
        <ele>229.6</ele>
        <time>2022-08-25T12:58:41Z</time>
      </trkpt>
      <trkpt lat="46.41154" lon="5.26889">
        <ele>229.8</ele>
        <time>2022-08-25T12:58:42Z</time>
      </trkpt>
      <trkpt lat="46.41125" lon="5.26899">
        <ele>230.2</ele>
        <time>2022-08-25T12:58:48Z</time>
      </trkpt>
      <trkpt lat="46.41097" lon="5.26905">
        <ele>230.6</ele>
        <time>2022-08-25T12:58:53Z</time>
      </trkpt>
      <trkpt lat="46.41057" lon="5.26905">
        <ele>230.4</ele>
        <time>2022-08-25T12:58:59Z</time>
      </trkpt>
      <trkpt lat="46.41007" lon="5.26906">
        <ele>229.6</ele>
        <time>2022-08-25T12:59:06Z</time>
      </trkpt>
      <trkpt lat="46.40969" lon="5.26913">
        <ele>229.2</ele>
        <time>2022-08-25T12:59:11Z</time>
      </trkpt>
      <trkpt lat="46.40936" lon="5.2692">
        <ele>228.4</ele>
        <time>2022-08-25T12:59:15Z</time>
      </trkpt>
      <trkpt lat="46.40907" lon="5.26929">
        <ele>228.2</ele>
        <time>2022-08-25T12:59:19Z</time>
      </trkpt>
      <trkpt lat="46.40877" lon="5.26942">
        <ele>227.8</ele>
        <time>2022-08-25T12:59:23Z</time>
      </trkpt>
      <trkpt lat="46.40849" lon="5.26957">
        <ele>227</ele>
        <time>2022-08-25T12:59:27Z</time>
      </trkpt>
      <trkpt lat="46.40813" lon="5.26976">
        <ele>226.8</ele>
        <time>2022-08-25T12:59:32Z</time>
      </trkpt>
      <trkpt lat="46.40791" lon="5.26983">
        <ele>226.8</ele>
        <time>2022-08-25T12:59:35Z</time>
      </trkpt>
      <trkpt lat="46.40776" lon="5.26983">
        <ele>226.8</ele>
        <time>2022-08-25T12:59:37Z</time>
      </trkpt>
      <trkpt lat="46.40755" lon="5.26978">
        <ele>226</ele>
        <time>2022-08-25T12:59:40Z</time>
      </trkpt>
      <trkpt lat="46.40742" lon="5.26977">
        <ele>225.8</ele>
        <time>2022-08-25T12:59:42Z</time>
      </trkpt>
      <trkpt lat="46.40734" lon="5.26976">
        <ele>225.8</ele>
        <time>2022-08-25T12:59:43Z</time>
      </trkpt>
      <trkpt lat="46.40717" lon="5.26971">
        <ele>225.8</ele>
        <time>2022-08-25T12:59:46Z</time>
      </trkpt>
      <trkpt lat="46.40703" lon="5.26967">
        <ele>226</ele>
        <time>2022-08-25T12:59:48Z</time>
      </trkpt>
      <trkpt lat="46.40686" lon="5.26964">
        <ele>226.2</ele>
        <time>2022-08-25T12:59:51Z</time>
      </trkpt>
      <trkpt lat="46.40647" lon="5.26952">
        <ele>227</ele>
        <time>2022-08-25T12:59:57Z</time>
      </trkpt>
      <trkpt lat="46.4064" lon="5.26949">
        <ele>227.2</ele>
        <time>2022-08-25T12:59:58Z</time>
      </trkpt>
      <trkpt lat="46.40604" lon="5.26928">
        <ele>227.4</ele>
        <time>2022-08-25T13:00:04Z</time>
      </trkpt>
      <trkpt lat="46.4055" lon="5.26901">
        <ele>226.6</ele>
        <time>2022-08-25T13:00:12Z</time>
      </trkpt>
      <trkpt lat="46.40542" lon="5.26898">
        <ele>226.4</ele>
        <time>2022-08-25T13:00:13Z</time>
      </trkpt>
      <trkpt lat="46.40513" lon="5.26891">
        <ele>226</ele>
        <time>2022-08-25T13:00:17Z</time>
      </trkpt>
      <trkpt lat="46.40498" lon="5.26888">
        <ele>226</ele>
        <time>2022-08-25T13:00:19Z</time>
      </trkpt>
      <trkpt lat="46.40454" lon="5.26883">
        <ele>226</ele>
        <time>2022-08-25T13:00:26Z</time>
      </trkpt>
      <trkpt lat="46.40397" lon="5.26877">
        <ele>226.6</ele>
        <time>2022-08-25T13:00:35Z</time>
      </trkpt>
      <trkpt lat="46.4035" lon="5.26886">
        <ele>226.6</ele>
        <time>2022-08-25T13:00:42Z</time>
      </trkpt>
      <trkpt lat="46.40304" lon="5.26891">
        <ele>227</ele>
        <time>2022-08-25T13:00:49Z</time>
      </trkpt>
      <trkpt lat="46.40284" lon="5.26892">
        <ele>227.2</ele>
        <time>2022-08-25T13:00:52Z</time>
      </trkpt>
      <trkpt lat="46.40245" lon="5.26894">
        <ele>228.2</ele>
        <time>2022-08-25T13:00:58Z</time>
      </trkpt>
      <trkpt lat="46.40221" lon="5.26895">
        <ele>228.2</ele>
        <time>2022-08-25T13:01:02Z</time>
      </trkpt>
      <trkpt lat="46.40189" lon="5.26896">
        <ele>228.2</ele>
        <time>2022-08-25T13:01:07Z</time>
      </trkpt>
      <trkpt lat="46.40138" lon="5.26899">
        <ele>228.6</ele>
        <time>2022-08-25T13:01:16Z</time>
      </trkpt>
      <trkpt lat="46.40099" lon="5.26899">
        <ele>229.4</ele>
        <time>2022-08-25T13:01:23Z</time>
      </trkpt>
      <trkpt lat="46.40056" lon="5.26885">
        <ele>230.2</ele>
        <time>2022-08-25T13:01:31Z</time>
      </trkpt>
      <trkpt lat="46.40047" lon="5.26882">
        <ele>230.4</ele>
        <time>2022-08-25T13:01:33Z</time>
      </trkpt>
      <trkpt lat="46.4003" lon="5.26876">
        <ele>231</ele>
        <time>2022-08-25T13:01:36Z</time>
      </trkpt>
      <trkpt lat="46.4002" lon="5.26871">
        <ele>231</ele>
        <time>2022-08-25T13:01:38Z</time>
      </trkpt>
      <trkpt lat="46.39981" lon="5.26854">
        <ele>231.6</ele>
        <time>2022-08-25T13:01:45Z</time>
      </trkpt>
      <trkpt lat="46.39963" lon="5.26845">
        <ele>231.6</ele>
        <time>2022-08-25T13:01:48Z</time>
      </trkpt>
      <trkpt lat="46.39916" lon="5.26824">
        <ele>231</ele>
        <time>2022-08-25T13:01:55Z</time>
      </trkpt>
      <trkpt lat="46.39892" lon="5.26813">
        <ele>230.4</ele>
        <time>2022-08-25T13:01:58Z</time>
      </trkpt>
      <trkpt lat="46.39876" lon="5.26809">
        <ele>229.8</ele>
        <time>2022-08-25T13:02:00Z</time>
      </trkpt>
      <trkpt lat="46.39858" lon="5.26809">
        <ele>229.2</ele>
        <time>2022-08-25T13:02:02Z</time>
      </trkpt>
      <trkpt lat="46.39832" lon="5.26811">
        <ele>228</ele>
        <time>2022-08-25T13:02:05Z</time>
      </trkpt>
      <trkpt lat="46.39789" lon="5.26818">
        <ele>227</ele>
        <time>2022-08-25T13:02:10Z</time>
      </trkpt>
      <trkpt lat="46.39776" lon="5.26822">
        <ele>226.8</ele>
        <time>2022-08-25T13:02:12Z</time>
      </trkpt>
      <trkpt lat="46.39731" lon="5.26837">
        <ele>226.6</ele>
        <time>2022-08-25T13:02:18Z</time>
      </trkpt>
      <trkpt lat="46.39693" lon="5.2684">
        <ele>227</ele>
        <time>2022-08-25T13:02:24Z</time>
      </trkpt>
      <trkpt lat="46.39661" lon="5.26835">
        <ele>228</ele>
        <time>2022-08-25T13:02:30Z</time>
      </trkpt>
      <trkpt lat="46.39655" lon="5.26834">
        <ele>228.4</ele>
        <time>2022-08-25T13:02:31Z</time>
      </trkpt>
      <trkpt lat="46.39633" lon="5.2683">
        <ele>229.2</ele>
        <time>2022-08-25T13:02:35Z</time>
      </trkpt>
      <trkpt lat="46.39629" lon="5.26829">
        <ele>229.2</ele>
        <time>2022-08-25T13:02:36Z</time>
      </trkpt>
      <trkpt lat="46.39612" lon="5.26828">
        <ele>229.6</ele>
        <time>2022-08-25T13:02:39Z</time>
      </trkpt>
      <trkpt lat="46.396" lon="5.26835">
        <ele>229.8</ele>
        <time>2022-08-25T13:02:41Z</time>
      </trkpt>
      <trkpt lat="46.39592" lon="5.26845">
        <ele>230</ele>
        <time>2022-08-25T13:02:43Z</time>
      </trkpt>
      <trkpt lat="46.39586" lon="5.26861">
        <ele>230</ele>
        <time>2022-08-25T13:02:45Z</time>
      </trkpt>
      <trkpt lat="46.39584" lon="5.26868">
        <ele>230</ele>
        <time>2022-08-25T13:02:46Z</time>
      </trkpt>
      <trkpt lat="46.39582" lon="5.26874">
        <ele>230.2</ele>
        <time>2022-08-25T13:02:47Z</time>
      </trkpt>
      <trkpt lat="46.3958" lon="5.2688">
        <ele>230.2</ele>
        <time>2022-08-25T13:02:48Z</time>
      </trkpt>
      <trkpt lat="46.39575" lon="5.26887">
        <ele>230.4</ele>
        <time>2022-08-25T13:02:49Z</time>
      </trkpt>
      <trkpt lat="46.39571" lon="5.26893">
        <ele>230.8</ele>
        <time>2022-08-25T13:02:50Z</time>
      </trkpt>
      <trkpt lat="46.39562" lon="5.26901">
        <ele>231.4</ele>
        <time>2022-08-25T13:02:52Z</time>
      </trkpt>
      <trkpt lat="46.39555" lon="5.26906">
        <ele>231.4</ele>
        <time>2022-08-25T13:02:53Z</time>
      </trkpt>
      <trkpt lat="46.3955" lon="5.26909">
        <ele>231.6</ele>
        <time>2022-08-25T13:02:54Z</time>
      </trkpt>
      <trkpt lat="46.39515" lon="5.26925">
        <ele>232.2</ele>
        <time>2022-08-25T13:03:00Z</time>
      </trkpt>
      <trkpt lat="46.39509" lon="5.26929">
        <ele>232.2</ele>
        <time>2022-08-25T13:03:01Z</time>
      </trkpt>
      <trkpt lat="46.39497" lon="5.26942">
        <ele>232.2</ele>
        <time>2022-08-25T13:03:03Z</time>
      </trkpt>
      <trkpt lat="46.39493" lon="5.26948">
        <ele>232.2</ele>
        <time>2022-08-25T13:03:04Z</time>
      </trkpt>
      <trkpt lat="46.39468" lon="5.27002">
        <ele>231.8</ele>
        <time>2022-08-25T13:03:10Z</time>
      </trkpt>
      <trkpt lat="46.3945" lon="5.27057">
        <ele>231.2</ele>
        <time>2022-08-25T13:03:15Z</time>
      </trkpt>
      <trkpt lat="46.39441" lon="5.27088">
        <ele>230.8</ele>
        <time>2022-08-25T13:03:18Z</time>
      </trkpt>
      <trkpt lat="46.3943" lon="5.27106">
        <ele>230.4</ele>
        <time>2022-08-25T13:03:20Z</time>
      </trkpt>
      <trkpt lat="46.39416" lon="5.27118">
        <ele>230.2</ele>
        <time>2022-08-25T13:03:22Z</time>
      </trkpt>
      <trkpt lat="46.39409" lon="5.27122">
        <ele>230</ele>
        <time>2022-08-25T13:03:23Z</time>
      </trkpt>
      <trkpt lat="46.39361" lon="5.27156">
        <ele>230.6</ele>
        <time>2022-08-25T13:03:30Z</time>
      </trkpt>
      <trkpt lat="46.39328" lon="5.27176">
        <ele>230.8</ele>
        <time>2022-08-25T13:03:35Z</time>
      </trkpt>
      <trkpt lat="46.39277" lon="5.27203">
        <ele>231</ele>
        <time>2022-08-25T13:03:43Z</time>
      </trkpt>
      <trkpt lat="46.3925" lon="5.27218">
        <ele>231.4</ele>
        <time>2022-08-25T13:03:48Z</time>
      </trkpt>
      <trkpt lat="46.39239" lon="5.27228">
        <ele>231.6</ele>
        <time>2022-08-25T13:03:50Z</time>
      </trkpt>
      <trkpt lat="46.39228" lon="5.27245">
        <ele>232.4</ele>
        <time>2022-08-25T13:03:53Z</time>
      </trkpt>
      <trkpt lat="46.39224" lon="5.27252">
        <ele>232.6</ele>
        <time>2022-08-25T13:03:54Z</time>
      </trkpt>
      <trkpt lat="46.39221" lon="5.27261">
        <ele>232.6</ele>
        <time>2022-08-25T13:03:55Z</time>
      </trkpt>
      <trkpt lat="46.392" lon="5.27334">
        <ele>233.4</ele>
        <time>2022-08-25T13:04:04Z</time>
      </trkpt>
      <trkpt lat="46.39196" lon="5.27349">
        <ele>233.6</ele>
        <time>2022-08-25T13:04:06Z</time>
      </trkpt>
      <trkpt lat="46.39184" lon="5.2738">
        <ele>234</ele>
        <time>2022-08-25T13:04:10Z</time>
      </trkpt>
      <trkpt lat="46.3917" lon="5.274">
        <ele>234</ele>
        <time>2022-08-25T13:04:13Z</time>
      </trkpt>
      <trkpt lat="46.39159" lon="5.27411">
        <ele>234</ele>
        <time>2022-08-25T13:04:15Z</time>
      </trkpt>
      <trkpt lat="46.39113" lon="5.27445">
        <ele>233.8</ele>
        <time>2022-08-25T13:04:23Z</time>
      </trkpt>
      <trkpt lat="46.39085" lon="5.27464">
        <ele>234.2</ele>
        <time>2022-08-25T13:04:28Z</time>
      </trkpt>
      <trkpt lat="46.3907" lon="5.27474">
        <ele>234.4</ele>
        <time>2022-08-25T13:04:31Z</time>
      </trkpt>
      <trkpt lat="46.39056" lon="5.27485">
        <ele>234.6</ele>
        <time>2022-08-25T13:04:33Z</time>
      </trkpt>
      <trkpt lat="46.39013" lon="5.27518">
        <ele>234.8</ele>
        <time>2022-08-25T13:04:40Z</time>
      </trkpt>
      <trkpt lat="46.39008" lon="5.27522">
        <ele>234.8</ele>
        <time>2022-08-25T13:04:41Z</time>
      </trkpt>
      <trkpt lat="46.38993" lon="5.27534">
        <ele>235</ele>
        <time>2022-08-25T13:04:44Z</time>
      </trkpt>
      <trkpt lat="46.38988" lon="5.27538">
        <ele>235</ele>
        <time>2022-08-25T13:04:45Z</time>
      </trkpt>
      <trkpt lat="46.38978" lon="5.27544">
        <ele>235.6</ele>
        <time>2022-08-25T13:04:47Z</time>
      </trkpt>
      <trkpt lat="46.38965" lon="5.2755">
        <ele>236</ele>
        <time>2022-08-25T13:04:49Z</time>
      </trkpt>
      <trkpt lat="46.38932" lon="5.27566">
        <ele>236.2</ele>
        <time>2022-08-25T13:04:54Z</time>
      </trkpt>
      <trkpt lat="46.38916" lon="5.27572">
        <ele>236.2</ele>
        <time>2022-08-25T13:04:56Z</time>
      </trkpt>
      <trkpt lat="46.38902" lon="5.2757">
        <ele>236.2</ele>
        <time>2022-08-25T13:04:58Z</time>
      </trkpt>
      <trkpt lat="46.38891" lon="5.27564">
        <ele>236.2</ele>
        <time>2022-08-25T13:05:00Z</time>
      </trkpt>
      <trkpt lat="46.38879" lon="5.27553">
        <ele>236.2</ele>
        <time>2022-08-25T13:05:02Z</time>
      </trkpt>
      <trkpt lat="46.38859" lon="5.27541">
        <ele>236.2</ele>
        <time>2022-08-25T13:05:06Z</time>
      </trkpt>
      <trkpt lat="46.38847" lon="5.27535">
        <ele>236.2</ele>
        <time>2022-08-25T13:05:08Z</time>
      </trkpt>
      <trkpt lat="46.38826" lon="5.27524">
        <ele>236.2</ele>
        <time>2022-08-25T13:05:11Z</time>
      </trkpt>
      <trkpt lat="46.38791" lon="5.2751">
        <ele>236.6</ele>
        <time>2022-08-25T13:05:17Z</time>
      </trkpt>
      <trkpt lat="46.38784" lon="5.27507">
        <ele>236.8</ele>
        <time>2022-08-25T13:05:18Z</time>
      </trkpt>
      <trkpt lat="46.38753" lon="5.27494">
        <ele>237</ele>
        <time>2022-08-25T13:05:23Z</time>
      </trkpt>
      <trkpt lat="46.38719" lon="5.27465">
        <ele>237.2</ele>
        <time>2022-08-25T13:05:29Z</time>
      </trkpt>
      <trkpt lat="46.38686" lon="5.27437">
        <ele>237.4</ele>
        <time>2022-08-25T13:05:35Z</time>
      </trkpt>
      <trkpt lat="46.38676" lon="5.27427">
        <ele>237.4</ele>
        <time>2022-08-25T13:05:37Z</time>
      </trkpt>
      <trkpt lat="46.38658" lon="5.27414">
        <ele>237.6</ele>
        <time>2022-08-25T13:05:40Z</time>
      </trkpt>
      <trkpt lat="46.38648" lon="5.27408">
        <ele>237.6</ele>
        <time>2022-08-25T13:05:42Z</time>
      </trkpt>
      <trkpt lat="46.38642" lon="5.27406">
        <ele>237.6</ele>
        <time>2022-08-25T13:05:43Z</time>
      </trkpt>
      <trkpt lat="46.38636" lon="5.27406">
        <ele>237.6</ele>
        <time>2022-08-25T13:05:44Z</time>
      </trkpt>
      <trkpt lat="46.38625" lon="5.27414">
        <ele>237.4</ele>
        <time>2022-08-25T13:05:46Z</time>
      </trkpt>
      <trkpt lat="46.38602" lon="5.27452">
        <ele>237</ele>
        <time>2022-08-25T13:05:51Z</time>
      </trkpt>
      <trkpt lat="46.38584" lon="5.27473">
        <ele>236.4</ele>
        <time>2022-08-25T13:05:54Z</time>
      </trkpt>
      <trkpt lat="46.38575" lon="5.2748">
        <ele>236.2</ele>
        <time>2022-08-25T13:05:55Z</time>
      </trkpt>
      <trkpt lat="46.38568" lon="5.27485">
        <ele>236</ele>
        <time>2022-08-25T13:05:56Z</time>
      </trkpt>
      <trkpt lat="46.38551" lon="5.27495">
        <ele>235.2</ele>
        <time>2022-08-25T13:05:58Z</time>
      </trkpt>
      <trkpt lat="46.38522" lon="5.2751">
        <ele>234</ele>
        <time>2022-08-25T13:06:01Z</time>
      </trkpt>
      <trkpt lat="46.38513" lon="5.27517">
        <ele>232.8</ele>
        <time>2022-08-25T13:06:02Z</time>
      </trkpt>
      <trkpt lat="46.38491" lon="5.27537">
        <ele>231.6</ele>
        <time>2022-08-25T13:06:04Z</time>
      </trkpt>
      <trkpt lat="46.38484" lon="5.27545">
        <ele>230.8</ele>
        <time>2022-08-25T13:06:05Z</time>
      </trkpt>
      <trkpt lat="46.38473" lon="5.27558">
        <ele>230.4</ele>
        <time>2022-08-25T13:06:06Z</time>
      </trkpt>
      <trkpt lat="46.38455" lon="5.27581">
        <ele>228.8</ele>
        <time>2022-08-25T13:06:08Z</time>
      </trkpt>
      <trkpt lat="46.38446" lon="5.27592">
        <ele>227.4</ele>
        <time>2022-08-25T13:06:09Z</time>
      </trkpt>
      <trkpt lat="46.38429" lon="5.27614">
        <ele>225.6</ele>
        <time>2022-08-25T13:06:11Z</time>
      </trkpt>
      <trkpt lat="46.38412" lon="5.27635">
        <ele>224.4</ele>
        <time>2022-08-25T13:06:13Z</time>
      </trkpt>
      <trkpt lat="46.38395" lon="5.27654">
        <ele>223.2</ele>
        <time>2022-08-25T13:06:15Z</time>
      </trkpt>
      <trkpt lat="46.38376" lon="5.27669">
        <ele>222</ele>
        <time>2022-08-25T13:06:17Z</time>
      </trkpt>
      <trkpt lat="46.38358" lon="5.2768">
        <ele>220.8</ele>
        <time>2022-08-25T13:06:19Z</time>
      </trkpt>
      <trkpt lat="46.38339" lon="5.27695">
        <ele>219.6</ele>
        <time>2022-08-25T13:06:21Z</time>
      </trkpt>
      <trkpt lat="46.38323" lon="5.27707">
        <ele>219</ele>
        <time>2022-08-25T13:06:23Z</time>
      </trkpt>
      <trkpt lat="46.38304" lon="5.27719">
        <ele>218.6</ele>
        <time>2022-08-25T13:06:25Z</time>
      </trkpt>
      <trkpt lat="46.38295" lon="5.27722">
        <ele>218.2</ele>
        <time>2022-08-25T13:06:26Z</time>
      </trkpt>
      <trkpt lat="46.38288" lon="5.27725">
        <ele>218.2</ele>
        <time>2022-08-25T13:06:27Z</time>
      </trkpt>
      <trkpt lat="46.38252" lon="5.27735">
        <ele>217.4</ele>
        <time>2022-08-25T13:06:31Z</time>
      </trkpt>
      <trkpt lat="46.38233" lon="5.27743">
        <ele>217.2</ele>
        <time>2022-08-25T13:06:33Z</time>
      </trkpt>
      <trkpt lat="46.38226" lon="5.27748">
        <ele>217</ele>
        <time>2022-08-25T13:06:34Z</time>
      </trkpt>
      <trkpt lat="46.38218" lon="5.27754">
        <ele>216.4</ele>
        <time>2022-08-25T13:06:35Z</time>
      </trkpt>
      <trkpt lat="46.38187" lon="5.2778">
        <ele>215.6</ele>
        <time>2022-08-25T13:06:39Z</time>
      </trkpt>
      <trkpt lat="46.38177" lon="5.278">
        <ele>215.8</ele>
        <time>2022-08-25T13:06:41Z</time>
      </trkpt>
      <trkpt lat="46.38175" lon="5.27811">
        <ele>215.6</ele>
        <time>2022-08-25T13:06:42Z</time>
      </trkpt>
      <trkpt lat="46.38171" lon="5.27873">
        <ele>215.4</ele>
        <time>2022-08-25T13:06:47Z</time>
      </trkpt>
      <trkpt lat="46.38161" lon="5.27948">
        <ele>215.2</ele>
        <time>2022-08-25T13:06:54Z</time>
      </trkpt>
      <trkpt lat="46.38158" lon="5.27968">
        <ele>215.2</ele>
        <time>2022-08-25T13:06:56Z</time>
      </trkpt>
      <trkpt lat="46.38152" lon="5.27986">
        <ele>215.2</ele>
        <time>2022-08-25T13:06:58Z</time>
      </trkpt>
      <trkpt lat="46.38148" lon="5.27995">
        <ele>215.4</ele>
        <time>2022-08-25T13:06:59Z</time>
      </trkpt>
      <trkpt lat="46.38141" lon="5.28008">
        <ele>215.6</ele>
        <time>2022-08-25T13:07:01Z</time>
      </trkpt>
      <trkpt lat="46.38136" lon="5.28014">
        <ele>215.6</ele>
        <time>2022-08-25T13:07:02Z</time>
      </trkpt>
      <trkpt lat="46.38107" lon="5.28054">
        <ele>216.6</ele>
        <time>2022-08-25T13:07:08Z</time>
      </trkpt>
      <trkpt lat="46.38099" lon="5.28066">
        <ele>216.6</ele>
        <time>2022-08-25T13:07:10Z</time>
      </trkpt>
      <trkpt lat="46.3807" lon="5.2811">
        <ele>216.8</ele>
        <time>2022-08-25T13:07:17Z</time>
      </trkpt>
      <trkpt lat="46.38042" lon="5.28153">
        <ele>217.8</ele>
        <time>2022-08-25T13:07:25Z</time>
      </trkpt>
      <trkpt lat="46.38019" lon="5.28176">
        <ele>218.8</ele>
        <time>2022-08-25T13:07:31Z</time>
      </trkpt>
      <trkpt lat="46.38016" lon="5.28178">
        <ele>219.4</ele>
        <time>2022-08-25T13:07:32Z</time>
      </trkpt>
      <trkpt lat="46.38005" lon="5.28186">
        <ele>220.4</ele>
        <time>2022-08-25T13:07:35Z</time>
      </trkpt>
      <trkpt lat="46.37993" lon="5.28193">
        <ele>221.4</ele>
        <time>2022-08-25T13:07:38Z</time>
      </trkpt>
      <trkpt lat="46.37989" lon="5.28196">
        <ele>221.8</ele>
        <time>2022-08-25T13:07:39Z</time>
      </trkpt>
      <trkpt lat="46.37981" lon="5.28199">
        <ele>222.2</ele>
        <time>2022-08-25T13:07:41Z</time>
      </trkpt>
      <trkpt lat="46.37972" lon="5.28198">
        <ele>222.6</ele>
        <time>2022-08-25T13:07:43Z</time>
      </trkpt>
      <trkpt lat="46.37952" lon="5.28189">
        <ele>223.2</ele>
        <time>2022-08-25T13:07:48Z</time>
      </trkpt>
      <trkpt lat="46.37943" lon="5.28183">
        <ele>223.6</ele>
        <time>2022-08-25T13:07:50Z</time>
      </trkpt>
      <trkpt lat="46.37905" lon="5.28156">
        <ele>224.4</ele>
        <time>2022-08-25T13:07:58Z</time>
      </trkpt>
      <trkpt lat="46.37871" lon="5.28132">
        <ele>224</ele>
        <time>2022-08-25T13:08:04Z</time>
      </trkpt>
      <trkpt lat="46.37835" lon="5.28114">
        <ele>223.8</ele>
        <time>2022-08-25T13:08:10Z</time>
      </trkpt>
      <trkpt lat="46.37818" lon="5.28106">
        <ele>223.8</ele>
        <time>2022-08-25T13:08:13Z</time>
      </trkpt>
      <trkpt lat="46.37807" lon="5.28096">
        <ele>223.8</ele>
        <time>2022-08-25T13:08:15Z</time>
      </trkpt>
      <trkpt lat="46.37799" lon="5.28087">
        <ele>224.2</ele>
        <time>2022-08-25T13:08:17Z</time>
      </trkpt>
      <trkpt lat="46.37791" lon="5.28075">
        <ele>224.6</ele>
        <time>2022-08-25T13:08:19Z</time>
      </trkpt>
      <trkpt lat="46.37787" lon="5.28068">
        <ele>224.8</ele>
        <time>2022-08-25T13:08:20Z</time>
      </trkpt>
      <trkpt lat="46.37785" lon="5.28062">
        <ele>224.8</ele>
        <time>2022-08-25T13:08:21Z</time>
      </trkpt>
      <trkpt lat="46.37776" lon="5.28042">
        <ele>225.2</ele>
        <time>2022-08-25T13:08:24Z</time>
      </trkpt>
      <trkpt lat="46.37771" lon="5.28032">
        <ele>226.2</ele>
        <time>2022-08-25T13:08:26Z</time>
      </trkpt>
      <trkpt lat="46.37768" lon="5.28026">
        <ele>226.2</ele>
        <time>2022-08-25T13:08:27Z</time>
      </trkpt>
      <trkpt lat="46.37761" lon="5.28015">
        <ele>226.8</ele>
        <time>2022-08-25T13:08:29Z</time>
      </trkpt>
      <trkpt lat="46.37754" lon="5.28004">
        <ele>227.2</ele>
        <time>2022-08-25T13:08:31Z</time>
      </trkpt>
      <trkpt lat="46.37747" lon="5.27996">
        <ele>227.6</ele>
        <time>2022-08-25T13:08:33Z</time>
      </trkpt>
      <trkpt lat="46.37743" lon="5.27991">
        <ele>227.8</ele>
        <time>2022-08-25T13:08:34Z</time>
      </trkpt>
      <trkpt lat="46.37739" lon="5.27984">
        <ele>228</ele>
        <time>2022-08-25T13:08:35Z</time>
      </trkpt>
      <trkpt lat="46.37733" lon="5.27971">
        <ele>228.2</ele>
        <time>2022-08-25T13:08:37Z</time>
      </trkpt>
      <trkpt lat="46.37729" lon="5.27963">
        <ele>228.2</ele>
        <time>2022-08-25T13:08:38Z</time>
      </trkpt>
      <trkpt lat="46.37726" lon="5.27956">
        <ele>228.2</ele>
        <time>2022-08-25T13:08:39Z</time>
      </trkpt>
      <trkpt lat="46.37711" lon="5.27936">
        <ele>228.2</ele>
        <time>2022-08-25T13:08:42Z</time>
      </trkpt>
      <trkpt lat="46.37699" lon="5.27925">
        <ele>228</ele>
        <time>2022-08-25T13:08:44Z</time>
      </trkpt>
      <trkpt lat="46.37687" lon="5.27917">
        <ele>227.6</ele>
        <time>2022-08-25T13:08:46Z</time>
      </trkpt>
      <trkpt lat="46.37664" lon="5.27901">
        <ele>227.2</ele>
        <time>2022-08-25T13:08:50Z</time>
      </trkpt>
      <trkpt lat="46.37649" lon="5.27887">
        <ele>227</ele>
        <time>2022-08-25T13:08:53Z</time>
      </trkpt>
      <trkpt lat="46.3762" lon="5.27854">
        <ele>228</ele>
        <time>2022-08-25T13:09:00Z</time>
      </trkpt>
      <trkpt lat="46.37612" lon="5.2784">
        <ele>228.2</ele>
        <time>2022-08-25T13:09:02Z</time>
      </trkpt>
      <trkpt lat="46.37609" lon="5.27833">
        <ele>228.4</ele>
        <time>2022-08-25T13:09:03Z</time>
      </trkpt>
      <trkpt lat="46.37606" lon="5.27824">
        <ele>228.4</ele>
        <time>2022-08-25T13:09:04Z</time>
      </trkpt>
      <trkpt lat="46.37589" lon="5.27772">
        <ele>228.2</ele>
        <time>2022-08-25T13:09:10Z</time>
      </trkpt>
      <trkpt lat="46.37577" lon="5.27733">
        <ele>227.8</ele>
        <time>2022-08-25T13:09:14Z</time>
      </trkpt>
      <trkpt lat="46.37572" lon="5.27724">
        <ele>227.6</ele>
        <time>2022-08-25T13:09:15Z</time>
      </trkpt>
      <trkpt lat="46.37566" lon="5.27718">
        <ele>227.4</ele>
        <time>2022-08-25T13:09:16Z</time>
      </trkpt>
      <trkpt lat="46.37552" lon="5.27709">
        <ele>227.2</ele>
        <time>2022-08-25T13:09:18Z</time>
      </trkpt>
      <trkpt lat="46.37545" lon="5.27706">
        <ele>227</ele>
        <time>2022-08-25T13:09:19Z</time>
      </trkpt>
      <trkpt lat="46.37538" lon="5.27705">
        <ele>226.6</ele>
        <time>2022-08-25T13:09:20Z</time>
      </trkpt>
      <trkpt lat="46.37516" lon="5.27704">
        <ele>226.2</ele>
        <time>2022-08-25T13:09:23Z</time>
      </trkpt>
      <trkpt lat="46.37502" lon="5.27702">
        <ele>226</ele>
        <time>2022-08-25T13:09:25Z</time>
      </trkpt>
      <trkpt lat="46.37476" lon="5.27694">
        <ele>225.8</ele>
        <time>2022-08-25T13:09:29Z</time>
      </trkpt>
      <trkpt lat="46.37469" lon="5.27692">
        <ele>225.8</ele>
        <time>2022-08-25T13:09:30Z</time>
      </trkpt>
      <trkpt lat="46.37439" lon="5.27673">
        <ele>226.6</ele>
        <time>2022-08-25T13:09:35Z</time>
      </trkpt>
      <trkpt lat="46.37421" lon="5.2766">
        <ele>226.6</ele>
        <time>2022-08-25T13:09:38Z</time>
      </trkpt>
      <trkpt lat="46.37408" lon="5.27654">
        <ele>226.4</ele>
        <time>2022-08-25T13:09:40Z</time>
      </trkpt>
      <trkpt lat="46.37402" lon="5.27652">
        <ele>226.4</ele>
        <time>2022-08-25T13:09:41Z</time>
      </trkpt>
      <trkpt lat="46.37366" lon="5.27642">
        <ele>226.6</ele>
        <time>2022-08-25T13:09:47Z</time>
      </trkpt>
      <trkpt lat="46.37362" lon="5.27637">
        <ele>226.6</ele>
        <time>2022-08-25T13:09:48Z</time>
      </trkpt>
      <trkpt lat="46.37358" lon="5.27631">
        <ele>226.6</ele>
        <time>2022-08-25T13:09:49Z</time>
      </trkpt>
      <trkpt lat="46.37356" lon="5.27611">
        <ele>226.6</ele>
        <time>2022-08-25T13:09:51Z</time>
      </trkpt>
      <trkpt lat="46.37363" lon="5.27561">
        <ele>226.2</ele>
        <time>2022-08-25T13:09:55Z</time>
      </trkpt>
      <trkpt lat="46.37372" lon="5.27523">
        <ele>224.6</ele>
        <time>2022-08-25T13:09:58Z</time>
      </trkpt>
      <trkpt lat="46.37376" lon="5.27511">
        <ele>224.2</ele>
        <time>2022-08-25T13:09:59Z</time>
      </trkpt>
      <trkpt lat="46.37387" lon="5.27478">
        <ele>223.6</ele>
        <time>2022-08-25T13:10:02Z</time>
      </trkpt>
      <trkpt lat="46.37396" lon="5.27457">
        <ele>223</ele>
        <time>2022-08-25T13:10:04Z</time>
      </trkpt>
      <trkpt lat="46.37403" lon="5.27446">
        <ele>222.8</ele>
        <time>2022-08-25T13:10:05Z</time>
      </trkpt>
      <trkpt lat="46.37415" lon="5.2743">
        <ele>222.6</ele>
        <time>2022-08-25T13:10:07Z</time>
      </trkpt>
      <trkpt lat="46.3743" lon="5.27419">
        <ele>222.4</ele>
        <time>2022-08-25T13:10:09Z</time>
      </trkpt>
      <trkpt lat="46.37437" lon="5.27413">
        <ele>222.4</ele>
        <time>2022-08-25T13:10:10Z</time>
      </trkpt>
      <trkpt lat="46.37449" lon="5.27399">
        <ele>222.4</ele>
        <time>2022-08-25T13:10:12Z</time>
      </trkpt>
      <trkpt lat="46.37458" lon="5.27382">
        <ele>222.4</ele>
        <time>2022-08-25T13:10:14Z</time>
      </trkpt>
      <trkpt lat="46.37466" lon="5.2736">
        <ele>222.4</ele>
        <time>2022-08-25T13:10:16Z</time>
      </trkpt>
      <trkpt lat="46.37473" lon="5.27323">
        <ele>222.2</ele>
        <time>2022-08-25T13:10:19Z</time>
      </trkpt>
      <trkpt lat="46.37474" lon="5.27309">
        <ele>222</ele>
        <time>2022-08-25T13:10:20Z</time>
      </trkpt>
      <trkpt lat="46.37472" lon="5.2728">
        <ele>221.4</ele>
        <time>2022-08-25T13:10:22Z</time>
      </trkpt>
      <trkpt lat="46.37472" lon="5.27265">
        <ele>220.8</ele>
        <time>2022-08-25T13:10:23Z</time>
      </trkpt>
      <trkpt lat="46.37473" lon="5.2725">
        <ele>220.4</ele>
        <time>2022-08-25T13:10:24Z</time>
      </trkpt>
      <trkpt lat="46.37475" lon="5.27234">
        <ele>219.8</ele>
        <time>2022-08-25T13:10:25Z</time>
      </trkpt>
      <trkpt lat="46.3748" lon="5.27205">
        <ele>218.8</ele>
        <time>2022-08-25T13:10:27Z</time>
      </trkpt>
      <trkpt lat="46.3748" lon="5.2719">
        <ele>218.2</ele>
        <time>2022-08-25T13:10:28Z</time>
      </trkpt>
      <trkpt lat="46.37478" lon="5.27175">
        <ele>218</ele>
        <time>2022-08-25T13:10:29Z</time>
      </trkpt>
      <trkpt lat="46.37476" lon="5.27162">
        <ele>217.6</ele>
        <time>2022-08-25T13:10:30Z</time>
      </trkpt>
      <trkpt lat="46.37471" lon="5.27136">
        <ele>217</ele>
        <time>2022-08-25T13:10:32Z</time>
      </trkpt>
      <trkpt lat="46.37462" lon="5.271">
        <ele>216.4</ele>
        <time>2022-08-25T13:10:35Z</time>
      </trkpt>
      <trkpt lat="46.37457" lon="5.27076">
        <ele>216.4</ele>
        <time>2022-08-25T13:10:37Z</time>
      </trkpt>
      <trkpt lat="46.37447" lon="5.27056">
        <ele>216.4</ele>
        <time>2022-08-25T13:10:39Z</time>
      </trkpt>
      <trkpt lat="46.37431" lon="5.27046">
        <ele>216.2</ele>
        <time>2022-08-25T13:10:41Z</time>
      </trkpt>
      <trkpt lat="46.37423" lon="5.27047">
        <ele>216</ele>
        <time>2022-08-25T13:10:42Z</time>
      </trkpt>
      <trkpt lat="46.37414" lon="5.27052">
        <ele>215.8</ele>
        <time>2022-08-25T13:10:43Z</time>
      </trkpt>
      <trkpt lat="46.37398" lon="5.27068">
        <ele>215.4</ele>
        <time>2022-08-25T13:10:45Z</time>
      </trkpt>
      <trkpt lat="46.37382" lon="5.27087">
        <ele>214.6</ele>
        <time>2022-08-25T13:10:47Z</time>
      </trkpt>
      <trkpt lat="46.37373" lon="5.27096">
        <ele>214.4</ele>
        <time>2022-08-25T13:10:48Z</time>
      </trkpt>
      <trkpt lat="46.37355" lon="5.27109">
        <ele>214</ele>
        <time>2022-08-25T13:10:50Z</time>
      </trkpt>
      <trkpt lat="46.37346" lon="5.27115">
        <ele>213.6</ele>
        <time>2022-08-25T13:10:51Z</time>
      </trkpt>
      <trkpt lat="46.37319" lon="5.27132">
        <ele>212.2</ele>
        <time>2022-08-25T13:10:54Z</time>
      </trkpt>
      <trkpt lat="46.37301" lon="5.27144">
        <ele>211.2</ele>
        <time>2022-08-25T13:10:56Z</time>
      </trkpt>
      <trkpt lat="46.37278" lon="5.27159">
        <ele>210</ele>
        <time>2022-08-25T13:10:59Z</time>
      </trkpt>
      <trkpt lat="46.37223" lon="5.27194">
        <ele>209</ele>
        <time>2022-08-25T13:11:06Z</time>
      </trkpt>
      <trkpt lat="46.37203" lon="5.27207">
        <ele>208.8</ele>
        <time>2022-08-25T13:11:09Z</time>
      </trkpt>
      <trkpt lat="46.37188" lon="5.27212">
        <ele>208.6</ele>
        <time>2022-08-25T13:11:11Z</time>
      </trkpt>
      <trkpt lat="46.37172" lon="5.27208">
        <ele>208.4</ele>
        <time>2022-08-25T13:11:13Z</time>
      </trkpt>
      <trkpt lat="46.37166" lon="5.27204">
        <ele>208.4</ele>
        <time>2022-08-25T13:11:14Z</time>
      </trkpt>
      <trkpt lat="46.37146" lon="5.27191">
        <ele>208.4</ele>
        <time>2022-08-25T13:11:17Z</time>
      </trkpt>
      <trkpt lat="46.37137" lon="5.27189">
        <ele>208.4</ele>
        <time>2022-08-25T13:11:18Z</time>
      </trkpt>
      <trkpt lat="46.37131" lon="5.2719">
        <ele>208.4</ele>
        <time>2022-08-25T13:11:19Z</time>
      </trkpt>
      <trkpt lat="46.37109" lon="5.27196">
        <ele>208.4</ele>
        <time>2022-08-25T13:11:22Z</time>
      </trkpt>
      <trkpt lat="46.37087" lon="5.27201">
        <ele>208.2</ele>
        <time>2022-08-25T13:11:25Z</time>
      </trkpt>
      <trkpt lat="46.37064" lon="5.27207">
        <ele>207.8</ele>
        <time>2022-08-25T13:11:28Z</time>
      </trkpt>
      <trkpt lat="46.37008" lon="5.27218">
        <ele>207.6</ele>
        <time>2022-08-25T13:11:36Z</time>
      </trkpt>
      <trkpt lat="46.37001" lon="5.27218">
        <ele>207.6</ele>
        <time>2022-08-25T13:11:37Z</time>
      </trkpt>
      <trkpt lat="46.36987" lon="5.27211">
        <ele>207.6</ele>
        <time>2022-08-25T13:11:39Z</time>
      </trkpt>
      <trkpt lat="46.36978" lon="5.27197">
        <ele>207.6</ele>
        <time>2022-08-25T13:11:41Z</time>
      </trkpt>
      <trkpt lat="46.36974" lon="5.27189">
        <ele>207.6</ele>
        <time>2022-08-25T13:11:42Z</time>
      </trkpt>
      <trkpt lat="46.36951" lon="5.27136">
        <ele>207.8</ele>
        <time>2022-08-25T13:11:48Z</time>
      </trkpt>
      <trkpt lat="46.36938" lon="5.27113">
        <ele>207.8</ele>
        <time>2022-08-25T13:11:51Z</time>
      </trkpt>
      <trkpt lat="46.36925" lon="5.271">
        <ele>207.6</ele>
        <time>2022-08-25T13:11:53Z</time>
      </trkpt>
      <trkpt lat="46.36913" lon="5.27095">
        <ele>207.4</ele>
        <time>2022-08-25T13:11:55Z</time>
      </trkpt>
      <trkpt lat="46.36898" lon="5.27092">
        <ele>207.4</ele>
        <time>2022-08-25T13:11:57Z</time>
      </trkpt>
      <trkpt lat="46.36884" lon="5.2709">
        <ele>207</ele>
        <time>2022-08-25T13:11:59Z</time>
      </trkpt>
      <trkpt lat="46.36872" lon="5.27087">
        <ele>207</ele>
        <time>2022-08-25T13:12:01Z</time>
      </trkpt>
      <trkpt lat="46.36859" lon="5.27081">
        <ele>206.6</ele>
        <time>2022-08-25T13:12:03Z</time>
      </trkpt>
      <trkpt lat="46.36832" lon="5.27062">
        <ele>206.4</ele>
        <time>2022-08-25T13:12:08Z</time>
      </trkpt>
      <trkpt lat="46.36782" lon="5.27027">
        <ele>206.4</ele>
        <time>2022-08-25T13:12:17Z</time>
      </trkpt>
      <trkpt lat="46.36764" lon="5.27014">
        <ele>206.4</ele>
        <time>2022-08-25T13:12:21Z</time>
      </trkpt>
      <trkpt lat="46.36761" lon="5.27013">
        <ele>206.4</ele>
        <time>2022-08-25T13:12:22Z</time>
      </trkpt>
      <trkpt lat="46.36754" lon="5.27014">
        <ele>206.4</ele>
        <time>2022-08-25T13:12:24Z</time>
      </trkpt>
      <trkpt lat="46.36752" lon="5.27016">
        <ele>206.4</ele>
        <time>2022-08-25T13:12:25Z</time>
      </trkpt>
      <trkpt lat="46.3675" lon="5.27023">
        <ele>206.4</ele>
        <time>2022-08-25T13:12:30Z</time>
      </trkpt>
      <trkpt lat="46.36752" lon="5.27021">
        <ele>206.8</ele>
        <time>2022-08-25T13:13:26Z</time>
      </trkpt>
      <trkpt lat="46.36753" lon="5.27016">
        <ele>206.8</ele>
        <time>2022-08-25T13:13:28Z</time>
      </trkpt>
      <trkpt lat="46.36753" lon="5.2701">
        <ele>206.8</ele>
        <time>2022-08-25T13:13:30Z</time>
      </trkpt>
      <trkpt lat="46.36748" lon="5.27003">
        <ele>206.8</ele>
        <time>2022-08-25T13:13:32Z</time>
      </trkpt>
      <trkpt lat="46.36735" lon="5.26991">
        <ele>206.8</ele>
        <time>2022-08-25T13:13:35Z</time>
      </trkpt>
      <trkpt lat="46.36731" lon="5.26985">
        <ele>206.8</ele>
        <time>2022-08-25T13:13:36Z</time>
      </trkpt>
      <trkpt lat="46.36723" lon="5.26965">
        <ele>207</ele>
        <time>2022-08-25T13:13:39Z</time>
      </trkpt>
      <trkpt lat="46.3672" lon="5.26951">
        <ele>207.2</ele>
        <time>2022-08-25T13:13:41Z</time>
      </trkpt>
      <trkpt lat="46.36719" lon="5.26943">
        <ele>207.2</ele>
        <time>2022-08-25T13:13:42Z</time>
      </trkpt>
      <trkpt lat="46.36719" lon="5.26915">
        <ele>207.4</ele>
        <time>2022-08-25T13:13:45Z</time>
      </trkpt>
      <trkpt lat="46.36719" lon="5.26906">
        <ele>207.4</ele>
        <time>2022-08-25T13:13:46Z</time>
      </trkpt>
      <trkpt lat="46.36722" lon="5.26889">
        <ele>207.4</ele>
        <time>2022-08-25T13:13:48Z</time>
      </trkpt>
      <trkpt lat="46.36727" lon="5.26865">
        <ele>207.4</ele>
        <time>2022-08-25T13:13:51Z</time>
      </trkpt>
      <trkpt lat="46.3674" lon="5.26801">
        <ele>207</ele>
        <time>2022-08-25T13:13:58Z</time>
      </trkpt>
      <trkpt lat="46.3674" lon="5.26792">
        <ele>207</ele>
        <time>2022-08-25T13:13:59Z</time>
      </trkpt>
      <trkpt lat="46.36739" lon="5.26774">
        <ele>207</ele>
        <time>2022-08-25T13:14:01Z</time>
      </trkpt>
      <trkpt lat="46.36735" lon="5.26759">
        <ele>206.8</ele>
        <time>2022-08-25T13:14:03Z</time>
      </trkpt>
      <trkpt lat="46.36728" lon="5.26742">
        <ele>207</ele>
        <time>2022-08-25T13:14:05Z</time>
      </trkpt>
      <trkpt lat="46.36719" lon="5.26729">
        <ele>207</ele>
        <time>2022-08-25T13:14:07Z</time>
      </trkpt>
      <trkpt lat="46.3669" lon="5.26698">
        <ele>207.2</ele>
        <time>2022-08-25T13:14:13Z</time>
      </trkpt>
      <trkpt lat="46.36676" lon="5.26694">
        <ele>207.2</ele>
        <time>2022-08-25T13:14:15Z</time>
      </trkpt>
      <trkpt lat="46.36665" lon="5.26694">
        <ele>207.2</ele>
        <time>2022-08-25T13:14:17Z</time>
      </trkpt>
      <trkpt lat="46.36658" lon="5.26695">
        <ele>207.4</ele>
        <time>2022-08-25T13:14:18Z</time>
      </trkpt>
      <trkpt lat="46.3662" lon="5.267">
        <ele>207.4</ele>
        <time>2022-08-25T13:14:24Z</time>
      </trkpt>
      <trkpt lat="46.36561" lon="5.26698">
        <ele>207.4</ele>
        <time>2022-08-25T13:14:33Z</time>
      </trkpt>
      <trkpt lat="46.36515" lon="5.26688">
        <ele>207</ele>
        <time>2022-08-25T13:14:40Z</time>
      </trkpt>
      <trkpt lat="46.36457" lon="5.26666">
        <ele>207.2</ele>
        <time>2022-08-25T13:14:49Z</time>
      </trkpt>
      <trkpt lat="46.3644" lon="5.26657">
        <ele>207.2</ele>
        <time>2022-08-25T13:14:52Z</time>
      </trkpt>
      <trkpt lat="46.36387" lon="5.26625">
        <ele>208</ele>
        <time>2022-08-25T13:15:01Z</time>
      </trkpt>
      <trkpt lat="46.36359" lon="5.26606">
        <ele>208.4</ele>
        <time>2022-08-25T13:15:06Z</time>
      </trkpt>
      <trkpt lat="46.36351" lon="5.26603">
        <ele>208.6</ele>
        <time>2022-08-25T13:15:07Z</time>
      </trkpt>
      <trkpt lat="46.36313" lon="5.26603">
        <ele>209.2</ele>
        <time>2022-08-25T13:15:13Z</time>
      </trkpt>
      <trkpt lat="46.36281" lon="5.26613">
        <ele>209.4</ele>
        <time>2022-08-25T13:15:18Z</time>
      </trkpt>
      <trkpt lat="46.36261" lon="5.26619">
        <ele>209.6</ele>
        <time>2022-08-25T13:15:21Z</time>
      </trkpt>
      <trkpt lat="46.36216" lon="5.26627">
        <ele>209.8</ele>
        <time>2022-08-25T13:15:28Z</time>
      </trkpt>
      <trkpt lat="46.36178" lon="5.26621">
        <ele>210.4</ele>
        <time>2022-08-25T13:15:34Z</time>
      </trkpt>
      <trkpt lat="46.36166" lon="5.26617">
        <ele>210.6</ele>
        <time>2022-08-25T13:15:36Z</time>
      </trkpt>
      <trkpt lat="46.36149" lon="5.2661">
        <ele>211</ele>
        <time>2022-08-25T13:15:39Z</time>
      </trkpt>
      <trkpt lat="46.36145" lon="5.26607">
        <ele>211</ele>
        <time>2022-08-25T13:15:40Z</time>
      </trkpt>
      <trkpt lat="46.36132" lon="5.26598">
        <ele>211.6</ele>
        <time>2022-08-25T13:15:43Z</time>
      </trkpt>
      <trkpt lat="46.36125" lon="5.26588">
        <ele>212.2</ele>
        <time>2022-08-25T13:15:45Z</time>
      </trkpt>
      <trkpt lat="46.36119" lon="5.26577">
        <ele>212.6</ele>
        <time>2022-08-25T13:15:47Z</time>
      </trkpt>
      <trkpt lat="46.36116" lon="5.26571">
        <ele>213</ele>
        <time>2022-08-25T13:15:48Z</time>
      </trkpt>
      <trkpt lat="46.3611" lon="5.26554">
        <ele>213.4</ele>
        <time>2022-08-25T13:15:51Z</time>
      </trkpt>
      <trkpt lat="46.36108" lon="5.26549">
        <ele>213.8</ele>
        <time>2022-08-25T13:15:52Z</time>
      </trkpt>
      <trkpt lat="46.36104" lon="5.26538">
        <ele>214</ele>
        <time>2022-08-25T13:15:54Z</time>
      </trkpt>
      <trkpt lat="46.36096" lon="5.26518">
        <ele>214.8</ele>
        <time>2022-08-25T13:15:58Z</time>
      </trkpt>
      <trkpt lat="46.36086" lon="5.26502">
        <ele>216</ele>
        <time>2022-08-25T13:16:02Z</time>
      </trkpt>
      <trkpt lat="46.3608" lon="5.26494">
        <ele>216.6</ele>
        <time>2022-08-25T13:16:04Z</time>
      </trkpt>
      <trkpt lat="46.36073" lon="5.26486">
        <ele>217.2</ele>
        <time>2022-08-25T13:16:07Z</time>
      </trkpt>
      <trkpt lat="46.36061" lon="5.26474">
        <ele>218.8</ele>
        <time>2022-08-25T13:16:11Z</time>
      </trkpt>
      <trkpt lat="46.36056" lon="5.26468">
        <ele>219</ele>
        <time>2022-08-25T13:16:13Z</time>
      </trkpt>
      <trkpt lat="46.36046" lon="5.26459">
        <ele>219.8</ele>
        <time>2022-08-25T13:16:16Z</time>
      </trkpt>
      <trkpt lat="46.36031" lon="5.26443">
        <ele>221</ele>
        <time>2022-08-25T13:16:21Z</time>
      </trkpt>
      <trkpt lat="46.36014" lon="5.26422">
        <ele>222</ele>
        <time>2022-08-25T13:16:27Z</time>
      </trkpt>
      <trkpt lat="46.36005" lon="5.26411">
        <ele>222.6</ele>
        <time>2022-08-25T13:16:30Z</time>
      </trkpt>
      <trkpt lat="46.35994" lon="5.26397">
        <ele>223.4</ele>
        <time>2022-08-25T13:16:34Z</time>
      </trkpt>
      <trkpt lat="46.35979" lon="5.26381">
        <ele>224.2</ele>
        <time>2022-08-25T13:16:39Z</time>
      </trkpt>
      <trkpt lat="46.35975" lon="5.26379">
        <ele>224.4</ele>
        <time>2022-08-25T13:16:40Z</time>
      </trkpt>
      <trkpt lat="46.35957" lon="5.26369">
        <ele>225.4</ele>
        <time>2022-08-25T13:16:45Z</time>
      </trkpt>
      <trkpt lat="46.35953" lon="5.26368">
        <ele>225.6</ele>
        <time>2022-08-25T13:16:46Z</time>
      </trkpt>
      <trkpt lat="46.35933" lon="5.26362">
        <ele>226.6</ele>
        <time>2022-08-25T13:16:51Z</time>
      </trkpt>
      <trkpt lat="46.3592" lon="5.26359">
        <ele>227</ele>
        <time>2022-08-25T13:16:54Z</time>
      </trkpt>
      <trkpt lat="46.35887" lon="5.26357">
        <ele>227.6</ele>
        <time>2022-08-25T13:17:01Z</time>
      </trkpt>
      <trkpt lat="46.35847" lon="5.26363">
        <ele>228.8</ele>
        <time>2022-08-25T13:17:10Z</time>
      </trkpt>
      <trkpt lat="46.35839" lon="5.26362">
        <ele>229</ele>
        <time>2022-08-25T13:17:12Z</time>
      </trkpt>
      <trkpt lat="46.35822" lon="5.2636">
        <ele>229.8</ele>
        <time>2022-08-25T13:17:16Z</time>
      </trkpt>
      <trkpt lat="46.35802" lon="5.26355">
        <ele>230.8</ele>
        <time>2022-08-25T13:17:21Z</time>
      </trkpt>
      <trkpt lat="46.35799" lon="5.26354">
        <ele>230.8</ele>
        <time>2022-08-25T13:17:22Z</time>
      </trkpt>
      <trkpt lat="46.35785" lon="5.2635">
        <ele>232</ele>
        <time>2022-08-25T13:17:26Z</time>
      </trkpt>
      <trkpt lat="46.35778" lon="5.26348">
        <ele>232.6</ele>
        <time>2022-08-25T13:17:28Z</time>
      </trkpt>
      <trkpt lat="46.35771" lon="5.26347">
        <ele>233.2</ele>
        <time>2022-08-25T13:17:30Z</time>
      </trkpt>
      <trkpt lat="46.35758" lon="5.26346">
        <ele>234.4</ele>
        <time>2022-08-25T13:17:34Z</time>
      </trkpt>
      <trkpt lat="46.35751" lon="5.26345">
        <ele>234.8</ele>
        <time>2022-08-25T13:17:36Z</time>
      </trkpt>
      <trkpt lat="46.35744" lon="5.26344">
        <ele>235.4</ele>
        <time>2022-08-25T13:17:38Z</time>
      </trkpt>
      <trkpt lat="46.35733" lon="5.2634">
        <ele>236.6</ele>
        <time>2022-08-25T13:17:41Z</time>
      </trkpt>
      <trkpt lat="46.35719" lon="5.26335">
        <ele>237</ele>
        <time>2022-08-25T13:17:44Z</time>
      </trkpt>
      <trkpt lat="46.35705" lon="5.26327">
        <ele>237.2</ele>
        <time>2022-08-25T13:17:47Z</time>
      </trkpt>
      <trkpt lat="46.35694" lon="5.26322">
        <ele>237</ele>
        <time>2022-08-25T13:17:49Z</time>
      </trkpt>
      <trkpt lat="46.35661" lon="5.26316">
        <ele>236.6</ele>
        <time>2022-08-25T13:17:54Z</time>
      </trkpt>
      <trkpt lat="46.35616" lon="5.2631">
        <ele>235.6</ele>
        <time>2022-08-25T13:18:00Z</time>
      </trkpt>
      <trkpt lat="46.35609" lon="5.26309">
        <ele>235.4</ele>
        <time>2022-08-25T13:18:01Z</time>
      </trkpt>
      <trkpt lat="46.35552" lon="5.263">
        <ele>234.8</ele>
        <time>2022-08-25T13:18:09Z</time>
      </trkpt>
      <trkpt lat="46.35546" lon="5.263">
        <ele>234.8</ele>
        <time>2022-08-25T13:18:10Z</time>
      </trkpt>
      <trkpt lat="46.35506" lon="5.26304">
        <ele>234.8</ele>
        <time>2022-08-25T13:18:16Z</time>
      </trkpt>
      <trkpt lat="46.35469" lon="5.26304">
        <ele>235.4</ele>
        <time>2022-08-25T13:18:22Z</time>
      </trkpt>
      <trkpt lat="46.35412" lon="5.26299">
        <ele>236</ele>
        <time>2022-08-25T13:18:31Z</time>
      </trkpt>
      <trkpt lat="46.35399" lon="5.26298">
        <ele>236</ele>
        <time>2022-08-25T13:18:33Z</time>
      </trkpt>
      <trkpt lat="46.35375" lon="5.26293">
        <ele>236.4</ele>
        <time>2022-08-25T13:18:37Z</time>
      </trkpt>
      <trkpt lat="46.35363" lon="5.26288">
        <ele>236.6</ele>
        <time>2022-08-25T13:18:39Z</time>
      </trkpt>
      <trkpt lat="46.35358" lon="5.26284">
        <ele>236.6</ele>
        <time>2022-08-25T13:18:40Z</time>
      </trkpt>
      <trkpt lat="46.35347" lon="5.26273">
        <ele>236.8</ele>
        <time>2022-08-25T13:18:42Z</time>
      </trkpt>
      <trkpt lat="46.35342" lon="5.26267">
        <ele>236.8</ele>
        <time>2022-08-25T13:18:43Z</time>
      </trkpt>
      <trkpt lat="46.35318" lon="5.26223">
        <ele>237.4</ele>
        <time>2022-08-25T13:18:49Z</time>
      </trkpt>
      <trkpt lat="46.35315" lon="5.26218">
        <ele>237.4</ele>
        <time>2022-08-25T13:18:50Z</time>
      </trkpt>
      <trkpt lat="46.3531" lon="5.26211">
        <ele>237.6</ele>
        <time>2022-08-25T13:18:51Z</time>
      </trkpt>
      <trkpt lat="46.35301" lon="5.26203">
        <ele>237.8</ele>
        <time>2022-08-25T13:18:53Z</time>
      </trkpt>
      <trkpt lat="46.35286" lon="5.26194">
        <ele>238.8</ele>
        <time>2022-08-25T13:18:56Z</time>
      </trkpt>
      <trkpt lat="46.35269" lon="5.26189">
        <ele>239.2</ele>
        <time>2022-08-25T13:18:59Z</time>
      </trkpt>
      <trkpt lat="46.35235" lon="5.26184">
        <ele>239.6</ele>
        <time>2022-08-25T13:19:04Z</time>
      </trkpt>
      <trkpt lat="46.35191" lon="5.26172">
        <ele>239.4</ele>
        <time>2022-08-25T13:19:11Z</time>
      </trkpt>
      <trkpt lat="46.35137" lon="5.26158">
        <ele>239.2</ele>
        <time>2022-08-25T13:19:19Z</time>
      </trkpt>
      <trkpt lat="46.35084" lon="5.26145">
        <ele>239.2</ele>
        <time>2022-08-25T13:19:27Z</time>
      </trkpt>
      <trkpt lat="46.35071" lon="5.26141">
        <ele>239</ele>
        <time>2022-08-25T13:19:29Z</time>
      </trkpt>
      <trkpt lat="46.35027" lon="5.26118">
        <ele>239</ele>
        <time>2022-08-25T13:19:36Z</time>
      </trkpt>
      <trkpt lat="46.35006" lon="5.26109">
        <ele>238.6</ele>
        <time>2022-08-25T13:19:39Z</time>
      </trkpt>
      <trkpt lat="46.34992" lon="5.26108">
        <ele>238.2</ele>
        <time>2022-08-25T13:19:41Z</time>
      </trkpt>
      <trkpt lat="46.34977" lon="5.26108">
        <ele>237.6</ele>
        <time>2022-08-25T13:19:43Z</time>
      </trkpt>
      <trkpt lat="46.34928" lon="5.26111">
        <ele>236.8</ele>
        <time>2022-08-25T13:19:50Z</time>
      </trkpt>
      <trkpt lat="46.349" lon="5.26108">
        <ele>236.6</ele>
        <time>2022-08-25T13:19:54Z</time>
      </trkpt>
      <trkpt lat="46.34886" lon="5.26104">
        <ele>236.2</ele>
        <time>2022-08-25T13:19:56Z</time>
      </trkpt>
      <trkpt lat="46.34836" lon="5.26086">
        <ele>235.6</ele>
        <time>2022-08-25T13:20:03Z</time>
      </trkpt>
      <trkpt lat="46.34828" lon="5.26084">
        <ele>235.4</ele>
        <time>2022-08-25T13:20:04Z</time>
      </trkpt>
      <trkpt lat="46.34783" lon="5.26081">
        <ele>234.8</ele>
        <time>2022-08-25T13:20:10Z</time>
      </trkpt>
      <trkpt lat="46.34774" lon="5.26081">
        <ele>234.4</ele>
        <time>2022-08-25T13:20:11Z</time>
      </trkpt>
      <trkpt lat="46.34747" lon="5.26079">
        <ele>234</ele>
        <time>2022-08-25T13:20:14Z</time>
      </trkpt>
      <trkpt lat="46.34737" lon="5.26078">
        <ele>233.4</ele>
        <time>2022-08-25T13:20:15Z</time>
      </trkpt>
      <trkpt lat="46.34727" lon="5.26078">
        <ele>232.2</ele>
        <time>2022-08-25T13:20:16Z</time>
      </trkpt>
      <trkpt lat="46.34696" lon="5.26077">
        <ele>231</ele>
        <time>2022-08-25T13:20:19Z</time>
      </trkpt>
      <trkpt lat="46.34687" lon="5.26076">
        <ele>230.4</ele>
        <time>2022-08-25T13:20:20Z</time>
      </trkpt>
      <trkpt lat="46.3468" lon="5.26075">
        <ele>230</ele>
        <time>2022-08-25T13:20:21Z</time>
      </trkpt>
      <trkpt lat="46.34673" lon="5.26073">
        <ele>228.8</ele>
        <time>2022-08-25T13:20:22Z</time>
      </trkpt>
      <trkpt lat="46.34667" lon="5.26068">
        <ele>227.8</ele>
        <time>2022-08-25T13:20:23Z</time>
      </trkpt>
      <trkpt lat="46.34656" lon="5.26055">
        <ele>226.6</ele>
        <time>2022-08-25T13:20:25Z</time>
      </trkpt>
      <trkpt lat="46.34653" lon="5.26046">
        <ele>226.2</ele>
        <time>2022-08-25T13:20:26Z</time>
      </trkpt>
      <trkpt lat="46.34649" lon="5.26037">
        <ele>225.6</ele>
        <time>2022-08-25T13:20:27Z</time>
      </trkpt>
      <trkpt lat="46.34637" lon="5.26013">
        <ele>224.4</ele>
        <time>2022-08-25T13:20:30Z</time>
      </trkpt>
      <trkpt lat="46.34633" lon="5.26005">
        <ele>224.2</ele>
        <time>2022-08-25T13:20:31Z</time>
      </trkpt>
      <trkpt lat="46.34618" lon="5.25973">
        <ele>224</ele>
        <time>2022-08-25T13:20:35Z</time>
      </trkpt>
      <trkpt lat="46.34614" lon="5.25965">
        <ele>224</ele>
        <time>2022-08-25T13:20:36Z</time>
      </trkpt>
      <trkpt lat="46.34589" lon="5.25925">
        <ele>224.8</ele>
        <time>2022-08-25T13:20:42Z</time>
      </trkpt>
      <trkpt lat="46.34569" lon="5.25893">
        <ele>225.4</ele>
        <time>2022-08-25T13:20:47Z</time>
      </trkpt>
      <trkpt lat="46.34559" lon="5.25875">
        <ele>225.8</ele>
        <time>2022-08-25T13:20:50Z</time>
      </trkpt>
      <trkpt lat="46.3455" lon="5.25859">
        <ele>226</ele>
        <time>2022-08-25T13:20:53Z</time>
      </trkpt>
      <trkpt lat="46.34542" lon="5.25852">
        <ele>226.2</ele>
        <time>2022-08-25T13:20:55Z</time>
      </trkpt>
      <trkpt lat="46.34519" lon="5.25849">
        <ele>226.4</ele>
        <time>2022-08-25T13:20:59Z</time>
      </trkpt>
      <trkpt lat="46.34476" lon="5.25857">
        <ele>226.4</ele>
        <time>2022-08-25T13:21:06Z</time>
      </trkpt>
      <trkpt lat="46.34458" lon="5.25861">
        <ele>226.2</ele>
        <time>2022-08-25T13:21:09Z</time>
      </trkpt>
      <trkpt lat="46.34446" lon="5.25856">
        <ele>226.2</ele>
        <time>2022-08-25T13:21:11Z</time>
      </trkpt>
      <trkpt lat="46.34441" lon="5.25843">
        <ele>226.2</ele>
        <time>2022-08-25T13:21:13Z</time>
      </trkpt>
      <trkpt lat="46.34434" lon="5.2583">
        <ele>226.4</ele>
        <time>2022-08-25T13:21:15Z</time>
      </trkpt>
      <trkpt lat="46.34425" lon="5.2582">
        <ele>226.6</ele>
        <time>2022-08-25T13:21:17Z</time>
      </trkpt>
      <trkpt lat="46.34399" lon="5.25792">
        <ele>227</ele>
        <time>2022-08-25T13:21:23Z</time>
      </trkpt>
      <trkpt lat="46.34396" lon="5.25786">
        <ele>227.2</ele>
        <time>2022-08-25T13:21:24Z</time>
      </trkpt>
      <trkpt lat="46.34395" lon="5.2578">
        <ele>227.2</ele>
        <time>2022-08-25T13:21:25Z</time>
      </trkpt>
      <trkpt lat="46.34393" lon="5.25767">
        <ele>227.4</ele>
        <time>2022-08-25T13:21:27Z</time>
      </trkpt>
      <trkpt lat="46.3439" lon="5.25761">
        <ele>227.6</ele>
        <time>2022-08-25T13:21:28Z</time>
      </trkpt>
      <trkpt lat="46.34386" lon="5.25758">
        <ele>227.8</ele>
        <time>2022-08-25T13:21:29Z</time>
      </trkpt>
      <trkpt lat="46.34377" lon="5.25758">
        <ele>228</ele>
        <time>2022-08-25T13:21:31Z</time>
      </trkpt>
      <trkpt lat="46.34367" lon="5.25758">
        <ele>228.2</ele>
        <time>2022-08-25T13:21:33Z</time>
      </trkpt>
      <trkpt lat="46.34351" lon="5.25756">
        <ele>228.4</ele>
        <time>2022-08-25T13:21:36Z</time>
      </trkpt>
      <trkpt lat="46.34336" lon="5.25755">
        <ele>228.8</ele>
        <time>2022-08-25T13:21:39Z</time>
      </trkpt>
      <trkpt lat="46.343" lon="5.2575">
        <ele>229.8</ele>
        <time>2022-08-25T13:21:46Z</time>
      </trkpt>
      <trkpt lat="46.3429" lon="5.25748">
        <ele>230</ele>
        <time>2022-08-25T13:21:48Z</time>
      </trkpt>
      <trkpt lat="46.3428" lon="5.25741">
        <ele>230.6</ele>
        <time>2022-08-25T13:21:50Z</time>
      </trkpt>
      <trkpt lat="46.34276" lon="5.25737">
        <ele>230.8</ele>
        <time>2022-08-25T13:21:51Z</time>
      </trkpt>
      <trkpt lat="46.34272" lon="5.25733">
        <ele>231</ele>
        <time>2022-08-25T13:21:52Z</time>
      </trkpt>
      <trkpt lat="46.34263" lon="5.25726">
        <ele>231.4</ele>
        <time>2022-08-25T13:21:54Z</time>
      </trkpt>
      <trkpt lat="46.34256" lon="5.25718">
        <ele>231.6</ele>
        <time>2022-08-25T13:21:56Z</time>
      </trkpt>
      <trkpt lat="46.34237" lon="5.25701">
        <ele>232.2</ele>
        <time>2022-08-25T13:22:01Z</time>
      </trkpt>
      <trkpt lat="46.34227" lon="5.25695">
        <ele>232.4</ele>
        <time>2022-08-25T13:22:03Z</time>
      </trkpt>
      <trkpt lat="46.34195" lon="5.25683">
        <ele>233</ele>
        <time>2022-08-25T13:22:09Z</time>
      </trkpt>
      <trkpt lat="46.3418" lon="5.25678">
        <ele>233.2</ele>
        <time>2022-08-25T13:22:12Z</time>
      </trkpt>
      <trkpt lat="46.34165" lon="5.25674">
        <ele>233.4</ele>
        <time>2022-08-25T13:22:15Z</time>
      </trkpt>
      <trkpt lat="46.3416" lon="5.25674">
        <ele>233.6</ele>
        <time>2022-08-25T13:22:16Z</time>
      </trkpt>
      <trkpt lat="46.34132" lon="5.25674">
        <ele>234.2</ele>
        <time>2022-08-25T13:22:22Z</time>
      </trkpt>
      <trkpt lat="46.34128" lon="5.25675">
        <ele>234.4</ele>
        <time>2022-08-25T13:22:23Z</time>
      </trkpt>
      <trkpt lat="46.34123" lon="5.25675">
        <ele>234.6</ele>
        <time>2022-08-25T13:22:24Z</time>
      </trkpt>
      <trkpt lat="46.34118" lon="5.25675">
        <ele>234.6</ele>
        <time>2022-08-25T13:22:25Z</time>
      </trkpt>
      <trkpt lat="46.341" lon="5.2567">
        <ele>235.2</ele>
        <time>2022-08-25T13:22:29Z</time>
      </trkpt>
      <trkpt lat="46.34096" lon="5.25668">
        <ele>235.6</ele>
        <time>2022-08-25T13:22:30Z</time>
      </trkpt>
      <trkpt lat="46.34077" lon="5.25661">
        <ele>236.6</ele>
        <time>2022-08-25T13:22:34Z</time>
      </trkpt>
      <trkpt lat="46.34059" lon="5.25657">
        <ele>237.2</ele>
        <time>2022-08-25T13:22:38Z</time>
      </trkpt>
      <trkpt lat="46.34045" lon="5.25653">
        <ele>237.8</ele>
        <time>2022-08-25T13:22:41Z</time>
      </trkpt>
      <trkpt lat="46.34005" lon="5.25643">
        <ele>238.6</ele>
        <time>2022-08-25T13:22:49Z</time>
      </trkpt>
      <trkpt lat="46.3399" lon="5.25641">
        <ele>238.8</ele>
        <time>2022-08-25T13:22:52Z</time>
      </trkpt>
      <trkpt lat="46.33969" lon="5.25635">
        <ele>239.2</ele>
        <time>2022-08-25T13:22:56Z</time>
      </trkpt>
      <trkpt lat="46.33953" lon="5.25629">
        <ele>239.4</ele>
        <time>2022-08-25T13:23:01Z</time>
      </trkpt>
      <trkpt lat="46.33949" lon="5.25627">
        <ele>239.6</ele>
        <time>2022-08-25T13:23:06Z</time>
      </trkpt>
      <trkpt lat="46.33948" lon="5.25636">
        <ele>239.6</ele>
        <time>2022-08-25T13:23:12Z</time>
      </trkpt>
      <trkpt lat="46.33948" lon="5.25644">
        <ele>239.6</ele>
        <time>2022-08-25T13:23:14Z</time>
      </trkpt>
      <trkpt lat="46.33944" lon="5.25649">
        <ele>239.4</ele>
        <time>2022-08-25T13:23:16Z</time>
      </trkpt>
      <trkpt lat="46.33942" lon="5.25647">
        <ele>239.4</ele>
        <time>2022-08-25T13:23:17Z</time>
      </trkpt>
      <trkpt lat="46.33932" lon="5.25635">
        <ele>239.2</ele>
        <time>2022-08-25T13:23:20Z</time>
      </trkpt>
      <trkpt lat="46.33927" lon="5.25632">
        <ele>239</ele>
        <time>2022-08-25T13:23:21Z</time>
      </trkpt>
      <trkpt lat="46.33896" lon="5.25625">
        <ele>238.8</ele>
        <time>2022-08-25T13:23:26Z</time>
      </trkpt>
      <trkpt lat="46.33855" lon="5.25618">
        <ele>238.2</ele>
        <time>2022-08-25T13:23:31Z</time>
      </trkpt>
      <trkpt lat="46.33837" lon="5.25613">
        <ele>237.6</ele>
        <time>2022-08-25T13:23:33Z</time>
      </trkpt>
      <trkpt lat="46.33817" lon="5.25611">
        <ele>236.8</ele>
        <time>2022-08-25T13:23:35Z</time>
      </trkpt>
      <trkpt lat="46.33806" lon="5.25612">
        <ele>236.4</ele>
        <time>2022-08-25T13:23:36Z</time>
      </trkpt>
      <trkpt lat="46.33787" lon="5.25615">
        <ele>235</ele>
        <time>2022-08-25T13:23:38Z</time>
      </trkpt>
      <trkpt lat="46.33769" lon="5.25622">
        <ele>234.2</ele>
        <time>2022-08-25T13:23:40Z</time>
      </trkpt>
      <trkpt lat="46.33755" lon="5.25629">
        <ele>234</ele>
        <time>2022-08-25T13:23:41Z</time>
      </trkpt>
      <trkpt lat="46.33734" lon="5.25644">
        <ele>233</ele>
        <time>2022-08-25T13:23:43Z</time>
      </trkpt>
      <trkpt lat="46.33716" lon="5.25662">
        <ele>231.6</ele>
        <time>2022-08-25T13:23:45Z</time>
      </trkpt>
      <trkpt lat="46.33701" lon="5.25679">
        <ele>230.6</ele>
        <time>2022-08-25T13:23:47Z</time>
      </trkpt>
      <trkpt lat="46.33693" lon="5.2569">
        <ele>230.2</ele>
        <time>2022-08-25T13:23:48Z</time>
      </trkpt>
      <trkpt lat="46.33686" lon="5.257">
        <ele>229.6</ele>
        <time>2022-08-25T13:23:49Z</time>
      </trkpt>
      <trkpt lat="46.33657" lon="5.25737">
        <ele>229</ele>
        <time>2022-08-25T13:23:53Z</time>
      </trkpt>
      <trkpt lat="46.33629" lon="5.25765">
        <ele>229</ele>
        <time>2022-08-25T13:23:57Z</time>
      </trkpt>
      <trkpt lat="46.33622" lon="5.25769">
        <ele>229</ele>
        <time>2022-08-25T13:23:58Z</time>
      </trkpt>
      <trkpt lat="46.33581" lon="5.25781">
        <ele>230</ele>
        <time>2022-08-25T13:24:04Z</time>
      </trkpt>
      <trkpt lat="46.33569" lon="5.25782">
        <ele>230.8</ele>
        <time>2022-08-25T13:24:06Z</time>
      </trkpt>
      <trkpt lat="46.3355" lon="5.25785">
        <ele>231.8</ele>
        <time>2022-08-25T13:24:09Z</time>
      </trkpt>
      <trkpt lat="46.33544" lon="5.25786">
        <ele>232.2</ele>
        <time>2022-08-25T13:24:10Z</time>
      </trkpt>
      <trkpt lat="46.33518" lon="5.25796">
        <ele>233</ele>
        <time>2022-08-25T13:24:14Z</time>
      </trkpt>
      <trkpt lat="46.33511" lon="5.25801">
        <ele>233</ele>
        <time>2022-08-25T13:24:15Z</time>
      </trkpt>
      <trkpt lat="46.33505" lon="5.25807">
        <ele>233.2</ele>
        <time>2022-08-25T13:24:16Z</time>
      </trkpt>
      <trkpt lat="46.33481" lon="5.25837">
        <ele>233</ele>
        <time>2022-08-25T13:24:20Z</time>
      </trkpt>
      <trkpt lat="46.33439" lon="5.259">
        <ele>232.4</ele>
        <time>2022-08-25T13:24:28Z</time>
      </trkpt>
      <trkpt lat="46.33408" lon="5.25921">
        <ele>232.6</ele>
        <time>2022-08-25T13:24:33Z</time>
      </trkpt>
      <trkpt lat="46.3335" lon="5.25939">
        <ele>232.8</ele>
        <time>2022-08-25T13:24:41Z</time>
      </trkpt>
      <trkpt lat="46.33326" lon="5.25955">
        <ele>232.6</ele>
        <time>2022-08-25T13:24:44Z</time>
      </trkpt>
      <trkpt lat="46.33319" lon="5.25964">
        <ele>232.4</ele>
        <time>2022-08-25T13:24:45Z</time>
      </trkpt>
      <trkpt lat="46.33313" lon="5.25975">
        <ele>232</ele>
        <time>2022-08-25T13:24:46Z</time>
      </trkpt>
      <trkpt lat="46.33303" lon="5.26001">
        <ele>230.6</ele>
        <time>2022-08-25T13:24:48Z</time>
      </trkpt>
      <trkpt lat="46.33298" lon="5.26012">
        <ele>230.2</ele>
        <time>2022-08-25T13:24:49Z</time>
      </trkpt>
      <trkpt lat="46.3329" lon="5.26022">
        <ele>229.4</ele>
        <time>2022-08-25T13:24:50Z</time>
      </trkpt>
      <trkpt lat="46.33281" lon="5.26027">
        <ele>228.8</ele>
        <time>2022-08-25T13:24:51Z</time>
      </trkpt>
      <trkpt lat="46.33272" lon="5.26028">
        <ele>228.6</ele>
        <time>2022-08-25T13:24:52Z</time>
      </trkpt>
      <trkpt lat="46.33263" lon="5.26026">
        <ele>228.2</ele>
        <time>2022-08-25T13:24:53Z</time>
      </trkpt>
      <trkpt lat="46.33238" lon="5.2602">
        <ele>227</ele>
        <time>2022-08-25T13:24:56Z</time>
      </trkpt>
      <trkpt lat="46.33224" lon="5.26025">
        <ele>226.6</ele>
        <time>2022-08-25T13:24:58Z</time>
      </trkpt>
      <trkpt lat="46.33218" lon="5.26029">
        <ele>226.6</ele>
        <time>2022-08-25T13:24:59Z</time>
      </trkpt>
      <trkpt lat="46.33193" lon="5.26055">
        <ele>227</ele>
        <time>2022-08-25T13:25:04Z</time>
      </trkpt>
      <trkpt lat="46.33186" lon="5.26068">
        <ele>227.6</ele>
        <time>2022-08-25T13:25:06Z</time>
      </trkpt>
      <trkpt lat="46.33183" lon="5.26075">
        <ele>228.4</ele>
        <time>2022-08-25T13:25:07Z</time>
      </trkpt>
      <trkpt lat="46.33176" lon="5.26088">
        <ele>229</ele>
        <time>2022-08-25T13:25:09Z</time>
      </trkpt>
      <trkpt lat="46.33173" lon="5.26094">
        <ele>229.4</ele>
        <time>2022-08-25T13:25:10Z</time>
      </trkpt>
      <trkpt lat="46.33165" lon="5.26108">
        <ele>230.2</ele>
        <time>2022-08-25T13:25:12Z</time>
      </trkpt>
      <trkpt lat="46.33163" lon="5.26116">
        <ele>230.4</ele>
        <time>2022-08-25T13:25:13Z</time>
      </trkpt>
      <trkpt lat="46.3316" lon="5.26124">
        <ele>230.6</ele>
        <time>2022-08-25T13:25:14Z</time>
      </trkpt>
      <trkpt lat="46.33146" lon="5.26177">
        <ele>231.2</ele>
        <time>2022-08-25T13:25:20Z</time>
      </trkpt>
      <trkpt lat="46.33129" lon="5.26234">
        <ele>231</ele>
        <time>2022-08-25T13:25:26Z</time>
      </trkpt>
      <trkpt lat="46.33125" lon="5.26243">
        <ele>230.8</ele>
        <time>2022-08-25T13:25:27Z</time>
      </trkpt>
      <trkpt lat="46.33114" lon="5.26256">
        <ele>230.6</ele>
        <time>2022-08-25T13:25:29Z</time>
      </trkpt>
      <trkpt lat="46.33083" lon="5.26263">
        <ele>229.8</ele>
        <time>2022-08-25T13:25:33Z</time>
      </trkpt>
      <trkpt lat="46.33068" lon="5.26259">
        <ele>229.6</ele>
        <time>2022-08-25T13:25:35Z</time>
      </trkpt>
      <trkpt lat="46.33061" lon="5.26254">
        <ele>229.6</ele>
        <time>2022-08-25T13:25:36Z</time>
      </trkpt>
      <trkpt lat="46.33036" lon="5.26228">
        <ele>229.8</ele>
        <time>2022-08-25T13:25:41Z</time>
      </trkpt>
      <trkpt lat="46.33013" lon="5.262">
        <ele>231</ele>
        <time>2022-08-25T13:25:47Z</time>
      </trkpt>
      <trkpt lat="46.33" lon="5.26187">
        <ele>231.8</ele>
        <time>2022-08-25T13:25:50Z</time>
      </trkpt>
      <trkpt lat="46.32983" lon="5.26172">
        <ele>233</ele>
        <time>2022-08-25T13:25:54Z</time>
      </trkpt>
      <trkpt lat="46.32978" lon="5.26169">
        <ele>233.2</ele>
        <time>2022-08-25T13:25:55Z</time>
      </trkpt>
      <trkpt lat="46.32969" lon="5.26163">
        <ele>234</ele>
        <time>2022-08-25T13:25:57Z</time>
      </trkpt>
      <trkpt lat="46.32945" lon="5.26155">
        <ele>234.8</ele>
        <time>2022-08-25T13:26:02Z</time>
      </trkpt>
      <trkpt lat="46.32935" lon="5.26152">
        <ele>235.4</ele>
        <time>2022-08-25T13:26:04Z</time>
      </trkpt>
      <trkpt lat="46.32926" lon="5.26151">
        <ele>235.6</ele>
        <time>2022-08-25T13:26:06Z</time>
      </trkpt>
      <trkpt lat="46.32911" lon="5.26147">
        <ele>236.2</ele>
        <time>2022-08-25T13:26:09Z</time>
      </trkpt>
      <trkpt lat="46.32901" lon="5.26144">
        <ele>236.6</ele>
        <time>2022-08-25T13:26:11Z</time>
      </trkpt>
      <trkpt lat="46.32896" lon="5.26142">
        <ele>236.6</ele>
        <time>2022-08-25T13:26:12Z</time>
      </trkpt>
      <trkpt lat="46.32876" lon="5.2613">
        <ele>237</ele>
        <time>2022-08-25T13:26:16Z</time>
      </trkpt>
      <trkpt lat="46.3284" lon="5.26104">
        <ele>237.2</ele>
        <time>2022-08-25T13:26:23Z</time>
      </trkpt>
      <trkpt lat="46.328" lon="5.26091">
        <ele>237</ele>
        <time>2022-08-25T13:26:29Z</time>
      </trkpt>
      <trkpt lat="46.32756" lon="5.26084">
        <ele>236.6</ele>
        <time>2022-08-25T13:26:35Z</time>
      </trkpt>
      <trkpt lat="46.32744" lon="5.26081">
        <ele>236.4</ele>
        <time>2022-08-25T13:26:37Z</time>
      </trkpt>
      <trkpt lat="46.32724" lon="5.2607">
        <ele>236.2</ele>
        <time>2022-08-25T13:26:40Z</time>
      </trkpt>
      <trkpt lat="46.32673" lon="5.26029">
        <ele>235.8</ele>
        <time>2022-08-25T13:26:48Z</time>
      </trkpt>
      <trkpt lat="46.32665" lon="5.26024">
        <ele>235.6</ele>
        <time>2022-08-25T13:26:49Z</time>
      </trkpt>
      <trkpt lat="46.32651" lon="5.26014">
        <ele>235.4</ele>
        <time>2022-08-25T13:26:51Z</time>
      </trkpt>
      <trkpt lat="46.32619" lon="5.25999">
        <ele>234.2</ele>
        <time>2022-08-25T13:26:55Z</time>
      </trkpt>
      <trkpt lat="46.32584" lon="5.25987">
        <ele>233</ele>
        <time>2022-08-25T13:26:59Z</time>
      </trkpt>
      <trkpt lat="46.32574" lon="5.25984">
        <ele>232.4</ele>
        <time>2022-08-25T13:27:00Z</time>
      </trkpt>
      <trkpt lat="46.32556" lon="5.25982">
        <ele>231.6</ele>
        <time>2022-08-25T13:27:02Z</time>
      </trkpt>
      <trkpt lat="46.32528" lon="5.25977">
        <ele>230.4</ele>
        <time>2022-08-25T13:27:05Z</time>
      </trkpt>
      <trkpt lat="46.32499" lon="5.25974">
        <ele>229.6</ele>
        <time>2022-08-25T13:27:08Z</time>
      </trkpt>
      <trkpt lat="46.3249" lon="5.25973">
        <ele>229.2</ele>
        <time>2022-08-25T13:27:09Z</time>
      </trkpt>
      <trkpt lat="46.3246" lon="5.25971">
        <ele>228.2</ele>
        <time>2022-08-25T13:27:12Z</time>
      </trkpt>
      <trkpt lat="46.32438" lon="5.25969">
        <ele>227.4</ele>
        <time>2022-08-25T13:27:14Z</time>
      </trkpt>
      <trkpt lat="46.32427" lon="5.25969">
        <ele>227</ele>
        <time>2022-08-25T13:27:15Z</time>
      </trkpt>
      <trkpt lat="46.32406" lon="5.25968">
        <ele>225.2</ele>
        <time>2022-08-25T13:27:17Z</time>
      </trkpt>
      <trkpt lat="46.32384" lon="5.25967">
        <ele>224.2</ele>
        <time>2022-08-25T13:27:19Z</time>
      </trkpt>
      <trkpt lat="46.32352" lon="5.25961">
        <ele>223</ele>
        <time>2022-08-25T13:27:22Z</time>
      </trkpt>
      <trkpt lat="46.32331" lon="5.25949">
        <ele>221.8</ele>
        <time>2022-08-25T13:27:24Z</time>
      </trkpt>
      <trkpt lat="46.32322" lon="5.2594">
        <ele>221.4</ele>
        <time>2022-08-25T13:27:25Z</time>
      </trkpt>
      <trkpt lat="46.32313" lon="5.2593">
        <ele>220.4</ele>
        <time>2022-08-25T13:27:26Z</time>
      </trkpt>
      <trkpt lat="46.32304" lon="5.25922">
        <ele>220</ele>
        <time>2022-08-25T13:27:27Z</time>
      </trkpt>
      <trkpt lat="46.32295" lon="5.25916">
        <ele>219.4</ele>
        <time>2022-08-25T13:27:28Z</time>
      </trkpt>
      <trkpt lat="46.32259" lon="5.25904">
        <ele>219</ele>
        <time>2022-08-25T13:27:32Z</time>
      </trkpt>
      <trkpt lat="46.3221" lon="5.25893">
        <ele>219.2</ele>
        <time>2022-08-25T13:27:38Z</time>
      </trkpt>
      <trkpt lat="46.32158" lon="5.25894">
        <ele>219.6</ele>
        <time>2022-08-25T13:27:45Z</time>
      </trkpt>
      <trkpt lat="46.32125" lon="5.25905">
        <ele>220.2</ele>
        <time>2022-08-25T13:27:50Z</time>
      </trkpt>
      <trkpt lat="46.32118" lon="5.25905">
        <ele>220.2</ele>
        <time>2022-08-25T13:27:51Z</time>
      </trkpt>
      <trkpt lat="46.32111" lon="5.25904">
        <ele>220.2</ele>
        <time>2022-08-25T13:27:52Z</time>
      </trkpt>
      <trkpt lat="46.32097" lon="5.259">
        <ele>220.4</ele>
        <time>2022-08-25T13:27:54Z</time>
      </trkpt>
      <trkpt lat="46.32084" lon="5.25894">
        <ele>220.6</ele>
        <time>2022-08-25T13:27:56Z</time>
      </trkpt>
      <trkpt lat="46.32071" lon="5.25887">
        <ele>221</ele>
        <time>2022-08-25T13:27:58Z</time>
      </trkpt>
      <trkpt lat="46.32054" lon="5.25871">
        <ele>221.2</ele>
        <time>2022-08-25T13:28:01Z</time>
      </trkpt>
      <trkpt lat="46.32032" lon="5.25838">
        <ele>221.6</ele>
        <time>2022-08-25T13:28:06Z</time>
      </trkpt>
      <trkpt lat="46.32028" lon="5.25831">
        <ele>221.6</ele>
        <time>2022-08-25T13:28:07Z</time>
      </trkpt>
      <trkpt lat="46.32019" lon="5.2581">
        <ele>222.2</ele>
        <time>2022-08-25T13:28:10Z</time>
      </trkpt>
      <trkpt lat="46.32015" lon="5.25794">
        <ele>222.4</ele>
        <time>2022-08-25T13:28:12Z</time>
      </trkpt>
      <trkpt lat="46.32008" lon="5.25776">
        <ele>222.4</ele>
        <time>2022-08-25T13:28:14Z</time>
      </trkpt>
      <trkpt lat="46.31997" lon="5.25761">
        <ele>222.4</ele>
        <time>2022-08-25T13:28:16Z</time>
      </trkpt>
      <trkpt lat="46.31973" lon="5.25749">
        <ele>222</ele>
        <time>2022-08-25T13:28:19Z</time>
      </trkpt>
      <trkpt lat="46.31958" lon="5.25734">
        <ele>221.4</ele>
        <time>2022-08-25T13:28:21Z</time>
      </trkpt>
      <trkpt lat="46.31953" lon="5.25724">
        <ele>220.8</ele>
        <time>2022-08-25T13:28:22Z</time>
      </trkpt>
      <trkpt lat="46.31948" lon="5.25713">
        <ele>220.4</ele>
        <time>2022-08-25T13:28:23Z</time>
      </trkpt>
      <trkpt lat="46.31938" lon="5.25692">
        <ele>219.4</ele>
        <time>2022-08-25T13:28:25Z</time>
      </trkpt>
      <trkpt lat="46.31921" lon="5.25649">
        <ele>218.2</ele>
        <time>2022-08-25T13:28:29Z</time>
      </trkpt>
      <trkpt lat="46.31909" lon="5.25596">
        <ele>218</ele>
        <time>2022-08-25T13:28:34Z</time>
      </trkpt>
      <trkpt lat="46.31898" lon="5.25556">
        <ele>218.2</ele>
        <time>2022-08-25T13:28:38Z</time>
      </trkpt>
      <trkpt lat="46.31889" lon="5.25539">
        <ele>218.4</ele>
        <time>2022-08-25T13:28:40Z</time>
      </trkpt>
      <trkpt lat="46.31877" lon="5.2553">
        <ele>218.4</ele>
        <time>2022-08-25T13:28:42Z</time>
      </trkpt>
      <trkpt lat="46.3187" lon="5.25529">
        <ele>218.4</ele>
        <time>2022-08-25T13:28:43Z</time>
      </trkpt>
      <trkpt lat="46.31863" lon="5.25531">
        <ele>218.4</ele>
        <time>2022-08-25T13:28:44Z</time>
      </trkpt>
      <trkpt lat="46.31849" lon="5.25538">
        <ele>218.2</ele>
        <time>2022-08-25T13:28:46Z</time>
      </trkpt>
      <trkpt lat="46.31824" lon="5.25558">
        <ele>218.4</ele>
        <time>2022-08-25T13:28:50Z</time>
      </trkpt>
      <trkpt lat="46.31819" lon="5.25565">
        <ele>218.4</ele>
        <time>2022-08-25T13:28:51Z</time>
      </trkpt>
      <trkpt lat="46.31814" lon="5.25572">
        <ele>218.4</ele>
        <time>2022-08-25T13:28:52Z</time>
      </trkpt>
      <trkpt lat="46.31791" lon="5.25609">
        <ele>218.8</ele>
        <time>2022-08-25T13:28:57Z</time>
      </trkpt>
      <trkpt lat="46.31787" lon="5.25616">
        <ele>219</ele>
        <time>2022-08-25T13:28:58Z</time>
      </trkpt>
      <trkpt lat="46.31776" lon="5.25624">
        <ele>219</ele>
        <time>2022-08-25T13:29:00Z</time>
      </trkpt>
      <trkpt lat="46.31771" lon="5.25627">
        <ele>219</ele>
        <time>2022-08-25T13:29:01Z</time>
      </trkpt>
      <trkpt lat="46.3176" lon="5.25634">
        <ele>219.2</ele>
        <time>2022-08-25T13:29:03Z</time>
      </trkpt>
      <trkpt lat="46.31738" lon="5.25647">
        <ele>219.6</ele>
        <time>2022-08-25T13:29:07Z</time>
      </trkpt>
      <trkpt lat="46.31709" lon="5.25662">
        <ele>220.4</ele>
        <time>2022-08-25T13:29:13Z</time>
      </trkpt>
      <trkpt lat="46.31705" lon="5.25664">
        <ele>220.8</ele>
        <time>2022-08-25T13:29:14Z</time>
      </trkpt>
      <trkpt lat="46.31691" lon="5.25669">
        <ele>221.6</ele>
        <time>2022-08-25T13:29:17Z</time>
      </trkpt>
      <trkpt lat="46.31672" lon="5.25675">
        <ele>222.4</ele>
        <time>2022-08-25T13:29:21Z</time>
      </trkpt>
      <trkpt lat="46.31662" lon="5.25675">
        <ele>222.8</ele>
        <time>2022-08-25T13:29:23Z</time>
      </trkpt>
      <trkpt lat="46.31643" lon="5.25673">
        <ele>223.4</ele>
        <time>2022-08-25T13:29:27Z</time>
      </trkpt>
      <trkpt lat="46.31639" lon="5.25672">
        <ele>223.8</ele>
        <time>2022-08-25T13:29:28Z</time>
      </trkpt>
      <trkpt lat="46.31619" lon="5.25667">
        <ele>224.8</ele>
        <time>2022-08-25T13:29:33Z</time>
      </trkpt>
      <trkpt lat="46.31611" lon="5.25665">
        <ele>225</ele>
        <time>2022-08-25T13:29:35Z</time>
      </trkpt>
      <trkpt lat="46.31591" lon="5.25662">
        <ele>226</ele>
        <time>2022-08-25T13:29:40Z</time>
      </trkpt>
      <trkpt lat="46.31582" lon="5.25662">
        <ele>226.4</ele>
        <time>2022-08-25T13:29:42Z</time>
      </trkpt>
      <trkpt lat="46.31566" lon="5.25664">
        <ele>227</ele>
        <time>2022-08-25T13:29:46Z</time>
      </trkpt>
      <trkpt lat="46.31551" lon="5.25667">
        <ele>227.6</ele>
        <time>2022-08-25T13:29:50Z</time>
      </trkpt>
      <trkpt lat="46.31545" lon="5.25669">
        <ele>228.4</ele>
        <time>2022-08-25T13:29:52Z</time>
      </trkpt>
      <trkpt lat="46.31536" lon="5.25671">
        <ele>229.4</ele>
        <time>2022-08-25T13:29:55Z</time>
      </trkpt>
      <trkpt lat="46.31532" lon="5.25671">
        <ele>229.8</ele>
        <time>2022-08-25T13:29:56Z</time>
      </trkpt>
      <trkpt lat="46.31518" lon="5.25671">
        <ele>231</ele>
        <time>2022-08-25T13:30:00Z</time>
      </trkpt>
      <trkpt lat="46.31501" lon="5.2567">
        <ele>232.2</ele>
        <time>2022-08-25T13:30:05Z</time>
      </trkpt>
      <trkpt lat="46.31489" lon="5.25669">
        <ele>233.4</ele>
        <time>2022-08-25T13:30:08Z</time>
      </trkpt>
      <trkpt lat="46.31485" lon="5.25669">
        <ele>233.6</ele>
        <time>2022-08-25T13:30:09Z</time>
      </trkpt>
      <trkpt lat="46.3147" lon="5.25669">
        <ele>234.6</ele>
        <time>2022-08-25T13:30:13Z</time>
      </trkpt>
      <trkpt lat="46.31458" lon="5.2567">
        <ele>235</ele>
        <time>2022-08-25T13:30:16Z</time>
      </trkpt>
      <trkpt lat="46.31443" lon="5.25674">
        <ele>235.6</ele>
        <time>2022-08-25T13:30:20Z</time>
      </trkpt>
      <trkpt lat="46.31422" lon="5.2568">
        <ele>236</ele>
        <time>2022-08-25T13:30:25Z</time>
      </trkpt>
      <trkpt lat="46.31393" lon="5.25693">
        <ele>236.4</ele>
        <time>2022-08-25T13:30:31Z</time>
      </trkpt>
      <trkpt lat="46.31375" lon="5.25698">
        <ele>236.6</ele>
        <time>2022-08-25T13:30:34Z</time>
      </trkpt>
      <trkpt lat="46.31363" lon="5.25698">
        <ele>236.6</ele>
        <time>2022-08-25T13:30:36Z</time>
      </trkpt>
      <trkpt lat="46.31316" lon="5.25693">
        <ele>236.4</ele>
        <time>2022-08-25T13:30:44Z</time>
      </trkpt>
      <trkpt lat="46.31261" lon="5.25686">
        <ele>236.8</ele>
        <time>2022-08-25T13:30:53Z</time>
      </trkpt>
      <trkpt lat="46.31249" lon="5.25682">
        <ele>236.8</ele>
        <time>2022-08-25T13:30:55Z</time>
      </trkpt>
      <trkpt lat="46.31237" lon="5.25673">
        <ele>236.8</ele>
        <time>2022-08-25T13:30:57Z</time>
      </trkpt>
      <trkpt lat="46.31226" lon="5.25659">
        <ele>236.8</ele>
        <time>2022-08-25T13:30:59Z</time>
      </trkpt>
      <trkpt lat="46.31223" lon="5.25651">
        <ele>236.8</ele>
        <time>2022-08-25T13:31:00Z</time>
      </trkpt>
      <trkpt lat="46.31203" lon="5.25602">
        <ele>236.8</ele>
        <time>2022-08-25T13:31:06Z</time>
      </trkpt>
      <trkpt lat="46.31168" lon="5.25545">
        <ele>237.6</ele>
        <time>2022-08-25T13:31:14Z</time>
      </trkpt>
      <trkpt lat="46.31163" lon="5.25538">
        <ele>237.6</ele>
        <time>2022-08-25T13:31:15Z</time>
      </trkpt>
      <trkpt lat="46.31151" lon="5.25517">
        <ele>238</ele>
        <time>2022-08-25T13:31:18Z</time>
      </trkpt>
      <trkpt lat="46.31141" lon="5.25495">
        <ele>238</ele>
        <time>2022-08-25T13:31:21Z</time>
      </trkpt>
      <trkpt lat="46.31127" lon="5.25453">
        <ele>238.6</ele>
        <time>2022-08-25T13:31:26Z</time>
      </trkpt>
      <trkpt lat="46.31115" lon="5.25406">
        <ele>239</ele>
        <time>2022-08-25T13:31:31Z</time>
      </trkpt>
      <trkpt lat="46.311" lon="5.25359">
        <ele>239.2</ele>
        <time>2022-08-25T13:31:36Z</time>
      </trkpt>
      <trkpt lat="46.31073" lon="5.25312">
        <ele>238.8</ele>
        <time>2022-08-25T13:31:42Z</time>
      </trkpt>
      <trkpt lat="46.31041" lon="5.25254">
        <ele>238.8</ele>
        <time>2022-08-25T13:31:50Z</time>
      </trkpt>
      <trkpt lat="46.31034" lon="5.25242">
        <ele>239</ele>
        <time>2022-08-25T13:31:52Z</time>
      </trkpt>
      <trkpt lat="46.31026" lon="5.25238">
        <ele>239</ele>
        <time>2022-08-25T13:31:54Z</time>
      </trkpt>
      <trkpt lat="46.31018" lon="5.25245">
        <ele>239</ele>
        <time>2022-08-25T13:31:56Z</time>
      </trkpt>
      <trkpt lat="46.31015" lon="5.25252">
        <ele>239</ele>
        <time>2022-08-25T13:31:57Z</time>
      </trkpt>
      <trkpt lat="46.30996" lon="5.25316">
        <ele>239.2</ele>
        <time>2022-08-25T13:32:05Z</time>
      </trkpt>
      <trkpt lat="46.30984" lon="5.2536">
        <ele>239.8</ele>
        <time>2022-08-25T13:32:10Z</time>
      </trkpt>
      <trkpt lat="46.30975" lon="5.25395">
        <ele>240.6</ele>
        <time>2022-08-25T13:32:14Z</time>
      </trkpt>
      <trkpt lat="46.30961" lon="5.25438">
        <ele>241.2</ele>
        <time>2022-08-25T13:32:19Z</time>
      </trkpt>
      <trkpt lat="46.30951" lon="5.25462">
        <ele>241.6</ele>
        <time>2022-08-25T13:32:22Z</time>
      </trkpt>
      <trkpt lat="46.30923" lon="5.2552">
        <ele>242</ele>
        <time>2022-08-25T13:32:29Z</time>
      </trkpt>
      <trkpt lat="46.30912" lon="5.25535">
        <ele>242</ele>
        <time>2022-08-25T13:32:31Z</time>
      </trkpt>
      <trkpt lat="46.30898" lon="5.25547">
        <ele>241.8</ele>
        <time>2022-08-25T13:32:33Z</time>
      </trkpt>
      <trkpt lat="46.30861" lon="5.25566">
        <ele>241.2</ele>
        <time>2022-08-25T13:32:38Z</time>
      </trkpt>
      <trkpt lat="46.30839" lon="5.25577">
        <ele>241</ele>
        <time>2022-08-25T13:32:41Z</time>
      </trkpt>
      <trkpt lat="46.30828" lon="5.25588">
        <ele>241</ele>
        <time>2022-08-25T13:32:43Z</time>
      </trkpt>
      <trkpt lat="46.30819" lon="5.25603">
        <ele>241</ele>
        <time>2022-08-25T13:32:45Z</time>
      </trkpt>
      <trkpt lat="46.30814" lon="5.25618">
        <ele>241</ele>
        <time>2022-08-25T13:32:47Z</time>
      </trkpt>
      <trkpt lat="46.30806" lon="5.25662">
        <ele>242.2</ele>
        <time>2022-08-25T13:32:53Z</time>
      </trkpt>
      <trkpt lat="46.30804" lon="5.25669">
        <ele>242.2</ele>
        <time>2022-08-25T13:32:54Z</time>
      </trkpt>
      <trkpt lat="46.308" lon="5.25687">
        <ele>242.8</ele>
        <time>2022-08-25T13:32:56Z</time>
      </trkpt>
      <trkpt lat="46.30791" lon="5.25713">
        <ele>243.4</ele>
        <time>2022-08-25T13:32:59Z</time>
      </trkpt>
      <trkpt lat="46.30768" lon="5.25765">
        <ele>243.8</ele>
        <time>2022-08-25T13:33:05Z</time>
      </trkpt>
      <trkpt lat="46.30735" lon="5.25834">
        <ele>244</ele>
        <time>2022-08-25T13:33:13Z</time>
      </trkpt>
      <trkpt lat="46.30714" lon="5.25896">
        <ele>243.8</ele>
        <time>2022-08-25T13:33:20Z</time>
      </trkpt>
      <trkpt lat="46.30697" lon="5.25961">
        <ele>244.2</ele>
        <time>2022-08-25T13:33:27Z</time>
      </trkpt>
      <trkpt lat="46.30686" lon="5.26017">
        <ele>243.8</ele>
        <time>2022-08-25T13:33:32Z</time>
      </trkpt>
      <trkpt lat="46.30675" lon="5.26087">
        <ele>242.6</ele>
        <time>2022-08-25T13:33:38Z</time>
      </trkpt>
      <trkpt lat="46.30672" lon="5.26098">
        <ele>242.2</ele>
        <time>2022-08-25T13:33:39Z</time>
      </trkpt>
      <trkpt lat="46.30653" lon="5.26169">
        <ele>242</ele>
        <time>2022-08-25T13:33:46Z</time>
      </trkpt>
      <trkpt lat="46.30635" lon="5.26247">
        <ele>242.2</ele>
        <time>2022-08-25T13:33:54Z</time>
      </trkpt>
      <trkpt lat="46.30633" lon="5.26257">
        <ele>242.2</ele>
        <time>2022-08-25T13:33:55Z</time>
      </trkpt>
      <trkpt lat="46.3061" lon="5.26331">
        <ele>243</ele>
        <time>2022-08-25T13:34:03Z</time>
      </trkpt>
      <trkpt lat="46.30608" lon="5.26341">
        <ele>243</ele>
        <time>2022-08-25T13:34:04Z</time>
      </trkpt>
      <trkpt lat="46.30599" lon="5.26404">
        <ele>243</ele>
        <time>2022-08-25T13:34:10Z</time>
      </trkpt>
      <trkpt lat="46.30601" lon="5.2646">
        <ele>243</ele>
        <time>2022-08-25T13:34:15Z</time>
      </trkpt>
      <trkpt lat="46.30601" lon="5.26533">
        <ele>241.8</ele>
        <time>2022-08-25T13:34:20Z</time>
      </trkpt>
      <trkpt lat="46.30601" lon="5.26564">
        <ele>241.2</ele>
        <time>2022-08-25T13:34:22Z</time>
      </trkpt>
      <trkpt lat="46.30602" lon="5.26579">
        <ele>240.8</ele>
        <time>2022-08-25T13:34:23Z</time>
      </trkpt>
      <trkpt lat="46.30606" lon="5.2661">
        <ele>239.8</ele>
        <time>2022-08-25T13:34:24Z</time>
      </trkpt>
      <trkpt lat="46.30612" lon="5.26638">
        <ele>238.2</ele>
        <time>2022-08-25T13:34:26Z</time>
      </trkpt>
      <trkpt lat="46.30617" lon="5.26666">
        <ele>237</ele>
        <time>2022-08-25T13:34:28Z</time>
      </trkpt>
      <trkpt lat="46.30625" lon="5.26703">
        <ele>236.4</ele>
        <time>2022-08-25T13:34:31Z</time>
      </trkpt>
      <trkpt lat="46.30635" lon="5.26746">
        <ele>236.6</ele>
        <time>2022-08-25T13:34:36Z</time>
      </trkpt>
      <trkpt lat="46.30647" lon="5.268">
        <ele>238.4</ele>
        <time>2022-08-25T13:34:41Z</time>
      </trkpt>
      <trkpt lat="46.3065" lon="5.26816">
        <ele>238.8</ele>
        <time>2022-08-25T13:34:43Z</time>
      </trkpt>
      <trkpt lat="46.30651" lon="5.26832">
        <ele>239.4</ele>
        <time>2022-08-25T13:34:45Z</time>
      </trkpt>
      <trkpt lat="46.3065" lon="5.26841">
        <ele>239.6</ele>
        <time>2022-08-25T13:34:46Z</time>
      </trkpt>
      <trkpt lat="46.30648" lon="5.26858">
        <ele>240</ele>
        <time>2022-08-25T13:34:48Z</time>
      </trkpt>
      <trkpt lat="46.30643" lon="5.26874">
        <ele>240.4</ele>
        <time>2022-08-25T13:34:50Z</time>
      </trkpt>
      <trkpt lat="46.30641" lon="5.26881">
        <ele>240.6</ele>
        <time>2022-08-25T13:34:51Z</time>
      </trkpt>
      <trkpt lat="46.30625" lon="5.26925">
        <ele>241.6</ele>
        <time>2022-08-25T13:34:57Z</time>
      </trkpt>
      <trkpt lat="46.30622" lon="5.26941">
        <ele>242</ele>
        <time>2022-08-25T13:34:59Z</time>
      </trkpt>
      <trkpt lat="46.30617" lon="5.26957">
        <ele>242.6</ele>
        <time>2022-08-25T13:35:01Z</time>
      </trkpt>
      <trkpt lat="46.3061" lon="5.26982">
        <ele>242.8</ele>
        <time>2022-08-25T13:35:04Z</time>
      </trkpt>
      <trkpt lat="46.30605" lon="5.26998">
        <ele>243</ele>
        <time>2022-08-25T13:35:06Z</time>
      </trkpt>
      <trkpt lat="46.30581" lon="5.27069">
        <ele>243</ele>
        <time>2022-08-25T13:35:14Z</time>
      </trkpt>
      <trkpt lat="46.30567" lon="5.27135">
        <ele>242.6</ele>
        <time>2022-08-25T13:35:20Z</time>
      </trkpt>
      <trkpt lat="46.30558" lon="5.27194">
        <ele>241.4</ele>
        <time>2022-08-25T13:35:25Z</time>
      </trkpt>
      <trkpt lat="46.30554" lon="5.27214">
        <ele>241.2</ele>
        <time>2022-08-25T13:35:27Z</time>
      </trkpt>
      <trkpt lat="46.30545" lon="5.27256">
        <ele>241</ele>
        <time>2022-08-25T13:35:32Z</time>
      </trkpt>
      <trkpt lat="46.30536" lon="5.2729">
        <ele>242.6</ele>
        <time>2022-08-25T13:35:37Z</time>
      </trkpt>
      <trkpt lat="46.30531" lon="5.2731">
        <ele>243.6</ele>
        <time>2022-08-25T13:35:40Z</time>
      </trkpt>
      <trkpt lat="46.30527" lon="5.27329">
        <ele>244.8</ele>
        <time>2022-08-25T13:35:44Z</time>
      </trkpt>
      <trkpt lat="46.30519" lon="5.27359">
        <ele>245.6</ele>
        <time>2022-08-25T13:35:48Z</time>
      </trkpt>
      <trkpt lat="46.30517" lon="5.27364">
        <ele>245.8</ele>
        <time>2022-08-25T13:35:49Z</time>
      </trkpt>
      <trkpt lat="46.30508" lon="5.27394">
        <ele>246.8</ele>
        <time>2022-08-25T13:35:54Z</time>
      </trkpt>
      <trkpt lat="46.30502" lon="5.27423">
        <ele>247.8</ele>
        <time>2022-08-25T13:35:58Z</time>
      </trkpt>
      <trkpt lat="46.30501" lon="5.2743">
        <ele>248</ele>
        <time>2022-08-25T13:35:59Z</time>
      </trkpt>
      <trkpt lat="46.30495" lon="5.27471">
        <ele>248.4</ele>
        <time>2022-08-25T13:36:04Z</time>
      </trkpt>
      <trkpt lat="46.30492" lon="5.27505">
        <ele>248.6</ele>
        <time>2022-08-25T13:36:08Z</time>
      </trkpt>
      <trkpt lat="46.30489" lon="5.27523">
        <ele>248.4</ele>
        <time>2022-08-25T13:36:10Z</time>
      </trkpt>
      <trkpt lat="46.30481" lon="5.27586">
        <ele>248.2</ele>
        <time>2022-08-25T13:36:17Z</time>
      </trkpt>
      <trkpt lat="46.30479" lon="5.27594">
        <ele>248.2</ele>
        <time>2022-08-25T13:36:18Z</time>
      </trkpt>
      <trkpt lat="46.30468" lon="5.2762">
        <ele>248</ele>
        <time>2022-08-25T13:36:21Z</time>
      </trkpt>
      <trkpt lat="46.30438" lon="5.27668">
        <ele>247.8</ele>
        <time>2022-08-25T13:36:27Z</time>
      </trkpt>
      <trkpt lat="46.30417" lon="5.277">
        <ele>247.2</ele>
        <time>2022-08-25T13:36:31Z</time>
      </trkpt>
      <trkpt lat="46.30414" lon="5.27709">
        <ele>247.2</ele>
        <time>2022-08-25T13:36:32Z</time>
      </trkpt>
      <trkpt lat="46.30396" lon="5.2777">
        <ele>247.2</ele>
        <time>2022-08-25T13:36:38Z</time>
      </trkpt>
      <trkpt lat="46.30371" lon="5.27847">
        <ele>247.4</ele>
        <time>2022-08-25T13:36:46Z</time>
      </trkpt>
      <trkpt lat="46.30365" lon="5.27867">
        <ele>247.4</ele>
        <time>2022-08-25T13:36:48Z</time>
      </trkpt>
      <trkpt lat="46.30343" lon="5.27935">
        <ele>247.4</ele>
        <time>2022-08-25T13:36:55Z</time>
      </trkpt>
      <trkpt lat="46.30325" lon="5.28016">
        <ele>247.6</ele>
        <time>2022-08-25T13:37:03Z</time>
      </trkpt>
      <trkpt lat="46.30314" lon="5.28085">
        <ele>247.2</ele>
        <time>2022-08-25T13:37:09Z</time>
      </trkpt>
      <trkpt lat="46.30311" lon="5.28107">
        <ele>246.6</ele>
        <time>2022-08-25T13:37:11Z</time>
      </trkpt>
      <trkpt lat="46.30303" lon="5.28149">
        <ele>245.6</ele>
        <time>2022-08-25T13:37:15Z</time>
      </trkpt>
      <trkpt lat="46.30298" lon="5.28181">
        <ele>244.6</ele>
        <time>2022-08-25T13:37:18Z</time>
      </trkpt>
      <trkpt lat="46.30298" lon="5.28192">
        <ele>244.4</ele>
        <time>2022-08-25T13:37:19Z</time>
      </trkpt>
      <trkpt lat="46.30298" lon="5.28203">
        <ele>244.2</ele>
        <time>2022-08-25T13:37:20Z</time>
      </trkpt>
      <trkpt lat="46.303" lon="5.28214">
        <ele>244.2</ele>
        <time>2022-08-25T13:37:21Z</time>
      </trkpt>
      <trkpt lat="46.30304" lon="5.28223">
        <ele>244</ele>
        <time>2022-08-25T13:37:22Z</time>
      </trkpt>
      <trkpt lat="46.30309" lon="5.2823">
        <ele>243.8</ele>
        <time>2022-08-25T13:37:23Z</time>
      </trkpt>
      <trkpt lat="46.30315" lon="5.28236">
        <ele>243.8</ele>
        <time>2022-08-25T13:37:24Z</time>
      </trkpt>
      <trkpt lat="46.3034" lon="5.28252">
        <ele>243.6</ele>
        <time>2022-08-25T13:37:28Z</time>
      </trkpt>
      <trkpt lat="46.30379" lon="5.2827">
        <ele>244.2</ele>
        <time>2022-08-25T13:37:35Z</time>
      </trkpt>
      <trkpt lat="46.30411" lon="5.28276">
        <ele>244.8</ele>
        <time>2022-08-25T13:37:40Z</time>
      </trkpt>
      <trkpt lat="46.30468" lon="5.28272">
        <ele>245.2</ele>
        <time>2022-08-25T13:37:48Z</time>
      </trkpt>
      <trkpt lat="46.30482" lon="5.28269">
        <ele>245.4</ele>
        <time>2022-08-25T13:37:50Z</time>
      </trkpt>
      <trkpt lat="46.30518" lon="5.28255">
        <ele>245.2</ele>
        <time>2022-08-25T13:37:55Z</time>
      </trkpt>
      <trkpt lat="46.30574" lon="5.28235">
        <ele>244.8</ele>
        <time>2022-08-25T13:38:03Z</time>
      </trkpt>
      <trkpt lat="46.3063" lon="5.28228">
        <ele>244.8</ele>
        <time>2022-08-25T13:38:11Z</time>
      </trkpt>
      <trkpt lat="46.30687" lon="5.28236">
        <ele>244.4</ele>
        <time>2022-08-25T13:38:19Z</time>
      </trkpt>
      <trkpt lat="46.30748" lon="5.28248">
        <ele>243.8</ele>
        <time>2022-08-25T13:38:27Z</time>
      </trkpt>
      <trkpt lat="46.30756" lon="5.28249">
        <ele>243.8</ele>
        <time>2022-08-25T13:38:28Z</time>
      </trkpt>
      <trkpt lat="46.3078" lon="5.28252">
        <ele>243.4</ele>
        <time>2022-08-25T13:38:31Z</time>
      </trkpt>
      <trkpt lat="46.30823" lon="5.28259">
        <ele>242.4</ele>
        <time>2022-08-25T13:38:36Z</time>
      </trkpt>
      <trkpt lat="46.30878" lon="5.28268">
        <ele>241.6</ele>
        <time>2022-08-25T13:38:42Z</time>
      </trkpt>
      <trkpt lat="46.30887" lon="5.28269">
        <ele>241.2</ele>
        <time>2022-08-25T13:38:43Z</time>
      </trkpt>
      <trkpt lat="46.30897" lon="5.28271">
        <ele>241</ele>
        <time>2022-08-25T13:38:44Z</time>
      </trkpt>
      <trkpt lat="46.30927" lon="5.28274">
        <ele>239.8</ele>
        <time>2022-08-25T13:38:47Z</time>
      </trkpt>
      <trkpt lat="46.30958" lon="5.28277">
        <ele>238.8</ele>
        <time>2022-08-25T13:38:50Z</time>
      </trkpt>
      <trkpt lat="46.31013" lon="5.28281">
        <ele>237.2</ele>
        <time>2022-08-25T13:38:55Z</time>
      </trkpt>
      <trkpt lat="46.31025" lon="5.2828">
        <ele>236.8</ele>
        <time>2022-08-25T13:38:56Z</time>
      </trkpt>
      <trkpt lat="46.31037" lon="5.28279">
        <ele>235.6</ele>
        <time>2022-08-25T13:38:57Z</time>
      </trkpt>
      <trkpt lat="46.31061" lon="5.28275">
        <ele>234.4</ele>
        <time>2022-08-25T13:38:59Z</time>
      </trkpt>
      <trkpt lat="46.31073" lon="5.28275">
        <ele>232.6</ele>
        <time>2022-08-25T13:39:00Z</time>
      </trkpt>
      <trkpt lat="46.31085" lon="5.28274">
        <ele>232</ele>
        <time>2022-08-25T13:39:01Z</time>
      </trkpt>
      <trkpt lat="46.31098" lon="5.28273">
        <ele>231.2</ele>
        <time>2022-08-25T13:39:02Z</time>
      </trkpt>
      <trkpt lat="46.31123" lon="5.28271">
        <ele>229</ele>
        <time>2022-08-25T13:39:04Z</time>
      </trkpt>
      <trkpt lat="46.31147" lon="5.28269">
        <ele>227.8</ele>
        <time>2022-08-25T13:39:06Z</time>
      </trkpt>
      <trkpt lat="46.31183" lon="5.28266">
        <ele>226.2</ele>
        <time>2022-08-25T13:39:09Z</time>
      </trkpt>
      <trkpt lat="46.31206" lon="5.28263">
        <ele>225.4</ele>
        <time>2022-08-25T13:39:11Z</time>
      </trkpt>
      <trkpt lat="46.31228" lon="5.2826">
        <ele>224.8</ele>
        <time>2022-08-25T13:39:13Z</time>
      </trkpt>
      <trkpt lat="46.31239" lon="5.28259">
        <ele>224.2</ele>
        <time>2022-08-25T13:39:14Z</time>
      </trkpt>
      <trkpt lat="46.3126" lon="5.28257">
        <ele>223.6</ele>
        <time>2022-08-25T13:39:16Z</time>
      </trkpt>
      <trkpt lat="46.31299" lon="5.28251">
        <ele>222.8</ele>
        <time>2022-08-25T13:39:20Z</time>
      </trkpt>
      <trkpt lat="46.31317" lon="5.28251">
        <ele>222.4</ele>
        <time>2022-08-25T13:39:22Z</time>
      </trkpt>
      <trkpt lat="46.31325" lon="5.28254">
        <ele>222.2</ele>
        <time>2022-08-25T13:39:23Z</time>
      </trkpt>
      <trkpt lat="46.31333" lon="5.2826">
        <ele>222</ele>
        <time>2022-08-25T13:39:24Z</time>
      </trkpt>
      <trkpt lat="46.31339" lon="5.28268">
        <ele>222</ele>
        <time>2022-08-25T13:39:25Z</time>
      </trkpt>
      <trkpt lat="46.31347" lon="5.28274">
        <ele>222</ele>
        <time>2022-08-25T13:39:26Z</time>
      </trkpt>
      <trkpt lat="46.31364" lon="5.28278">
        <ele>221.8</ele>
        <time>2022-08-25T13:39:28Z</time>
      </trkpt>
      <trkpt lat="46.31396" lon="5.28268">
        <ele>221.8</ele>
        <time>2022-08-25T13:39:32Z</time>
      </trkpt>
      <trkpt lat="46.31438" lon="5.28266">
        <ele>221.8</ele>
        <time>2022-08-25T13:39:37Z</time>
      </trkpt>
      <trkpt lat="46.31446" lon="5.28268">
        <ele>221.8</ele>
        <time>2022-08-25T13:39:38Z</time>
      </trkpt>
      <trkpt lat="46.31499" lon="5.28287">
        <ele>221.8</ele>
        <time>2022-08-25T13:39:45Z</time>
      </trkpt>
      <trkpt lat="46.31506" lon="5.28291">
        <ele>221.8</ele>
        <time>2022-08-25T13:39:46Z</time>
      </trkpt>
      <trkpt lat="46.31546" lon="5.2831">
        <ele>222.2</ele>
        <time>2022-08-25T13:39:52Z</time>
      </trkpt>
      <trkpt lat="46.31585" lon="5.28325">
        <ele>222.8</ele>
        <time>2022-08-25T13:39:59Z</time>
      </trkpt>
      <trkpt lat="46.31605" lon="5.28332">
        <ele>223.8</ele>
        <time>2022-08-25T13:40:03Z</time>
      </trkpt>
      <trkpt lat="46.31609" lon="5.28334">
        <ele>223.8</ele>
        <time>2022-08-25T13:40:04Z</time>
      </trkpt>
      <trkpt lat="46.31619" lon="5.28337">
        <ele>224.2</ele>
        <time>2022-08-25T13:40:06Z</time>
      </trkpt>
      <trkpt lat="46.31628" lon="5.2834">
        <ele>225.2</ele>
        <time>2022-08-25T13:40:08Z</time>
      </trkpt>
      <trkpt lat="46.31647" lon="5.28349">
        <ele>226.2</ele>
        <time>2022-08-25T13:40:12Z</time>
      </trkpt>
      <trkpt lat="46.31661" lon="5.28356">
        <ele>227</ele>
        <time>2022-08-25T13:40:15Z</time>
      </trkpt>
      <trkpt lat="46.31675" lon="5.28362">
        <ele>227.4</ele>
        <time>2022-08-25T13:40:18Z</time>
      </trkpt>
      <trkpt lat="46.31684" lon="5.28366">
        <ele>227.6</ele>
        <time>2022-08-25T13:40:20Z</time>
      </trkpt>
      <trkpt lat="46.31701" lon="5.28372">
        <ele>228.4</ele>
        <time>2022-08-25T13:40:24Z</time>
      </trkpt>
      <trkpt lat="46.31705" lon="5.28374">
        <ele>228.6</ele>
        <time>2022-08-25T13:40:25Z</time>
      </trkpt>
      <trkpt lat="46.31722" lon="5.2838">
        <ele>229.4</ele>
        <time>2022-08-25T13:40:29Z</time>
      </trkpt>
      <trkpt lat="46.31741" lon="5.28386">
        <ele>230.2</ele>
        <time>2022-08-25T13:40:34Z</time>
      </trkpt>
      <trkpt lat="46.31755" lon="5.28391">
        <ele>230.6</ele>
        <time>2022-08-25T13:40:38Z</time>
      </trkpt>
      <trkpt lat="46.31765" lon="5.28397">
        <ele>231.8</ele>
        <time>2022-08-25T13:40:41Z</time>
      </trkpt>
      <trkpt lat="46.31778" lon="5.2839">
        <ele>232.8</ele>
        <time>2022-08-25T13:40:45Z</time>
      </trkpt>
      <trkpt lat="46.31782" lon="5.28388">
        <ele>232.8</ele>
        <time>2022-08-25T13:40:46Z</time>
      </trkpt>
      <trkpt lat="46.31798" lon="5.28382">
        <ele>233.8</ele>
        <time>2022-08-25T13:40:51Z</time>
      </trkpt>
      <trkpt lat="46.31805" lon="5.28383">
        <ele>234.2</ele>
        <time>2022-08-25T13:40:53Z</time>
      </trkpt>
      <trkpt lat="46.3182" lon="5.28385">
        <ele>234.8</ele>
        <time>2022-08-25T13:40:57Z</time>
      </trkpt>
      <trkpt lat="46.31835" lon="5.28388">
        <ele>235.8</ele>
        <time>2022-08-25T13:41:02Z</time>
      </trkpt>
      <trkpt lat="46.31838" lon="5.28388">
        <ele>236</ele>
        <time>2022-08-25T13:41:03Z</time>
      </trkpt>
      <trkpt lat="46.31867" lon="5.28389">
        <ele>237</ele>
        <time>2022-08-25T13:41:10Z</time>
      </trkpt>
      <trkpt lat="46.31871" lon="5.28391">
        <ele>237.2</ele>
        <time>2022-08-25T13:41:11Z</time>
      </trkpt>
      <trkpt lat="46.31904" lon="5.28404">
        <ele>238.2</ele>
        <time>2022-08-25T13:41:18Z</time>
      </trkpt>
      <trkpt lat="46.3195" lon="5.28418">
        <ele>238.8</ele>
        <time>2022-08-25T13:41:27Z</time>
      </trkpt>
      <trkpt lat="46.31975" lon="5.28424">
        <ele>239.4</ele>
        <time>2022-08-25T13:41:32Z</time>
      </trkpt>
      <trkpt lat="46.31999" lon="5.28431">
        <ele>239.8</ele>
        <time>2022-08-25T13:41:37Z</time>
      </trkpt>
      <trkpt lat="46.32004" lon="5.28434">
        <ele>240</ele>
        <time>2022-08-25T13:41:38Z</time>
      </trkpt>
      <trkpt lat="46.32017" lon="5.28446">
        <ele>240.4</ele>
        <time>2022-08-25T13:41:41Z</time>
      </trkpt>
      <trkpt lat="46.32021" lon="5.2845">
        <ele>240.6</ele>
        <time>2022-08-25T13:41:42Z</time>
      </trkpt>
      <trkpt lat="46.32054" lon="5.28469">
        <ele>241.6</ele>
        <time>2022-08-25T13:41:48Z</time>
      </trkpt>
      <trkpt lat="46.32091" lon="5.28478">
        <ele>241.8</ele>
        <time>2022-08-25T13:41:54Z</time>
      </trkpt>
      <trkpt lat="46.32128" lon="5.28493">
        <ele>242</ele>
        <time>2022-08-25T13:42:00Z</time>
      </trkpt>
      <trkpt lat="46.32151" lon="5.28505">
        <ele>242.6</ele>
        <time>2022-08-25T13:42:04Z</time>
      </trkpt>
      <trkpt lat="46.32183" lon="5.28517">
        <ele>243.2</ele>
        <time>2022-08-25T13:42:09Z</time>
      </trkpt>
      <trkpt lat="46.32223" lon="5.2852">
        <ele>243.6</ele>
        <time>2022-08-25T13:42:15Z</time>
      </trkpt>
      <trkpt lat="46.32229" lon="5.2852">
        <ele>243.6</ele>
        <time>2022-08-25T13:42:16Z</time>
      </trkpt>
      <trkpt lat="46.32249" lon="5.28524">
        <ele>243.6</ele>
        <time>2022-08-25T13:42:19Z</time>
      </trkpt>
      <trkpt lat="46.32261" lon="5.2853">
        <ele>243.6</ele>
        <time>2022-08-25T13:42:21Z</time>
      </trkpt>
      <trkpt lat="46.32299" lon="5.2856">
        <ele>244</ele>
        <time>2022-08-25T13:42:28Z</time>
      </trkpt>
      <trkpt lat="46.32336" lon="5.28589">
        <ele>244.8</ele>
        <time>2022-08-25T13:42:35Z</time>
      </trkpt>
      <trkpt lat="46.32342" lon="5.28592">
        <ele>244.8</ele>
        <time>2022-08-25T13:42:36Z</time>
      </trkpt>
      <trkpt lat="46.32384" lon="5.28622">
        <ele>245</ele>
        <time>2022-08-25T13:42:43Z</time>
      </trkpt>
      <trkpt lat="46.32389" lon="5.28628">
        <ele>245</ele>
        <time>2022-08-25T13:42:44Z</time>
      </trkpt>
      <trkpt lat="46.32409" lon="5.28656">
        <ele>244.8</ele>
        <time>2022-08-25T13:42:48Z</time>
      </trkpt>
      <trkpt lat="46.32436" lon="5.28699">
        <ele>244.4</ele>
        <time>2022-08-25T13:42:54Z</time>
      </trkpt>
      <trkpt lat="46.32441" lon="5.28705">
        <ele>244.4</ele>
        <time>2022-08-25T13:42:55Z</time>
      </trkpt>
      <trkpt lat="46.32495" lon="5.2876">
        <ele>244.2</ele>
        <time>2022-08-25T13:43:04Z</time>
      </trkpt>
      <trkpt lat="46.32501" lon="5.28766">
        <ele>244.2</ele>
        <time>2022-08-25T13:43:05Z</time>
      </trkpt>
      <trkpt lat="46.32523" lon="5.28796">
        <ele>243.8</ele>
        <time>2022-08-25T13:43:09Z</time>
      </trkpt>
      <trkpt lat="46.32543" lon="5.28816">
        <ele>243.6</ele>
        <time>2022-08-25T13:43:12Z</time>
      </trkpt>
      <trkpt lat="46.3255" lon="5.28821">
        <ele>243.6</ele>
        <time>2022-08-25T13:43:13Z</time>
      </trkpt>
      <trkpt lat="46.32603" lon="5.28846">
        <ele>243.2</ele>
        <time>2022-08-25T13:43:20Z</time>
      </trkpt>
      <trkpt lat="46.3261" lon="5.28849">
        <ele>243.2</ele>
        <time>2022-08-25T13:43:21Z</time>
      </trkpt>
      <trkpt lat="46.32668" lon="5.28873">
        <ele>243.4</ele>
        <time>2022-08-25T13:43:29Z</time>
      </trkpt>
      <trkpt lat="46.32725" lon="5.28893">
        <ele>244.2</ele>
        <time>2022-08-25T13:43:37Z</time>
      </trkpt>
      <trkpt lat="46.32774" lon="5.28914">
        <ele>244.4</ele>
        <time>2022-08-25T13:43:44Z</time>
      </trkpt>
      <trkpt lat="46.32823" lon="5.28937">
        <ele>244.4</ele>
        <time>2022-08-25T13:43:51Z</time>
      </trkpt>
      <trkpt lat="46.32863" lon="5.28958">
        <ele>244.8</ele>
        <time>2022-08-25T13:43:57Z</time>
      </trkpt>
      <trkpt lat="46.32877" lon="5.28964">
        <ele>245</ele>
        <time>2022-08-25T13:43:59Z</time>
      </trkpt>
      <trkpt lat="46.32883" lon="5.28967">
        <ele>245</ele>
        <time>2022-08-25T13:44:00Z</time>
      </trkpt>
      <trkpt lat="46.32936" lon="5.28995">
        <ele>245.6</ele>
        <time>2022-08-25T13:44:08Z</time>
      </trkpt>
      <trkpt lat="46.32942" lon="5.28998">
        <ele>245.8</ele>
        <time>2022-08-25T13:44:09Z</time>
      </trkpt>
      <trkpt lat="46.32956" lon="5.29006">
        <ele>245.8</ele>
        <time>2022-08-25T13:44:11Z</time>
      </trkpt>
      <trkpt lat="46.33006" lon="5.29036">
        <ele>246.6</ele>
        <time>2022-08-25T13:44:19Z</time>
      </trkpt>
      <trkpt lat="46.33018" lon="5.29043">
        <ele>246.6</ele>
        <time>2022-08-25T13:44:21Z</time>
      </trkpt>
      <trkpt lat="46.33059" lon="5.29071">
        <ele>246.6</ele>
        <time>2022-08-25T13:44:28Z</time>
      </trkpt>
      <trkpt lat="46.33113" lon="5.29108">
        <ele>246.4</ele>
        <time>2022-08-25T13:44:37Z</time>
      </trkpt>
      <trkpt lat="46.3312" lon="5.29112">
        <ele>246.2</ele>
        <time>2022-08-25T13:44:38Z</time>
      </trkpt>
      <trkpt lat="46.33163" lon="5.2913">
        <ele>246.2</ele>
        <time>2022-08-25T13:44:44Z</time>
      </trkpt>
      <trkpt lat="46.33213" lon="5.2914">
        <ele>245.8</ele>
        <time>2022-08-25T13:44:50Z</time>
      </trkpt>
      <trkpt lat="46.33229" lon="5.29141">
        <ele>244.8</ele>
        <time>2022-08-25T13:44:52Z</time>
      </trkpt>
      <trkpt lat="46.33254" lon="5.29147">
        <ele>244.2</ele>
        <time>2022-08-25T13:44:55Z</time>
      </trkpt>
      <trkpt lat="46.33262" lon="5.29151">
        <ele>244</ele>
        <time>2022-08-25T13:44:56Z</time>
      </trkpt>
      <trkpt lat="46.33269" lon="5.29157">
        <ele>244</ele>
        <time>2022-08-25T13:44:57Z</time>
      </trkpt>
      <trkpt lat="46.33289" lon="5.29178">
        <ele>244</ele>
        <time>2022-08-25T13:45:00Z</time>
      </trkpt>
      <trkpt lat="46.33332" lon="5.29221">
        <ele>244.4</ele>
        <time>2022-08-25T13:45:07Z</time>
      </trkpt>
      <trkpt lat="46.33374" lon="5.29238">
        <ele>244.8</ele>
        <time>2022-08-25T13:45:13Z</time>
      </trkpt>
      <trkpt lat="46.33411" lon="5.29252">
        <ele>244.8</ele>
        <time>2022-08-25T13:45:19Z</time>
      </trkpt>
      <trkpt lat="46.33416" lon="5.29254">
        <ele>244.8</ele>
        <time>2022-08-25T13:45:20Z</time>
      </trkpt>
      <trkpt lat="46.33422" lon="5.29263">
        <ele>244.8</ele>
        <time>2022-08-25T13:45:22Z</time>
      </trkpt>
      <trkpt lat="46.33424" lon="5.29275">
        <ele>245</ele>
        <time>2022-08-25T13:45:24Z</time>
      </trkpt>
      <trkpt lat="46.33428" lon="5.2929">
        <ele>245</ele>
        <time>2022-08-25T13:45:26Z</time>
      </trkpt>
      <trkpt lat="46.33432" lon="5.29297">
        <ele>245</ele>
        <time>2022-08-25T13:45:27Z</time>
      </trkpt>
      <trkpt lat="46.33436" lon="5.29302">
        <ele>245</ele>
        <time>2022-08-25T13:45:28Z</time>
      </trkpt>
      <trkpt lat="46.33448" lon="5.29313">
        <ele>245.2</ele>
        <time>2022-08-25T13:45:30Z</time>
      </trkpt>
      <trkpt lat="46.33485" lon="5.29338">
        <ele>245.6</ele>
        <time>2022-08-25T13:45:36Z</time>
      </trkpt>
      <trkpt lat="46.33498" lon="5.29343">
        <ele>246</ele>
        <time>2022-08-25T13:45:38Z</time>
      </trkpt>
      <trkpt lat="46.33536" lon="5.29358">
        <ele>246.8</ele>
        <time>2022-08-25T13:45:44Z</time>
      </trkpt>
      <trkpt lat="46.33542" lon="5.2936">
        <ele>247</ele>
        <time>2022-08-25T13:45:45Z</time>
      </trkpt>
      <trkpt lat="46.33602" lon="5.29376">
        <ele>247.2</ele>
        <time>2022-08-25T13:45:54Z</time>
      </trkpt>
      <trkpt lat="46.33624" lon="5.29374">
        <ele>247</ele>
        <time>2022-08-25T13:45:57Z</time>
      </trkpt>
      <trkpt lat="46.33632" lon="5.29372">
        <ele>247</ele>
        <time>2022-08-25T13:45:58Z</time>
      </trkpt>
      <trkpt lat="46.33648" lon="5.29369">
        <ele>246.8</ele>
        <time>2022-08-25T13:46:00Z</time>
      </trkpt>
      <trkpt lat="46.33664" lon="5.29371">
        <ele>246.6</ele>
        <time>2022-08-25T13:46:02Z</time>
      </trkpt>
      <trkpt lat="46.33679" lon="5.2938">
        <ele>246.6</ele>
        <time>2022-08-25T13:46:04Z</time>
      </trkpt>
      <trkpt lat="46.33686" lon="5.29386">
        <ele>246.6</ele>
        <time>2022-08-25T13:46:05Z</time>
      </trkpt>
      <trkpt lat="46.33714" lon="5.29428">
        <ele>246.4</ele>
        <time>2022-08-25T13:46:10Z</time>
      </trkpt>
      <trkpt lat="46.33733" lon="5.29453">
        <ele>246.2</ele>
        <time>2022-08-25T13:46:13Z</time>
      </trkpt>
      <trkpt lat="46.3376" lon="5.29485">
        <ele>245.8</ele>
        <time>2022-08-25T13:46:17Z</time>
      </trkpt>
      <trkpt lat="46.33806" lon="5.29519">
        <ele>245.8</ele>
        <time>2022-08-25T13:46:23Z</time>
      </trkpt>
      <trkpt lat="46.33822" lon="5.29522">
        <ele>245.8</ele>
        <time>2022-08-25T13:46:25Z</time>
      </trkpt>
      <trkpt lat="46.3384" lon="5.29522">
        <ele>245.8</ele>
        <time>2022-08-25T13:46:27Z</time>
      </trkpt>
      <trkpt lat="46.339" lon="5.29521">
        <ele>245.6</ele>
        <time>2022-08-25T13:46:34Z</time>
      </trkpt>
      <trkpt lat="46.33939" lon="5.29514">
        <ele>245.2</ele>
        <time>2022-08-25T13:46:39Z</time>
      </trkpt>
      <trkpt lat="46.33946" lon="5.29509">
        <ele>245.2</ele>
        <time>2022-08-25T13:46:40Z</time>
      </trkpt>
      <trkpt lat="46.33951" lon="5.29502">
        <ele>245.2</ele>
        <time>2022-08-25T13:46:41Z</time>
      </trkpt>
      <trkpt lat="46.33958" lon="5.29483">
        <ele>245.2</ele>
        <time>2022-08-25T13:46:43Z</time>
      </trkpt>
      <trkpt lat="46.33969" lon="5.29444">
        <ele>245.6</ele>
        <time>2022-08-25T13:46:47Z</time>
      </trkpt>
      <trkpt lat="46.33979" lon="5.29425">
        <ele>245.6</ele>
        <time>2022-08-25T13:46:49Z</time>
      </trkpt>
      <trkpt lat="46.34003" lon="5.29393">
        <ele>245.4</ele>
        <time>2022-08-25T13:46:53Z</time>
      </trkpt>
      <trkpt lat="46.34011" lon="5.29387">
        <ele>245.2</ele>
        <time>2022-08-25T13:46:54Z</time>
      </trkpt>
      <trkpt lat="46.34044" lon="5.29372">
        <ele>244.8</ele>
        <time>2022-08-25T13:46:58Z</time>
      </trkpt>
      <trkpt lat="46.34052" lon="5.29369">
        <ele>244.6</ele>
        <time>2022-08-25T13:46:59Z</time>
      </trkpt>
      <trkpt lat="46.3406" lon="5.29363">
        <ele>244</ele>
        <time>2022-08-25T13:47:00Z</time>
      </trkpt>
      <trkpt lat="46.34068" lon="5.29356">
        <ele>243.6</ele>
        <time>2022-08-25T13:47:01Z</time>
      </trkpt>
      <trkpt lat="46.34074" lon="5.29347">
        <ele>243.4</ele>
        <time>2022-08-25T13:47:02Z</time>
      </trkpt>
      <trkpt lat="46.3408" lon="5.29337">
        <ele>243.2</ele>
        <time>2022-08-25T13:47:03Z</time>
      </trkpt>
      <trkpt lat="46.3409" lon="5.29316">
        <ele>242.8</ele>
        <time>2022-08-25T13:47:05Z</time>
      </trkpt>
      <trkpt lat="46.34094" lon="5.29306">
        <ele>242.8</ele>
        <time>2022-08-25T13:47:06Z</time>
      </trkpt>
      <trkpt lat="46.34099" lon="5.29296">
        <ele>242.6</ele>
        <time>2022-08-25T13:47:07Z</time>
      </trkpt>
      <trkpt lat="46.34111" lon="5.29281">
        <ele>242.4</ele>
        <time>2022-08-25T13:47:09Z</time>
      </trkpt>
      <trkpt lat="46.34125" lon="5.29273">
        <ele>242.2</ele>
        <time>2022-08-25T13:47:11Z</time>
      </trkpt>
      <trkpt lat="46.34133" lon="5.29271">
        <ele>242.2</ele>
        <time>2022-08-25T13:47:12Z</time>
      </trkpt>
      <trkpt lat="46.34178" lon="5.29264">
        <ele>242</ele>
        <time>2022-08-25T13:47:18Z</time>
      </trkpt>
      <trkpt lat="46.34193" lon="5.29263">
        <ele>242</ele>
        <time>2022-08-25T13:47:20Z</time>
      </trkpt>
      <trkpt lat="46.34206" lon="5.29268">
        <ele>242.2</ele>
        <time>2022-08-25T13:47:22Z</time>
      </trkpt>
      <trkpt lat="46.34219" lon="5.29275">
        <ele>242.2</ele>
        <time>2022-08-25T13:47:24Z</time>
      </trkpt>
      <trkpt lat="46.34246" lon="5.29284">
        <ele>242.8</ele>
        <time>2022-08-25T13:47:28Z</time>
      </trkpt>
      <trkpt lat="46.34298" lon="5.29298">
        <ele>243.2</ele>
        <time>2022-08-25T13:47:35Z</time>
      </trkpt>
      <trkpt lat="46.34331" lon="5.29316">
        <ele>243.4</ele>
        <time>2022-08-25T13:47:40Z</time>
      </trkpt>
      <trkpt lat="46.34337" lon="5.29321">
        <ele>243.6</ele>
        <time>2022-08-25T13:47:41Z</time>
      </trkpt>
      <trkpt lat="46.34353" lon="5.29335">
        <ele>243.6</ele>
        <time>2022-08-25T13:47:44Z</time>
      </trkpt>
      <trkpt lat="46.3436" lon="5.29337">
        <ele>243.8</ele>
        <time>2022-08-25T13:47:45Z</time>
      </trkpt>
      <trkpt lat="46.34366" lon="5.29339">
        <ele>243.8</ele>
        <time>2022-08-25T13:47:46Z</time>
      </trkpt>
      <trkpt lat="46.34398" lon="5.29351">
        <ele>244.4</ele>
        <time>2022-08-25T13:47:51Z</time>
      </trkpt>
      <trkpt lat="46.34409" lon="5.29362">
        <ele>244.6</ele>
        <time>2022-08-25T13:47:53Z</time>
      </trkpt>
      <trkpt lat="46.34417" lon="5.29375">
        <ele>245.2</ele>
        <time>2022-08-25T13:47:55Z</time>
      </trkpt>
      <trkpt lat="46.34425" lon="5.29389">
        <ele>245.4</ele>
        <time>2022-08-25T13:47:57Z</time>
      </trkpt>
      <trkpt lat="46.34432" lon="5.29404">
        <ele>245.6</ele>
        <time>2022-08-25T13:47:59Z</time>
      </trkpt>
      <trkpt lat="46.3445" lon="5.29438">
        <ele>245.8</ele>
        <time>2022-08-25T13:48:04Z</time>
      </trkpt>
      <trkpt lat="46.34455" lon="5.29444">
        <ele>246</ele>
        <time>2022-08-25T13:48:05Z</time>
      </trkpt>
      <trkpt lat="46.34459" lon="5.29451">
        <ele>246</ele>
        <time>2022-08-25T13:48:06Z</time>
      </trkpt>
      <trkpt lat="46.34466" lon="5.29469">
        <ele>246</ele>
        <time>2022-08-25T13:48:08Z</time>
      </trkpt>
      <trkpt lat="46.34465" lon="5.29489">
        <ele>246</ele>
        <time>2022-08-25T13:48:10Z</time>
      </trkpt>
      <trkpt lat="46.34464" lon="5.29499">
        <ele>246</ele>
        <time>2022-08-25T13:48:11Z</time>
      </trkpt>
      <trkpt lat="46.34454" lon="5.29566">
        <ele>245.6</ele>
        <time>2022-08-25T13:48:17Z</time>
      </trkpt>
      <trkpt lat="46.34455" lon="5.29578">
        <ele>245.2</ele>
        <time>2022-08-25T13:48:18Z</time>
      </trkpt>
      <trkpt lat="46.34457" lon="5.29589">
        <ele>244.8</ele>
        <time>2022-08-25T13:48:19Z</time>
      </trkpt>
      <trkpt lat="46.34471" lon="5.29602">
        <ele>244.4</ele>
        <time>2022-08-25T13:48:21Z</time>
      </trkpt>
      <trkpt lat="46.34488" lon="5.29607">
        <ele>244</ele>
        <time>2022-08-25T13:48:23Z</time>
      </trkpt>
      <trkpt lat="46.34514" lon="5.29612">
        <ele>243.2</ele>
        <time>2022-08-25T13:48:26Z</time>
      </trkpt>
      <trkpt lat="46.34522" lon="5.29614">
        <ele>242.8</ele>
        <time>2022-08-25T13:48:27Z</time>
      </trkpt>
      <trkpt lat="46.34564" lon="5.2962">
        <ele>241.8</ele>
        <time>2022-08-25T13:48:32Z</time>
      </trkpt>
      <trkpt lat="46.34573" lon="5.29622">
        <ele>241.6</ele>
        <time>2022-08-25T13:48:33Z</time>
      </trkpt>
      <trkpt lat="46.34628" lon="5.29634">
        <ele>241.2</ele>
        <time>2022-08-25T13:48:40Z</time>
      </trkpt>
      <trkpt lat="46.34635" lon="5.29636">
        <ele>241.2</ele>
        <time>2022-08-25T13:48:41Z</time>
      </trkpt>
      <trkpt lat="46.34677" lon="5.29643">
        <ele>241.4</ele>
        <time>2022-08-25T13:48:47Z</time>
      </trkpt>
      <trkpt lat="46.34704" lon="5.29649">
        <ele>241.8</ele>
        <time>2022-08-25T13:48:51Z</time>
      </trkpt>
      <trkpt lat="46.34717" lon="5.29647">
        <ele>241.8</ele>
        <time>2022-08-25T13:48:53Z</time>
      </trkpt>
      <trkpt lat="46.34747" lon="5.29628">
        <ele>242.2</ele>
        <time>2022-08-25T13:48:58Z</time>
      </trkpt>
      <trkpt lat="46.34759" lon="5.29623">
        <ele>242.4</ele>
        <time>2022-08-25T13:49:00Z</time>
      </trkpt>
      <trkpt lat="46.34778" lon="5.2962">
        <ele>242.6</ele>
        <time>2022-08-25T13:49:03Z</time>
      </trkpt>
      <trkpt lat="46.34789" lon="5.29619">
        <ele>242.8</ele>
        <time>2022-08-25T13:49:05Z</time>
      </trkpt>
      <trkpt lat="46.34808" lon="5.29618">
        <ele>243.4</ele>
        <time>2022-08-25T13:49:08Z</time>
      </trkpt>
      <trkpt lat="46.34847" lon="5.29624">
        <ele>243.8</ele>
        <time>2022-08-25T13:49:14Z</time>
      </trkpt>
      <trkpt lat="46.3486" lon="5.29629">
        <ele>243.8</ele>
        <time>2022-08-25T13:49:16Z</time>
      </trkpt>
      <trkpt lat="46.34873" lon="5.29636">
        <ele>244</ele>
        <time>2022-08-25T13:49:18Z</time>
      </trkpt>
      <trkpt lat="46.34885" lon="5.29644">
        <ele>244.2</ele>
        <time>2022-08-25T13:49:20Z</time>
      </trkpt>
      <trkpt lat="46.34916" lon="5.29666">
        <ele>244.4</ele>
        <time>2022-08-25T13:49:25Z</time>
      </trkpt>
      <trkpt lat="46.34923" lon="5.29669">
        <ele>244.4</ele>
        <time>2022-08-25T13:49:26Z</time>
      </trkpt>
      <trkpt lat="46.34931" lon="5.29669">
        <ele>244.4</ele>
        <time>2022-08-25T13:49:27Z</time>
      </trkpt>
      <trkpt lat="46.34945" lon="5.29663">
        <ele>244.4</ele>
        <time>2022-08-25T13:49:29Z</time>
      </trkpt>
      <trkpt lat="46.34969" lon="5.29643">
        <ele>244.4</ele>
        <time>2022-08-25T13:49:33Z</time>
      </trkpt>
      <trkpt lat="46.34982" lon="5.29638">
        <ele>244.4</ele>
        <time>2022-08-25T13:49:35Z</time>
      </trkpt>
      <trkpt lat="46.34995" lon="5.29637">
        <ele>244.2</ele>
        <time>2022-08-25T13:49:37Z</time>
      </trkpt>
      <trkpt lat="46.35034" lon="5.29644">
        <ele>244.2</ele>
        <time>2022-08-25T13:49:42Z</time>
      </trkpt>
      <trkpt lat="46.35066" lon="5.29661">
        <ele>243.6</ele>
        <time>2022-08-25T13:49:46Z</time>
      </trkpt>
      <trkpt lat="46.35075" lon="5.29663">
        <ele>243.4</ele>
        <time>2022-08-25T13:49:47Z</time>
      </trkpt>
      <trkpt lat="46.35101" lon="5.29666">
        <ele>242.8</ele>
        <time>2022-08-25T13:49:50Z</time>
      </trkpt>
      <trkpt lat="46.3511" lon="5.29666">
        <ele>242.8</ele>
        <time>2022-08-25T13:49:51Z</time>
      </trkpt>
      <trkpt lat="46.35157" lon="5.2966">
        <ele>242.2</ele>
        <time>2022-08-25T13:49:57Z</time>
      </trkpt>
      <trkpt lat="46.35198" lon="5.29654">
        <ele>242.4</ele>
        <time>2022-08-25T13:50:03Z</time>
      </trkpt>
      <trkpt lat="46.35239" lon="5.29646">
        <ele>243.6</ele>
        <time>2022-08-25T13:50:09Z</time>
      </trkpt>
      <trkpt lat="46.3526" lon="5.29646">
        <ele>244.2</ele>
        <time>2022-08-25T13:50:12Z</time>
      </trkpt>
      <trkpt lat="46.35292" lon="5.29649">
        <ele>244.8</ele>
        <time>2022-08-25T13:50:17Z</time>
      </trkpt>
      <trkpt lat="46.35323" lon="5.29655">
        <ele>245.2</ele>
        <time>2022-08-25T13:50:22Z</time>
      </trkpt>
      <trkpt lat="46.35342" lon="5.29661">
        <ele>245.4</ele>
        <time>2022-08-25T13:50:25Z</time>
      </trkpt>
      <trkpt lat="46.35394" lon="5.29677">
        <ele>245.4</ele>
        <time>2022-08-25T13:50:33Z</time>
      </trkpt>
      <trkpt lat="46.35446" lon="5.29694">
        <ele>245.4</ele>
        <time>2022-08-25T13:50:41Z</time>
      </trkpt>
      <trkpt lat="46.35468" lon="5.29698">
        <ele>245.4</ele>
        <time>2022-08-25T13:50:44Z</time>
      </trkpt>
      <trkpt lat="46.35483" lon="5.29692">
        <ele>245.4</ele>
        <time>2022-08-25T13:50:46Z</time>
      </trkpt>
      <trkpt lat="46.35492" lon="5.29678">
        <ele>245</ele>
        <time>2022-08-25T13:50:48Z</time>
      </trkpt>
      <trkpt lat="46.35497" lon="5.2967">
        <ele>245</ele>
        <time>2022-08-25T13:50:49Z</time>
      </trkpt>
      <trkpt lat="46.35502" lon="5.29663">
        <ele>244.8</ele>
        <time>2022-08-25T13:50:50Z</time>
      </trkpt>
      <trkpt lat="46.35516" lon="5.29656">
        <ele>244.4</ele>
        <time>2022-08-25T13:50:52Z</time>
      </trkpt>
      <trkpt lat="46.35545" lon="5.29651">
        <ele>244.2</ele>
        <time>2022-08-25T13:50:56Z</time>
      </trkpt>
      <trkpt lat="46.35581" lon="5.2964">
        <ele>244.4</ele>
        <time>2022-08-25T13:51:01Z</time>
      </trkpt>
      <trkpt lat="46.35633" lon="5.29613">
        <ele>244.6</ele>
        <time>2022-08-25T13:51:08Z</time>
      </trkpt>
      <trkpt lat="46.3564" lon="5.29609">
        <ele>244.8</ele>
        <time>2022-08-25T13:51:09Z</time>
      </trkpt>
      <trkpt lat="46.35689" lon="5.29573">
        <ele>244.8</ele>
        <time>2022-08-25T13:51:16Z</time>
      </trkpt>
      <trkpt lat="46.35703" lon="5.29562">
        <ele>244.8</ele>
        <time>2022-08-25T13:51:18Z</time>
      </trkpt>
      <trkpt lat="46.35721" lon="5.29554">
        <ele>244.8</ele>
        <time>2022-08-25T13:51:20Z</time>
      </trkpt>
      <trkpt lat="46.35729" lon="5.29552">
        <ele>244.8</ele>
        <time>2022-08-25T13:51:21Z</time>
      </trkpt>
      <trkpt lat="46.35744" lon="5.2955">
        <ele>244.8</ele>
        <time>2022-08-25T13:51:23Z</time>
      </trkpt>
      <trkpt lat="46.35754" lon="5.2955">
        <ele>244.8</ele>
        <time>2022-08-25T13:51:24Z</time>
      </trkpt>
      <trkpt lat="46.35798" lon="5.29549">
        <ele>244.2</ele>
        <time>2022-08-25T13:51:29Z</time>
      </trkpt>
      <trkpt lat="46.35853" lon="5.29551">
        <ele>243.8</ele>
        <time>2022-08-25T13:51:35Z</time>
      </trkpt>
      <trkpt lat="46.35907" lon="5.29558">
        <ele>243.2</ele>
        <time>2022-08-25T13:51:41Z</time>
      </trkpt>
      <trkpt lat="46.35918" lon="5.29558">
        <ele>242.8</ele>
        <time>2022-08-25T13:51:42Z</time>
      </trkpt>
      <trkpt lat="46.35948" lon="5.29556">
        <ele>241.8</ele>
        <time>2022-08-25T13:51:45Z</time>
      </trkpt>
      <trkpt lat="46.36007" lon="5.29548">
        <ele>240.8</ele>
        <time>2022-08-25T13:51:51Z</time>
      </trkpt>
      <trkpt lat="46.36015" lon="5.29548">
        <ele>240.6</ele>
        <time>2022-08-25T13:51:52Z</time>
      </trkpt>
      <trkpt lat="46.36062" lon="5.29542">
        <ele>239.6</ele>
        <time>2022-08-25T13:51:57Z</time>
      </trkpt>
      <trkpt lat="46.36088" lon="5.29539">
        <ele>239.4</ele>
        <time>2022-08-25T13:52:00Z</time>
      </trkpt>
      <trkpt lat="46.36136" lon="5.29535">
        <ele>239.6</ele>
        <time>2022-08-25T13:52:06Z</time>
      </trkpt>
      <trkpt lat="46.36157" lon="5.29532">
        <ele>239.8</ele>
        <time>2022-08-25T13:52:09Z</time>
      </trkpt>
      <trkpt lat="46.36171" lon="5.29526">
        <ele>240</ele>
        <time>2022-08-25T13:52:11Z</time>
      </trkpt>
      <trkpt lat="46.36185" lon="5.29518">
        <ele>240.2</ele>
        <time>2022-08-25T13:52:13Z</time>
      </trkpt>
      <trkpt lat="46.36196" lon="5.29507">
        <ele>240.4</ele>
        <time>2022-08-25T13:52:15Z</time>
      </trkpt>
      <trkpt lat="46.36209" lon="5.29493">
        <ele>240.6</ele>
        <time>2022-08-25T13:52:17Z</time>
      </trkpt>
      <trkpt lat="46.36224" lon="5.29479">
        <ele>240.8</ele>
        <time>2022-08-25T13:52:19Z</time>
      </trkpt>
      <trkpt lat="46.36251" lon="5.29469">
        <ele>240.6</ele>
        <time>2022-08-25T13:52:22Z</time>
      </trkpt>
      <trkpt lat="46.36269" lon="5.29471">
        <ele>240.4</ele>
        <time>2022-08-25T13:52:24Z</time>
      </trkpt>
      <trkpt lat="46.36278" lon="5.29474">
        <ele>240</ele>
        <time>2022-08-25T13:52:25Z</time>
      </trkpt>
      <trkpt lat="46.36294" lon="5.29483">
        <ele>239.4</ele>
        <time>2022-08-25T13:52:27Z</time>
      </trkpt>
      <trkpt lat="46.36309" lon="5.29494">
        <ele>239.2</ele>
        <time>2022-08-25T13:52:29Z</time>
      </trkpt>
      <trkpt lat="46.36346" lon="5.2953">
        <ele>239.2</ele>
        <time>2022-08-25T13:52:35Z</time>
      </trkpt>
      <trkpt lat="46.36358" lon="5.2955">
        <ele>240.4</ele>
        <time>2022-08-25T13:52:38Z</time>
      </trkpt>
      <trkpt lat="46.36366" lon="5.29565">
        <ele>241</ele>
        <time>2022-08-25T13:52:40Z</time>
      </trkpt>
      <trkpt lat="46.3637" lon="5.29575">
        <ele>241.6</ele>
        <time>2022-08-25T13:52:41Z</time>
      </trkpt>
      <trkpt lat="46.3639" lon="5.29603">
        <ele>242</ele>
        <time>2022-08-25T13:52:45Z</time>
      </trkpt>
      <trkpt lat="46.36423" lon="5.29632">
        <ele>242</ele>
        <time>2022-08-25T13:52:50Z</time>
      </trkpt>
      <trkpt lat="46.36473" lon="5.29666">
        <ele>241.6</ele>
        <time>2022-08-25T13:52:57Z</time>
      </trkpt>
      <trkpt lat="46.36527" lon="5.2969">
        <ele>240.8</ele>
        <time>2022-08-25T13:53:04Z</time>
      </trkpt>
      <trkpt lat="46.36584" lon="5.29714">
        <ele>240.8</ele>
        <time>2022-08-25T13:53:12Z</time>
      </trkpt>
      <trkpt lat="46.36636" lon="5.29739">
        <ele>241</ele>
        <time>2022-08-25T13:53:19Z</time>
      </trkpt>
      <trkpt lat="46.36652" lon="5.29748">
        <ele>241</ele>
        <time>2022-08-25T13:53:21Z</time>
      </trkpt>
      <trkpt lat="46.36687" lon="5.29768">
        <ele>240.8</ele>
        <time>2022-08-25T13:53:26Z</time>
      </trkpt>
      <trkpt lat="46.36709" lon="5.29784">
        <ele>240.6</ele>
        <time>2022-08-25T13:53:29Z</time>
      </trkpt>
      <trkpt lat="46.36756" lon="5.29823">
        <ele>240.2</ele>
        <time>2022-08-25T13:53:36Z</time>
      </trkpt>
      <trkpt lat="46.36763" lon="5.29827">
        <ele>240.2</ele>
        <time>2022-08-25T13:53:37Z</time>
      </trkpt>
      <trkpt lat="46.36803" lon="5.29847">
        <ele>240.4</ele>
        <time>2022-08-25T13:53:43Z</time>
      </trkpt>
      <trkpt lat="46.36814" lon="5.29848">
        <ele>240.6</ele>
        <time>2022-08-25T13:53:45Z</time>
      </trkpt>
      <trkpt lat="46.36828" lon="5.29846">
        <ele>240.8</ele>
        <time>2022-08-25T13:53:47Z</time>
      </trkpt>
      <trkpt lat="46.36878" lon="5.29829">
        <ele>241.4</ele>
        <time>2022-08-25T13:53:55Z</time>
      </trkpt>
      <trkpt lat="46.36917" lon="5.29818">
        <ele>240.8</ele>
        <time>2022-08-25T13:54:00Z</time>
      </trkpt>
      <trkpt lat="46.36934" lon="5.29815">
        <ele>240.4</ele>
        <time>2022-08-25T13:54:02Z</time>
      </trkpt>
      <trkpt lat="46.36952" lon="5.29816">
        <ele>239.8</ele>
        <time>2022-08-25T13:54:04Z</time>
      </trkpt>
      <trkpt lat="46.36963" lon="5.29819">
        <ele>239.4</ele>
        <time>2022-08-25T13:54:05Z</time>
      </trkpt>
      <trkpt lat="46.36983" lon="5.29823">
        <ele>238.6</ele>
        <time>2022-08-25T13:54:07Z</time>
      </trkpt>
      <trkpt lat="46.36993" lon="5.29823">
        <ele>238.4</ele>
        <time>2022-08-25T13:54:08Z</time>
      </trkpt>
      <trkpt lat="46.37013" lon="5.29824">
        <ele>236.8</ele>
        <time>2022-08-25T13:54:10Z</time>
      </trkpt>
      <trkpt lat="46.37032" lon="5.29833">
        <ele>235.8</ele>
        <time>2022-08-25T13:54:12Z</time>
      </trkpt>
      <trkpt lat="46.3707" lon="5.29861">
        <ele>234.8</ele>
        <time>2022-08-25T13:54:17Z</time>
      </trkpt>
      <trkpt lat="46.3711" lon="5.29892">
        <ele>235</ele>
        <time>2022-08-25T13:54:23Z</time>
      </trkpt>
      <trkpt lat="46.37128" lon="5.29905">
        <ele>235.8</ele>
        <time>2022-08-25T13:54:26Z</time>
      </trkpt>
      <trkpt lat="46.37143" lon="5.29916">
        <ele>236.8</ele>
        <time>2022-08-25T13:54:29Z</time>
      </trkpt>
      <trkpt lat="46.37159" lon="5.29926">
        <ele>237.4</ele>
        <time>2022-08-25T13:54:32Z</time>
      </trkpt>
      <trkpt lat="46.37165" lon="5.29929">
        <ele>237.4</ele>
        <time>2022-08-25T13:54:33Z</time>
      </trkpt>
      <trkpt lat="46.37177" lon="5.29934">
        <ele>237.8</ele>
        <time>2022-08-25T13:54:35Z</time>
      </trkpt>
      <trkpt lat="46.37183" lon="5.29935">
        <ele>238</ele>
        <time>2022-08-25T13:54:36Z</time>
      </trkpt>
      <trkpt lat="46.37196" lon="5.29934">
        <ele>238.2</ele>
        <time>2022-08-25T13:54:38Z</time>
      </trkpt>
      <trkpt lat="46.37214" lon="5.29927">
        <ele>238.2</ele>
        <time>2022-08-25T13:54:41Z</time>
      </trkpt>
      <trkpt lat="46.37259" lon="5.29913">
        <ele>238.2</ele>
        <time>2022-08-25T13:54:47Z</time>
      </trkpt>
      <trkpt lat="46.37276" lon="5.2991">
        <ele>238</ele>
        <time>2022-08-25T13:54:49Z</time>
      </trkpt>
      <trkpt lat="46.37291" lon="5.29914">
        <ele>237.8</ele>
        <time>2022-08-25T13:54:51Z</time>
      </trkpt>
      <trkpt lat="46.37306" lon="5.29929">
        <ele>237.2</ele>
        <time>2022-08-25T13:54:53Z</time>
      </trkpt>
      <trkpt lat="46.3731" lon="5.29937">
        <ele>236.8</ele>
        <time>2022-08-25T13:54:54Z</time>
      </trkpt>
      <trkpt lat="46.37312" lon="5.29949">
        <ele>236</ele>
        <time>2022-08-25T13:54:55Z</time>
      </trkpt>
      <trkpt lat="46.3731" lon="5.2996">
        <ele>235.6</ele>
        <time>2022-08-25T13:54:56Z</time>
      </trkpt>
      <trkpt lat="46.37305" lon="5.29969">
        <ele>235.2</ele>
        <time>2022-08-25T13:54:57Z</time>
      </trkpt>
      <trkpt lat="46.37297" lon="5.29975">
        <ele>235</ele>
        <time>2022-08-25T13:54:58Z</time>
      </trkpt>
      <trkpt lat="46.37289" lon="5.2998">
        <ele>234.6</ele>
        <time>2022-08-25T13:54:59Z</time>
      </trkpt>
      <trkpt lat="46.3728" lon="5.29985">
        <ele>234</ele>
        <time>2022-08-25T13:55:00Z</time>
      </trkpt>
      <trkpt lat="46.37272" lon="5.29991">
        <ele>233.4</ele>
        <time>2022-08-25T13:55:01Z</time>
      </trkpt>
      <trkpt lat="46.37266" lon="5.3">
        <ele>232.6</ele>
        <time>2022-08-25T13:55:02Z</time>
      </trkpt>
      <trkpt lat="46.3726" lon="5.30012">
        <ele>232.2</ele>
        <time>2022-08-25T13:55:03Z</time>
      </trkpt>
      <trkpt lat="46.37257" lon="5.30024">
        <ele>231.4</ele>
        <time>2022-08-25T13:55:04Z</time>
      </trkpt>
      <trkpt lat="46.37256" lon="5.30041">
        <ele>231.2</ele>
        <time>2022-08-25T13:55:05Z</time>
      </trkpt>
      <trkpt lat="46.37257" lon="5.3007">
        <ele>229.8</ele>
        <time>2022-08-25T13:55:07Z</time>
      </trkpt>
      <trkpt lat="46.37258" lon="5.30133">
        <ele>229</ele>
        <time>2022-08-25T13:55:11Z</time>
      </trkpt>
      <trkpt lat="46.37256" lon="5.30148">
        <ele>228.8</ele>
        <time>2022-08-25T13:55:12Z</time>
      </trkpt>
      <trkpt lat="46.37252" lon="5.30162">
        <ele>228.2</ele>
        <time>2022-08-25T13:55:13Z</time>
      </trkpt>
      <trkpt lat="46.37245" lon="5.30175">
        <ele>227.2</ele>
        <time>2022-08-25T13:55:14Z</time>
      </trkpt>
      <trkpt lat="46.37227" lon="5.30195">
        <ele>226.2</ele>
        <time>2022-08-25T13:55:16Z</time>
      </trkpt>
      <trkpt lat="46.37217" lon="5.30201">
        <ele>225.6</ele>
        <time>2022-08-25T13:55:17Z</time>
      </trkpt>
      <trkpt lat="46.37207" lon="5.30206">
        <ele>224.8</ele>
        <time>2022-08-25T13:55:18Z</time>
      </trkpt>
      <trkpt lat="46.37186" lon="5.30217">
        <ele>223.6</ele>
        <time>2022-08-25T13:55:20Z</time>
      </trkpt>
      <trkpt lat="46.37165" lon="5.30229">
        <ele>222.6</ele>
        <time>2022-08-25T13:55:22Z</time>
      </trkpt>
      <trkpt lat="46.37155" lon="5.30237">
        <ele>222.2</ele>
        <time>2022-08-25T13:55:23Z</time>
      </trkpt>
      <trkpt lat="46.37148" lon="5.30248">
        <ele>221.8</ele>
        <time>2022-08-25T13:55:24Z</time>
      </trkpt>
      <trkpt lat="46.37142" lon="5.3026">
        <ele>221</ele>
        <time>2022-08-25T13:55:25Z</time>
      </trkpt>
      <trkpt lat="46.37137" lon="5.30274">
        <ele>220.2</ele>
        <time>2022-08-25T13:55:26Z</time>
      </trkpt>
      <trkpt lat="46.37135" lon="5.3029">
        <ele>220</ele>
        <time>2022-08-25T13:55:27Z</time>
      </trkpt>
      <trkpt lat="46.37132" lon="5.30322">
        <ele>218.8</ele>
        <time>2022-08-25T13:55:29Z</time>
      </trkpt>
      <trkpt lat="46.37128" lon="5.30369">
        <ele>217.2</ele>
        <time>2022-08-25T13:55:32Z</time>
      </trkpt>
      <trkpt lat="46.37125" lon="5.30399">
        <ele>216.6</ele>
        <time>2022-08-25T13:55:34Z</time>
      </trkpt>
      <trkpt lat="46.37124" lon="5.30414">
        <ele>216.2</ele>
        <time>2022-08-25T13:55:35Z</time>
      </trkpt>
      <trkpt lat="46.37117" lon="5.30501">
        <ele>215.4</ele>
        <time>2022-08-25T13:55:41Z</time>
      </trkpt>
      <trkpt lat="46.37116" lon="5.30512">
        <ele>215.2</ele>
        <time>2022-08-25T13:55:42Z</time>
      </trkpt>
      <trkpt lat="46.37115" lon="5.30526">
        <ele>215</ele>
        <time>2022-08-25T13:55:43Z</time>
      </trkpt>
      <trkpt lat="46.37111" lon="5.30606">
        <ele>214.4</ele>
        <time>2022-08-25T13:55:49Z</time>
      </trkpt>
      <trkpt lat="46.37112" lon="5.30619">
        <ele>214.4</ele>
        <time>2022-08-25T13:55:50Z</time>
      </trkpt>
      <trkpt lat="46.37122" lon="5.30668">
        <ele>214.4</ele>
        <time>2022-08-25T13:55:54Z</time>
      </trkpt>
      <trkpt lat="46.37143" lon="5.30737">
        <ele>214.8</ele>
        <time>2022-08-25T13:56:00Z</time>
      </trkpt>
      <trkpt lat="46.37167" lon="5.30795">
        <ele>215</ele>
        <time>2022-08-25T13:56:06Z</time>
      </trkpt>
      <trkpt lat="46.37192" lon="5.30838">
        <ele>215</ele>
        <time>2022-08-25T13:56:11Z</time>
      </trkpt>
      <trkpt lat="46.37232" lon="5.30896">
        <ele>215</ele>
        <time>2022-08-25T13:56:18Z</time>
      </trkpt>
      <trkpt lat="46.37247" lon="5.30918">
        <ele>215</ele>
        <time>2022-08-25T13:56:21Z</time>
      </trkpt>
      <trkpt lat="46.3729" lon="5.30981">
        <ele>215.2</ele>
        <time>2022-08-25T13:56:29Z</time>
      </trkpt>
      <trkpt lat="46.37295" lon="5.30987">
        <ele>215.2</ele>
        <time>2022-08-25T13:56:30Z</time>
      </trkpt>
      <trkpt lat="46.37337" lon="5.31048">
        <ele>215.6</ele>
        <time>2022-08-25T13:56:38Z</time>
      </trkpt>
      <trkpt lat="46.37348" lon="5.31062">
        <ele>215.6</ele>
        <time>2022-08-25T13:56:40Z</time>
      </trkpt>
      <trkpt lat="46.37387" lon="5.31121">
        <ele>215.8</ele>
        <time>2022-08-25T13:56:48Z</time>
      </trkpt>
      <trkpt lat="46.37396" lon="5.31134">
        <ele>216</ele>
        <time>2022-08-25T13:56:50Z</time>
      </trkpt>
      <trkpt lat="46.37412" lon="5.31157">
        <ele>216.4</ele>
        <time>2022-08-25T13:56:53Z</time>
      </trkpt>
      <trkpt lat="46.3744" lon="5.312">
        <ele>217</ele>
        <time>2022-08-25T13:56:59Z</time>
      </trkpt>
      <trkpt lat="46.37461" lon="5.3123">
        <ele>217</ele>
        <time>2022-08-25T13:57:03Z</time>
      </trkpt>
      <trkpt lat="46.37488" lon="5.31268">
        <ele>217</ele>
        <time>2022-08-25T13:57:08Z</time>
      </trkpt>
      <trkpt lat="46.3753" lon="5.31327">
        <ele>217</ele>
        <time>2022-08-25T13:57:16Z</time>
      </trkpt>
      <trkpt lat="46.3754" lon="5.31342">
        <ele>217</ele>
        <time>2022-08-25T13:57:18Z</time>
      </trkpt>
      <trkpt lat="46.37582" lon="5.31403">
        <ele>216.8</ele>
        <time>2022-08-25T13:57:26Z</time>
      </trkpt>
      <trkpt lat="46.37586" lon="5.31409">
        <ele>216.8</ele>
        <time>2022-08-25T13:57:27Z</time>
      </trkpt>
      <trkpt lat="46.37624" lon="5.31464">
        <ele>216.6</ele>
        <time>2022-08-25T13:57:34Z</time>
      </trkpt>
      <trkpt lat="46.37641" lon="5.31488">
        <ele>216.4</ele>
        <time>2022-08-25T13:57:37Z</time>
      </trkpt>
      <trkpt lat="46.37679" lon="5.31544">
        <ele>216.2</ele>
        <time>2022-08-25T13:57:44Z</time>
      </trkpt>
      <trkpt lat="46.37705" lon="5.31582">
        <ele>216.4</ele>
        <time>2022-08-25T13:57:49Z</time>
      </trkpt>
      <trkpt lat="46.37748" lon="5.31644">
        <ele>216.4</ele>
        <time>2022-08-25T13:57:57Z</time>
      </trkpt>
      <trkpt lat="46.37762" lon="5.31665">
        <ele>216.6</ele>
        <time>2022-08-25T13:58:00Z</time>
      </trkpt>
      <trkpt lat="46.37792" lon="5.31709">
        <ele>217</ele>
        <time>2022-08-25T13:58:06Z</time>
      </trkpt>
      <trkpt lat="46.37812" lon="5.31739">
        <ele>217.4</ele>
        <time>2022-08-25T13:58:10Z</time>
      </trkpt>
      <trkpt lat="46.37827" lon="5.31762">
        <ele>217.6</ele>
        <time>2022-08-25T13:58:13Z</time>
      </trkpt>
      <trkpt lat="46.37852" lon="5.31797">
        <ele>217.8</ele>
        <time>2022-08-25T13:58:18Z</time>
      </trkpt>
      <trkpt lat="46.37868" lon="5.31821">
        <ele>218.2</ele>
        <time>2022-08-25T13:58:21Z</time>
      </trkpt>
      <trkpt lat="46.37898" lon="5.31865">
        <ele>218</ele>
        <time>2022-08-25T13:58:27Z</time>
      </trkpt>
      <trkpt lat="46.37916" lon="5.31895">
        <ele>218.4</ele>
        <time>2022-08-25T13:58:31Z</time>
      </trkpt>
      <trkpt lat="46.37924" lon="5.3191">
        <ele>218.4</ele>
        <time>2022-08-25T13:58:33Z</time>
      </trkpt>
      <trkpt lat="46.37935" lon="5.31936">
        <ele>218.8</ele>
        <time>2022-08-25T13:58:36Z</time>
      </trkpt>
      <trkpt lat="46.3794" lon="5.31956">
        <ele>218.8</ele>
        <time>2022-08-25T13:58:38Z</time>
      </trkpt>
      <trkpt lat="46.37957" lon="5.32026">
        <ele>219</ele>
        <time>2022-08-25T13:58:45Z</time>
      </trkpt>
      <trkpt lat="46.37978" lon="5.3207">
        <ele>218.8</ele>
        <time>2022-08-25T13:58:50Z</time>
      </trkpt>
      <trkpt lat="46.3801" lon="5.32123">
        <ele>218.8</ele>
        <time>2022-08-25T13:58:57Z</time>
      </trkpt>
      <trkpt lat="46.3803" lon="5.32169">
        <ele>219.2</ele>
        <time>2022-08-25T13:59:03Z</time>
      </trkpt>
      <trkpt lat="46.38036" lon="5.32193">
        <ele>219.6</ele>
        <time>2022-08-25T13:59:06Z</time>
      </trkpt>
      <trkpt lat="46.38043" lon="5.32227">
        <ele>220</ele>
        <time>2022-08-25T13:59:10Z</time>
      </trkpt>
      <trkpt lat="46.38048" lon="5.32251">
        <ele>220.6</ele>
        <time>2022-08-25T13:59:13Z</time>
      </trkpt>
      <trkpt lat="46.3805" lon="5.32259">
        <ele>220.8</ele>
        <time>2022-08-25T13:59:14Z</time>
      </trkpt>
      <trkpt lat="46.38054" lon="5.32265">
        <ele>221</ele>
        <time>2022-08-25T13:59:15Z</time>
      </trkpt>
      <trkpt lat="46.38058" lon="5.3227">
        <ele>221.2</ele>
        <time>2022-08-25T13:59:16Z</time>
      </trkpt>
      <trkpt lat="46.38069" lon="5.32278">
        <ele>221.2</ele>
        <time>2022-08-25T13:59:18Z</time>
      </trkpt>
      <trkpt lat="46.38089" lon="5.32297">
        <ele>221.2</ele>
        <time>2022-08-25T13:59:21Z</time>
      </trkpt>
      <trkpt lat="46.38094" lon="5.32305">
        <ele>221.2</ele>
        <time>2022-08-25T13:59:22Z</time>
      </trkpt>
      <trkpt lat="46.38099" lon="5.32314">
        <ele>221.2</ele>
        <time>2022-08-25T13:59:23Z</time>
      </trkpt>
      <trkpt lat="46.38116" lon="5.32352">
        <ele>220.6</ele>
        <time>2022-08-25T13:59:27Z</time>
      </trkpt>
      <trkpt lat="46.38132" lon="5.32376">
        <ele>220.2</ele>
        <time>2022-08-25T13:59:30Z</time>
      </trkpt>
      <trkpt lat="46.38144" lon="5.32388">
        <ele>220.2</ele>
        <time>2022-08-25T13:59:32Z</time>
      </trkpt>
      <trkpt lat="46.38189" lon="5.3243">
        <ele>220</ele>
        <time>2022-08-25T13:59:39Z</time>
      </trkpt>
      <trkpt lat="46.38208" lon="5.32448">
        <ele>219.8</ele>
        <time>2022-08-25T13:59:42Z</time>
      </trkpt>
      <trkpt lat="46.38226" lon="5.32465">
        <ele>219.6</ele>
        <time>2022-08-25T13:59:45Z</time>
      </trkpt>
      <trkpt lat="46.38232" lon="5.3247">
        <ele>219.8</ele>
        <time>2022-08-25T13:59:46Z</time>
      </trkpt>
      <trkpt lat="46.38237" lon="5.32473">
        <ele>219.8</ele>
        <time>2022-08-25T13:59:47Z</time>
      </trkpt>
      <trkpt lat="46.38245" lon="5.32475">
        <ele>219.8</ele>
        <time>2022-08-25T13:59:48Z</time>
      </trkpt>
      <trkpt lat="46.38265" lon="5.32476">
        <ele>219.8</ele>
        <time>2022-08-25T13:59:51Z</time>
      </trkpt>
      <trkpt lat="46.38273" lon="5.32477">
        <ele>219.8</ele>
        <time>2022-08-25T13:59:52Z</time>
      </trkpt>
      <trkpt lat="46.38308" lon="5.32487">
        <ele>220</ele>
        <time>2022-08-25T13:59:57Z</time>
      </trkpt>
      <trkpt lat="46.38363" lon="5.32506">
        <ele>219.8</ele>
        <time>2022-08-25T14:00:05Z</time>
      </trkpt>
      <trkpt lat="46.3837" lon="5.32508">
        <ele>219.8</ele>
        <time>2022-08-25T14:00:06Z</time>
      </trkpt>
      <trkpt lat="46.38384" lon="5.32507">
        <ele>219.8</ele>
        <time>2022-08-25T14:00:08Z</time>
      </trkpt>
      <trkpt lat="46.38397" lon="5.32499">
        <ele>219.6</ele>
        <time>2022-08-25T14:00:10Z</time>
      </trkpt>
      <trkpt lat="46.38409" lon="5.32476">
        <ele>219.6</ele>
        <time>2022-08-25T14:00:13Z</time>
      </trkpt>
      <trkpt lat="46.38411" lon="5.32469">
        <ele>219.6</ele>
        <time>2022-08-25T14:00:14Z</time>
      </trkpt>
      <trkpt lat="46.38418" lon="5.32427">
        <ele>219.6</ele>
        <time>2022-08-25T14:00:18Z</time>
      </trkpt>
      <trkpt lat="46.38421" lon="5.32419">
        <ele>219.6</ele>
        <time>2022-08-25T14:00:19Z</time>
      </trkpt>
      <trkpt lat="46.38424" lon="5.3241">
        <ele>219.6</ele>
        <time>2022-08-25T14:00:20Z</time>
      </trkpt>
      <trkpt lat="46.38437" lon="5.32387">
        <ele>219.6</ele>
        <time>2022-08-25T14:00:23Z</time>
      </trkpt>
      <trkpt lat="46.38448" lon="5.32375">
        <ele>219.6</ele>
        <time>2022-08-25T14:00:25Z</time>
      </trkpt>
      <trkpt lat="46.38454" lon="5.32372">
        <ele>219.8</ele>
        <time>2022-08-25T14:00:26Z</time>
      </trkpt>
      <trkpt lat="46.38459" lon="5.32371">
        <ele>219.8</ele>
        <time>2022-08-25T14:00:27Z</time>
      </trkpt>
      <trkpt lat="46.38473" lon="5.32374">
        <ele>219.8</ele>
        <time>2022-08-25T14:00:29Z</time>
      </trkpt>
      <trkpt lat="46.38503" lon="5.32395">
        <ele>219.8</ele>
        <time>2022-08-25T14:00:34Z</time>
      </trkpt>
      <trkpt lat="46.38537" lon="5.3243">
        <ele>220.2</ele>
        <time>2022-08-25T14:00:40Z</time>
      </trkpt>
      <trkpt lat="46.38583" lon="5.32471">
        <ele>220.4</ele>
        <time>2022-08-25T14:00:48Z</time>
      </trkpt>
      <trkpt lat="46.38614" lon="5.325">
        <ele>220.8</ele>
        <time>2022-08-25T14:00:54Z</time>
      </trkpt>
      <trkpt lat="46.3862" lon="5.32505">
        <ele>220.8</ele>
        <time>2022-08-25T14:00:55Z</time>
      </trkpt>
      <trkpt lat="46.3866" lon="5.32536">
        <ele>221.4</ele>
        <time>2022-08-25T14:01:02Z</time>
      </trkpt>
      <trkpt lat="46.38682" lon="5.32557">
        <ele>221.8</ele>
        <time>2022-08-25T14:01:06Z</time>
      </trkpt>
      <trkpt lat="46.38702" lon="5.32579">
        <ele>222.2</ele>
        <time>2022-08-25T14:01:10Z</time>
      </trkpt>
      <trkpt lat="46.38731" lon="5.32605">
        <ele>223</ele>
        <time>2022-08-25T14:01:15Z</time>
      </trkpt>
      <trkpt lat="46.38759" lon="5.32627">
        <ele>223</ele>
        <time>2022-08-25T14:01:20Z</time>
      </trkpt>
      <trkpt lat="46.38782" lon="5.32645">
        <ele>222.8</ele>
        <time>2022-08-25T14:01:24Z</time>
      </trkpt>
      <trkpt lat="46.38786" lon="5.32652">
        <ele>222.8</ele>
        <time>2022-08-25T14:01:25Z</time>
      </trkpt>
      <trkpt lat="46.38789" lon="5.32661">
        <ele>222.8</ele>
        <time>2022-08-25T14:01:26Z</time>
      </trkpt>
      <trkpt lat="46.38792" lon="5.32682">
        <ele>222.6</ele>
        <time>2022-08-25T14:01:28Z</time>
      </trkpt>
      <trkpt lat="46.38792" lon="5.32704">
        <ele>222.6</ele>
        <time>2022-08-25T14:01:30Z</time>
      </trkpt>
      <trkpt lat="46.3879" lon="5.32726">
        <ele>222.4</ele>
        <time>2022-08-25T14:01:32Z</time>
      </trkpt>
      <trkpt lat="46.38789" lon="5.32736">
        <ele>222.4</ele>
        <time>2022-08-25T14:01:33Z</time>
      </trkpt>
      <trkpt lat="46.38787" lon="5.32746">
        <ele>222.4</ele>
        <time>2022-08-25T14:01:34Z</time>
      </trkpt>
      <trkpt lat="46.38775" lon="5.32784">
        <ele>222.2</ele>
        <time>2022-08-25T14:01:38Z</time>
      </trkpt>
      <trkpt lat="46.38762" lon="5.3284">
        <ele>221.8</ele>
        <time>2022-08-25T14:01:44Z</time>
      </trkpt>
      <trkpt lat="46.38762" lon="5.32884">
        <ele>222</ele>
        <time>2022-08-25T14:01:49Z</time>
      </trkpt>
      <trkpt lat="46.38767" lon="5.329">
        <ele>222.4</ele>
        <time>2022-08-25T14:01:51Z</time>
      </trkpt>
      <trkpt lat="46.38776" lon="5.32912">
        <ele>222.6</ele>
        <time>2022-08-25T14:01:53Z</time>
      </trkpt>
      <trkpt lat="46.38788" lon="5.32918">
        <ele>222.6</ele>
        <time>2022-08-25T14:01:55Z</time>
      </trkpt>
      <trkpt lat="46.38794" lon="5.32919">
        <ele>222.6</ele>
        <time>2022-08-25T14:01:56Z</time>
      </trkpt>
      <trkpt lat="46.38801" lon="5.32921">
        <ele>222.6</ele>
        <time>2022-08-25T14:01:57Z</time>
      </trkpt>
      <trkpt lat="46.38828" lon="5.32933">
        <ele>222.8</ele>
        <time>2022-08-25T14:02:01Z</time>
      </trkpt>
      <trkpt lat="46.38886" lon="5.32956">
        <ele>222.6</ele>
        <time>2022-08-25T14:02:09Z</time>
      </trkpt>
      <trkpt lat="46.38938" lon="5.32976">
        <ele>223.2</ele>
        <time>2022-08-25T14:02:17Z</time>
      </trkpt>
      <trkpt lat="46.38995" lon="5.32996">
        <ele>224</ele>
        <time>2022-08-25T14:02:26Z</time>
      </trkpt>
      <trkpt lat="46.39031" lon="5.33009">
        <ele>224.4</ele>
        <time>2022-08-25T14:02:32Z</time>
      </trkpt>
      <trkpt lat="46.39078" lon="5.33024">
        <ele>225.2</ele>
        <time>2022-08-25T14:02:40Z</time>
      </trkpt>
      <trkpt lat="46.39084" lon="5.33025">
        <ele>225.2</ele>
        <time>2022-08-25T14:02:41Z</time>
      </trkpt>
      <trkpt lat="46.39117" lon="5.33024">
        <ele>225</ele>
        <time>2022-08-25T14:02:46Z</time>
      </trkpt>
      <trkpt lat="46.39163" lon="5.3301">
        <ele>224.6</ele>
        <time>2022-08-25T14:02:53Z</time>
      </trkpt>
      <trkpt lat="46.39219" lon="5.3299">
        <ele>224.4</ele>
        <time>2022-08-25T14:03:02Z</time>
      </trkpt>
      <trkpt lat="46.39275" lon="5.32967">
        <ele>224.4</ele>
        <time>2022-08-25T14:03:11Z</time>
      </trkpt>
      <trkpt lat="46.39321" lon="5.32944">
        <ele>225.2</ele>
        <time>2022-08-25T14:03:19Z</time>
      </trkpt>
      <trkpt lat="46.39347" lon="5.32932">
        <ele>225.6</ele>
        <time>2022-08-25T14:03:24Z</time>
      </trkpt>
      <trkpt lat="46.39354" lon="5.32927">
        <ele>225.6</ele>
        <time>2022-08-25T14:03:26Z</time>
      </trkpt>
      <trkpt lat="46.39357" lon="5.32916">
        <ele>225.6</ele>
        <time>2022-08-25T14:03:28Z</time>
      </trkpt>
      <trkpt lat="46.39358" lon="5.32909">
        <ele>225.6</ele>
        <time>2022-08-25T14:03:29Z</time>
      </trkpt>
      <trkpt lat="46.39358" lon="5.32903">
        <ele>225.8</ele>
        <time>2022-08-25T14:03:30Z</time>
      </trkpt>
      <trkpt lat="46.39361" lon="5.32891">
        <ele>226</ele>
        <time>2022-08-25T14:03:32Z</time>
      </trkpt>
      <trkpt lat="46.39364" lon="5.32887">
        <ele>226.2</ele>
        <time>2022-08-25T14:03:33Z</time>
      </trkpt>
      <trkpt lat="46.39367" lon="5.32885">
        <ele>226.4</ele>
        <time>2022-08-25T14:03:34Z</time>
      </trkpt>
      <trkpt lat="46.39375" lon="5.32891">
        <ele>226.8</ele>
        <time>2022-08-25T14:03:36Z</time>
      </trkpt>
      <trkpt lat="46.39392" lon="5.32906">
        <ele>227.6</ele>
        <time>2022-08-25T14:03:40Z</time>
      </trkpt>
      <trkpt lat="46.39402" lon="5.3291">
        <ele>228</ele>
        <time>2022-08-25T14:03:42Z</time>
      </trkpt>
      <trkpt lat="46.39421" lon="5.32912">
        <ele>228.4</ele>
        <time>2022-08-25T14:03:46Z</time>
      </trkpt>
      <trkpt lat="46.3943" lon="5.32911">
        <ele>228.6</ele>
        <time>2022-08-25T14:03:48Z</time>
      </trkpt>
      <trkpt lat="46.39452" lon="5.32904">
        <ele>230</ele>
        <time>2022-08-25T14:03:53Z</time>
      </trkpt>
      <trkpt lat="46.39471" lon="5.32897">
        <ele>231.2</ele>
        <time>2022-08-25T14:03:58Z</time>
      </trkpt>
      <trkpt lat="46.39482" lon="5.32894">
        <ele>231.8</ele>
        <time>2022-08-25T14:04:01Z</time>
      </trkpt>
      <trkpt lat="46.3949" lon="5.3289">
        <ele>232.2</ele>
        <time>2022-08-25T14:04:03Z</time>
      </trkpt>
      <trkpt lat="46.39512" lon="5.32881">
        <ele>233.4</ele>
        <time>2022-08-25T14:04:09Z</time>
      </trkpt>
      <trkpt lat="46.39516" lon="5.3288">
        <ele>233.6</ele>
        <time>2022-08-25T14:04:10Z</time>
      </trkpt>
      <trkpt lat="46.39539" lon="5.32871">
        <ele>234.4</ele>
        <time>2022-08-25T14:04:16Z</time>
      </trkpt>
      <trkpt lat="46.39548" lon="5.32866">
        <ele>234.6</ele>
        <time>2022-08-25T14:04:18Z</time>
      </trkpt>
      <trkpt lat="46.39575" lon="5.32851">
        <ele>235.4</ele>
        <time>2022-08-25T14:04:24Z</time>
      </trkpt>
      <trkpt lat="46.39612" lon="5.32834">
        <ele>235.2</ele>
        <time>2022-08-25T14:04:31Z</time>
      </trkpt>
      <trkpt lat="46.39648" lon="5.32825">
        <ele>235.6</ele>
        <time>2022-08-25T14:04:38Z</time>
      </trkpt>
      <trkpt lat="46.39656" lon="5.32822">
        <ele>236</ele>
        <time>2022-08-25T14:04:40Z</time>
      </trkpt>
      <trkpt lat="46.39674" lon="5.32814">
        <ele>236.4</ele>
        <time>2022-08-25T14:04:44Z</time>
      </trkpt>
      <trkpt lat="46.39681" lon="5.3281">
        <ele>236.8</ele>
        <time>2022-08-25T14:04:46Z</time>
      </trkpt>
      <trkpt lat="46.3969" lon="5.32805">
        <ele>237.4</ele>
        <time>2022-08-25T14:04:48Z</time>
      </trkpt>
      <trkpt lat="46.39693" lon="5.32803">
        <ele>237.8</ele>
        <time>2022-08-25T14:04:49Z</time>
      </trkpt>
      <trkpt lat="46.39711" lon="5.32793">
        <ele>238.8</ele>
        <time>2022-08-25T14:04:54Z</time>
      </trkpt>
      <trkpt lat="46.39719" lon="5.3279">
        <ele>239</ele>
        <time>2022-08-25T14:04:56Z</time>
      </trkpt>
      <trkpt lat="46.39738" lon="5.32778">
        <ele>239.8</ele>
        <time>2022-08-25T14:05:01Z</time>
      </trkpt>
      <trkpt lat="46.39757" lon="5.32768">
        <ele>240.4</ele>
        <time>2022-08-25T14:05:06Z</time>
      </trkpt>
      <trkpt lat="46.39764" lon="5.32764">
        <ele>241</ele>
        <time>2022-08-25T14:05:08Z</time>
      </trkpt>
      <trkpt lat="46.39779" lon="5.32756">
        <ele>242</ele>
        <time>2022-08-25T14:05:12Z</time>
      </trkpt>
      <trkpt lat="46.3979" lon="5.3275">
        <ele>243</ele>
        <time>2022-08-25T14:05:15Z</time>
      </trkpt>
      <trkpt lat="46.39794" lon="5.32748">
        <ele>243</ele>
        <time>2022-08-25T14:05:16Z</time>
      </trkpt>
      <trkpt lat="46.39827" lon="5.32734">
        <ele>244.2</ele>
        <time>2022-08-25T14:05:24Z</time>
      </trkpt>
      <trkpt lat="46.39848" lon="5.32724">
        <ele>245.2</ele>
        <time>2022-08-25T14:05:29Z</time>
      </trkpt>
      <trkpt lat="46.3988" lon="5.32709">
        <ele>245.8</ele>
        <time>2022-08-25T14:05:36Z</time>
      </trkpt>
      <trkpt lat="46.39898" lon="5.32701">
        <ele>246.4</ele>
        <time>2022-08-25T14:05:40Z</time>
      </trkpt>
      <trkpt lat="46.39925" lon="5.32689">
        <ele>247.2</ele>
        <time>2022-08-25T14:05:46Z</time>
      </trkpt>
      <trkpt lat="46.39944" lon="5.32681">
        <ele>247.4</ele>
        <time>2022-08-25T14:05:50Z</time>
      </trkpt>
      <trkpt lat="46.39963" lon="5.32672">
        <ele>247.8</ele>
        <time>2022-08-25T14:05:54Z</time>
      </trkpt>
      <trkpt lat="46.39987" lon="5.32661">
        <ele>248.6</ele>
        <time>2022-08-25T14:05:59Z</time>
      </trkpt>
      <trkpt lat="46.40008" lon="5.32651">
        <ele>249</ele>
        <time>2022-08-25T14:06:03Z</time>
      </trkpt>
      <trkpt lat="46.40047" lon="5.3263">
        <ele>249.6</ele>
        <time>2022-08-25T14:06:11Z</time>
      </trkpt>
      <trkpt lat="46.40053" lon="5.32628">
        <ele>249.8</ele>
        <time>2022-08-25T14:06:12Z</time>
      </trkpt>
      <trkpt lat="46.40058" lon="5.32628">
        <ele>249.8</ele>
        <time>2022-08-25T14:06:13Z</time>
      </trkpt>
      <trkpt lat="46.40063" lon="5.32631">
        <ele>249.8</ele>
        <time>2022-08-25T14:06:14Z</time>
      </trkpt>
      <trkpt lat="46.40072" lon="5.32644">
        <ele>250</ele>
        <time>2022-08-25T14:06:16Z</time>
      </trkpt>
      <trkpt lat="46.40081" lon="5.3269">
        <ele>250.4</ele>
        <time>2022-08-25T14:06:21Z</time>
      </trkpt>
      <trkpt lat="46.40094" lon="5.32727">
        <ele>250.8</ele>
        <time>2022-08-25T14:06:25Z</time>
      </trkpt>
      <trkpt lat="46.40101" lon="5.32745">
        <ele>250.8</ele>
        <time>2022-08-25T14:06:27Z</time>
      </trkpt>
      <trkpt lat="46.40131" lon="5.32812">
        <ele>251.4</ele>
        <time>2022-08-25T14:06:35Z</time>
      </trkpt>
      <trkpt lat="46.40144" lon="5.32844">
        <ele>251.8</ele>
        <time>2022-08-25T14:06:39Z</time>
      </trkpt>
      <trkpt lat="46.40158" lon="5.32876">
        <ele>251.8</ele>
        <time>2022-08-25T14:06:43Z</time>
      </trkpt>
      <trkpt lat="46.40191" lon="5.3294">
        <ele>252.2</ele>
        <time>2022-08-25T14:06:51Z</time>
      </trkpt>
      <trkpt lat="46.40227" lon="5.32999">
        <ele>252</ele>
        <time>2022-08-25T14:06:58Z</time>
      </trkpt>
      <trkpt lat="46.40268" lon="5.33058">
        <ele>252</ele>
        <time>2022-08-25T14:07:06Z</time>
      </trkpt>
      <trkpt lat="46.40288" lon="5.33087">
        <ele>252.4</ele>
        <time>2022-08-25T14:07:10Z</time>
      </trkpt>
      <trkpt lat="46.40329" lon="5.33146">
        <ele>252.8</ele>
        <time>2022-08-25T14:07:18Z</time>
      </trkpt>
      <trkpt lat="46.40335" lon="5.33154">
        <ele>252.6</ele>
        <time>2022-08-25T14:07:19Z</time>
      </trkpt>
      <trkpt lat="46.4037" lon="5.33203">
        <ele>252.4</ele>
        <time>2022-08-25T14:07:25Z</time>
      </trkpt>
      <trkpt lat="46.40416" lon="5.33259">
        <ele>251.2</ele>
        <time>2022-08-25T14:07:32Z</time>
      </trkpt>
      <trkpt lat="46.40423" lon="5.33267">
        <ele>251.2</ele>
        <time>2022-08-25T14:07:33Z</time>
      </trkpt>
      <trkpt lat="46.40444" lon="5.33284">
        <ele>250.6</ele>
        <time>2022-08-25T14:07:36Z</time>
      </trkpt>
      <trkpt lat="46.40461" lon="5.33295">
        <ele>250.2</ele>
        <time>2022-08-25T14:07:38Z</time>
      </trkpt>
      <trkpt lat="46.40499" lon="5.33314">
        <ele>249.6</ele>
        <time>2022-08-25T14:07:43Z</time>
      </trkpt>
      <trkpt lat="46.40504" lon="5.3332">
        <ele>249.6</ele>
        <time>2022-08-25T14:07:44Z</time>
      </trkpt>
      <trkpt lat="46.40523" lon="5.33342">
        <ele>249.6</ele>
        <time>2022-08-25T14:07:47Z</time>
      </trkpt>
      <trkpt lat="46.40536" lon="5.33352">
        <ele>249.6</ele>
        <time>2022-08-25T14:07:49Z</time>
      </trkpt>
      <trkpt lat="46.40564" lon="5.33368">
        <ele>250.4</ele>
        <time>2022-08-25T14:07:54Z</time>
      </trkpt>
      <trkpt lat="46.4057" lon="5.33372">
        <ele>250.6</ele>
        <time>2022-08-25T14:07:55Z</time>
      </trkpt>
      <trkpt lat="46.40591" lon="5.33384">
        <ele>251.6</ele>
        <time>2022-08-25T14:07:59Z</time>
      </trkpt>
      <trkpt lat="46.40596" lon="5.33387">
        <ele>252</ele>
        <time>2022-08-25T14:08:00Z</time>
      </trkpt>
      <trkpt lat="46.40616" lon="5.334">
        <ele>252.8</ele>
        <time>2022-08-25T14:08:04Z</time>
      </trkpt>
      <trkpt lat="46.40646" lon="5.33419">
        <ele>254</ele>
        <time>2022-08-25T14:08:10Z</time>
      </trkpt>
      <trkpt lat="46.40668" lon="5.33436">
        <ele>255.2</ele>
        <time>2022-08-25T14:08:15Z</time>
      </trkpt>
      <trkpt lat="46.40683" lon="5.33444">
        <ele>256</ele>
        <time>2022-08-25T14:08:18Z</time>
      </trkpt>
      <trkpt lat="46.40692" lon="5.3345">
        <ele>256.6</ele>
        <time>2022-08-25T14:08:20Z</time>
      </trkpt>
      <trkpt lat="46.40715" lon="5.33465">
        <ele>257.6</ele>
        <time>2022-08-25T14:08:25Z</time>
      </trkpt>
      <trkpt lat="46.4073" lon="5.33473">
        <ele>258</ele>
        <time>2022-08-25T14:08:28Z</time>
      </trkpt>
      <trkpt lat="46.40739" lon="5.33479">
        <ele>258.2</ele>
        <time>2022-08-25T14:08:30Z</time>
      </trkpt>
      <trkpt lat="46.40748" lon="5.33483">
        <ele>258.8</ele>
        <time>2022-08-25T14:08:32Z</time>
      </trkpt>
      <trkpt lat="46.40767" lon="5.33492">
        <ele>259.4</ele>
        <time>2022-08-25T14:08:36Z</time>
      </trkpt>
      <trkpt lat="46.40781" lon="5.33498">
        <ele>260</ele>
        <time>2022-08-25T14:08:39Z</time>
      </trkpt>
      <trkpt lat="46.40809" lon="5.33505">
        <ele>261</ele>
        <time>2022-08-25T14:08:45Z</time>
      </trkpt>
      <trkpt lat="46.40814" lon="5.33506">
        <ele>261</ele>
        <time>2022-08-25T14:08:46Z</time>
      </trkpt>
      <trkpt lat="46.40855" lon="5.33517">
        <ele>262.2</ele>
        <time>2022-08-25T14:08:55Z</time>
      </trkpt>
      <trkpt lat="46.40859" lon="5.33519">
        <ele>262.6</ele>
        <time>2022-08-25T14:08:56Z</time>
      </trkpt>
      <trkpt lat="46.40878" lon="5.33523">
        <ele>263.2</ele>
        <time>2022-08-25T14:09:00Z</time>
      </trkpt>
      <trkpt lat="46.4091" lon="5.33532">
        <ele>264.2</ele>
        <time>2022-08-25T14:09:07Z</time>
      </trkpt>
      <trkpt lat="46.40915" lon="5.33534">
        <ele>264.4</ele>
        <time>2022-08-25T14:09:08Z</time>
      </trkpt>
      <trkpt lat="46.40953" lon="5.33544">
        <ele>265.4</ele>
        <time>2022-08-25T14:09:15Z</time>
      </trkpt>
      <trkpt lat="46.40959" lon="5.33545">
        <ele>265.4</ele>
        <time>2022-08-25T14:09:16Z</time>
      </trkpt>
      <trkpt lat="46.40999" lon="5.33556">
        <ele>265.4</ele>
        <time>2022-08-25T14:09:22Z</time>
      </trkpt>
      <trkpt lat="46.41056" lon="5.33574">
        <ele>264.6</ele>
        <time>2022-08-25T14:09:29Z</time>
      </trkpt>
      <trkpt lat="46.41074" lon="5.33581">
        <ele>264.2</ele>
        <time>2022-08-25T14:09:31Z</time>
      </trkpt>
      <trkpt lat="46.41116" lon="5.33605">
        <ele>262.8</ele>
        <time>2022-08-25T14:09:36Z</time>
      </trkpt>
      <trkpt lat="46.41157" lon="5.33637">
        <ele>261.8</ele>
        <time>2022-08-25T14:09:41Z</time>
      </trkpt>
      <trkpt lat="46.4117" lon="5.3365">
        <ele>261.4</ele>
        <time>2022-08-25T14:09:43Z</time>
      </trkpt>
      <trkpt lat="46.41221" lon="5.33697">
        <ele>261.2</ele>
        <time>2022-08-25T14:09:50Z</time>
      </trkpt>
      <trkpt lat="46.41234" lon="5.33707">
        <ele>261.2</ele>
        <time>2022-08-25T14:09:52Z</time>
      </trkpt>
      <trkpt lat="46.41284" lon="5.33755">
        <ele>262.4</ele>
        <time>2022-08-25T14:10:00Z</time>
      </trkpt>
      <trkpt lat="46.413" lon="5.33775">
        <ele>262.8</ele>
        <time>2022-08-25T14:10:03Z</time>
      </trkpt>
      <trkpt lat="46.41315" lon="5.33792">
        <ele>263.2</ele>
        <time>2022-08-25T14:10:06Z</time>
      </trkpt>
      <trkpt lat="46.41321" lon="5.33795">
        <ele>263.4</ele>
        <time>2022-08-25T14:10:07Z</time>
      </trkpt>
      <trkpt lat="46.41338" lon="5.33803">
        <ele>264.2</ele>
        <time>2022-08-25T14:10:10Z</time>
      </trkpt>
      <trkpt lat="46.41373" lon="5.33815">
        <ele>265.2</ele>
        <time>2022-08-25T14:10:16Z</time>
      </trkpt>
      <trkpt lat="46.41384" lon="5.33818">
        <ele>266</ele>
        <time>2022-08-25T14:10:18Z</time>
      </trkpt>
      <trkpt lat="46.41396" lon="5.33822">
        <ele>266.4</ele>
        <time>2022-08-25T14:10:20Z</time>
      </trkpt>
      <trkpt lat="46.41424" lon="5.33829">
        <ele>267.4</ele>
        <time>2022-08-25T14:10:25Z</time>
      </trkpt>
      <trkpt lat="46.41454" lon="5.3384">
        <ele>268.6</ele>
        <time>2022-08-25T14:10:31Z</time>
      </trkpt>
      <trkpt lat="46.41459" lon="5.33843">
        <ele>268.8</ele>
        <time>2022-08-25T14:10:32Z</time>
      </trkpt>
      <trkpt lat="46.4148" lon="5.33857">
        <ele>269.8</ele>
        <time>2022-08-25T14:10:37Z</time>
      </trkpt>
      <trkpt lat="46.41488" lon="5.33863">
        <ele>270.4</ele>
        <time>2022-08-25T14:10:39Z</time>
      </trkpt>
      <trkpt lat="46.41501" lon="5.33871">
        <ele>271</ele>
        <time>2022-08-25T14:10:42Z</time>
      </trkpt>
      <trkpt lat="46.41515" lon="5.33876">
        <ele>271.6</ele>
        <time>2022-08-25T14:10:45Z</time>
      </trkpt>
      <trkpt lat="46.4152" lon="5.33877">
        <ele>271.8</ele>
        <time>2022-08-25T14:10:46Z</time>
      </trkpt>
      <trkpt lat="46.41525" lon="5.33878">
        <ele>272.2</ele>
        <time>2022-08-25T14:10:47Z</time>
      </trkpt>
      <trkpt lat="46.41572" lon="5.33887">
        <ele>273</ele>
        <time>2022-08-25T14:10:57Z</time>
      </trkpt>
      <trkpt lat="46.41577" lon="5.33888">
        <ele>273.2</ele>
        <time>2022-08-25T14:10:58Z</time>
      </trkpt>
      <trkpt lat="46.41605" lon="5.33889">
        <ele>273.8</ele>
        <time>2022-08-25T14:11:03Z</time>
      </trkpt>
      <trkpt lat="46.41611" lon="5.33888">
        <ele>274</ele>
        <time>2022-08-25T14:11:04Z</time>
      </trkpt>
      <trkpt lat="46.41638" lon="5.33881">
        <ele>274</ele>
        <time>2022-08-25T14:11:08Z</time>
      </trkpt>
      <trkpt lat="46.41677" lon="5.33882">
        <ele>273.6</ele>
        <time>2022-08-25T14:11:13Z</time>
      </trkpt>
      <trkpt lat="46.41721" lon="5.33872">
        <ele>273</ele>
        <time>2022-08-25T14:11:18Z</time>
      </trkpt>
      <trkpt lat="46.4175" lon="5.33862">
        <ele>272</ele>
        <time>2022-08-25T14:11:21Z</time>
      </trkpt>
      <trkpt lat="46.4176" lon="5.3386">
        <ele>271.8</ele>
        <time>2022-08-25T14:11:22Z</time>
      </trkpt>
      <trkpt lat="46.41771" lon="5.33862">
        <ele>271</ele>
        <time>2022-08-25T14:11:23Z</time>
      </trkpt>
      <trkpt lat="46.41782" lon="5.33865">
        <ele>270</ele>
        <time>2022-08-25T14:11:24Z</time>
      </trkpt>
      <trkpt lat="46.41793" lon="5.33869">
        <ele>269.6</ele>
        <time>2022-08-25T14:11:25Z</time>
      </trkpt>
      <trkpt lat="46.41805" lon="5.33873">
        <ele>269</ele>
        <time>2022-08-25T14:11:26Z</time>
      </trkpt>
      <trkpt lat="46.4184" lon="5.33881">
        <ele>267.8</ele>
        <time>2022-08-25T14:11:29Z</time>
      </trkpt>
      <trkpt lat="46.41852" lon="5.33882">
        <ele>267.2</ele>
        <time>2022-08-25T14:11:30Z</time>
      </trkpt>
      <trkpt lat="46.41864" lon="5.33882">
        <ele>266.2</ele>
        <time>2022-08-25T14:11:31Z</time>
      </trkpt>
      <trkpt lat="46.41888" lon="5.33881">
        <ele>265</ele>
        <time>2022-08-25T14:11:33Z</time>
      </trkpt>
      <trkpt lat="46.41912" lon="5.33877">
        <ele>263.6</ele>
        <time>2022-08-25T14:11:35Z</time>
      </trkpt>
      <trkpt lat="46.41945" lon="5.33872">
        <ele>262.4</ele>
        <time>2022-08-25T14:11:38Z</time>
      </trkpt>
      <trkpt lat="46.41955" lon="5.33874">
        <ele>262.2</ele>
        <time>2022-08-25T14:11:39Z</time>
      </trkpt>
      <trkpt lat="46.41965" lon="5.33877">
        <ele>262</ele>
        <time>2022-08-25T14:11:40Z</time>
      </trkpt>
      <trkpt lat="46.41982" lon="5.33887">
        <ele>261.8</ele>
        <time>2022-08-25T14:11:42Z</time>
      </trkpt>
      <trkpt lat="46.42014" lon="5.33905">
        <ele>262.6</ele>
        <time>2022-08-25T14:11:46Z</time>
      </trkpt>
      <trkpt lat="46.42039" lon="5.33905">
        <ele>263.8</ele>
        <time>2022-08-25T14:11:49Z</time>
      </trkpt>
      <trkpt lat="46.42048" lon="5.33905">
        <ele>264.2</ele>
        <time>2022-08-25T14:11:50Z</time>
      </trkpt>
      <trkpt lat="46.42056" lon="5.33904">
        <ele>265</ele>
        <time>2022-08-25T14:11:51Z</time>
      </trkpt>
      <trkpt lat="46.42079" lon="5.33904">
        <ele>266.6</ele>
        <time>2022-08-25T14:11:54Z</time>
      </trkpt>
      <trkpt lat="46.42087" lon="5.33905">
        <ele>266.8</ele>
        <time>2022-08-25T14:11:55Z</time>
      </trkpt>
      <trkpt lat="46.42102" lon="5.3391">
        <ele>267</ele>
        <time>2022-08-25T14:11:57Z</time>
      </trkpt>
      <trkpt lat="46.42123" lon="5.3392">
        <ele>267.4</ele>
        <time>2022-08-25T14:12:00Z</time>
      </trkpt>
      <trkpt lat="46.42172" lon="5.33941">
        <ele>267.4</ele>
        <time>2022-08-25T14:12:07Z</time>
      </trkpt>
      <trkpt lat="46.42189" lon="5.33939">
        <ele>267.4</ele>
        <time>2022-08-25T14:12:09Z</time>
      </trkpt>
      <trkpt lat="46.42197" lon="5.33934">
        <ele>267.4</ele>
        <time>2022-08-25T14:12:10Z</time>
      </trkpt>
      <trkpt lat="46.42205" lon="5.33927">
        <ele>267.2</ele>
        <time>2022-08-25T14:12:11Z</time>
      </trkpt>
      <trkpt lat="46.42218" lon="5.33908">
        <ele>267.2</ele>
        <time>2022-08-25T14:12:13Z</time>
      </trkpt>
      <trkpt lat="46.42241" lon="5.33861">
        <ele>265.6</ele>
        <time>2022-08-25T14:12:17Z</time>
      </trkpt>
      <trkpt lat="46.42252" lon="5.33838">
        <ele>264.6</ele>
        <time>2022-08-25T14:12:19Z</time>
      </trkpt>
      <trkpt lat="46.42258" lon="5.33827">
        <ele>264.2</ele>
        <time>2022-08-25T14:12:20Z</time>
      </trkpt>
      <trkpt lat="46.42275" lon="5.33793">
        <ele>263.4</ele>
        <time>2022-08-25T14:12:23Z</time>
      </trkpt>
      <trkpt lat="46.42286" lon="5.33772">
        <ele>262.2</ele>
        <time>2022-08-25T14:12:25Z</time>
      </trkpt>
      <trkpt lat="46.42298" lon="5.3375">
        <ele>261.4</ele>
        <time>2022-08-25T14:12:27Z</time>
      </trkpt>
      <trkpt lat="46.42312" lon="5.33729">
        <ele>261</ele>
        <time>2022-08-25T14:12:29Z</time>
      </trkpt>
      <trkpt lat="46.42329" lon="5.33712">
        <ele>260.2</ele>
        <time>2022-08-25T14:12:31Z</time>
      </trkpt>
      <trkpt lat="46.42338" lon="5.33704">
        <ele>259.8</ele>
        <time>2022-08-25T14:12:32Z</time>
      </trkpt>
      <trkpt lat="46.42368" lon="5.33685">
        <ele>258.8</ele>
        <time>2022-08-25T14:12:35Z</time>
      </trkpt>
      <trkpt lat="46.42378" lon="5.3368">
        <ele>258.4</ele>
        <time>2022-08-25T14:12:36Z</time>
      </trkpt>
      <trkpt lat="46.424" lon="5.33679">
        <ele>256.8</ele>
        <time>2022-08-25T14:12:38Z</time>
      </trkpt>
      <trkpt lat="46.42421" lon="5.33686">
        <ele>256</ele>
        <time>2022-08-25T14:12:40Z</time>
      </trkpt>
      <trkpt lat="46.42431" lon="5.33692">
        <ele>255.4</ele>
        <time>2022-08-25T14:12:41Z</time>
      </trkpt>
      <trkpt lat="46.42441" lon="5.33698">
        <ele>255</ele>
        <time>2022-08-25T14:12:42Z</time>
      </trkpt>
      <trkpt lat="46.42451" lon="5.33704">
        <ele>253.6</ele>
        <time>2022-08-25T14:12:43Z</time>
      </trkpt>
      <trkpt lat="46.42479" lon="5.33728">
        <ele>252.4</ele>
        <time>2022-08-25T14:12:46Z</time>
      </trkpt>
      <trkpt lat="46.42488" lon="5.33736">
        <ele>252</ele>
        <time>2022-08-25T14:12:47Z</time>
      </trkpt>
      <trkpt lat="46.42527" lon="5.33765">
        <ele>251.2</ele>
        <time>2022-08-25T14:12:51Z</time>
      </trkpt>
      <trkpt lat="46.42538" lon="5.33772">
        <ele>251.2</ele>
        <time>2022-08-25T14:12:52Z</time>
      </trkpt>
      <trkpt lat="46.42585" lon="5.33798">
        <ele>250.2</ele>
        <time>2022-08-25T14:12:56Z</time>
      </trkpt>
      <trkpt lat="46.42594" lon="5.33801">
        <ele>249.4</ele>
        <time>2022-08-25T14:12:57Z</time>
      </trkpt>
      <trkpt lat="46.42608" lon="5.33804">
        <ele>249</ele>
        <time>2022-08-25T14:12:58Z</time>
      </trkpt>
      <trkpt lat="46.42629" lon="5.33802">
        <ele>248.2</ele>
        <time>2022-08-25T14:13:00Z</time>
      </trkpt>
      <trkpt lat="46.42652" lon="5.338">
        <ele>247.6</ele>
        <time>2022-08-25T14:13:02Z</time>
      </trkpt>
      <trkpt lat="46.42683" lon="5.33798">
        <ele>246.4</ele>
        <time>2022-08-25T14:13:05Z</time>
      </trkpt>
      <trkpt lat="46.42723" lon="5.33802">
        <ele>245.4</ele>
        <time>2022-08-25T14:13:09Z</time>
      </trkpt>
      <trkpt lat="46.42732" lon="5.33807">
        <ele>245.2</ele>
        <time>2022-08-25T14:13:10Z</time>
      </trkpt>
      <trkpt lat="46.42768" lon="5.33827">
        <ele>244.2</ele>
        <time>2022-08-25T14:13:14Z</time>
      </trkpt>
      <trkpt lat="46.42778" lon="5.3383">
        <ele>244</ele>
        <time>2022-08-25T14:13:15Z</time>
      </trkpt>
      <trkpt lat="46.42798" lon="5.33835">
        <ele>243</ele>
        <time>2022-08-25T14:13:17Z</time>
      </trkpt>
      <trkpt lat="46.4283" lon="5.33839">
        <ele>242</ele>
        <time>2022-08-25T14:13:20Z</time>
      </trkpt>
      <trkpt lat="46.42861" lon="5.33841">
        <ele>240.4</ele>
        <time>2022-08-25T14:13:23Z</time>
      </trkpt>
      <trkpt lat="46.4288" lon="5.33841">
        <ele>239</ele>
        <time>2022-08-25T14:13:25Z</time>
      </trkpt>
      <trkpt lat="46.42888" lon="5.33842">
        <ele>238.6</ele>
        <time>2022-08-25T14:13:26Z</time>
      </trkpt>
      <trkpt lat="46.42931" lon="5.33851">
        <ele>238.4</ele>
        <time>2022-08-25T14:13:31Z</time>
      </trkpt>
      <trkpt lat="46.42973" lon="5.33876">
        <ele>238.6</ele>
        <time>2022-08-25T14:13:37Z</time>
      </trkpt>
      <trkpt lat="46.43012" lon="5.33906">
        <ele>239.6</ele>
        <time>2022-08-25T14:13:43Z</time>
      </trkpt>
      <trkpt lat="46.4306" lon="5.3395">
        <ele>239.6</ele>
        <time>2022-08-25T14:13:51Z</time>
      </trkpt>
      <trkpt lat="46.43105" lon="5.33996">
        <ele>239.8</ele>
        <time>2022-08-25T14:13:59Z</time>
      </trkpt>
      <trkpt lat="46.43109" lon="5.34002">
        <ele>239.8</ele>
        <time>2022-08-25T14:14:00Z</time>
      </trkpt>
      <trkpt lat="46.43142" lon="5.34051">
        <ele>239.8</ele>
        <time>2022-08-25T14:14:07Z</time>
      </trkpt>
      <trkpt lat="46.43152" lon="5.34067">
        <ele>239.8</ele>
        <time>2022-08-25T14:14:10Z</time>
      </trkpt>
      <trkpt lat="46.43155" lon="5.34072">
        <ele>239.8</ele>
        <time>2022-08-25T14:14:11Z</time>
      </trkpt>
      <trkpt lat="46.43176" lon="5.34103">
        <ele>239.6</ele>
        <time>2022-08-25T14:14:16Z</time>
      </trkpt>
      <trkpt lat="46.43201" lon="5.34134">
        <ele>238.2</ele>
        <time>2022-08-25T14:14:21Z</time>
      </trkpt>
      <trkpt lat="46.43234" lon="5.34164">
        <ele>237.2</ele>
        <time>2022-08-25T14:14:27Z</time>
      </trkpt>
      <trkpt lat="46.43268" lon="5.34196">
        <ele>237.2</ele>
        <time>2022-08-25T14:14:33Z</time>
      </trkpt>
      <trkpt lat="46.43304" lon="5.34222">
        <ele>238</ele>
        <time>2022-08-25T14:14:40Z</time>
      </trkpt>
      <trkpt lat="46.43336" lon="5.3424">
        <ele>239.6</ele>
        <time>2022-08-25T14:14:47Z</time>
      </trkpt>
      <trkpt lat="46.4334" lon="5.34243">
        <ele>240</ele>
        <time>2022-08-25T14:14:48Z</time>
      </trkpt>
      <trkpt lat="46.43345" lon="5.34245">
        <ele>240.2</ele>
        <time>2022-08-25T14:14:49Z</time>
      </trkpt>
      <trkpt lat="46.43354" lon="5.34248">
        <ele>240.6</ele>
        <time>2022-08-25T14:14:51Z</time>
      </trkpt>
      <trkpt lat="46.43362" lon="5.34252">
        <ele>241</ele>
        <time>2022-08-25T14:14:53Z</time>
      </trkpt>
      <trkpt lat="46.43365" lon="5.34255">
        <ele>241</ele>
        <time>2022-08-25T14:14:54Z</time>
      </trkpt>
      <trkpt lat="46.4338" lon="5.34269">
        <ele>241.4</ele>
        <time>2022-08-25T14:14:58Z</time>
      </trkpt>
      <trkpt lat="46.43384" lon="5.34272">
        <ele>241.8</ele>
        <time>2022-08-25T14:14:59Z</time>
      </trkpt>
      <trkpt lat="46.43393" lon="5.34279">
        <ele>242.8</ele>
        <time>2022-08-25T14:15:02Z</time>
      </trkpt>
      <trkpt lat="46.43395" lon="5.3428">
        <ele>242.8</ele>
        <time>2022-08-25T14:15:03Z</time>
      </trkpt>
      <trkpt lat="46.43408" lon="5.3429">
        <ele>244</ele>
        <time>2022-08-25T14:15:07Z</time>
      </trkpt>
      <trkpt lat="46.43417" lon="5.34297">
        <ele>244.6</ele>
        <time>2022-08-25T14:15:10Z</time>
      </trkpt>
      <trkpt lat="46.4342" lon="5.34299">
        <ele>245.2</ele>
        <time>2022-08-25T14:15:11Z</time>
      </trkpt>
      <trkpt lat="46.43434" lon="5.3431">
        <ele>246.6</ele>
        <time>2022-08-25T14:15:16Z</time>
      </trkpt>
      <trkpt lat="46.43444" lon="5.34317">
        <ele>247</ele>
        <time>2022-08-25T14:15:19Z</time>
      </trkpt>
      <trkpt lat="46.43449" lon="5.34322">
        <ele>247.6</ele>
        <time>2022-08-25T14:15:21Z</time>
      </trkpt>
      <trkpt lat="46.43458" lon="5.34339">
        <ele>248.6</ele>
        <time>2022-08-25T14:15:25Z</time>
      </trkpt>
      <trkpt lat="46.43459" lon="5.34346">
        <ele>248.8</ele>
        <time>2022-08-25T14:15:26Z</time>
      </trkpt>
      <trkpt lat="46.43463" lon="5.34377">
        <ele>249.4</ele>
        <time>2022-08-25T14:15:31Z</time>
      </trkpt>
      <trkpt lat="46.43466" lon="5.34407">
        <ele>249.8</ele>
        <time>2022-08-25T14:15:36Z</time>
      </trkpt>
      <trkpt lat="46.43468" lon="5.34419">
        <ele>249.8</ele>
        <time>2022-08-25T14:15:38Z</time>
      </trkpt>
      <trkpt lat="46.43468" lon="5.34425">
        <ele>250</ele>
        <time>2022-08-25T14:15:39Z</time>
      </trkpt>
      <trkpt lat="46.43473" lon="5.34459">
        <ele>250.8</ele>
        <time>2022-08-25T14:15:45Z</time>
      </trkpt>
      <trkpt lat="46.43475" lon="5.34477">
        <ele>251.2</ele>
        <time>2022-08-25T14:15:48Z</time>
      </trkpt>
      <trkpt lat="46.43477" lon="5.34489">
        <ele>251.4</ele>
        <time>2022-08-25T14:15:50Z</time>
      </trkpt>
      <trkpt lat="46.43479" lon="5.34507">
        <ele>251.6</ele>
        <time>2022-08-25T14:15:53Z</time>
      </trkpt>
      <trkpt lat="46.4348" lon="5.34512">
        <ele>251.8</ele>
        <time>2022-08-25T14:15:54Z</time>
      </trkpt>
      <trkpt lat="46.43481" lon="5.34517">
        <ele>252</ele>
        <time>2022-08-25T14:15:55Z</time>
      </trkpt>
      <trkpt lat="46.43482" lon="5.34526">
        <ele>252.2</ele>
        <time>2022-08-25T14:15:57Z</time>
      </trkpt>
      <trkpt lat="46.43483" lon="5.34533">
        <ele>252.4</ele>
        <time>2022-08-25T14:15:59Z</time>
      </trkpt>
      <trkpt lat="46.43488" lon="5.34535">
        <ele>252.6</ele>
        <time>2022-08-25T14:16:01Z</time>
      </trkpt>
      <trkpt lat="46.43499" lon="5.34526">
        <ele>252.8</ele>
        <time>2022-08-25T14:16:04Z</time>
      </trkpt>
      <trkpt lat="46.4351" lon="5.34515">
        <ele>253</ele>
        <time>2022-08-25T14:16:07Z</time>
      </trkpt>
      <trkpt lat="46.4352" lon="5.34507">
        <ele>253</ele>
        <time>2022-08-25T14:16:09Z</time>
      </trkpt>
      <trkpt lat="46.43528" lon="5.34499">
        <ele>253.2</ele>
        <time>2022-08-25T14:16:11Z</time>
      </trkpt>
      <trkpt lat="46.43536" lon="5.34493">
        <ele>253.2</ele>
        <time>2022-08-25T14:16:13Z</time>
      </trkpt>
      <trkpt lat="46.43543" lon="5.34487">
        <ele>253.4</ele>
        <time>2022-08-25T14:16:16Z</time>
      </trkpt>
      <trkpt lat="46.43543" lon="5.34488">
        <ele>253.6</ele>
        <time>2022-08-25T14:16:17Z</time>
      </trkpt>
      <trkpt lat="46.43534" lon="5.34494">
        <ele>254</ele>
        <time>2022-08-25T14:16:21Z</time>
      </trkpt>
      <trkpt lat="46.43534" lon="5.34495">
        <ele>254</ele>
        <time>2022-08-25T14:16:24Z</time>
      </trkpt>
      <trkpt lat="46.43535" lon="5.34494">
        <ele>253.6</ele>
        <time>2022-08-25T14:16:57Z</time>
      </trkpt>
      <trkpt lat="46.43542" lon="5.34487">
        <ele>253.6</ele>
        <time>2022-08-25T14:16:59Z</time>
      </trkpt>
      <trkpt lat="46.43546" lon="5.34483">
        <ele>253.6</ele>
        <time>2022-08-25T14:17:00Z</time>
      </trkpt>
      <trkpt lat="46.43554" lon="5.34477">
        <ele>253.6</ele>
        <time>2022-08-25T14:17:02Z</time>
      </trkpt>
      <trkpt lat="46.43563" lon="5.34472">
        <ele>253.6</ele>
        <time>2022-08-25T14:17:04Z</time>
      </trkpt>
      <trkpt lat="46.43571" lon="5.34467">
        <ele>254</ele>
        <time>2022-08-25T14:17:06Z</time>
      </trkpt>
      <trkpt lat="46.43579" lon="5.34463">
        <ele>254.2</ele>
        <time>2022-08-25T14:17:08Z</time>
      </trkpt>
      <trkpt lat="46.43583" lon="5.34462">
        <ele>254.6</ele>
        <time>2022-08-25T14:17:09Z</time>
      </trkpt>
      <trkpt lat="46.43592" lon="5.3446">
        <ele>255</ele>
        <time>2022-08-25T14:17:11Z</time>
      </trkpt>
      <trkpt lat="46.43601" lon="5.34457">
        <ele>255.2</ele>
        <time>2022-08-25T14:17:13Z</time>
      </trkpt>
      <trkpt lat="46.43606" lon="5.34455">
        <ele>255.4</ele>
        <time>2022-08-25T14:17:14Z</time>
      </trkpt>
      <trkpt lat="46.43611" lon="5.34453">
        <ele>255.8</ele>
        <time>2022-08-25T14:17:15Z</time>
      </trkpt>
      <trkpt lat="46.43618" lon="5.3445">
        <ele>256.2</ele>
        <time>2022-08-25T14:17:17Z</time>
      </trkpt>
      <trkpt lat="46.43623" lon="5.34446">
        <ele>256.4</ele>
        <time>2022-08-25T14:17:18Z</time>
      </trkpt>
      <trkpt lat="46.43627" lon="5.34444">
        <ele>256.4</ele>
        <time>2022-08-25T14:17:19Z</time>
      </trkpt>
      <trkpt lat="46.43635" lon="5.34441">
        <ele>256.6</ele>
        <time>2022-08-25T14:17:21Z</time>
      </trkpt>
      <trkpt lat="46.43652" lon="5.34434">
        <ele>257.6</ele>
        <time>2022-08-25T14:17:25Z</time>
      </trkpt>
      <trkpt lat="46.43657" lon="5.34433">
        <ele>257.8</ele>
        <time>2022-08-25T14:17:26Z</time>
      </trkpt>
      <trkpt lat="46.43669" lon="5.34428">
        <ele>258.6</ele>
        <time>2022-08-25T14:17:29Z</time>
      </trkpt>
      <trkpt lat="46.43686" lon="5.34422">
        <ele>259.4</ele>
        <time>2022-08-25T14:17:33Z</time>
      </trkpt>
      <trkpt lat="46.4369" lon="5.34421">
        <ele>259.8</ele>
        <time>2022-08-25T14:17:34Z</time>
      </trkpt>
      <trkpt lat="46.43694" lon="5.34419">
        <ele>260</ele>
        <time>2022-08-25T14:17:35Z</time>
      </trkpt>
      <trkpt lat="46.43703" lon="5.34416">
        <ele>260.6</ele>
        <time>2022-08-25T14:17:37Z</time>
      </trkpt>
      <trkpt lat="46.43708" lon="5.34415">
        <ele>260.8</ele>
        <time>2022-08-25T14:17:38Z</time>
      </trkpt>
      <trkpt lat="46.43732" lon="5.34408">
        <ele>261.2</ele>
        <time>2022-08-25T14:17:42Z</time>
      </trkpt>
      <trkpt lat="46.43772" lon="5.34401">
        <ele>261.4</ele>
        <time>2022-08-25T14:17:48Z</time>
      </trkpt>
      <trkpt lat="46.43827" lon="5.34393">
        <ele>261.2</ele>
        <time>2022-08-25T14:17:56Z</time>
      </trkpt>
      <trkpt lat="46.43868" lon="5.34385">
        <ele>261</ele>
        <time>2022-08-25T14:18:02Z</time>
      </trkpt>
      <trkpt lat="46.43876" lon="5.34383">
        <ele>261</ele>
        <time>2022-08-25T14:18:03Z</time>
      </trkpt>
      <trkpt lat="46.439" lon="5.34369">
        <ele>260.6</ele>
        <time>2022-08-25T14:18:06Z</time>
      </trkpt>
      <trkpt lat="46.43933" lon="5.3434">
        <ele>259.8</ele>
        <time>2022-08-25T14:18:10Z</time>
      </trkpt>
      <trkpt lat="46.4395" lon="5.34323">
        <ele>259.2</ele>
        <time>2022-08-25T14:18:12Z</time>
      </trkpt>
      <trkpt lat="46.43968" lon="5.34306">
        <ele>258.6</ele>
        <time>2022-08-25T14:18:14Z</time>
      </trkpt>
      <trkpt lat="46.43998" lon="5.34283">
        <ele>257.2</ele>
        <time>2022-08-25T14:18:17Z</time>
      </trkpt>
      <trkpt lat="46.44008" lon="5.34277">
        <ele>256.8</ele>
        <time>2022-08-25T14:18:18Z</time>
      </trkpt>
      <trkpt lat="46.44019" lon="5.34272">
        <ele>256</ele>
        <time>2022-08-25T14:18:19Z</time>
      </trkpt>
      <trkpt lat="46.44031" lon="5.3427">
        <ele>255.6</ele>
        <time>2022-08-25T14:18:20Z</time>
      </trkpt>
      <trkpt lat="46.44042" lon="5.34271">
        <ele>254.6</ele>
        <time>2022-08-25T14:18:21Z</time>
      </trkpt>
      <trkpt lat="46.44076" lon="5.3427">
        <ele>253.2</ele>
        <time>2022-08-25T14:18:24Z</time>
      </trkpt>
      <trkpt lat="46.44098" lon="5.3427">
        <ele>252.2</ele>
        <time>2022-08-25T14:18:26Z</time>
      </trkpt>
      <trkpt lat="46.44108" lon="5.3427">
        <ele>252</ele>
        <time>2022-08-25T14:18:27Z</time>
      </trkpt>
      <trkpt lat="46.44126" lon="5.3427">
        <ele>251</ele>
        <time>2022-08-25T14:18:29Z</time>
      </trkpt>
      <trkpt lat="46.44145" lon="5.34274">
        <ele>249.8</ele>
        <time>2022-08-25T14:18:31Z</time>
      </trkpt>
      <trkpt lat="46.44154" lon="5.34275">
        <ele>249.4</ele>
        <time>2022-08-25T14:18:32Z</time>
      </trkpt>
      <trkpt lat="46.44174" lon="5.34271">
        <ele>248.6</ele>
        <time>2022-08-25T14:18:34Z</time>
      </trkpt>
      <trkpt lat="46.44204" lon="5.3427">
        <ele>247.4</ele>
        <time>2022-08-25T14:18:37Z</time>
      </trkpt>
      <trkpt lat="46.44234" lon="5.3427">
        <ele>246.6</ele>
        <time>2022-08-25T14:18:40Z</time>
      </trkpt>
      <trkpt lat="46.44254" lon="5.34271">
        <ele>246.2</ele>
        <time>2022-08-25T14:18:42Z</time>
      </trkpt>
      <trkpt lat="46.44308" lon="5.34273">
        <ele>245</ele>
        <time>2022-08-25T14:18:48Z</time>
      </trkpt>
      <trkpt lat="46.44363" lon="5.34267">
        <ele>244.8</ele>
        <time>2022-08-25T14:18:54Z</time>
      </trkpt>
      <trkpt lat="46.44372" lon="5.34265">
        <ele>244.8</ele>
        <time>2022-08-25T14:18:55Z</time>
      </trkpt>
      <trkpt lat="46.44428" lon="5.34252">
        <ele>244.4</ele>
        <time>2022-08-25T14:19:01Z</time>
      </trkpt>
      <trkpt lat="46.4444" lon="5.3425">
        <ele>244.2</ele>
        <time>2022-08-25T14:19:02Z</time>
      </trkpt>
      <trkpt lat="46.4445" lon="5.34248">
        <ele>243.8</ele>
        <time>2022-08-25T14:19:03Z</time>
      </trkpt>
      <trkpt lat="46.4448" lon="5.34245">
        <ele>242.6</ele>
        <time>2022-08-25T14:19:06Z</time>
      </trkpt>
      <trkpt lat="46.44488" lon="5.34245">
        <ele>242.4</ele>
        <time>2022-08-25T14:19:07Z</time>
      </trkpt>
      <trkpt lat="46.44518" lon="5.34246">
        <ele>241.4</ele>
        <time>2022-08-25T14:19:10Z</time>
      </trkpt>
      <trkpt lat="46.44547" lon="5.34251">
        <ele>241</ele>
        <time>2022-08-25T14:19:13Z</time>
      </trkpt>
      <trkpt lat="46.44587" lon="5.34264">
        <ele>240.8</ele>
        <time>2022-08-25T14:19:18Z</time>
      </trkpt>
      <trkpt lat="46.44594" lon="5.34268">
        <ele>241</ele>
        <time>2022-08-25T14:19:19Z</time>
      </trkpt>
      <trkpt lat="46.4462" lon="5.34288">
        <ele>241.6</ele>
        <time>2022-08-25T14:19:23Z</time>
      </trkpt>
      <trkpt lat="46.44646" lon="5.34305">
        <ele>242.4</ele>
        <time>2022-08-25T14:19:27Z</time>
      </trkpt>
      <trkpt lat="46.44652" lon="5.34309">
        <ele>242.6</ele>
        <time>2022-08-25T14:19:28Z</time>
      </trkpt>
      <trkpt lat="46.44658" lon="5.34312">
        <ele>242.8</ele>
        <time>2022-08-25T14:19:29Z</time>
      </trkpt>
      <trkpt lat="46.44669" lon="5.34308">
        <ele>243</ele>
        <time>2022-08-25T14:19:31Z</time>
      </trkpt>
      <trkpt lat="46.4468" lon="5.34287">
        <ele>243.4</ele>
        <time>2022-08-25T14:19:34Z</time>
      </trkpt>
      <trkpt lat="46.44691" lon="5.34284">
        <ele>243.6</ele>
        <time>2022-08-25T14:19:36Z</time>
      </trkpt>
      <trkpt lat="46.4471" lon="5.34285">
        <ele>244.2</ele>
        <time>2022-08-25T14:19:39Z</time>
      </trkpt>
      <trkpt lat="46.44715" lon="5.34284">
        <ele>244.4</ele>
        <time>2022-08-25T14:19:40Z</time>
      </trkpt>
      <trkpt lat="46.44721" lon="5.34282">
        <ele>244.6</ele>
        <time>2022-08-25T14:19:41Z</time>
      </trkpt>
      <trkpt lat="46.44736" lon="5.34272">
        <ele>245.4</ele>
        <time>2022-08-25T14:19:44Z</time>
      </trkpt>
      <trkpt lat="46.44745" lon="5.34264">
        <ele>246</ele>
        <time>2022-08-25T14:19:46Z</time>
      </trkpt>
      <trkpt lat="46.44761" lon="5.34245">
        <ele>247.2</ele>
        <time>2022-08-25T14:19:50Z</time>
      </trkpt>
      <trkpt lat="46.44765" lon="5.3424">
        <ele>247.4</ele>
        <time>2022-08-25T14:19:51Z</time>
      </trkpt>
      <trkpt lat="46.44779" lon="5.3421">
        <ele>248.2</ele>
        <time>2022-08-25T14:19:56Z</time>
      </trkpt>
      <trkpt lat="46.44782" lon="5.34204">
        <ele>248.8</ele>
        <time>2022-08-25T14:19:57Z</time>
      </trkpt>
      <trkpt lat="46.44787" lon="5.34191">
        <ele>249.6</ele>
        <time>2022-08-25T14:19:59Z</time>
      </trkpt>
      <trkpt lat="46.44805" lon="5.34149">
        <ele>250.8</ele>
        <time>2022-08-25T14:20:06Z</time>
      </trkpt>
      <trkpt lat="46.44817" lon="5.34128">
        <ele>251.8</ele>
        <time>2022-08-25T14:20:10Z</time>
      </trkpt>
      <trkpt lat="46.44828" lon="5.34115">
        <ele>252.4</ele>
        <time>2022-08-25T14:20:13Z</time>
      </trkpt>
      <trkpt lat="46.4484" lon="5.34103">
        <ele>253</ele>
        <time>2022-08-25T14:20:16Z</time>
      </trkpt>
      <trkpt lat="46.44854" lon="5.34095">
        <ele>253.4</ele>
        <time>2022-08-25T14:20:19Z</time>
      </trkpt>
      <trkpt lat="46.44872" lon="5.3409">
        <ele>254</ele>
        <time>2022-08-25T14:20:23Z</time>
      </trkpt>
      <trkpt lat="46.44887" lon="5.3409">
        <ele>254.8</ele>
        <time>2022-08-25T14:20:26Z</time>
      </trkpt>
      <trkpt lat="46.44896" lon="5.34091">
        <ele>255.2</ele>
        <time>2022-08-25T14:20:28Z</time>
      </trkpt>
      <trkpt lat="46.44901" lon="5.34092">
        <ele>255.2</ele>
        <time>2022-08-25T14:20:29Z</time>
      </trkpt>
      <trkpt lat="46.4492" lon="5.34097">
        <ele>255.8</ele>
        <time>2022-08-25T14:20:33Z</time>
      </trkpt>
      <trkpt lat="46.44929" lon="5.341">
        <ele>256.4</ele>
        <time>2022-08-25T14:20:35Z</time>
      </trkpt>
      <trkpt lat="46.44952" lon="5.34107">
        <ele>257.4</ele>
        <time>2022-08-25T14:20:40Z</time>
      </trkpt>
      <trkpt lat="46.44975" lon="5.34115">
        <ele>258.4</ele>
        <time>2022-08-25T14:20:45Z</time>
      </trkpt>
      <trkpt lat="46.4498" lon="5.34116">
        <ele>258.6</ele>
        <time>2022-08-25T14:20:46Z</time>
      </trkpt>
      <trkpt lat="46.45007" lon="5.34122">
        <ele>259.6</ele>
        <time>2022-08-25T14:20:52Z</time>
      </trkpt>
      <trkpt lat="46.45015" lon="5.34123">
        <ele>260</ele>
        <time>2022-08-25T14:20:54Z</time>
      </trkpt>
      <trkpt lat="46.45029" lon="5.34124">
        <ele>260.4</ele>
        <time>2022-08-25T14:20:57Z</time>
      </trkpt>
      <trkpt lat="46.45034" lon="5.34124">
        <ele>260.8</ele>
        <time>2022-08-25T14:20:58Z</time>
      </trkpt>
      <trkpt lat="46.45038" lon="5.34124">
        <ele>261.2</ele>
        <time>2022-08-25T14:20:59Z</time>
      </trkpt>
      <trkpt lat="46.45052" lon="5.34124">
        <ele>262</ele>
        <time>2022-08-25T14:21:02Z</time>
      </trkpt>
      <trkpt lat="46.45076" lon="5.34121">
        <ele>262.6</ele>
        <time>2022-08-25T14:21:07Z</time>
      </trkpt>
      <trkpt lat="46.45081" lon="5.3412">
        <ele>263</ele>
        <time>2022-08-25T14:21:08Z</time>
      </trkpt>
      <trkpt lat="46.45102" lon="5.34115">
        <ele>264</ele>
        <time>2022-08-25T14:21:12Z</time>
      </trkpt>
      <trkpt lat="46.45118" lon="5.34112">
        <ele>264.6</ele>
        <time>2022-08-25T14:21:15Z</time>
      </trkpt>
      <trkpt lat="46.4516" lon="5.34102">
        <ele>265</ele>
        <time>2022-08-25T14:21:22Z</time>
      </trkpt>
      <trkpt lat="46.45167" lon="5.34101">
        <ele>265</ele>
        <time>2022-08-25T14:21:23Z</time>
      </trkpt>
      <trkpt lat="46.45218" lon="5.3409">
        <ele>264.4</ele>
        <time>2022-08-25T14:21:30Z</time>
      </trkpt>
      <trkpt lat="46.45266" lon="5.34079">
        <ele>264</ele>
        <time>2022-08-25T14:21:36Z</time>
      </trkpt>
      <trkpt lat="46.45283" lon="5.34076">
        <ele>263.8</ele>
        <time>2022-08-25T14:21:38Z</time>
      </trkpt>
      <trkpt lat="46.4534" lon="5.34063">
        <ele>263.4</ele>
        <time>2022-08-25T14:21:45Z</time>
      </trkpt>
      <trkpt lat="46.45348" lon="5.34062">
        <ele>263.4</ele>
        <time>2022-08-25T14:21:46Z</time>
      </trkpt>
      <trkpt lat="46.45399" lon="5.34052">
        <ele>263</ele>
        <time>2022-08-25T14:21:52Z</time>
      </trkpt>
      <trkpt lat="46.4544" lon="5.34042">
        <ele>261.8</ele>
        <time>2022-08-25T14:21:57Z</time>
      </trkpt>
      <trkpt lat="46.45458" lon="5.34036">
        <ele>261.2</ele>
        <time>2022-08-25T14:21:59Z</time>
      </trkpt>
      <trkpt lat="46.45486" lon="5.34022">
        <ele>260.4</ele>
        <time>2022-08-25T14:22:02Z</time>
      </trkpt>
      <trkpt lat="46.45495" lon="5.34016">
        <ele>260.4</ele>
        <time>2022-08-25T14:22:03Z</time>
      </trkpt>
      <trkpt lat="46.45512" lon="5.34">
        <ele>259.2</ele>
        <time>2022-08-25T14:22:05Z</time>
      </trkpt>
      <trkpt lat="46.45529" lon="5.33983">
        <ele>258.6</ele>
        <time>2022-08-25T14:22:07Z</time>
      </trkpt>
      <trkpt lat="46.45544" lon="5.33961">
        <ele>258.2</ele>
        <time>2022-08-25T14:22:09Z</time>
      </trkpt>
      <trkpt lat="46.4556" lon="5.33934">
        <ele>257.6</ele>
        <time>2022-08-25T14:22:11Z</time>
      </trkpt>
      <trkpt lat="46.45565" lon="5.33923">
        <ele>256.8</ele>
        <time>2022-08-25T14:22:12Z</time>
      </trkpt>
      <trkpt lat="46.45584" lon="5.3388">
        <ele>255.8</ele>
        <time>2022-08-25T14:22:15Z</time>
      </trkpt>
      <trkpt lat="46.4559" lon="5.33866">
        <ele>255.4</ele>
        <time>2022-08-25T14:22:16Z</time>
      </trkpt>
      <trkpt lat="46.45611" lon="5.33822">
        <ele>254</ele>
        <time>2022-08-25T14:22:19Z</time>
      </trkpt>
      <trkpt lat="46.45625" lon="5.33794">
        <ele>253.4</ele>
        <time>2022-08-25T14:22:21Z</time>
      </trkpt>
      <trkpt lat="46.45637" lon="5.33766">
        <ele>252.8</ele>
        <time>2022-08-25T14:22:23Z</time>
      </trkpt>
      <trkpt lat="46.45654" lon="5.33722">
        <ele>251.8</ele>
        <time>2022-08-25T14:22:26Z</time>
      </trkpt>
      <trkpt lat="46.45659" lon="5.33708">
        <ele>251.6</ele>
        <time>2022-08-25T14:22:27Z</time>
      </trkpt>
      <trkpt lat="46.45675" lon="5.33667">
        <ele>250.6</ele>
        <time>2022-08-25T14:22:30Z</time>
      </trkpt>
      <trkpt lat="46.45686" lon="5.33641">
        <ele>250.2</ele>
        <time>2022-08-25T14:22:32Z</time>
      </trkpt>
      <trkpt lat="46.45697" lon="5.33615">
        <ele>249.6</ele>
        <time>2022-08-25T14:22:34Z</time>
      </trkpt>
      <trkpt lat="46.45718" lon="5.33564">
        <ele>248.4</ele>
        <time>2022-08-25T14:22:38Z</time>
      </trkpt>
      <trkpt lat="46.45735" lon="5.33525">
        <ele>247.4</ele>
        <time>2022-08-25T14:22:41Z</time>
      </trkpt>
      <trkpt lat="46.4576" lon="5.3347">
        <ele>246.2</ele>
        <time>2022-08-25T14:22:45Z</time>
      </trkpt>
      <trkpt lat="46.45791" lon="5.33399">
        <ele>245.2</ele>
        <time>2022-08-25T14:22:51Z</time>
      </trkpt>
      <trkpt lat="46.45796" lon="5.33387">
        <ele>245.2</ele>
        <time>2022-08-25T14:22:52Z</time>
      </trkpt>
      <trkpt lat="46.45824" lon="5.33332">
        <ele>244.2</ele>
        <time>2022-08-25T14:22:57Z</time>
      </trkpt>
      <trkpt lat="46.45829" lon="5.33322">
        <ele>244</ele>
        <time>2022-08-25T14:22:58Z</time>
      </trkpt>
      <trkpt lat="46.45868" lon="5.33252">
        <ele>242.8</ele>
        <time>2022-08-25T14:23:05Z</time>
      </trkpt>
      <trkpt lat="46.45913" lon="5.33198">
        <ele>242.2</ele>
        <time>2022-08-25T14:23:12Z</time>
      </trkpt>
      <trkpt lat="46.4596" lon="5.33146">
        <ele>242</ele>
        <time>2022-08-25T14:23:19Z</time>
      </trkpt>
      <trkpt lat="46.45974" lon="5.33131">
        <ele>241.8</ele>
        <time>2022-08-25T14:23:21Z</time>
      </trkpt>
      <trkpt lat="46.45991" lon="5.33116">
        <ele>241.8</ele>
        <time>2022-08-25T14:23:23Z</time>
      </trkpt>
      <trkpt lat="46.46041" lon="5.33066">
        <ele>240.8</ele>
        <time>2022-08-25T14:23:30Z</time>
      </trkpt>
      <trkpt lat="46.46047" lon="5.33061">
        <ele>240.8</ele>
        <time>2022-08-25T14:23:31Z</time>
      </trkpt>
      <trkpt lat="46.46061" lon="5.33048">
        <ele>240.6</ele>
        <time>2022-08-25T14:23:33Z</time>
      </trkpt>
      <trkpt lat="46.46084" lon="5.33029">
        <ele>240.6</ele>
        <time>2022-08-25T14:23:36Z</time>
      </trkpt>
      <trkpt lat="46.46112" lon="5.33011">
        <ele>240.6</ele>
        <time>2022-08-25T14:23:40Z</time>
      </trkpt>
      <trkpt lat="46.46171" lon="5.32974">
        <ele>240.4</ele>
        <time>2022-08-25T14:23:47Z</time>
      </trkpt>
      <trkpt lat="46.46177" lon="5.3297">
        <ele>240.4</ele>
        <time>2022-08-25T14:23:48Z</time>
      </trkpt>
      <trkpt lat="46.46215" lon="5.32938">
        <ele>240.2</ele>
        <time>2022-08-25T14:23:53Z</time>
      </trkpt>
      <trkpt lat="46.46238" lon="5.32904">
        <ele>239.8</ele>
        <time>2022-08-25T14:23:57Z</time>
      </trkpt>
      <trkpt lat="46.46244" lon="5.32895">
        <ele>239.6</ele>
        <time>2022-08-25T14:23:58Z</time>
      </trkpt>
      <trkpt lat="46.46286" lon="5.32831">
        <ele>239.4</ele>
        <time>2022-08-25T14:24:06Z</time>
      </trkpt>
      <trkpt lat="46.46315" lon="5.32782">
        <ele>240</ele>
        <time>2022-08-25T14:24:12Z</time>
      </trkpt>
      <trkpt lat="46.46321" lon="5.32762">
        <ele>240</ele>
        <time>2022-08-25T14:24:14Z</time>
      </trkpt>
      <trkpt lat="46.46324" lon="5.3274">
        <ele>240</ele>
        <time>2022-08-25T14:24:16Z</time>
      </trkpt>
      <trkpt lat="46.46324" lon="5.32683">
        <ele>239.8</ele>
        <time>2022-08-25T14:24:21Z</time>
      </trkpt>
      <trkpt lat="46.46324" lon="5.32604">
        <ele>239</ele>
        <time>2022-08-25T14:24:28Z</time>
      </trkpt>
      <trkpt lat="46.46335" lon="5.32552">
        <ele>238.8</ele>
        <time>2022-08-25T14:24:33Z</time>
      </trkpt>
      <trkpt lat="46.46359" lon="5.32488">
        <ele>239.6</ele>
        <time>2022-08-25T14:24:40Z</time>
      </trkpt>
      <trkpt lat="46.46387" lon="5.32411">
        <ele>239.8</ele>
        <time>2022-08-25T14:24:48Z</time>
      </trkpt>
      <trkpt lat="46.46391" lon="5.32402">
        <ele>239.8</ele>
        <time>2022-08-25T14:24:49Z</time>
      </trkpt>
      <trkpt lat="46.46418" lon="5.3235">
        <ele>239.6</ele>
        <time>2022-08-25T14:24:55Z</time>
      </trkpt>
      <trkpt lat="46.46455" lon="5.32282">
        <ele>239.8</ele>
        <time>2022-08-25T14:25:03Z</time>
      </trkpt>
      <trkpt lat="46.4649" lon="5.32216">
        <ele>239.8</ele>
        <time>2022-08-25T14:25:11Z</time>
      </trkpt>
      <trkpt lat="46.46528" lon="5.32147">
        <ele>239.4</ele>
        <time>2022-08-25T14:25:19Z</time>
      </trkpt>
      <trkpt lat="46.46537" lon="5.32129">
        <ele>239</ele>
        <time>2022-08-25T14:25:21Z</time>
      </trkpt>
      <trkpt lat="46.46542" lon="5.3212">
        <ele>238.8</ele>
        <time>2022-08-25T14:25:22Z</time>
      </trkpt>
      <trkpt lat="46.46571" lon="5.32066">
        <ele>238.6</ele>
        <time>2022-08-25T14:25:28Z</time>
      </trkpt>
      <trkpt lat="46.46605" lon="5.32006">
        <ele>238.6</ele>
        <time>2022-08-25T14:25:35Z</time>
      </trkpt>
      <trkpt lat="46.4662" lon="5.31981">
        <ele>238.4</ele>
        <time>2022-08-25T14:25:38Z</time>
      </trkpt>
      <trkpt lat="46.46655" lon="5.31934">
        <ele>238.2</ele>
        <time>2022-08-25T14:25:44Z</time>
      </trkpt>
      <trkpt lat="46.46705" lon="5.31891">
        <ele>238</ele>
        <time>2022-08-25T14:25:51Z</time>
      </trkpt>
      <trkpt lat="46.46713" lon="5.31885">
        <ele>238</ele>
        <time>2022-08-25T14:25:52Z</time>
      </trkpt>
      <trkpt lat="46.4672" lon="5.31879">
        <ele>237.8</ele>
        <time>2022-08-25T14:25:53Z</time>
      </trkpt>
      <trkpt lat="46.46754" lon="5.31846">
        <ele>237.6</ele>
        <time>2022-08-25T14:25:58Z</time>
      </trkpt>
      <trkpt lat="46.46801" lon="5.31785">
        <ele>237.2</ele>
        <time>2022-08-25T14:26:05Z</time>
      </trkpt>
      <trkpt lat="46.46837" lon="5.31747">
        <ele>237.2</ele>
        <time>2022-08-25T14:26:10Z</time>
      </trkpt>
      <trkpt lat="46.46883" lon="5.31689">
        <ele>238</ele>
        <time>2022-08-25T14:26:17Z</time>
      </trkpt>
      <trkpt lat="46.4691" lon="5.31659">
        <ele>238.4</ele>
        <time>2022-08-25T14:26:21Z</time>
      </trkpt>
      <trkpt lat="46.46922" lon="5.31646">
        <ele>238.4</ele>
        <time>2022-08-25T14:26:23Z</time>
      </trkpt>
      <trkpt lat="46.46939" lon="5.31624">
        <ele>238.6</ele>
        <time>2022-08-25T14:26:26Z</time>
      </trkpt>
      <trkpt lat="46.46952" lon="5.31609">
        <ele>238.6</ele>
        <time>2022-08-25T14:26:28Z</time>
      </trkpt>
      <trkpt lat="46.46964" lon="5.31593">
        <ele>239</ele>
        <time>2022-08-25T14:26:30Z</time>
      </trkpt>
      <trkpt lat="46.46988" lon="5.31562">
        <ele>239.2</ele>
        <time>2022-08-25T14:26:34Z</time>
      </trkpt>
      <trkpt lat="46.47025" lon="5.31513">
        <ele>238.8</ele>
        <time>2022-08-25T14:26:40Z</time>
      </trkpt>
      <trkpt lat="46.47062" lon="5.3147">
        <ele>238</ele>
        <time>2022-08-25T14:26:45Z</time>
      </trkpt>
      <trkpt lat="46.47069" lon="5.31462">
        <ele>238</ele>
        <time>2022-08-25T14:26:46Z</time>
      </trkpt>
      <trkpt lat="46.4711" lon="5.31411">
        <ele>237.6</ele>
        <time>2022-08-25T14:26:52Z</time>
      </trkpt>
      <trkpt lat="46.47136" lon="5.31375">
        <ele>237.8</ele>
        <time>2022-08-25T14:26:56Z</time>
      </trkpt>
      <trkpt lat="46.47149" lon="5.31357">
        <ele>238</ele>
        <time>2022-08-25T14:26:58Z</time>
      </trkpt>
      <trkpt lat="46.47162" lon="5.31338">
        <ele>238</ele>
        <time>2022-08-25T14:27:00Z</time>
      </trkpt>
      <trkpt lat="46.47189" lon="5.31295">
        <ele>238.2</ele>
        <time>2022-08-25T14:27:05Z</time>
      </trkpt>
      <trkpt lat="46.4722" lon="5.31242">
        <ele>237.6</ele>
        <time>2022-08-25T14:27:11Z</time>
      </trkpt>
      <trkpt lat="46.47237" lon="5.31218">
        <ele>237.4</ele>
        <time>2022-08-25T14:27:14Z</time>
      </trkpt>
      <trkpt lat="46.4726" lon="5.31183">
        <ele>237.2</ele>
        <time>2022-08-25T14:27:18Z</time>
      </trkpt>
      <trkpt lat="46.47272" lon="5.31161">
        <ele>237.2</ele>
        <time>2022-08-25T14:27:21Z</time>
      </trkpt>
      <trkpt lat="46.47277" lon="5.31154">
        <ele>237.2</ele>
        <time>2022-08-25T14:27:22Z</time>
      </trkpt>
      <trkpt lat="46.47288" lon="5.31137">
        <ele>237</ele>
        <time>2022-08-25T14:27:24Z</time>
      </trkpt>
      <trkpt lat="46.47294" lon="5.31129">
        <ele>237</ele>
        <time>2022-08-25T14:27:25Z</time>
      </trkpt>
      <trkpt lat="46.47301" lon="5.3112">
        <ele>236.8</ele>
        <time>2022-08-25T14:27:26Z</time>
      </trkpt>
      <trkpt lat="46.4733" lon="5.31091">
        <ele>236.6</ele>
        <time>2022-08-25T14:27:29Z</time>
      </trkpt>
      <trkpt lat="46.47348" lon="5.31076">
        <ele>236.6</ele>
        <time>2022-08-25T14:27:31Z</time>
      </trkpt>
      <trkpt lat="46.47365" lon="5.31061">
        <ele>236.4</ele>
        <time>2022-08-25T14:27:33Z</time>
      </trkpt>
      <trkpt lat="46.47411" lon="5.31032">
        <ele>235.8</ele>
        <time>2022-08-25T14:27:38Z</time>
      </trkpt>
      <trkpt lat="46.47429" lon="5.3102">
        <ele>235</ele>
        <time>2022-08-25T14:27:40Z</time>
      </trkpt>
      <trkpt lat="46.47438" lon="5.31014">
        <ele>234.4</ele>
        <time>2022-08-25T14:27:41Z</time>
      </trkpt>
      <trkpt lat="46.47457" lon="5.31001">
        <ele>233.2</ele>
        <time>2022-08-25T14:27:43Z</time>
      </trkpt>
      <trkpt lat="46.47485" lon="5.30982">
        <ele>232</ele>
        <time>2022-08-25T14:27:46Z</time>
      </trkpt>
      <trkpt lat="46.47494" lon="5.30976">
        <ele>231.8</ele>
        <time>2022-08-25T14:27:47Z</time>
      </trkpt>
      <trkpt lat="46.47528" lon="5.30954">
        <ele>230.6</ele>
        <time>2022-08-25T14:27:51Z</time>
      </trkpt>
      <trkpt lat="46.47552" lon="5.30939">
        <ele>230.2</ele>
        <time>2022-08-25T14:27:54Z</time>
      </trkpt>
      <trkpt lat="46.47586" lon="5.30921">
        <ele>230</ele>
        <time>2022-08-25T14:27:59Z</time>
      </trkpt>
      <trkpt lat="46.4763" lon="5.30902">
        <ele>230.6</ele>
        <time>2022-08-25T14:28:06Z</time>
      </trkpt>
      <trkpt lat="46.47653" lon="5.30894">
        <ele>231</ele>
        <time>2022-08-25T14:28:10Z</time>
      </trkpt>
      <trkpt lat="46.47664" lon="5.30894">
        <ele>231.2</ele>
        <time>2022-08-25T14:28:12Z</time>
      </trkpt>
      <trkpt lat="46.4768" lon="5.30898">
        <ele>231.6</ele>
        <time>2022-08-25T14:28:15Z</time>
      </trkpt>
      <trkpt lat="46.47703" lon="5.30906">
        <ele>232.2</ele>
        <time>2022-08-25T14:28:19Z</time>
      </trkpt>
      <trkpt lat="46.47713" lon="5.3091">
        <ele>232.6</ele>
        <time>2022-08-25T14:28:21Z</time>
      </trkpt>
      <trkpt lat="46.47723" lon="5.30912">
        <ele>233</ele>
        <time>2022-08-25T14:28:23Z</time>
      </trkpt>
      <trkpt lat="46.47733" lon="5.30912">
        <ele>233.6</ele>
        <time>2022-08-25T14:28:25Z</time>
      </trkpt>
      <trkpt lat="46.47737" lon="5.30911">
        <ele>234</ele>
        <time>2022-08-25T14:28:26Z</time>
      </trkpt>
      <trkpt lat="46.47746" lon="5.30909">
        <ele>234.6</ele>
        <time>2022-08-25T14:28:28Z</time>
      </trkpt>
      <trkpt lat="46.47755" lon="5.30905">
        <ele>235</ele>
        <time>2022-08-25T14:28:30Z</time>
      </trkpt>
      <trkpt lat="46.47768" lon="5.30895">
        <ele>235.8</ele>
        <time>2022-08-25T14:28:33Z</time>
      </trkpt>
      <trkpt lat="46.47775" lon="5.30887">
        <ele>236.4</ele>
        <time>2022-08-25T14:28:35Z</time>
      </trkpt>
      <trkpt lat="46.47779" lon="5.30883">
        <ele>236.6</ele>
        <time>2022-08-25T14:28:36Z</time>
      </trkpt>
      <trkpt lat="46.47804" lon="5.30846">
        <ele>237.4</ele>
        <time>2022-08-25T14:28:43Z</time>
      </trkpt>
      <trkpt lat="46.47831" lon="5.30814">
        <ele>237.8</ele>
        <time>2022-08-25T14:28:49Z</time>
      </trkpt>
      <trkpt lat="46.47844" lon="5.30806">
        <ele>237.8</ele>
        <time>2022-08-25T14:28:51Z</time>
      </trkpt>
      <trkpt lat="46.47859" lon="5.30803">
        <ele>237.6</ele>
        <time>2022-08-25T14:28:53Z</time>
      </trkpt>
      <trkpt lat="46.47893" lon="5.30809">
        <ele>237.2</ele>
        <time>2022-08-25T14:28:57Z</time>
      </trkpt>
      <trkpt lat="46.47912" lon="5.30815">
        <ele>236.4</ele>
        <time>2022-08-25T14:28:59Z</time>
      </trkpt>
      <trkpt lat="46.47931" lon="5.3082">
        <ele>235.4</ele>
        <time>2022-08-25T14:29:01Z</time>
      </trkpt>
      <trkpt lat="46.47941" lon="5.3082">
        <ele>235.2</ele>
        <time>2022-08-25T14:29:02Z</time>
      </trkpt>
      <trkpt lat="46.47962" lon="5.30818">
        <ele>234.4</ele>
        <time>2022-08-25T14:29:04Z</time>
      </trkpt>
      <trkpt lat="46.47981" lon="5.3081">
        <ele>233.4</ele>
        <time>2022-08-25T14:29:06Z</time>
      </trkpt>
      <trkpt lat="46.4799" lon="5.30806">
        <ele>233.2</ele>
        <time>2022-08-25T14:29:07Z</time>
      </trkpt>
      <trkpt lat="46.48007" lon="5.30797">
        <ele>232</ele>
        <time>2022-08-25T14:29:09Z</time>
      </trkpt>
      <trkpt lat="46.48023" lon="5.30788">
        <ele>231.4</ele>
        <time>2022-08-25T14:29:11Z</time>
      </trkpt>
      <trkpt lat="46.48067" lon="5.30764">
        <ele>232.2</ele>
        <time>2022-08-25T14:29:17Z</time>
      </trkpt>
      <trkpt lat="46.48121" lon="5.30734">
        <ele>232.8</ele>
        <time>2022-08-25T14:29:25Z</time>
      </trkpt>
      <trkpt lat="46.48179" lon="5.30702">
        <ele>232.4</ele>
        <time>2022-08-25T14:29:33Z</time>
      </trkpt>
      <trkpt lat="46.48194" lon="5.30694">
        <ele>232.2</ele>
        <time>2022-08-25T14:29:35Z</time>
      </trkpt>
      <trkpt lat="46.48212" lon="5.30688">
        <ele>231.8</ele>
        <time>2022-08-25T14:29:37Z</time>
      </trkpt>
      <trkpt lat="46.48229" lon="5.30687">
        <ele>231.4</ele>
        <time>2022-08-25T14:29:39Z</time>
      </trkpt>
      <trkpt lat="46.48248" lon="5.3069">
        <ele>230.8</ele>
        <time>2022-08-25T14:29:41Z</time>
      </trkpt>
      <trkpt lat="46.48275" lon="5.30697">
        <ele>230</ele>
        <time>2022-08-25T14:29:44Z</time>
      </trkpt>
      <trkpt lat="46.48284" lon="5.30699">
        <ele>229.6</ele>
        <time>2022-08-25T14:29:45Z</time>
      </trkpt>
      <trkpt lat="46.48302" lon="5.30701">
        <ele>229.4</ele>
        <time>2022-08-25T14:29:47Z</time>
      </trkpt>
      <trkpt lat="46.4832" lon="5.30697">
        <ele>229</ele>
        <time>2022-08-25T14:29:49Z</time>
      </trkpt>
      <trkpt lat="46.48336" lon="5.30689">
        <ele>228.4</ele>
        <time>2022-08-25T14:29:51Z</time>
      </trkpt>
      <trkpt lat="46.48352" lon="5.30675">
        <ele>228.4</ele>
        <time>2022-08-25T14:29:53Z</time>
      </trkpt>
      <trkpt lat="46.48398" lon="5.3063">
        <ele>228.4</ele>
        <time>2022-08-25T14:30:00Z</time>
      </trkpt>
      <trkpt lat="46.48443" lon="5.30587">
        <ele>229.2</ele>
        <time>2022-08-25T14:30:07Z</time>
      </trkpt>
      <trkpt lat="46.48449" lon="5.30581">
        <ele>229</ele>
        <time>2022-08-25T14:30:08Z</time>
      </trkpt>
      <trkpt lat="46.48479" lon="5.30552">
        <ele>229.6</ele>
        <time>2022-08-25T14:30:13Z</time>
      </trkpt>
      <trkpt lat="46.48514" lon="5.30517">
        <ele>230.6</ele>
        <time>2022-08-25T14:30:19Z</time>
      </trkpt>
      <trkpt lat="46.48532" lon="5.30503">
        <ele>231</ele>
        <time>2022-08-25T14:30:22Z</time>
      </trkpt>
      <trkpt lat="46.48545" lon="5.30495">
        <ele>231</ele>
        <time>2022-08-25T14:30:24Z</time>
      </trkpt>
      <trkpt lat="46.48552" lon="5.30495">
        <ele>231</ele>
        <time>2022-08-25T14:30:25Z</time>
      </trkpt>
      <trkpt lat="46.48558" lon="5.30499">
        <ele>231</ele>
        <time>2022-08-25T14:30:26Z</time>
      </trkpt>
      <trkpt lat="46.48572" lon="5.30509">
        <ele>230.8</ele>
        <time>2022-08-25T14:30:28Z</time>
      </trkpt>
      <trkpt lat="46.48576" lon="5.30515">
        <ele>230.8</ele>
        <time>2022-08-25T14:30:29Z</time>
      </trkpt>
      <trkpt lat="46.48575" lon="5.30531">
        <ele>230.6</ele>
        <time>2022-08-25T14:30:31Z</time>
      </trkpt>
      <trkpt lat="46.48568" lon="5.30559">
        <ele>230.4</ele>
        <time>2022-08-25T14:30:33Z</time>
      </trkpt>
      <trkpt lat="46.48556" lon="5.30603">
        <ele>230</ele>
        <time>2022-08-25T14:30:36Z</time>
      </trkpt>
      <trkpt lat="46.48549" lon="5.30642">
        <ele>229.6</ele>
        <time>2022-08-25T14:30:39Z</time>
      </trkpt>
      <trkpt lat="46.48547" lon="5.30658">
        <ele>229.6</ele>
        <time>2022-08-25T14:30:40Z</time>
      </trkpt>
      <trkpt lat="46.48547" lon="5.3067">
        <ele>229.4</ele>
        <time>2022-08-25T14:30:41Z</time>
      </trkpt>
      <trkpt lat="46.48548" lon="5.30687">
        <ele>229.4</ele>
        <time>2022-08-25T14:30:42Z</time>
      </trkpt>
      <trkpt lat="46.48552" lon="5.30711">
        <ele>229</ele>
        <time>2022-08-25T14:30:44Z</time>
      </trkpt>
      <trkpt lat="46.48556" lon="5.30727">
        <ele>228.4</ele>
        <time>2022-08-25T14:30:45Z</time>
      </trkpt>
      <trkpt lat="46.48565" lon="5.30747">
        <ele>227.4</ele>
        <time>2022-08-25T14:30:47Z</time>
      </trkpt>
      <trkpt lat="46.48571" lon="5.30755">
        <ele>227.4</ele>
        <time>2022-08-25T14:30:48Z</time>
      </trkpt>
      <trkpt lat="46.48579" lon="5.30763">
        <ele>226.6</ele>
        <time>2022-08-25T14:30:49Z</time>
      </trkpt>
      <trkpt lat="46.48586" lon="5.3077">
        <ele>226.4</ele>
        <time>2022-08-25T14:30:50Z</time>
      </trkpt>
      <trkpt lat="46.48594" lon="5.30777">
        <ele>226</ele>
        <time>2022-08-25T14:30:51Z</time>
      </trkpt>
      <trkpt lat="46.48618" lon="5.30797">
        <ele>224.8</ele>
        <time>2022-08-25T14:30:54Z</time>
      </trkpt>
      <trkpt lat="46.48636" lon="5.30807">
        <ele>224.4</ele>
        <time>2022-08-25T14:30:56Z</time>
      </trkpt>
      <trkpt lat="46.48659" lon="5.30823">
        <ele>223.8</ele>
        <time>2022-08-25T14:30:59Z</time>
      </trkpt>
      <trkpt lat="46.48673" lon="5.30832">
        <ele>223.6</ele>
        <time>2022-08-25T14:31:01Z</time>
      </trkpt>
      <trkpt lat="46.48708" lon="5.30854">
        <ele>223.8</ele>
        <time>2022-08-25T14:31:06Z</time>
      </trkpt>
      <trkpt lat="46.48714" lon="5.30861">
        <ele>223.8</ele>
        <time>2022-08-25T14:31:07Z</time>
      </trkpt>
      <trkpt lat="46.48719" lon="5.30869">
        <ele>224</ele>
        <time>2022-08-25T14:31:08Z</time>
      </trkpt>
      <trkpt lat="46.48723" lon="5.30888">
        <ele>224.4</ele>
        <time>2022-08-25T14:31:10Z</time>
      </trkpt>
      <trkpt lat="46.48718" lon="5.30909">
        <ele>224.6</ele>
        <time>2022-08-25T14:31:12Z</time>
      </trkpt>
      <trkpt lat="46.48713" lon="5.30917">
        <ele>225</ele>
        <time>2022-08-25T14:31:13Z</time>
      </trkpt>
      <trkpt lat="46.48698" lon="5.30937">
        <ele>225.2</ele>
        <time>2022-08-25T14:31:16Z</time>
      </trkpt>
      <trkpt lat="46.48689" lon="5.30953">
        <ele>225.8</ele>
        <time>2022-08-25T14:31:18Z</time>
      </trkpt>
      <trkpt lat="46.48685" lon="5.30961">
        <ele>226</ele>
        <time>2022-08-25T14:31:19Z</time>
      </trkpt>
      <trkpt lat="46.48665" lon="5.31003">
        <ele>226.8</ele>
        <time>2022-08-25T14:31:24Z</time>
      </trkpt>
      <trkpt lat="46.48661" lon="5.31012">
        <ele>227</ele>
        <time>2022-08-25T14:31:25Z</time>
      </trkpt>
      <trkpt lat="46.48626" lon="5.31083">
        <ele>227.6</ele>
        <time>2022-08-25T14:31:33Z</time>
      </trkpt>
      <trkpt lat="46.48595" lon="5.31148">
        <ele>227</ele>
        <time>2022-08-25T14:31:39Z</time>
      </trkpt>
      <trkpt lat="46.48591" lon="5.31156">
        <ele>227</ele>
        <time>2022-08-25T14:31:40Z</time>
      </trkpt>
      <trkpt lat="46.48576" lon="5.31185">
        <ele>226</ele>
        <time>2022-08-25T14:31:43Z</time>
      </trkpt>
      <trkpt lat="46.48556" lon="5.31227">
        <ele>224.8</ele>
        <time>2022-08-25T14:31:47Z</time>
      </trkpt>
      <trkpt lat="46.48553" lon="5.31238">
        <ele>224.6</ele>
        <time>2022-08-25T14:31:48Z</time>
      </trkpt>
      <trkpt lat="46.48549" lon="5.3126">
        <ele>224.2</ele>
        <time>2022-08-25T14:31:50Z</time>
      </trkpt>
      <trkpt lat="46.48549" lon="5.31275">
        <ele>223.8</ele>
        <time>2022-08-25T14:31:51Z</time>
      </trkpt>
      <trkpt lat="46.48553" lon="5.31309">
        <ele>223</ele>
        <time>2022-08-25T14:31:54Z</time>
      </trkpt>
      <trkpt lat="46.48554" lon="5.31321">
        <ele>222.6</ele>
        <time>2022-08-25T14:31:55Z</time>
      </trkpt>
      <trkpt lat="46.48562" lon="5.31367">
        <ele>222</ele>
        <time>2022-08-25T14:31:59Z</time>
      </trkpt>
      <trkpt lat="46.48572" lon="5.31388">
        <ele>222</ele>
        <time>2022-08-25T14:32:01Z</time>
      </trkpt>
      <trkpt lat="46.4858" lon="5.31399">
        <ele>221.8</ele>
        <time>2022-08-25T14:32:02Z</time>
      </trkpt>
      <trkpt lat="46.48586" lon="5.31405">
        <ele>221.6</ele>
        <time>2022-08-25T14:32:03Z</time>
      </trkpt>
      <trkpt lat="46.48594" lon="5.31414">
        <ele>221.2</ele>
        <time>2022-08-25T14:32:04Z</time>
      </trkpt>
      <trkpt lat="46.486" lon="5.31425">
        <ele>220.2</ele>
        <time>2022-08-25T14:32:05Z</time>
      </trkpt>
      <trkpt lat="46.48607" lon="5.3144">
        <ele>220.2</ele>
        <time>2022-08-25T14:32:06Z</time>
      </trkpt>
      <trkpt lat="46.48609" lon="5.31466">
        <ele>219.2</ele>
        <time>2022-08-25T14:32:08Z</time>
      </trkpt>
      <trkpt lat="46.4861" lon="5.31482">
        <ele>218.4</ele>
        <time>2022-08-25T14:32:09Z</time>
      </trkpt>
      <trkpt lat="46.48611" lon="5.31492">
        <ele>218</ele>
        <time>2022-08-25T14:32:10Z</time>
      </trkpt>
      <trkpt lat="46.48616" lon="5.31514">
        <ele>217</ele>
        <time>2022-08-25T14:32:12Z</time>
      </trkpt>
      <trkpt lat="46.48624" lon="5.31533">
        <ele>216.6</ele>
        <time>2022-08-25T14:32:14Z</time>
      </trkpt>
      <trkpt lat="46.48629" lon="5.31541">
        <ele>216.6</ele>
        <time>2022-08-25T14:32:15Z</time>
      </trkpt>
      <trkpt lat="46.48635" lon="5.31551">
        <ele>216.4</ele>
        <time>2022-08-25T14:32:16Z</time>
      </trkpt>
      <trkpt lat="46.48653" lon="5.31573">
        <ele>216.2</ele>
        <time>2022-08-25T14:32:19Z</time>
      </trkpt>
      <trkpt lat="46.48679" lon="5.31596">
        <ele>216.2</ele>
        <time>2022-08-25T14:32:22Z</time>
      </trkpt>
      <trkpt lat="46.48712" lon="5.3163">
        <ele>216.2</ele>
        <time>2022-08-25T14:32:27Z</time>
      </trkpt>
      <trkpt lat="46.48732" lon="5.31651">
        <ele>216.4</ele>
        <time>2022-08-25T14:32:30Z</time>
      </trkpt>
      <trkpt lat="46.48743" lon="5.31665">
        <ele>216.4</ele>
        <time>2022-08-25T14:32:32Z</time>
      </trkpt>
      <trkpt lat="46.48768" lon="5.31692">
        <ele>216.2</ele>
        <time>2022-08-25T14:32:36Z</time>
      </trkpt>
      <trkpt lat="46.48776" lon="5.31719">
        <ele>216.2</ele>
        <time>2022-08-25T14:32:39Z</time>
      </trkpt>
      <trkpt lat="46.48783" lon="5.31741">
        <ele>216.2</ele>
        <time>2022-08-25T14:32:41Z</time>
      </trkpt>
      <trkpt lat="46.48782" lon="5.31787">
        <ele>215.8</ele>
        <time>2022-08-25T14:32:45Z</time>
      </trkpt>
      <trkpt lat="46.48785" lon="5.3182">
        <ele>215.8</ele>
        <time>2022-08-25T14:32:48Z</time>
      </trkpt>
      <trkpt lat="46.48788" lon="5.31832">
        <ele>215.6</ele>
        <time>2022-08-25T14:32:49Z</time>
      </trkpt>
      <trkpt lat="46.48791" lon="5.31839">
        <ele>215.6</ele>
        <time>2022-08-25T14:32:50Z</time>
      </trkpt>
      <trkpt lat="46.48803" lon="5.3185">
        <ele>215.6</ele>
        <time>2022-08-25T14:32:52Z</time>
      </trkpt>
      <trkpt lat="46.48817" lon="5.31856">
        <ele>215.4</ele>
        <time>2022-08-25T14:32:54Z</time>
      </trkpt>
      <trkpt lat="46.48831" lon="5.31867">
        <ele>215.2</ele>
        <time>2022-08-25T14:32:56Z</time>
      </trkpt>
      <trkpt lat="46.4884" lon="5.31884">
        <ele>215</ele>
        <time>2022-08-25T14:32:58Z</time>
      </trkpt>
      <trkpt lat="46.48842" lon="5.31895">
        <ele>215</ele>
        <time>2022-08-25T14:32:59Z</time>
      </trkpt>
      <trkpt lat="46.48848" lon="5.31954">
        <ele>215</ele>
        <time>2022-08-25T14:33:05Z</time>
      </trkpt>
      <trkpt lat="46.48847" lon="5.3201">
        <ele>215.6</ele>
        <time>2022-08-25T14:33:11Z</time>
      </trkpt>
      <trkpt lat="46.48839" lon="5.32064">
        <ele>216.4</ele>
        <time>2022-08-25T14:33:17Z</time>
      </trkpt>
      <trkpt lat="46.48835" lon="5.32081">
        <ele>216.4</ele>
        <time>2022-08-25T14:33:19Z</time>
      </trkpt>
      <trkpt lat="46.48827" lon="5.32126">
        <ele>217</ele>
        <time>2022-08-25T14:33:24Z</time>
      </trkpt>
      <trkpt lat="46.48825" lon="5.32153">
        <ele>217.2</ele>
        <time>2022-08-25T14:33:27Z</time>
      </trkpt>
      <trkpt lat="46.48829" lon="5.32197">
        <ele>218</ele>
        <time>2022-08-25T14:33:32Z</time>
      </trkpt>
      <trkpt lat="46.48831" lon="5.32214">
        <ele>218.6</ele>
        <time>2022-08-25T14:33:34Z</time>
      </trkpt>
      <trkpt lat="46.48837" lon="5.32238">
        <ele>219</ele>
        <time>2022-08-25T14:33:37Z</time>
      </trkpt>
      <trkpt lat="46.4884" lon="5.32245">
        <ele>219.4</ele>
        <time>2022-08-25T14:33:38Z</time>
      </trkpt>
      <trkpt lat="46.48844" lon="5.32253">
        <ele>219.8</ele>
        <time>2022-08-25T14:33:39Z</time>
      </trkpt>
      <trkpt lat="46.48865" lon="5.32285">
        <ele>220</ele>
        <time>2022-08-25T14:33:43Z</time>
      </trkpt>
      <trkpt lat="46.489" lon="5.32337">
        <ele>219</ele>
        <time>2022-08-25T14:33:48Z</time>
      </trkpt>
      <trkpt lat="46.48912" lon="5.32363">
        <ele>217.8</ele>
        <time>2022-08-25T14:33:50Z</time>
      </trkpt>
      <trkpt lat="46.48922" lon="5.3239">
        <ele>216.6</ele>
        <time>2022-08-25T14:33:52Z</time>
      </trkpt>
      <trkpt lat="46.48934" lon="5.32427">
        <ele>215.2</ele>
        <time>2022-08-25T14:33:55Z</time>
      </trkpt>
      <trkpt lat="46.48938" lon="5.3244">
        <ele>215</ele>
        <time>2022-08-25T14:33:56Z</time>
      </trkpt>
      <trkpt lat="46.48953" lon="5.3249">
        <ele>214.2</ele>
        <time>2022-08-25T14:34:00Z</time>
      </trkpt>
      <trkpt lat="46.48956" lon="5.32502">
        <ele>214</ele>
        <time>2022-08-25T14:34:01Z</time>
      </trkpt>
      <trkpt lat="46.48961" lon="5.32526">
        <ele>213.8</ele>
        <time>2022-08-25T14:34:03Z</time>
      </trkpt>
      <trkpt lat="46.48959" lon="5.32551">
        <ele>213.8</ele>
        <time>2022-08-25T14:34:05Z</time>
      </trkpt>
      <trkpt lat="46.4895" lon="5.32572">
        <ele>213.8</ele>
        <time>2022-08-25T14:34:07Z</time>
      </trkpt>
      <trkpt lat="46.48943" lon="5.3258">
        <ele>213.8</ele>
        <time>2022-08-25T14:34:08Z</time>
      </trkpt>
      <trkpt lat="46.48927" lon="5.326">
        <ele>214.2</ele>
        <time>2022-08-25T14:34:11Z</time>
      </trkpt>
      <trkpt lat="46.48923" lon="5.32607">
        <ele>214.2</ele>
        <time>2022-08-25T14:34:12Z</time>
      </trkpt>
      <trkpt lat="46.48919" lon="5.32617">
        <ele>214.2</ele>
        <time>2022-08-25T14:34:13Z</time>
      </trkpt>
      <trkpt lat="46.48917" lon="5.32634">
        <ele>214.6</ele>
        <time>2022-08-25T14:34:15Z</time>
      </trkpt>
      <trkpt lat="46.4892" lon="5.32656">
        <ele>215.2</ele>
        <time>2022-08-25T14:34:18Z</time>
      </trkpt>
      <trkpt lat="46.48922" lon="5.32662">
        <ele>215.4</ele>
        <time>2022-08-25T14:34:19Z</time>
      </trkpt>
      <trkpt lat="46.48925" lon="5.32668">
        <ele>215.6</ele>
        <time>2022-08-25T14:34:20Z</time>
      </trkpt>
      <trkpt lat="46.48933" lon="5.32677">
        <ele>216.2</ele>
        <time>2022-08-25T14:34:22Z</time>
      </trkpt>
      <trkpt lat="46.48937" lon="5.32681">
        <ele>216.8</ele>
        <time>2022-08-25T14:34:23Z</time>
      </trkpt>
      <trkpt lat="46.48947" lon="5.32694">
        <ele>217.8</ele>
        <time>2022-08-25T14:34:26Z</time>
      </trkpt>
      <trkpt lat="46.48952" lon="5.32697">
        <ele>218</ele>
        <time>2022-08-25T14:34:27Z</time>
      </trkpt>
      <trkpt lat="46.48955" lon="5.32702">
        <ele>218</ele>
        <time>2022-08-25T14:34:28Z</time>
      </trkpt>
      <trkpt lat="46.48962" lon="5.32708">
        <ele>218.8</ele>
        <time>2022-08-25T14:34:30Z</time>
      </trkpt>
      <trkpt lat="46.48969" lon="5.32712">
        <ele>219.2</ele>
        <time>2022-08-25T14:34:32Z</time>
      </trkpt>
      <trkpt lat="46.48972" lon="5.32714">
        <ele>219.4</ele>
        <time>2022-08-25T14:34:33Z</time>
      </trkpt>
      <trkpt lat="46.48976" lon="5.32715">
        <ele>219.6</ele>
        <time>2022-08-25T14:34:34Z</time>
      </trkpt>
      <trkpt lat="46.48987" lon="5.32716">
        <ele>220.4</ele>
        <time>2022-08-25T14:34:37Z</time>
      </trkpt>
      <trkpt lat="46.48991" lon="5.32716">
        <ele>220.4</ele>
        <time>2022-08-25T14:34:38Z</time>
      </trkpt>
      <trkpt lat="46.49005" lon="5.32714">
        <ele>221.4</ele>
        <time>2022-08-25T14:34:42Z</time>
      </trkpt>
      <trkpt lat="46.49015" lon="5.32713">
        <ele>221.8</ele>
        <time>2022-08-25T14:34:45Z</time>
      </trkpt>
      <trkpt lat="46.49023" lon="5.32712">
        <ele>222.4</ele>
        <time>2022-08-25T14:34:47Z</time>
      </trkpt>
      <trkpt lat="46.49044" lon="5.32707">
        <ele>223.2</ele>
        <time>2022-08-25T14:34:53Z</time>
      </trkpt>
      <trkpt lat="46.49052" lon="5.32705">
        <ele>223.4</ele>
        <time>2022-08-25T14:34:55Z</time>
      </trkpt>
      <trkpt lat="46.49069" lon="5.32701">
        <ele>224</ele>
        <time>2022-08-25T14:35:00Z</time>
      </trkpt>
      <trkpt lat="46.4908" lon="5.327">
        <ele>224.6</ele>
        <time>2022-08-25T14:35:03Z</time>
      </trkpt>
      <trkpt lat="46.49097" lon="5.32697">
        <ele>225.8</ele>
        <time>2022-08-25T14:35:08Z</time>
      </trkpt>
      <trkpt lat="46.49116" lon="5.32703">
        <ele>226.6</ele>
        <time>2022-08-25T14:35:13Z</time>
      </trkpt>
      <trkpt lat="46.49122" lon="5.32711">
        <ele>227</ele>
        <time>2022-08-25T14:35:15Z</time>
      </trkpt>
      <trkpt lat="46.49129" lon="5.32726">
        <ele>227.6</ele>
        <time>2022-08-25T14:35:18Z</time>
      </trkpt>
      <trkpt lat="46.49135" lon="5.32751">
        <ele>228.4</ele>
        <time>2022-08-25T14:35:22Z</time>
      </trkpt>
      <trkpt lat="46.4914" lon="5.3278">
        <ele>228.8</ele>
        <time>2022-08-25T14:35:26Z</time>
      </trkpt>
      <trkpt lat="46.49143" lon="5.32807">
        <ele>228.8</ele>
        <time>2022-08-25T14:35:29Z</time>
      </trkpt>
      <trkpt lat="46.49143" lon="5.32817">
        <ele>228.8</ele>
        <time>2022-08-25T14:35:30Z</time>
      </trkpt>
      <trkpt lat="46.49142" lon="5.32828">
        <ele>228.8</ele>
        <time>2022-08-25T14:35:31Z</time>
      </trkpt>
      <trkpt lat="46.49135" lon="5.32859">
        <ele>228.6</ele>
        <time>2022-08-25T14:35:34Z</time>
      </trkpt>
      <trkpt lat="46.49126" lon="5.32898">
        <ele>228.4</ele>
        <time>2022-08-25T14:35:38Z</time>
      </trkpt>
      <trkpt lat="46.49125" lon="5.32908">
        <ele>228.4</ele>
        <time>2022-08-25T14:35:39Z</time>
      </trkpt>
      <trkpt lat="46.49125" lon="5.32918">
        <ele>228.4</ele>
        <time>2022-08-25T14:35:40Z</time>
      </trkpt>
      <trkpt lat="46.49126" lon="5.32949">
        <ele>228.4</ele>
        <time>2022-08-25T14:35:43Z</time>
      </trkpt>
      <trkpt lat="46.49131" lon="5.33008">
        <ele>228.8</ele>
        <time>2022-08-25T14:35:49Z</time>
      </trkpt>
      <trkpt lat="46.49136" lon="5.33034">
        <ele>229.4</ele>
        <time>2022-08-25T14:35:52Z</time>
      </trkpt>
      <trkpt lat="46.49138" lon="5.33053">
        <ele>229.8</ele>
        <time>2022-08-25T14:35:54Z</time>
      </trkpt>
      <trkpt lat="46.49139" lon="5.33061">
        <ele>230</ele>
        <time>2022-08-25T14:35:55Z</time>
      </trkpt>
      <trkpt lat="46.49146" lon="5.33088">
        <ele>230.2</ele>
        <time>2022-08-25T14:35:58Z</time>
      </trkpt>
      <trkpt lat="46.49152" lon="5.33108">
        <ele>230.4</ele>
        <time>2022-08-25T14:36:00Z</time>
      </trkpt>
      <trkpt lat="46.4916" lon="5.33124">
        <ele>230.4</ele>
        <time>2022-08-25T14:36:02Z</time>
      </trkpt>
      <trkpt lat="46.4919" lon="5.33153">
        <ele>230.4</ele>
        <time>2022-08-25T14:36:07Z</time>
      </trkpt>
      <trkpt lat="46.49195" lon="5.33159">
        <ele>230.4</ele>
        <time>2022-08-25T14:36:08Z</time>
      </trkpt>
      <trkpt lat="46.49236" lon="5.33192">
        <ele>230.8</ele>
        <time>2022-08-25T14:36:15Z</time>
      </trkpt>
      <trkpt lat="46.49252" lon="5.33211">
        <ele>231.2</ele>
        <time>2022-08-25T14:36:18Z</time>
      </trkpt>
      <trkpt lat="46.49257" lon="5.33219">
        <ele>231.2</ele>
        <time>2022-08-25T14:36:19Z</time>
      </trkpt>
      <trkpt lat="46.49262" lon="5.33227">
        <ele>231.2</ele>
        <time>2022-08-25T14:36:20Z</time>
      </trkpt>
      <trkpt lat="46.49267" lon="5.33245">
        <ele>231.4</ele>
        <time>2022-08-25T14:36:22Z</time>
      </trkpt>
      <trkpt lat="46.4927" lon="5.33254">
        <ele>231.4</ele>
        <time>2022-08-25T14:36:23Z</time>
      </trkpt>
      <trkpt lat="46.49281" lon="5.33317">
        <ele>232.6</ele>
        <time>2022-08-25T14:36:30Z</time>
      </trkpt>
      <trkpt lat="46.49294" lon="5.33379">
        <ele>233.4</ele>
        <time>2022-08-25T14:36:37Z</time>
      </trkpt>
      <trkpt lat="46.49298" lon="5.33396">
        <ele>233.8</ele>
        <time>2022-08-25T14:36:39Z</time>
      </trkpt>
      <trkpt lat="46.49307" lon="5.33447">
        <ele>234.6</ele>
        <time>2022-08-25T14:36:45Z</time>
      </trkpt>
      <trkpt lat="46.49309" lon="5.33456">
        <ele>234.8</ele>
        <time>2022-08-25T14:36:46Z</time>
      </trkpt>
      <trkpt lat="46.49315" lon="5.33501">
        <ele>235.6</ele>
        <time>2022-08-25T14:36:51Z</time>
      </trkpt>
      <trkpt lat="46.49318" lon="5.33551">
        <ele>235.8</ele>
        <time>2022-08-25T14:36:56Z</time>
      </trkpt>
      <trkpt lat="46.49317" lon="5.33561">
        <ele>235.8</ele>
        <time>2022-08-25T14:36:57Z</time>
      </trkpt>
      <trkpt lat="46.49316" lon="5.33571">
        <ele>235.8</ele>
        <time>2022-08-25T14:36:58Z</time>
      </trkpt>
      <trkpt lat="46.49307" lon="5.3362">
        <ele>235.8</ele>
        <time>2022-08-25T14:37:03Z</time>
      </trkpt>
      <trkpt lat="46.49302" lon="5.33682">
        <ele>235.8</ele>
        <time>2022-08-25T14:37:09Z</time>
      </trkpt>
      <trkpt lat="46.49302" lon="5.33703">
        <ele>236</ele>
        <time>2022-08-25T14:37:11Z</time>
      </trkpt>
      <trkpt lat="46.49295" lon="5.33761">
        <ele>236.4</ele>
        <time>2022-08-25T14:37:17Z</time>
      </trkpt>
      <trkpt lat="46.49284" lon="5.33825">
        <ele>236.8</ele>
        <time>2022-08-25T14:37:24Z</time>
      </trkpt>
      <trkpt lat="46.49282" lon="5.33835">
        <ele>236.8</ele>
        <time>2022-08-25T14:37:25Z</time>
      </trkpt>
      <trkpt lat="46.4928" lon="5.33844">
        <ele>236.8</ele>
        <time>2022-08-25T14:37:26Z</time>
      </trkpt>
      <trkpt lat="46.49267" lon="5.33921">
        <ele>237.4</ele>
        <time>2022-08-25T14:37:34Z</time>
      </trkpt>
      <trkpt lat="46.49265" lon="5.3393">
        <ele>237.4</ele>
        <time>2022-08-25T14:37:35Z</time>
      </trkpt>
      <trkpt lat="46.4925" lon="5.34008">
        <ele>237.6</ele>
        <time>2022-08-25T14:37:43Z</time>
      </trkpt>
      <trkpt lat="46.49246" lon="5.34027">
        <ele>237.6</ele>
        <time>2022-08-25T14:37:45Z</time>
      </trkpt>
      <trkpt lat="46.49231" lon="5.3411">
        <ele>237.4</ele>
        <time>2022-08-25T14:37:53Z</time>
      </trkpt>
      <trkpt lat="46.49216" lon="5.34184">
        <ele>236.4</ele>
        <time>2022-08-25T14:37:59Z</time>
      </trkpt>
      <trkpt lat="46.49208" lon="5.34221">
        <ele>235.6</ele>
        <time>2022-08-25T14:38:02Z</time>
      </trkpt>
      <trkpt lat="46.49197" lon="5.3428">
        <ele>235.2</ele>
        <time>2022-08-25T14:38:07Z</time>
      </trkpt>
      <trkpt lat="46.4919" lon="5.34322">
        <ele>235.2</ele>
        <time>2022-08-25T14:38:11Z</time>
      </trkpt>
      <trkpt lat="46.49184" lon="5.34351">
        <ele>235.6</ele>
        <time>2022-08-25T14:38:14Z</time>
      </trkpt>
      <trkpt lat="46.49173" lon="5.34407">
        <ele>235.8</ele>
        <time>2022-08-25T14:38:19Z</time>
      </trkpt>
      <trkpt lat="46.49156" lon="5.34493">
        <ele>235</ele>
        <time>2022-08-25T14:38:26Z</time>
      </trkpt>
      <trkpt lat="46.4915" lon="5.34528">
        <ele>234.6</ele>
        <time>2022-08-25T14:38:29Z</time>
      </trkpt>
      <trkpt lat="46.49144" lon="5.3456">
        <ele>234.6</ele>
        <time>2022-08-25T14:38:32Z</time>
      </trkpt>
      <trkpt lat="46.49134" lon="5.34609">
        <ele>235.2</ele>
        <time>2022-08-25T14:38:37Z</time>
      </trkpt>
      <trkpt lat="46.49126" lon="5.34651">
        <ele>235.6</ele>
        <time>2022-08-25T14:38:41Z</time>
      </trkpt>
      <trkpt lat="46.49119" lon="5.34686">
        <ele>235.8</ele>
        <time>2022-08-25T14:38:44Z</time>
      </trkpt>
      <trkpt lat="46.49104" lon="5.34762">
        <ele>235.4</ele>
        <time>2022-08-25T14:38:51Z</time>
      </trkpt>
      <trkpt lat="46.49096" lon="5.34812">
        <ele>235.4</ele>
        <time>2022-08-25T14:38:56Z</time>
      </trkpt>
      <trkpt lat="46.49092" lon="5.3483">
        <ele>235.4</ele>
        <time>2022-08-25T14:38:58Z</time>
      </trkpt>
      <trkpt lat="46.49084" lon="5.34868">
        <ele>235.8</ele>
        <time>2022-08-25T14:39:02Z</time>
      </trkpt>
      <trkpt lat="46.49072" lon="5.34931">
        <ele>236.8</ele>
        <time>2022-08-25T14:39:09Z</time>
      </trkpt>
      <trkpt lat="46.49059" lon="5.34999">
        <ele>237.8</ele>
        <time>2022-08-25T14:39:17Z</time>
      </trkpt>
      <trkpt lat="46.49056" lon="5.35015">
        <ele>238.2</ele>
        <time>2022-08-25T14:39:19Z</time>
      </trkpt>
      <trkpt lat="46.4905" lon="5.35047">
        <ele>238.8</ele>
        <time>2022-08-25T14:39:23Z</time>
      </trkpt>
      <trkpt lat="46.49049" lon="5.35054">
        <ele>239</ele>
        <time>2022-08-25T14:39:24Z</time>
      </trkpt>
      <trkpt lat="46.49036" lon="5.35109">
        <ele>240</ele>
        <time>2022-08-25T14:39:31Z</time>
      </trkpt>
      <trkpt lat="46.49033" lon="5.35117">
        <ele>240</ele>
        <time>2022-08-25T14:39:32Z</time>
      </trkpt>
      <trkpt lat="46.49014" lon="5.35168">
        <ele>240.2</ele>
        <time>2022-08-25T14:39:39Z</time>
      </trkpt>
      <trkpt lat="46.48989" lon="5.35222">
        <ele>240.2</ele>
        <time>2022-08-25T14:39:45Z</time>
      </trkpt>
      <trkpt lat="46.48958" lon="5.35292">
        <ele>239.6</ele>
        <time>2022-08-25T14:39:52Z</time>
      </trkpt>
      <trkpt lat="46.48953" lon="5.35302">
        <ele>239.6</ele>
        <time>2022-08-25T14:39:53Z</time>
      </trkpt>
      <trkpt lat="46.48927" lon="5.35361">
        <ele>239</ele>
        <time>2022-08-25T14:39:59Z</time>
      </trkpt>
      <trkpt lat="46.48918" lon="5.3538">
        <ele>238.8</ele>
        <time>2022-08-25T14:40:01Z</time>
      </trkpt>
      <trkpt lat="46.48891" lon="5.3544">
        <ele>238.8</ele>
        <time>2022-08-25T14:40:08Z</time>
      </trkpt>
      <trkpt lat="46.48865" lon="5.35499">
        <ele>239.4</ele>
        <time>2022-08-25T14:40:15Z</time>
      </trkpt>
      <trkpt lat="46.48858" lon="5.35515">
        <ele>239.6</ele>
        <time>2022-08-25T14:40:17Z</time>
      </trkpt>
      <trkpt lat="46.4883" lon="5.35581">
        <ele>240</ele>
        <time>2022-08-25T14:40:25Z</time>
      </trkpt>
      <trkpt lat="46.48801" lon="5.35648">
        <ele>239.8</ele>
        <time>2022-08-25T14:40:33Z</time>
      </trkpt>
      <trkpt lat="46.48798" lon="5.35656">
        <ele>239.8</ele>
        <time>2022-08-25T14:40:34Z</time>
      </trkpt>
      <trkpt lat="46.48776" lon="5.35705">
        <ele>239.6</ele>
        <time>2022-08-25T14:40:40Z</time>
      </trkpt>
      <trkpt lat="46.48747" lon="5.35772">
        <ele>239.6</ele>
        <time>2022-08-25T14:40:48Z</time>
      </trkpt>
      <trkpt lat="46.48715" lon="5.35843">
        <ele>239.4</ele>
        <time>2022-08-25T14:40:57Z</time>
      </trkpt>
      <trkpt lat="46.487" lon="5.35876">
        <ele>239.8</ele>
        <time>2022-08-25T14:41:02Z</time>
      </trkpt>
      <trkpt lat="46.48698" lon="5.35883">
        <ele>239.8</ele>
        <time>2022-08-25T14:41:03Z</time>
      </trkpt>
      <trkpt lat="46.48686" lon="5.35924">
        <ele>240.8</ele>
        <time>2022-08-25T14:41:08Z</time>
      </trkpt>
      <trkpt lat="46.48684" lon="5.35942">
        <ele>241.6</ele>
        <time>2022-08-25T14:41:10Z</time>
      </trkpt>
      <trkpt lat="46.48676" lon="5.35987">
        <ele>242</ele>
        <time>2022-08-25T14:41:15Z</time>
      </trkpt>
      <trkpt lat="46.48675" lon="5.35995">
        <ele>242.2</ele>
        <time>2022-08-25T14:41:16Z</time>
      </trkpt>
      <trkpt lat="46.48663" lon="5.36057">
        <ele>242.4</ele>
        <time>2022-08-25T14:41:22Z</time>
      </trkpt>
      <trkpt lat="46.48644" lon="5.36138">
        <ele>240.8</ele>
        <time>2022-08-25T14:41:29Z</time>
      </trkpt>
      <trkpt lat="46.48643" lon="5.36149">
        <ele>240.6</ele>
        <time>2022-08-25T14:41:30Z</time>
      </trkpt>
      <trkpt lat="46.48638" lon="5.36204">
        <ele>240.6</ele>
        <time>2022-08-25T14:41:35Z</time>
      </trkpt>
      <trkpt lat="46.4863" lon="5.36282">
        <ele>241</ele>
        <time>2022-08-25T14:41:43Z</time>
      </trkpt>
      <trkpt lat="46.48628" lon="5.36291">
        <ele>241.2</ele>
        <time>2022-08-25T14:41:44Z</time>
      </trkpt>
      <trkpt lat="46.48623" lon="5.36306">
        <ele>241.4</ele>
        <time>2022-08-25T14:41:46Z</time>
      </trkpt>
      <trkpt lat="46.48619" lon="5.36312">
        <ele>241.6</ele>
        <time>2022-08-25T14:41:47Z</time>
      </trkpt>
      <trkpt lat="46.48615" lon="5.36317">
        <ele>241.6</ele>
        <time>2022-08-25T14:41:48Z</time>
      </trkpt>
      <trkpt lat="46.48605" lon="5.36323">
        <ele>242</ele>
        <time>2022-08-25T14:41:50Z</time>
      </trkpt>
      <trkpt lat="46.48577" lon="5.36329">
        <ele>243</ele>
        <time>2022-08-25T14:41:56Z</time>
      </trkpt>
      <trkpt lat="46.48562" lon="5.3633">
        <ele>244</ele>
        <time>2022-08-25T14:41:59Z</time>
      </trkpt>
      <trkpt lat="46.48538" lon="5.36333">
        <ele>244.8</ele>
        <time>2022-08-25T14:42:04Z</time>
      </trkpt>
      <trkpt lat="46.48528" lon="5.36335">
        <ele>245.2</ele>
        <time>2022-08-25T14:42:06Z</time>
      </trkpt>
      <trkpt lat="46.48498" lon="5.36339">
        <ele>246.2</ele>
        <time>2022-08-25T14:42:12Z</time>
      </trkpt>
      <trkpt lat="46.48487" lon="5.36341">
        <ele>246.4</ele>
        <time>2022-08-25T14:42:14Z</time>
      </trkpt>
      <trkpt lat="46.48454" lon="5.36345">
        <ele>246.6</ele>
        <time>2022-08-25T14:42:20Z</time>
      </trkpt>
      <trkpt lat="46.48415" lon="5.36357">
        <ele>247.2</ele>
        <time>2022-08-25T14:42:27Z</time>
      </trkpt>
      <trkpt lat="46.48409" lon="5.3636">
        <ele>247.4</ele>
        <time>2022-08-25T14:42:28Z</time>
      </trkpt>
      <trkpt lat="46.48394" lon="5.36372">
        <ele>247.6</ele>
        <time>2022-08-25T14:42:31Z</time>
      </trkpt>
      <trkpt lat="46.48384" lon="5.36382">
        <ele>247.8</ele>
        <time>2022-08-25T14:42:33Z</time>
      </trkpt>
      <trkpt lat="46.48348" lon="5.36422">
        <ele>248.4</ele>
        <time>2022-08-25T14:42:41Z</time>
      </trkpt>
      <trkpt lat="46.48344" lon="5.36427">
        <ele>248.4</ele>
        <time>2022-08-25T14:42:42Z</time>
      </trkpt>
      <trkpt lat="46.48306" lon="5.36468">
        <ele>249.2</ele>
        <time>2022-08-25T14:42:51Z</time>
      </trkpt>
      <trkpt lat="46.48294" lon="5.36481">
        <ele>249.6</ele>
        <time>2022-08-25T14:42:54Z</time>
      </trkpt>
      <trkpt lat="46.48278" lon="5.36499">
        <ele>250</ele>
        <time>2022-08-25T14:42:58Z</time>
      </trkpt>
      <trkpt lat="46.48267" lon="5.36512">
        <ele>250.2</ele>
        <time>2022-08-25T14:43:01Z</time>
      </trkpt>
      <trkpt lat="46.48252" lon="5.36528">
        <ele>250.6</ele>
        <time>2022-08-25T14:43:05Z</time>
      </trkpt>
      <trkpt lat="46.48233" lon="5.36549">
        <ele>251.2</ele>
        <time>2022-08-25T14:43:10Z</time>
      </trkpt>
      <trkpt lat="46.48221" lon="5.3656">
        <ele>251.6</ele>
        <time>2022-08-25T14:43:13Z</time>
      </trkpt>
      <trkpt lat="46.48212" lon="5.36561">
        <ele>251.6</ele>
        <time>2022-08-25T14:43:15Z</time>
      </trkpt>
      <trkpt lat="46.48203" lon="5.36561">
        <ele>251.6</ele>
        <time>2022-08-25T14:43:17Z</time>
      </trkpt>
      <trkpt lat="46.48194" lon="5.36567">
        <ele>251.8</ele>
        <time>2022-08-25T14:43:19Z</time>
      </trkpt>
      <trkpt lat="46.48188" lon="5.36578">
        <ele>252</ele>
        <time>2022-08-25T14:43:21Z</time>
      </trkpt>
      <trkpt lat="46.48186" lon="5.36585">
        <ele>252.2</ele>
        <time>2022-08-25T14:43:22Z</time>
      </trkpt>
      <trkpt lat="46.48181" lon="5.36599">
        <ele>252.4</ele>
        <time>2022-08-25T14:43:24Z</time>
      </trkpt>
      <trkpt lat="46.48178" lon="5.36605">
        <ele>252.6</ele>
        <time>2022-08-25T14:43:25Z</time>
      </trkpt>
      <trkpt lat="46.48174" lon="5.3661">
        <ele>252.6</ele>
        <time>2022-08-25T14:43:26Z</time>
      </trkpt>
      <trkpt lat="46.48169" lon="5.36616">
        <ele>252.8</ele>
        <time>2022-08-25T14:43:27Z</time>
      </trkpt>
      <trkpt lat="46.48147" lon="5.36639">
        <ele>253.2</ele>
        <time>2022-08-25T14:43:32Z</time>
      </trkpt>
      <trkpt lat="46.48132" lon="5.36655">
        <ele>253.6</ele>
        <time>2022-08-25T14:43:36Z</time>
      </trkpt>
      <trkpt lat="46.48119" lon="5.36666">
        <ele>254</ele>
        <time>2022-08-25T14:43:39Z</time>
      </trkpt>
      <trkpt lat="46.48112" lon="5.36674">
        <ele>254</ele>
        <time>2022-08-25T14:43:41Z</time>
      </trkpt>
      <trkpt lat="46.48102" lon="5.36687">
        <ele>254.4</ele>
        <time>2022-08-25T14:43:44Z</time>
      </trkpt>
      <trkpt lat="46.48101" lon="5.36692">
        <ele>254.4</ele>
        <time>2022-08-25T14:43:45Z</time>
      </trkpt>
      <trkpt lat="46.48103" lon="5.36703">
        <ele>254.6</ele>
        <time>2022-08-25T14:43:47Z</time>
      </trkpt>
      <trkpt lat="46.48106" lon="5.36707">
        <ele>254.8</ele>
        <time>2022-08-25T14:43:48Z</time>
      </trkpt>
      <trkpt lat="46.48115" lon="5.36713">
        <ele>255</ele>
        <time>2022-08-25T14:43:50Z</time>
      </trkpt>
      <trkpt lat="46.48131" lon="5.36727">
        <ele>255.6</ele>
        <time>2022-08-25T14:43:54Z</time>
      </trkpt>
      <trkpt lat="46.48146" lon="5.3674">
        <ele>256.2</ele>
        <time>2022-08-25T14:43:58Z</time>
      </trkpt>
      <trkpt lat="46.48162" lon="5.36753">
        <ele>257</ele>
        <time>2022-08-25T14:44:02Z</time>
      </trkpt>
      <trkpt lat="46.48166" lon="5.36756">
        <ele>257.4</ele>
        <time>2022-08-25T14:44:03Z</time>
      </trkpt>
      <trkpt lat="46.4818" lon="5.36767">
        <ele>258.4</ele>
        <time>2022-08-25T14:44:07Z</time>
      </trkpt>
      <trkpt lat="46.48184" lon="5.36769">
        <ele>258.6</ele>
        <time>2022-08-25T14:44:08Z</time>
      </trkpt>
      <trkpt lat="46.48191" lon="5.36774">
        <ele>259</ele>
        <time>2022-08-25T14:44:10Z</time>
      </trkpt>
      <trkpt lat="46.48206" lon="5.36786">
        <ele>259.6</ele>
        <time>2022-08-25T14:44:14Z</time>
      </trkpt>
      <trkpt lat="46.48219" lon="5.36797">
        <ele>260.4</ele>
        <time>2022-08-25T14:44:18Z</time>
      </trkpt>
      <trkpt lat="46.48222" lon="5.368">
        <ele>260.6</ele>
        <time>2022-08-25T14:44:19Z</time>
      </trkpt>
      <trkpt lat="46.48237" lon="5.36812">
        <ele>262</ele>
        <time>2022-08-25T14:44:24Z</time>
      </trkpt>
      <trkpt lat="46.4825" lon="5.36824">
        <ele>262.6</ele>
        <time>2022-08-25T14:44:28Z</time>
      </trkpt>
      <trkpt lat="46.48256" lon="5.3683">
        <ele>263</ele>
        <time>2022-08-25T14:44:30Z</time>
      </trkpt>
    </trkseg>
  </trk>
</gpx>